<?xml version="1.0" encoding="UTF-8"?>
<gpx version="1.1" creator="https://www.youtrack.es" xsi:schemaLocation="http://www.topografix.com/GPX/1/1 http://www.topografix.com/GPX/1/1/gpx.xsd http://www.garmin.com/xmlschemas/GpxExtensions/v3 http://www.garmin.com/xmlschemas/GpxExtensionsv3.xsd http://www.garmin.com/xmlschemas/TrackPointExtension/v1 http://www.garmin.com/xmlschemas/TrackPointExtensionv1.xsd" xmlns:gpxtpx="http://www.garmin.com/xmlschemas/TrackPointExtension/v1" xmlns:gpxx="http://www.garmin.com/xmlschemas/GpxExtensions/v3" xmlns:xsi="http://www.w3.org/2001/XMLSchema-instance">
  <metadata>
    <author>
      <name>Dani Carreño</name>
      <email id="d.carrenonin" domain="gmail.com"/>
    </author>
    <link href="https://www.youtrack.es">
      <text>YouTrack.es</text>
    </link>
    <time>2026-05-09T01:21:33Z</time>
  </metadata>
  <trk>
    <src>https://www.youtrack.es</src>
    <link href="https://www.youtrack.es/ruta/6096-33g">
      <text>YouTrack.es</text>
    </link>
    <trkseg>
      <trkpt lat="40.5439500" lon="-3.9014030">
        <ele>761.8</ele>
        <time>2019-05-28T08:38:03Z</time>
      </trkpt>
      <trkpt lat="40.5440020" lon="-3.9013940">
        <ele>761.6</ele>
        <time>2019-05-28T08:38:04Z</time>
      </trkpt>
      <trkpt lat="40.5440540" lon="-3.9013820">
        <ele>761.6</ele>
        <time>2019-05-28T08:38:05Z</time>
      </trkpt>
      <trkpt lat="40.5441050" lon="-3.9013710">
        <ele>761.6</ele>
        <time>2019-05-28T08:38:06Z</time>
      </trkpt>
      <trkpt lat="40.5441580" lon="-3.9013680">
        <ele>761.4</ele>
        <time>2019-05-28T08:38:07Z</time>
      </trkpt>
      <trkpt lat="40.5442130" lon="-3.9013740">
        <ele>761.4</ele>
        <time>2019-05-28T08:38:08Z</time>
      </trkpt>
      <trkpt lat="40.5443250" lon="-3.9014130">
        <ele>761.0</ele>
        <time>2019-05-28T08:38:10Z</time>
      </trkpt>
      <trkpt lat="40.5444910" lon="-3.9015390">
        <ele>760.2</ele>
        <time>2019-05-28T08:38:13Z</time>
      </trkpt>
      <trkpt lat="40.5445450" lon="-3.9015960">
        <ele>759.8</ele>
        <time>2019-05-28T08:38:14Z</time>
      </trkpt>
      <trkpt lat="40.5446550" lon="-3.9017190">
        <ele>758.8</ele>
        <time>2019-05-28T08:38:16Z</time>
      </trkpt>
      <trkpt lat="40.5448370" lon="-3.9019070">
        <ele>757.6</ele>
        <time>2019-05-28T08:38:19Z</time>
      </trkpt>
      <trkpt lat="40.5449020" lon="-3.9019560">
        <ele>757.0</ele>
        <time>2019-05-28T08:38:20Z</time>
      </trkpt>
      <trkpt lat="40.5450970" lon="-3.9020260">
        <ele>758.8</ele>
        <time>2019-05-28T08:38:23Z</time>
      </trkpt>
      <trkpt lat="40.5452850" lon="-3.9019310">
        <ele>757.4</ele>
        <time>2019-05-28T08:38:27Z</time>
      </trkpt>
      <trkpt lat="40.5453200" lon="-3.9018110">
        <ele>757.0</ele>
        <time>2019-05-28T08:38:29Z</time>
      </trkpt>
      <trkpt lat="40.5453290" lon="-3.9016910">
        <ele>757.0</ele>
        <time>2019-05-28T08:38:31Z</time>
      </trkpt>
      <trkpt lat="40.5453370" lon="-3.9015850">
        <ele>757.0</ele>
        <time>2019-05-28T08:38:33Z</time>
      </trkpt>
      <trkpt lat="40.5453640" lon="-3.9014360">
        <ele>757.0</ele>
        <time>2019-05-28T08:38:36Z</time>
      </trkpt>
      <trkpt lat="40.5453880" lon="-3.9013020">
        <ele>757.6</ele>
        <time>2019-05-28T08:38:39Z</time>
      </trkpt>
      <trkpt lat="40.5453910" lon="-3.9012200">
        <ele>758.2</ele>
        <time>2019-05-28T08:38:41Z</time>
      </trkpt>
      <trkpt lat="40.5453900" lon="-3.9011750">
        <ele>758.6</ele>
        <time>2019-05-28T08:38:42Z</time>
      </trkpt>
      <trkpt lat="40.5454010" lon="-3.9010800">
        <ele>759.0</ele>
        <time>2019-05-28T08:38:44Z</time>
      </trkpt>
      <trkpt lat="40.5454170" lon="-3.9009880">
        <ele>759.6</ele>
        <time>2019-05-28T08:38:46Z</time>
      </trkpt>
      <trkpt lat="40.5454540" lon="-3.9008520">
        <ele>760.6</ele>
        <time>2019-05-28T08:38:49Z</time>
      </trkpt>
      <trkpt lat="40.5454660" lon="-3.9008090">
        <ele>760.8</ele>
        <time>2019-05-28T08:38:50Z</time>
      </trkpt>
      <trkpt lat="40.5455010" lon="-3.9006730">
        <ele>762.0</ele>
        <time>2019-05-28T08:38:53Z</time>
      </trkpt>
      <trkpt lat="40.5455600" lon="-3.9004950">
        <ele>763.4</ele>
        <time>2019-05-28T08:38:57Z</time>
      </trkpt>
      <trkpt lat="40.5456280" lon="-3.9003230">
        <ele>764.6</ele>
        <time>2019-05-28T08:39:01Z</time>
      </trkpt>
      <trkpt lat="40.5457090" lon="-3.9000690">
        <ele>765.8</ele>
        <time>2019-05-28T08:39:07Z</time>
      </trkpt>
      <trkpt lat="40.5457790" lon="-3.8998570">
        <ele>766.8</ele>
        <time>2019-05-28T08:39:12Z</time>
      </trkpt>
      <trkpt lat="40.5458650" lon="-3.8996580">
        <ele>767.8</ele>
        <time>2019-05-28T08:39:17Z</time>
      </trkpt>
      <trkpt lat="40.5458820" lon="-3.8996180">
        <ele>768.0</ele>
        <time>2019-05-28T08:39:18Z</time>
      </trkpt>
      <trkpt lat="40.5460460" lon="-3.8993130">
        <ele>769.0</ele>
        <time>2019-05-28T08:39:26Z</time>
      </trkpt>
      <trkpt lat="40.5461580" lon="-3.8991160">
        <ele>770.2</ele>
        <time>2019-05-28T08:39:31Z</time>
      </trkpt>
      <trkpt lat="40.5463060" lon="-3.8988660">
        <ele>771.2</ele>
        <time>2019-05-28T08:39:37Z</time>
      </trkpt>
      <trkpt lat="40.5465410" lon="-3.8985370">
        <ele>772.4</ele>
        <time>2019-05-28T08:39:45Z</time>
      </trkpt>
      <trkpt lat="40.5467330" lon="-3.8983070">
        <ele>773.2</ele>
        <time>2019-05-28T08:39:51Z</time>
      </trkpt>
      <trkpt lat="40.5468000" lon="-3.8982270">
        <ele>773.4</ele>
        <time>2019-05-28T08:39:53Z</time>
      </trkpt>
      <trkpt lat="40.5469050" lon="-3.8981090">
        <ele>773.4</ele>
        <time>2019-05-28T08:39:56Z</time>
      </trkpt>
      <trkpt lat="40.5470990" lon="-3.8979220">
        <ele>773.4</ele>
        <time>2019-05-28T08:40:01Z</time>
      </trkpt>
      <trkpt lat="40.5472230" lon="-3.8978100">
        <ele>773.2</ele>
        <time>2019-05-28T08:40:04Z</time>
      </trkpt>
      <trkpt lat="40.5473160" lon="-3.8977350">
        <ele>773.2</ele>
        <time>2019-05-28T08:40:06Z</time>
      </trkpt>
      <trkpt lat="40.5473660" lon="-3.8976980">
        <ele>773.2</ele>
        <time>2019-05-28T08:40:07Z</time>
      </trkpt>
      <trkpt lat="40.5477110" lon="-3.8974480">
        <ele>772.4</ele>
        <time>2019-05-28T08:40:13Z</time>
      </trkpt>
      <trkpt lat="40.5479770" lon="-3.8972820">
        <ele>771.2</ele>
        <time>2019-05-28T08:40:17Z</time>
      </trkpt>
      <trkpt lat="40.5481710" lon="-3.8971600">
        <ele>770.4</ele>
        <time>2019-05-28T08:40:20Z</time>
      </trkpt>
      <trkpt lat="40.5483000" lon="-3.8970830">
        <ele>770.0</ele>
        <time>2019-05-28T08:40:22Z</time>
      </trkpt>
      <trkpt lat="40.5484660" lon="-3.8969450">
        <ele>769.8</ele>
        <time>2019-05-28T08:40:25Z</time>
      </trkpt>
      <trkpt lat="40.5483040" lon="-3.8966180">
        <ele>769.8</ele>
        <time>2019-05-28T08:40:32Z</time>
      </trkpt>
      <trkpt lat="40.5482580" lon="-3.8966060">
        <ele>769.8</ele>
        <time>2019-05-28T08:40:33Z</time>
      </trkpt>
      <trkpt lat="40.5481280" lon="-3.8965870">
        <ele>771.0</ele>
        <time>2019-05-28T08:40:36Z</time>
      </trkpt>
      <trkpt lat="40.5480870" lon="-3.8965850">
        <ele>771.2</ele>
        <time>2019-05-28T08:40:37Z</time>
      </trkpt>
      <trkpt lat="40.5480090" lon="-3.8965880">
        <ele>772.2</ele>
        <time>2019-05-28T08:40:39Z</time>
      </trkpt>
      <trkpt lat="40.5479290" lon="-3.8965910">
        <ele>773.0</ele>
        <time>2019-05-28T08:40:41Z</time>
      </trkpt>
      <trkpt lat="40.5478880" lon="-3.8965910">
        <ele>773.6</ele>
        <time>2019-05-28T08:40:42Z</time>
      </trkpt>
      <trkpt lat="40.5477620" lon="-3.8965890">
        <ele>774.8</ele>
        <time>2019-05-28T08:40:45Z</time>
      </trkpt>
      <trkpt lat="40.5476750" lon="-3.8965810">
        <ele>775.4</ele>
        <time>2019-05-28T08:40:47Z</time>
      </trkpt>
      <trkpt lat="40.5475850" lon="-3.8965670">
        <ele>776.0</ele>
        <time>2019-05-28T08:40:49Z</time>
      </trkpt>
      <trkpt lat="40.5473620" lon="-3.8964930">
        <ele>777.2</ele>
        <time>2019-05-28T08:40:54Z</time>
      </trkpt>
      <trkpt lat="40.5471970" lon="-3.8963880">
        <ele>778.2</ele>
        <time>2019-05-28T08:40:58Z</time>
      </trkpt>
      <trkpt lat="40.5471650" lon="-3.8963460">
        <ele>778.2</ele>
        <time>2019-05-28T08:40:59Z</time>
      </trkpt>
      <trkpt lat="40.5470280" lon="-3.8958630">
        <ele>778.2</ele>
        <time>2019-05-28T08:41:08Z</time>
      </trkpt>
      <trkpt lat="40.5469640" lon="-3.8957650">
        <ele>778.2</ele>
        <time>2019-05-28T08:41:10Z</time>
      </trkpt>
      <trkpt lat="40.5468770" lon="-3.8953960">
        <ele>778.0</ele>
        <time>2019-05-28T08:41:16Z</time>
      </trkpt>
      <trkpt lat="40.5468810" lon="-3.8953310">
        <ele>778.0</ele>
        <time>2019-05-28T08:41:17Z</time>
      </trkpt>
      <trkpt lat="40.5469240" lon="-3.8951410">
        <ele>777.8</ele>
        <time>2019-05-28T08:41:20Z</time>
      </trkpt>
      <trkpt lat="40.5470010" lon="-3.8949680">
        <ele>778.0</ele>
        <time>2019-05-28T08:41:23Z</time>
      </trkpt>
      <trkpt lat="40.5473200" lon="-3.8947470">
        <ele>778.6</ele>
        <time>2019-05-28T08:41:30Z</time>
      </trkpt>
      <trkpt lat="40.5473760" lon="-3.8947400">
        <ele>778.8</ele>
        <time>2019-05-28T08:41:31Z</time>
      </trkpt>
      <trkpt lat="40.5475940" lon="-3.8948160">
        <ele>779.0</ele>
        <time>2019-05-28T08:41:35Z</time>
      </trkpt>
      <trkpt lat="40.5480470" lon="-3.8950110">
        <ele>779.0</ele>
        <time>2019-05-28T08:41:43Z</time>
      </trkpt>
      <trkpt lat="40.5482240" lon="-3.8951040">
        <ele>778.8</ele>
        <time>2019-05-28T08:41:46Z</time>
      </trkpt>
      <trkpt lat="40.5483450" lon="-3.8951770">
        <ele>778.4</ele>
        <time>2019-05-28T08:41:48Z</time>
      </trkpt>
      <trkpt lat="40.5488610" lon="-3.8955180">
        <ele>777.0</ele>
        <time>2019-05-28T08:41:55Z</time>
      </trkpt>
      <trkpt lat="40.5490350" lon="-3.8956270">
        <ele>776.4</ele>
        <time>2019-05-28T08:41:57Z</time>
      </trkpt>
      <trkpt lat="40.5491200" lon="-3.8956770">
        <ele>775.8</ele>
        <time>2019-05-28T08:41:58Z</time>
      </trkpt>
      <trkpt lat="40.5492870" lon="-3.8957730">
        <ele>774.4</ele>
        <time>2019-05-28T08:42:00Z</time>
      </trkpt>
      <trkpt lat="40.5494460" lon="-3.8958550">
        <ele>773.2</ele>
        <time>2019-05-28T08:42:02Z</time>
      </trkpt>
      <trkpt lat="40.5496660" lon="-3.8959530">
        <ele>772.6</ele>
        <time>2019-05-28T08:42:05Z</time>
      </trkpt>
      <trkpt lat="40.5498760" lon="-3.8960130">
        <ele>772.6</ele>
        <time>2019-05-28T08:42:08Z</time>
      </trkpt>
      <trkpt lat="40.5500580" lon="-3.8962290">
        <ele>772.6</ele>
        <time>2019-05-28T08:42:12Z</time>
      </trkpt>
      <trkpt lat="40.5500890" lon="-3.8962930">
        <ele>772.6</ele>
        <time>2019-05-28T08:42:13Z</time>
      </trkpt>
      <trkpt lat="40.5502290" lon="-3.8964190">
        <ele>773.0</ele>
        <time>2019-05-28T08:42:16Z</time>
      </trkpt>
      <trkpt lat="40.5502840" lon="-3.8964460">
        <ele>773.4</ele>
        <time>2019-05-28T08:42:17Z</time>
      </trkpt>
      <trkpt lat="40.5504450" lon="-3.8965300">
        <ele>774.0</ele>
        <time>2019-05-28T08:42:20Z</time>
      </trkpt>
      <trkpt lat="40.5504990" lon="-3.8965570">
        <ele>774.4</ele>
        <time>2019-05-28T08:42:21Z</time>
      </trkpt>
      <trkpt lat="40.5506050" lon="-3.8966140">
        <ele>775.6</ele>
        <time>2019-05-28T08:42:23Z</time>
      </trkpt>
      <trkpt lat="40.5509680" lon="-3.8968060">
        <ele>776.2</ele>
        <time>2019-05-28T08:42:30Z</time>
      </trkpt>
      <trkpt lat="40.5511160" lon="-3.8968860">
        <ele>776.4</ele>
        <time>2019-05-28T08:42:33Z</time>
      </trkpt>
      <trkpt lat="40.5512150" lon="-3.8969390">
        <ele>776.8</ele>
        <time>2019-05-28T08:42:35Z</time>
      </trkpt>
      <trkpt lat="40.5513120" lon="-3.8969920">
        <ele>777.2</ele>
        <time>2019-05-28T08:42:37Z</time>
      </trkpt>
      <trkpt lat="40.5514570" lon="-3.8970750">
        <ele>778.0</ele>
        <time>2019-05-28T08:42:40Z</time>
      </trkpt>
      <trkpt lat="40.5516960" lon="-3.8972150">
        <ele>779.2</ele>
        <time>2019-05-28T08:42:45Z</time>
      </trkpt>
      <trkpt lat="40.5519230" lon="-3.8973530">
        <ele>780.2</ele>
        <time>2019-05-28T08:42:50Z</time>
      </trkpt>
      <trkpt lat="40.5521110" lon="-3.8974580">
        <ele>781.0</ele>
        <time>2019-05-28T08:42:54Z</time>
      </trkpt>
      <trkpt lat="40.5521580" lon="-3.8974850">
        <ele>781.2</ele>
        <time>2019-05-28T08:42:55Z</time>
      </trkpt>
      <trkpt lat="40.5523990" lon="-3.8976120">
        <ele>782.2</ele>
        <time>2019-05-28T08:43:00Z</time>
      </trkpt>
      <trkpt lat="40.5524480" lon="-3.8976370">
        <ele>782.4</ele>
        <time>2019-05-28T08:43:01Z</time>
      </trkpt>
      <trkpt lat="40.5527460" lon="-3.8977860">
        <ele>783.6</ele>
        <time>2019-05-28T08:43:07Z</time>
      </trkpt>
      <trkpt lat="40.5531470" lon="-3.8979880">
        <ele>784.6</ele>
        <time>2019-05-28T08:43:15Z</time>
      </trkpt>
      <trkpt lat="40.5535520" lon="-3.8981860">
        <ele>785.0</ele>
        <time>2019-05-28T08:43:23Z</time>
      </trkpt>
      <trkpt lat="40.5540620" lon="-3.8984510">
        <ele>785.6</ele>
        <time>2019-05-28T08:43:33Z</time>
      </trkpt>
      <trkpt lat="40.5541140" lon="-3.8984770">
        <ele>785.6</ele>
        <time>2019-05-28T08:43:34Z</time>
      </trkpt>
      <trkpt lat="40.5546330" lon="-3.8987410">
        <ele>786.8</ele>
        <time>2019-05-28T08:43:44Z</time>
      </trkpt>
      <trkpt lat="40.5548470" lon="-3.8988350">
        <ele>787.0</ele>
        <time>2019-05-28T08:43:48Z</time>
      </trkpt>
      <trkpt lat="40.5551140" lon="-3.8989540">
        <ele>787.6</ele>
        <time>2019-05-28T08:43:53Z</time>
      </trkpt>
      <trkpt lat="40.5553290" lon="-3.8990600">
        <ele>788.2</ele>
        <time>2019-05-28T08:43:57Z</time>
      </trkpt>
      <trkpt lat="40.5554890" lon="-3.8991430">
        <ele>788.8</ele>
        <time>2019-05-28T08:44:00Z</time>
      </trkpt>
      <trkpt lat="40.5560160" lon="-3.8994190">
        <ele>789.6</ele>
        <time>2019-05-28T08:44:10Z</time>
      </trkpt>
      <trkpt lat="40.5560690" lon="-3.8994460">
        <ele>789.8</ele>
        <time>2019-05-28T08:44:11Z</time>
      </trkpt>
      <trkpt lat="40.5561740" lon="-3.8995000">
        <ele>790.0</ele>
        <time>2019-05-28T08:44:13Z</time>
      </trkpt>
      <trkpt lat="40.5567130" lon="-3.8996600">
        <ele>790.6</ele>
        <time>2019-05-28T08:44:23Z</time>
      </trkpt>
      <trkpt lat="40.5571080" lon="-3.8997010">
        <ele>790.8</ele>
        <time>2019-05-28T08:44:30Z</time>
      </trkpt>
      <trkpt lat="40.5573280" lon="-3.8997620">
        <ele>790.8</ele>
        <time>2019-05-28T08:44:34Z</time>
      </trkpt>
      <trkpt lat="40.5574940" lon="-3.8998290">
        <ele>790.6</ele>
        <time>2019-05-28T08:44:37Z</time>
      </trkpt>
      <trkpt lat="40.5576570" lon="-3.8999030">
        <ele>790.4</ele>
        <time>2019-05-28T08:44:40Z</time>
      </trkpt>
      <trkpt lat="40.5577500" lon="-3.8999430">
        <ele>790.4</ele>
        <time>2019-05-28T08:44:42Z</time>
      </trkpt>
      <trkpt lat="40.5579250" lon="-3.8999410">
        <ele>790.4</ele>
        <time>2019-05-28T08:44:46Z</time>
      </trkpt>
      <trkpt lat="40.5581010" lon="-3.9000880">
        <ele>790.2</ele>
        <time>2019-05-28T08:44:50Z</time>
      </trkpt>
      <trkpt lat="40.5581460" lon="-3.9001310">
        <ele>790.2</ele>
        <time>2019-05-28T08:44:51Z</time>
      </trkpt>
      <trkpt lat="40.5583990" lon="-3.9002620">
        <ele>790.0</ele>
        <time>2019-05-28T08:44:56Z</time>
      </trkpt>
      <trkpt lat="40.5585850" lon="-3.9003460">
        <ele>790.0</ele>
        <time>2019-05-28T08:45:00Z</time>
      </trkpt>
      <trkpt lat="40.5587690" lon="-3.9004350">
        <ele>790.6</ele>
        <time>2019-05-28T08:45:04Z</time>
      </trkpt>
      <trkpt lat="40.5588130" lon="-3.9004560">
        <ele>791.0</ele>
        <time>2019-05-28T08:45:05Z</time>
      </trkpt>
      <trkpt lat="40.5589000" lon="-3.9004980">
        <ele>791.6</ele>
        <time>2019-05-28T08:45:07Z</time>
      </trkpt>
      <trkpt lat="40.5589410" lon="-3.9005210">
        <ele>792.0</ele>
        <time>2019-05-28T08:45:08Z</time>
      </trkpt>
      <trkpt lat="40.5590240" lon="-3.9005660">
        <ele>792.6</ele>
        <time>2019-05-28T08:45:10Z</time>
      </trkpt>
      <trkpt lat="40.5591500" lon="-3.9006400">
        <ele>793.0</ele>
        <time>2019-05-28T08:45:13Z</time>
      </trkpt>
      <trkpt lat="40.5592690" lon="-3.9007300">
        <ele>794.0</ele>
        <time>2019-05-28T08:45:16Z</time>
      </trkpt>
      <trkpt lat="40.5594170" lon="-3.9008550">
        <ele>795.2</ele>
        <time>2019-05-28T08:45:20Z</time>
      </trkpt>
      <trkpt lat="40.5596060" lon="-3.9010360">
        <ele>796.2</ele>
        <time>2019-05-28T08:45:25Z</time>
      </trkpt>
      <trkpt lat="40.5597870" lon="-3.9012430">
        <ele>797.4</ele>
        <time>2019-05-28T08:45:30Z</time>
      </trkpt>
      <trkpt lat="40.5600090" lon="-3.9014760">
        <ele>798.2</ele>
        <time>2019-05-28T08:45:36Z</time>
      </trkpt>
      <trkpt lat="40.5600880" lon="-3.9015280">
        <ele>798.4</ele>
        <time>2019-05-28T08:45:38Z</time>
      </trkpt>
      <trkpt lat="40.5601320" lon="-3.9015490">
        <ele>798.6</ele>
        <time>2019-05-28T08:45:39Z</time>
      </trkpt>
      <trkpt lat="40.5603530" lon="-3.9015890">
        <ele>799.6</ele>
        <time>2019-05-28T08:45:44Z</time>
      </trkpt>
      <trkpt lat="40.5606290" lon="-3.9015850">
        <ele>801.4</ele>
        <time>2019-05-28T08:45:50Z</time>
      </trkpt>
      <trkpt lat="40.5606760" lon="-3.9015870">
        <ele>801.6</ele>
        <time>2019-05-28T08:45:51Z</time>
      </trkpt>
      <trkpt lat="40.5608600" lon="-3.9016260">
        <ele>802.0</ele>
        <time>2019-05-28T08:45:55Z</time>
      </trkpt>
      <trkpt lat="40.5609530" lon="-3.9016740">
        <ele>802.0</ele>
        <time>2019-05-28T08:45:57Z</time>
      </trkpt>
      <trkpt lat="40.5610420" lon="-3.9017490">
        <ele>802.0</ele>
        <time>2019-05-28T08:45:59Z</time>
      </trkpt>
      <trkpt lat="40.5611230" lon="-3.9018510">
        <ele>802.0</ele>
        <time>2019-05-28T08:46:01Z</time>
      </trkpt>
      <trkpt lat="40.5611980" lon="-3.9019730">
        <ele>802.0</ele>
        <time>2019-05-28T08:46:03Z</time>
      </trkpt>
      <trkpt lat="40.5612990" lon="-3.9020770">
        <ele>802.0</ele>
        <time>2019-05-28T08:46:05Z</time>
      </trkpt>
      <trkpt lat="40.5613470" lon="-3.9021340">
        <ele>801.8</ele>
        <time>2019-05-28T08:46:06Z</time>
      </trkpt>
      <trkpt lat="40.5614820" lon="-3.9025200">
        <ele>800.2</ele>
        <time>2019-05-28T08:46:11Z</time>
      </trkpt>
      <trkpt lat="40.5616230" lon="-3.9026900">
        <ele>799.8</ele>
        <time>2019-05-28T08:46:14Z</time>
      </trkpt>
      <trkpt lat="40.5617810" lon="-3.9028210">
        <ele>799.8</ele>
        <time>2019-05-28T08:46:17Z</time>
      </trkpt>
      <trkpt lat="40.5620890" lon="-3.9031700">
        <ele>800.2</ele>
        <time>2019-05-28T08:46:24Z</time>
      </trkpt>
      <trkpt lat="40.5621610" lon="-3.9032740">
        <ele>800.6</ele>
        <time>2019-05-28T08:46:26Z</time>
      </trkpt>
      <trkpt lat="40.5622940" lon="-3.9034680">
        <ele>801.2</ele>
        <time>2019-05-28T08:46:30Z</time>
      </trkpt>
      <trkpt lat="40.5624550" lon="-3.9037100">
        <ele>802.4</ele>
        <time>2019-05-28T08:46:35Z</time>
      </trkpt>
      <trkpt lat="40.5625510" lon="-3.9038600">
        <ele>803.8</ele>
        <time>2019-05-28T08:46:38Z</time>
      </trkpt>
      <trkpt lat="40.5626850" lon="-3.9040670">
        <ele>804.6</ele>
        <time>2019-05-28T08:46:42Z</time>
      </trkpt>
      <trkpt lat="40.5627170" lon="-3.9041220">
        <ele>804.8</ele>
        <time>2019-05-28T08:46:43Z</time>
      </trkpt>
      <trkpt lat="40.5628140" lon="-3.9042850">
        <ele>805.6</ele>
        <time>2019-05-28T08:46:46Z</time>
      </trkpt>
      <trkpt lat="40.5628470" lon="-3.9043390">
        <ele>805.8</ele>
        <time>2019-05-28T08:46:47Z</time>
      </trkpt>
      <trkpt lat="40.5629400" lon="-3.9044950">
        <ele>806.4</ele>
        <time>2019-05-28T08:46:50Z</time>
      </trkpt>
      <trkpt lat="40.5630210" lon="-3.9046480">
        <ele>807.0</ele>
        <time>2019-05-28T08:46:53Z</time>
      </trkpt>
      <trkpt lat="40.5631020" lon="-3.9047890">
        <ele>808.0</ele>
        <time>2019-05-28T08:46:56Z</time>
      </trkpt>
      <trkpt lat="40.5631790" lon="-3.9049450">
        <ele>809.6</ele>
        <time>2019-05-28T08:46:59Z</time>
      </trkpt>
      <trkpt lat="40.5632640" lon="-3.9051040">
        <ele>810.6</ele>
        <time>2019-05-28T08:47:02Z</time>
      </trkpt>
      <trkpt lat="40.5635480" lon="-3.9057290">
        <ele>811.0</ele>
        <time>2019-05-28T08:47:11Z</time>
      </trkpt>
      <trkpt lat="40.5636280" lon="-3.9059120">
        <ele>811.0</ele>
        <time>2019-05-28T08:47:13Z</time>
      </trkpt>
      <trkpt lat="40.5638660" lon="-3.9064270">
        <ele>810.0</ele>
        <time>2019-05-28T08:47:18Z</time>
      </trkpt>
      <trkpt lat="40.5639170" lon="-3.9065330">
        <ele>809.4</ele>
        <time>2019-05-28T08:47:19Z</time>
      </trkpt>
      <trkpt lat="40.5640250" lon="-3.9067420">
        <ele>808.6</ele>
        <time>2019-05-28T08:47:21Z</time>
      </trkpt>
      <trkpt lat="40.5640820" lon="-3.9068420">
        <ele>808.2</ele>
        <time>2019-05-28T08:47:22Z</time>
      </trkpt>
      <trkpt lat="40.5642400" lon="-3.9071350">
        <ele>807.2</ele>
        <time>2019-05-28T08:47:25Z</time>
      </trkpt>
      <trkpt lat="40.5646010" lon="-3.9078460">
        <ele>807.2</ele>
        <time>2019-05-28T08:47:34Z</time>
      </trkpt>
      <trkpt lat="40.5646650" lon="-3.9079710">
        <ele>808.6</ele>
        <time>2019-05-28T08:47:36Z</time>
      </trkpt>
      <trkpt lat="40.5647530" lon="-3.9081490">
        <ele>809.8</ele>
        <time>2019-05-28T08:47:39Z</time>
      </trkpt>
      <trkpt lat="40.5648360" lon="-3.9083160">
        <ele>811.0</ele>
        <time>2019-05-28T08:47:42Z</time>
      </trkpt>
      <trkpt lat="40.5649400" lon="-3.9085310">
        <ele>812.4</ele>
        <time>2019-05-28T08:47:46Z</time>
      </trkpt>
      <trkpt lat="40.5650180" lon="-3.9086900">
        <ele>813.6</ele>
        <time>2019-05-28T08:47:49Z</time>
      </trkpt>
      <trkpt lat="40.5651200" lon="-3.9088980">
        <ele>814.8</ele>
        <time>2019-05-28T08:47:53Z</time>
      </trkpt>
      <trkpt lat="40.5652210" lon="-3.9091010">
        <ele>816.0</ele>
        <time>2019-05-28T08:47:57Z</time>
      </trkpt>
      <trkpt lat="40.5653490" lon="-3.9093570">
        <ele>816.8</ele>
        <time>2019-05-28T08:48:02Z</time>
      </trkpt>
      <trkpt lat="40.5654500" lon="-3.9095660">
        <ele>818.0</ele>
        <time>2019-05-28T08:48:06Z</time>
      </trkpt>
      <trkpt lat="40.5655500" lon="-3.9097730">
        <ele>819.2</ele>
        <time>2019-05-28T08:48:10Z</time>
      </trkpt>
      <trkpt lat="40.5656470" lon="-3.9099820">
        <ele>820.2</ele>
        <time>2019-05-28T08:48:14Z</time>
      </trkpt>
      <trkpt lat="40.5658020" lon="-3.9102960">
        <ele>821.2</ele>
        <time>2019-05-28T08:48:20Z</time>
      </trkpt>
      <trkpt lat="40.5659040" lon="-3.9105070">
        <ele>822.4</ele>
        <time>2019-05-28T08:48:24Z</time>
      </trkpt>
      <trkpt lat="40.5660540" lon="-3.9108230">
        <ele>823.4</ele>
        <time>2019-05-28T08:48:30Z</time>
      </trkpt>
      <trkpt lat="40.5661750" lon="-3.9110910">
        <ele>824.6</ele>
        <time>2019-05-28T08:48:35Z</time>
      </trkpt>
      <trkpt lat="40.5662990" lon="-3.9113600">
        <ele>825.6</ele>
        <time>2019-05-28T08:48:40Z</time>
      </trkpt>
      <trkpt lat="40.5664030" lon="-3.9115650">
        <ele>826.8</ele>
        <time>2019-05-28T08:48:44Z</time>
      </trkpt>
      <trkpt lat="40.5665310" lon="-3.9118350">
        <ele>827.8</ele>
        <time>2019-05-28T08:48:49Z</time>
      </trkpt>
      <trkpt lat="40.5667390" lon="-3.9122800">
        <ele>829.0</ele>
        <time>2019-05-28T08:48:57Z</time>
      </trkpt>
      <trkpt lat="40.5669530" lon="-3.9127500">
        <ele>830.0</ele>
        <time>2019-05-28T08:49:05Z</time>
      </trkpt>
      <trkpt lat="40.5672350" lon="-3.9133810">
        <ele>830.8</ele>
        <time>2019-05-28T08:49:15Z</time>
      </trkpt>
      <trkpt lat="40.5672910" lon="-3.9135010">
        <ele>830.8</ele>
        <time>2019-05-28T08:49:17Z</time>
      </trkpt>
      <trkpt lat="40.5673510" lon="-3.9136160">
        <ele>831.2</ele>
        <time>2019-05-28T08:49:19Z</time>
      </trkpt>
      <trkpt lat="40.5675150" lon="-3.9139310">
        <ele>832.4</ele>
        <time>2019-05-28T08:49:25Z</time>
      </trkpt>
      <trkpt lat="40.5675900" lon="-3.9140700">
        <ele>833.0</ele>
        <time>2019-05-28T08:49:28Z</time>
      </trkpt>
      <trkpt lat="40.5676140" lon="-3.9141150">
        <ele>833.2</ele>
        <time>2019-05-28T08:49:29Z</time>
      </trkpt>
      <trkpt lat="40.5676360" lon="-3.9141610">
        <ele>833.6</ele>
        <time>2019-05-28T08:49:30Z</time>
      </trkpt>
      <trkpt lat="40.5676820" lon="-3.9142530">
        <ele>834.2</ele>
        <time>2019-05-28T08:49:32Z</time>
      </trkpt>
      <trkpt lat="40.5677300" lon="-3.9143450">
        <ele>834.8</ele>
        <time>2019-05-28T08:49:34Z</time>
      </trkpt>
      <trkpt lat="40.5678010" lon="-3.9144740">
        <ele>835.6</ele>
        <time>2019-05-28T08:49:37Z</time>
      </trkpt>
      <trkpt lat="40.5678220" lon="-3.9145170">
        <ele>835.8</ele>
        <time>2019-05-28T08:49:38Z</time>
      </trkpt>
      <trkpt lat="40.5678870" lon="-3.9146460">
        <ele>837.0</ele>
        <time>2019-05-28T08:49:41Z</time>
      </trkpt>
      <trkpt lat="40.5679680" lon="-3.9148290">
        <ele>838.2</ele>
        <time>2019-05-28T08:49:45Z</time>
      </trkpt>
      <trkpt lat="40.5680280" lon="-3.9149600">
        <ele>839.4</ele>
        <time>2019-05-28T08:49:48Z</time>
      </trkpt>
      <trkpt lat="40.5680880" lon="-3.9150950">
        <ele>840.6</ele>
        <time>2019-05-28T08:49:51Z</time>
      </trkpt>
      <trkpt lat="40.5681560" lon="-3.9152290">
        <ele>841.6</ele>
        <time>2019-05-28T08:49:54Z</time>
      </trkpt>
      <trkpt lat="40.5681800" lon="-3.9152710">
        <ele>842.0</ele>
        <time>2019-05-28T08:49:55Z</time>
      </trkpt>
      <trkpt lat="40.5682510" lon="-3.9154060">
        <ele>842.8</ele>
        <time>2019-05-28T08:49:58Z</time>
      </trkpt>
      <trkpt lat="40.5683440" lon="-3.9155910">
        <ele>843.6</ele>
        <time>2019-05-28T08:50:02Z</time>
      </trkpt>
      <trkpt lat="40.5685250" lon="-3.9159780">
        <ele>844.8</ele>
        <time>2019-05-28T08:50:10Z</time>
      </trkpt>
      <trkpt lat="40.5686470" lon="-3.9162320">
        <ele>846.0</ele>
        <time>2019-05-28T08:50:15Z</time>
      </trkpt>
      <trkpt lat="40.5688470" lon="-3.9166680">
        <ele>847.0</ele>
        <time>2019-05-28T08:50:23Z</time>
      </trkpt>
      <trkpt lat="40.5689530" lon="-3.9168940">
        <ele>847.4</ele>
        <time>2019-05-28T08:50:27Z</time>
      </trkpt>
      <trkpt lat="40.5690310" lon="-3.9170640">
        <ele>847.8</ele>
        <time>2019-05-28T08:50:30Z</time>
      </trkpt>
      <trkpt lat="40.5691960" lon="-3.9174090">
        <ele>848.0</ele>
        <time>2019-05-28T08:50:36Z</time>
      </trkpt>
      <trkpt lat="40.5694770" lon="-3.9180120">
        <ele>848.6</ele>
        <time>2019-05-28T08:50:46Z</time>
      </trkpt>
      <trkpt lat="40.5696210" lon="-3.9183170">
        <ele>849.0</ele>
        <time>2019-05-28T08:50:51Z</time>
      </trkpt>
      <trkpt lat="40.5696500" lon="-3.9183770">
        <ele>849.2</ele>
        <time>2019-05-28T08:50:52Z</time>
      </trkpt>
      <trkpt lat="40.5699470" lon="-3.9189880">
        <ele>850.2</ele>
        <time>2019-05-28T08:51:02Z</time>
      </trkpt>
      <trkpt lat="40.5702350" lon="-3.9195960">
        <ele>850.8</ele>
        <time>2019-05-28T08:51:12Z</time>
      </trkpt>
      <trkpt lat="40.5703490" lon="-3.9198350">
        <ele>851.4</ele>
        <time>2019-05-28T08:51:16Z</time>
      </trkpt>
      <trkpt lat="40.5705730" lon="-3.9203160">
        <ele>852.4</ele>
        <time>2019-05-28T08:51:24Z</time>
      </trkpt>
      <trkpt lat="40.5707080" lon="-3.9206120">
        <ele>853.6</ele>
        <time>2019-05-28T08:51:29Z</time>
      </trkpt>
      <trkpt lat="40.5708660" lon="-3.9209570">
        <ele>854.8</ele>
        <time>2019-05-28T08:51:35Z</time>
      </trkpt>
      <trkpt lat="40.5709700" lon="-3.9211800">
        <ele>855.8</ele>
        <time>2019-05-28T08:51:39Z</time>
      </trkpt>
      <trkpt lat="40.5710700" lon="-3.9213980">
        <ele>857.0</ele>
        <time>2019-05-28T08:51:43Z</time>
      </trkpt>
      <trkpt lat="40.5711610" lon="-3.9216160">
        <ele>858.2</ele>
        <time>2019-05-28T08:51:47Z</time>
      </trkpt>
      <trkpt lat="40.5712960" lon="-3.9219260">
        <ele>859.2</ele>
        <time>2019-05-28T08:51:53Z</time>
      </trkpt>
      <trkpt lat="40.5714090" lon="-3.9221830">
        <ele>860.4</ele>
        <time>2019-05-28T08:51:58Z</time>
      </trkpt>
      <trkpt lat="40.5714320" lon="-3.9222320">
        <ele>860.8</ele>
        <time>2019-05-28T08:51:59Z</time>
      </trkpt>
      <trkpt lat="40.5714810" lon="-3.9223250">
        <ele>861.4</ele>
        <time>2019-05-28T08:52:01Z</time>
      </trkpt>
      <trkpt lat="40.5715620" lon="-3.9224630">
        <ele>862.2</ele>
        <time>2019-05-28T08:52:04Z</time>
      </trkpt>
      <trkpt lat="40.5715880" lon="-3.9225140">
        <ele>862.6</ele>
        <time>2019-05-28T08:52:05Z</time>
      </trkpt>
      <trkpt lat="40.5716840" lon="-3.9227220">
        <ele>863.8</ele>
        <time>2019-05-28T08:52:09Z</time>
      </trkpt>
      <trkpt lat="40.5717900" lon="-3.9229180">
        <ele>865.2</ele>
        <time>2019-05-28T08:52:13Z</time>
      </trkpt>
      <trkpt lat="40.5718690" lon="-3.9230590">
        <ele>866.0</ele>
        <time>2019-05-28T08:52:16Z</time>
      </trkpt>
      <trkpt lat="40.5718950" lon="-3.9231050">
        <ele>866.4</ele>
        <time>2019-05-28T08:52:17Z</time>
      </trkpt>
      <trkpt lat="40.5719440" lon="-3.9232000">
        <ele>866.8</ele>
        <time>2019-05-28T08:52:19Z</time>
      </trkpt>
      <trkpt lat="40.5719700" lon="-3.9232460">
        <ele>867.2</ele>
        <time>2019-05-28T08:52:20Z</time>
      </trkpt>
      <trkpt lat="40.5720780" lon="-3.9234290">
        <ele>868.4</ele>
        <time>2019-05-28T08:52:24Z</time>
      </trkpt>
      <trkpt lat="40.5721060" lon="-3.9234760">
        <ele>868.6</ele>
        <time>2019-05-28T08:52:25Z</time>
      </trkpt>
      <trkpt lat="40.5721920" lon="-3.9236190">
        <ele>869.4</ele>
        <time>2019-05-28T08:52:28Z</time>
      </trkpt>
      <trkpt lat="40.5723430" lon="-3.9238470">
        <ele>870.6</ele>
        <time>2019-05-28T08:52:33Z</time>
      </trkpt>
      <trkpt lat="40.5725020" lon="-3.9240720">
        <ele>871.6</ele>
        <time>2019-05-28T08:52:38Z</time>
      </trkpt>
      <trkpt lat="40.5725990" lon="-3.9242100">
        <ele>872.2</ele>
        <time>2019-05-28T08:52:41Z</time>
      </trkpt>
      <trkpt lat="40.5726660" lon="-3.9243060">
        <ele>872.8</ele>
        <time>2019-05-28T08:52:43Z</time>
      </trkpt>
      <trkpt lat="40.5728360" lon="-3.9245530">
        <ele>874.0</ele>
        <time>2019-05-28T08:52:48Z</time>
      </trkpt>
      <trkpt lat="40.5730650" lon="-3.9249100">
        <ele>875.0</ele>
        <time>2019-05-28T08:52:55Z</time>
      </trkpt>
      <trkpt lat="40.5731650" lon="-3.9250690">
        <ele>875.4</ele>
        <time>2019-05-28T08:52:58Z</time>
      </trkpt>
      <trkpt lat="40.5733330" lon="-3.9253270">
        <ele>876.0</ele>
        <time>2019-05-28T08:53:03Z</time>
      </trkpt>
      <trkpt lat="40.5734600" lon="-3.9255230">
        <ele>876.4</ele>
        <time>2019-05-28T08:53:07Z</time>
      </trkpt>
      <trkpt lat="40.5736010" lon="-3.9257350">
        <ele>876.8</ele>
        <time>2019-05-28T08:53:11Z</time>
      </trkpt>
      <trkpt lat="40.5736350" lon="-3.9257950">
        <ele>877.0</ele>
        <time>2019-05-28T08:53:12Z</time>
      </trkpt>
      <trkpt lat="40.5737960" lon="-3.9261040">
        <ele>877.6</ele>
        <time>2019-05-28T08:53:17Z</time>
      </trkpt>
      <trkpt lat="40.5738550" lon="-3.9262460">
        <ele>877.6</ele>
        <time>2019-05-28T08:53:19Z</time>
      </trkpt>
      <trkpt lat="40.5740350" lon="-3.9267080">
        <ele>877.6</ele>
        <time>2019-05-28T08:53:25Z</time>
      </trkpt>
      <trkpt lat="40.5741940" lon="-3.9272200">
        <ele>877.4</ele>
        <time>2019-05-28T08:53:31Z</time>
      </trkpt>
      <trkpt lat="40.5743350" lon="-3.9277960">
        <ele>876.6</ele>
        <time>2019-05-28T08:53:37Z</time>
      </trkpt>
      <trkpt lat="40.5743900" lon="-3.9281120">
        <ele>876.0</ele>
        <time>2019-05-28T08:53:40Z</time>
      </trkpt>
      <trkpt lat="40.5744090" lon="-3.9282240">
        <ele>875.8</ele>
        <time>2019-05-28T08:53:41Z</time>
      </trkpt>
      <trkpt lat="40.5744610" lon="-3.9285910">
        <ele>875.0</ele>
        <time>2019-05-28T08:53:44Z</time>
      </trkpt>
      <trkpt lat="40.5744780" lon="-3.9287230">
        <ele>874.6</ele>
        <time>2019-05-28T08:53:45Z</time>
      </trkpt>
      <trkpt lat="40.5745330" lon="-3.9291450">
        <ele>873.6</ele>
        <time>2019-05-28T08:53:48Z</time>
      </trkpt>
      <trkpt lat="40.5745550" lon="-3.9292930">
        <ele>873.0</ele>
        <time>2019-05-28T08:53:49Z</time>
      </trkpt>
      <trkpt lat="40.5746160" lon="-3.9295940">
        <ele>871.8</ele>
        <time>2019-05-28T08:53:51Z</time>
      </trkpt>
      <trkpt lat="40.5746900" lon="-3.9298990">
        <ele>870.8</ele>
        <time>2019-05-28T08:53:53Z</time>
      </trkpt>
      <trkpt lat="40.5747320" lon="-3.9300500">
        <ele>869.4</ele>
        <time>2019-05-28T08:53:54Z</time>
      </trkpt>
      <trkpt lat="40.5748260" lon="-3.9303470">
        <ele>867.6</ele>
        <time>2019-05-28T08:53:56Z</time>
      </trkpt>
      <trkpt lat="40.5749190" lon="-3.9306420">
        <ele>866.0</ele>
        <time>2019-05-28T08:53:58Z</time>
      </trkpt>
      <trkpt lat="40.5750100" lon="-3.9309320">
        <ele>864.8</ele>
        <time>2019-05-28T08:54:00Z</time>
      </trkpt>
      <trkpt lat="40.5750990" lon="-3.9312140">
        <ele>863.4</ele>
        <time>2019-05-28T08:54:02Z</time>
      </trkpt>
      <trkpt lat="40.5753640" lon="-3.9319840">
        <ele>862.8</ele>
        <time>2019-05-28T08:54:08Z</time>
      </trkpt>
      <trkpt lat="40.5754870" lon="-3.9323270">
        <ele>862.8</ele>
        <time>2019-05-28T08:54:11Z</time>
      </trkpt>
      <trkpt lat="40.5756460" lon="-3.9327340">
        <ele>863.2</ele>
        <time>2019-05-28T08:54:15Z</time>
      </trkpt>
      <trkpt lat="40.5757640" lon="-3.9329930">
        <ele>864.2</ele>
        <time>2019-05-28T08:54:18Z</time>
      </trkpt>
      <trkpt lat="40.5758010" lon="-3.9330720">
        <ele>864.8</ele>
        <time>2019-05-28T08:54:19Z</time>
      </trkpt>
      <trkpt lat="40.5758760" lon="-3.9332220">
        <ele>866.4</ele>
        <time>2019-05-28T08:54:21Z</time>
      </trkpt>
      <trkpt lat="40.5759850" lon="-3.9334280">
        <ele>867.8</ele>
        <time>2019-05-28T08:54:24Z</time>
      </trkpt>
      <trkpt lat="40.5760530" lon="-3.9335540">
        <ele>869.0</ele>
        <time>2019-05-28T08:54:26Z</time>
      </trkpt>
      <trkpt lat="40.5761200" lon="-3.9336690">
        <ele>870.4</ele>
        <time>2019-05-28T08:54:28Z</time>
      </trkpt>
      <trkpt lat="40.5762400" lon="-3.9339100">
        <ele>871.6</ele>
        <time>2019-05-28T08:54:32Z</time>
      </trkpt>
      <trkpt lat="40.5763300" lon="-3.9340660">
        <ele>872.8</ele>
        <time>2019-05-28T08:54:35Z</time>
      </trkpt>
      <trkpt lat="40.5764520" lon="-3.9342610">
        <ele>874.2</ele>
        <time>2019-05-28T08:54:39Z</time>
      </trkpt>
      <trkpt lat="40.5765700" lon="-3.9344330">
        <ele>875.0</ele>
        <time>2019-05-28T08:54:43Z</time>
      </trkpt>
      <trkpt lat="40.5766030" lon="-3.9344730">
        <ele>875.6</ele>
        <time>2019-05-28T08:54:44Z</time>
      </trkpt>
      <trkpt lat="40.5766980" lon="-3.9345960">
        <ele>876.6</ele>
        <time>2019-05-28T08:54:47Z</time>
      </trkpt>
      <trkpt lat="40.5767940" lon="-3.9347140">
        <ele>877.4</ele>
        <time>2019-05-28T08:54:50Z</time>
      </trkpt>
      <trkpt lat="40.5768290" lon="-3.9347470">
        <ele>877.8</ele>
        <time>2019-05-28T08:54:51Z</time>
      </trkpt>
      <trkpt lat="40.5768640" lon="-3.9347820">
        <ele>878.0</ele>
        <time>2019-05-28T08:54:52Z</time>
      </trkpt>
      <trkpt lat="40.5769760" lon="-3.9349410">
        <ele>879.0</ele>
        <time>2019-05-28T08:54:56Z</time>
      </trkpt>
      <trkpt lat="40.5769960" lon="-3.9349800">
        <ele>879.4</ele>
        <time>2019-05-28T08:54:57Z</time>
      </trkpt>
      <trkpt lat="40.5770830" lon="-3.9351540">
        <ele>880.2</ele>
        <time>2019-05-28T08:55:01Z</time>
      </trkpt>
      <trkpt lat="40.5771440" lon="-3.9352860">
        <ele>881.4</ele>
        <time>2019-05-28T08:55:04Z</time>
      </trkpt>
      <trkpt lat="40.5772310" lon="-3.9354450">
        <ele>882.4</ele>
        <time>2019-05-28T08:55:08Z</time>
      </trkpt>
      <trkpt lat="40.5773130" lon="-3.9356160">
        <ele>883.6</ele>
        <time>2019-05-28T08:55:12Z</time>
      </trkpt>
      <trkpt lat="40.5773930" lon="-3.9357830">
        <ele>884.8</ele>
        <time>2019-05-28T08:55:16Z</time>
      </trkpt>
      <trkpt lat="40.5774540" lon="-3.9359050">
        <ele>886.0</ele>
        <time>2019-05-28T08:55:19Z</time>
      </trkpt>
      <trkpt lat="40.5775110" lon="-3.9360360">
        <ele>887.2</ele>
        <time>2019-05-28T08:55:22Z</time>
      </trkpt>
      <trkpt lat="40.5775730" lon="-3.9362100">
        <ele>888.4</ele>
        <time>2019-05-28T08:55:26Z</time>
      </trkpt>
      <trkpt lat="40.5776360" lon="-3.9363890">
        <ele>889.6</ele>
        <time>2019-05-28T08:55:30Z</time>
      </trkpt>
      <trkpt lat="40.5776810" lon="-3.9365240">
        <ele>890.8</ele>
        <time>2019-05-28T08:55:33Z</time>
      </trkpt>
      <trkpt lat="40.5777250" lon="-3.9366680">
        <ele>891.6</ele>
        <time>2019-05-28T08:55:36Z</time>
      </trkpt>
      <trkpt lat="40.5777370" lon="-3.9367200">
        <ele>892.2</ele>
        <time>2019-05-28T08:55:37Z</time>
      </trkpt>
      <trkpt lat="40.5777880" lon="-3.9368680">
        <ele>893.2</ele>
        <time>2019-05-28T08:55:40Z</time>
      </trkpt>
      <trkpt lat="40.5778230" lon="-3.9369710">
        <ele>894.0</ele>
        <time>2019-05-28T08:55:42Z</time>
      </trkpt>
      <trkpt lat="40.5778540" lon="-3.9370690">
        <ele>894.6</ele>
        <time>2019-05-28T08:55:44Z</time>
      </trkpt>
      <trkpt lat="40.5778730" lon="-3.9371170">
        <ele>894.8</ele>
        <time>2019-05-28T08:55:45Z</time>
      </trkpt>
      <trkpt lat="40.5779440" lon="-3.9373260">
        <ele>895.6</ele>
        <time>2019-05-28T08:55:49Z</time>
      </trkpt>
      <trkpt lat="40.5780260" lon="-3.9375280">
        <ele>896.6</ele>
        <time>2019-05-28T08:55:53Z</time>
      </trkpt>
      <trkpt lat="40.5781040" lon="-3.9377510">
        <ele>897.8</ele>
        <time>2019-05-28T08:55:57Z</time>
      </trkpt>
      <trkpt lat="40.5781560" lon="-3.9379250">
        <ele>898.8</ele>
        <time>2019-05-28T08:56:00Z</time>
      </trkpt>
      <trkpt lat="40.5782260" lon="-3.9381520">
        <ele>899.6</ele>
        <time>2019-05-28T08:56:04Z</time>
      </trkpt>
      <trkpt lat="40.5782430" lon="-3.9382110">
        <ele>900.0</ele>
        <time>2019-05-28T08:56:05Z</time>
      </trkpt>
      <trkpt lat="40.5782790" lon="-3.9383890">
        <ele>900.6</ele>
        <time>2019-05-28T08:56:08Z</time>
      </trkpt>
      <trkpt lat="40.5783060" lon="-3.9385790">
        <ele>901.2</ele>
        <time>2019-05-28T08:56:11Z</time>
      </trkpt>
      <trkpt lat="40.5783630" lon="-3.9389000">
        <ele>901.8</ele>
        <time>2019-05-28T08:56:16Z</time>
      </trkpt>
      <trkpt lat="40.5784530" lon="-3.9393920">
        <ele>902.0</ele>
        <time>2019-05-28T08:56:23Z</time>
      </trkpt>
      <trkpt lat="40.5784910" lon="-3.9396270">
        <ele>901.8</ele>
        <time>2019-05-28T08:56:26Z</time>
      </trkpt>
      <trkpt lat="40.5785460" lon="-3.9399630">
        <ele>901.8</ele>
        <time>2019-05-28T08:56:30Z</time>
      </trkpt>
      <trkpt lat="40.5785760" lon="-3.9402360">
        <ele>901.6</ele>
        <time>2019-05-28T08:56:33Z</time>
      </trkpt>
      <trkpt lat="40.5785800" lon="-3.9404300">
        <ele>901.4</ele>
        <time>2019-05-28T08:56:35Z</time>
      </trkpt>
      <trkpt lat="40.5785760" lon="-3.9406310">
        <ele>900.8</ele>
        <time>2019-05-28T08:56:37Z</time>
      </trkpt>
      <trkpt lat="40.5785650" lon="-3.9408380">
        <ele>900.2</ele>
        <time>2019-05-28T08:56:39Z</time>
      </trkpt>
      <trkpt lat="40.5785330" lon="-3.9412640">
        <ele>899.2</ele>
        <time>2019-05-28T08:56:43Z</time>
      </trkpt>
      <trkpt lat="40.5785240" lon="-3.9413750">
        <ele>899.0</ele>
        <time>2019-05-28T08:56:44Z</time>
      </trkpt>
      <trkpt lat="40.5785160" lon="-3.9417160">
        <ele>898.2</ele>
        <time>2019-05-28T08:56:47Z</time>
      </trkpt>
      <trkpt lat="40.5785310" lon="-3.9419530">
        <ele>897.8</ele>
        <time>2019-05-28T08:56:49Z</time>
      </trkpt>
      <trkpt lat="40.5786110" lon="-3.9425500">
        <ele>896.8</ele>
        <time>2019-05-28T08:56:54Z</time>
      </trkpt>
      <trkpt lat="40.5786940" lon="-3.9430180">
        <ele>895.6</ele>
        <time>2019-05-28T08:56:58Z</time>
      </trkpt>
      <trkpt lat="40.5788100" lon="-3.9436000">
        <ele>894.4</ele>
        <time>2019-05-28T08:57:03Z</time>
      </trkpt>
      <trkpt lat="40.5789710" lon="-3.9441230">
        <ele>893.8</ele>
        <time>2019-05-28T08:57:08Z</time>
      </trkpt>
      <trkpt lat="40.5790090" lon="-3.9442060">
        <ele>893.8</ele>
        <time>2019-05-28T08:57:09Z</time>
      </trkpt>
      <trkpt lat="40.5791340" lon="-3.9444180">
        <ele>893.8</ele>
        <time>2019-05-28T08:57:12Z</time>
      </trkpt>
      <trkpt lat="40.5792110" lon="-3.9445410">
        <ele>893.8</ele>
        <time>2019-05-28T08:57:14Z</time>
      </trkpt>
      <trkpt lat="40.5793860" lon="-3.9448530">
        <ele>895.6</ele>
        <time>2019-05-28T08:57:19Z</time>
      </trkpt>
      <trkpt lat="40.5794430" lon="-3.9449970">
        <ele>897.0</ele>
        <time>2019-05-28T08:57:21Z</time>
      </trkpt>
      <trkpt lat="40.5795030" lon="-3.9451560">
        <ele>897.2</ele>
        <time>2019-05-28T08:57:23Z</time>
      </trkpt>
      <trkpt lat="40.5798390" lon="-3.9457930">
        <ele>897.2</ele>
        <time>2019-05-28T08:57:30Z</time>
      </trkpt>
      <trkpt lat="40.5799690" lon="-3.9459910">
        <ele>896.4</ele>
        <time>2019-05-28T08:57:32Z</time>
      </trkpt>
      <trkpt lat="40.5800390" lon="-3.9460910">
        <ele>895.6</ele>
        <time>2019-05-28T08:57:33Z</time>
      </trkpt>
      <trkpt lat="40.5801860" lon="-3.9462890">
        <ele>894.2</ele>
        <time>2019-05-28T08:57:35Z</time>
      </trkpt>
      <trkpt lat="40.5802620" lon="-3.9463880">
        <ele>893.2</ele>
        <time>2019-05-28T08:57:36Z</time>
      </trkpt>
      <trkpt lat="40.5804200" lon="-3.9465830">
        <ele>891.4</ele>
        <time>2019-05-28T08:57:38Z</time>
      </trkpt>
      <trkpt lat="40.5805870" lon="-3.9467710">
        <ele>889.8</ele>
        <time>2019-05-28T08:57:40Z</time>
      </trkpt>
      <trkpt lat="40.5807550" lon="-3.9469570">
        <ele>888.6</ele>
        <time>2019-05-28T08:57:42Z</time>
      </trkpt>
      <trkpt lat="40.5809240" lon="-3.9471420">
        <ele>887.2</ele>
        <time>2019-05-28T08:57:44Z</time>
      </trkpt>
      <trkpt lat="40.5813500" lon="-3.9476000">
        <ele>886.2</ele>
        <time>2019-05-28T08:57:49Z</time>
      </trkpt>
      <trkpt lat="40.5814350" lon="-3.9476930">
        <ele>886.2</ele>
        <time>2019-05-28T08:57:50Z</time>
      </trkpt>
      <trkpt lat="40.5815210" lon="-3.9477850">
        <ele>886.2</ele>
        <time>2019-05-28T08:57:51Z</time>
      </trkpt>
      <trkpt lat="40.5820220" lon="-3.9483200">
        <ele>885.6</ele>
        <time>2019-05-28T08:57:57Z</time>
      </trkpt>
      <trkpt lat="40.5825150" lon="-3.9488500">
        <ele>885.2</ele>
        <time>2019-05-28T08:58:03Z</time>
      </trkpt>
      <trkpt lat="40.5829320" lon="-3.9492970">
        <ele>885.0</ele>
        <time>2019-05-28T08:58:08Z</time>
      </trkpt>
      <trkpt lat="40.5833460" lon="-3.9497440">
        <ele>884.0</ele>
        <time>2019-05-28T08:58:13Z</time>
      </trkpt>
      <trkpt lat="40.5837970" lon="-3.9502180">
        <ele>883.6</ele>
        <time>2019-05-28T08:58:19Z</time>
      </trkpt>
      <trkpt lat="40.5841940" lon="-3.9506560">
        <ele>883.8</ele>
        <time>2019-05-28T08:58:25Z</time>
      </trkpt>
      <trkpt lat="40.5844500" lon="-3.9509210">
        <ele>884.8</ele>
        <time>2019-05-28T08:58:29Z</time>
      </trkpt>
      <trkpt lat="40.5845120" lon="-3.9509870">
        <ele>885.2</ele>
        <time>2019-05-28T08:58:30Z</time>
      </trkpt>
      <trkpt lat="40.5848770" lon="-3.9513800">
        <ele>886.4</ele>
        <time>2019-05-28T08:58:36Z</time>
      </trkpt>
      <trkpt lat="40.5851270" lon="-3.9516280">
        <ele>887.6</ele>
        <time>2019-05-28T08:58:40Z</time>
      </trkpt>
      <trkpt lat="40.5855890" lon="-3.9520290">
        <ele>888.2</ele>
        <time>2019-05-28T08:58:47Z</time>
      </trkpt>
      <trkpt lat="40.5860590" lon="-3.9524130">
        <ele>888.4</ele>
        <time>2019-05-28T08:58:54Z</time>
      </trkpt>
      <trkpt lat="40.5862620" lon="-3.9525820">
        <ele>888.6</ele>
        <time>2019-05-28T08:58:57Z</time>
      </trkpt>
      <trkpt lat="40.5867460" lon="-3.9529500">
        <ele>889.4</ele>
        <time>2019-05-28T08:59:04Z</time>
      </trkpt>
      <trkpt lat="40.5872360" lon="-3.9532670">
        <ele>889.6</ele>
        <time>2019-05-28T08:59:11Z</time>
      </trkpt>
      <trkpt lat="40.5873080" lon="-3.9533040">
        <ele>889.8</ele>
        <time>2019-05-28T08:59:12Z</time>
      </trkpt>
      <trkpt lat="40.5878910" lon="-3.9535510">
        <ele>890.6</ele>
        <time>2019-05-28T08:59:20Z</time>
      </trkpt>
      <trkpt lat="40.5881120" lon="-3.9536140">
        <ele>890.6</ele>
        <time>2019-05-28T08:59:23Z</time>
      </trkpt>
      <trkpt lat="40.5886950" lon="-3.9537200">
        <ele>891.6</ele>
        <time>2019-05-28T08:59:31Z</time>
      </trkpt>
      <trkpt lat="40.5887680" lon="-3.9537270">
        <ele>891.8</ele>
        <time>2019-05-28T08:59:32Z</time>
      </trkpt>
      <trkpt lat="40.5892580" lon="-3.9537240">
        <ele>893.2</ele>
        <time>2019-05-28T08:59:39Z</time>
      </trkpt>
      <trkpt lat="40.5896420" lon="-3.9536620">
        <ele>894.6</ele>
        <time>2019-05-28T08:59:45Z</time>
      </trkpt>
      <trkpt lat="40.5900080" lon="-3.9535460">
        <ele>895.6</ele>
        <time>2019-05-28T08:59:51Z</time>
      </trkpt>
      <trkpt lat="40.5903270" lon="-3.9534220">
        <ele>896.8</ele>
        <time>2019-05-28T08:59:56Z</time>
      </trkpt>
      <trkpt lat="40.5908740" lon="-3.9531760">
        <ele>897.2</ele>
        <time>2019-05-28T09:00:04Z</time>
      </trkpt>
      <trkpt lat="40.5914180" lon="-3.9528560">
        <ele>896.8</ele>
        <time>2019-05-28T09:00:12Z</time>
      </trkpt>
      <trkpt lat="40.5918990" lon="-3.9525550">
        <ele>898.0</ele>
        <time>2019-05-28T09:00:20Z</time>
      </trkpt>
      <trkpt lat="40.5923570" lon="-3.9522680">
        <ele>899.2</ele>
        <time>2019-05-28T09:00:28Z</time>
      </trkpt>
      <trkpt lat="40.5925970" lon="-3.9521330">
        <ele>899.6</ele>
        <time>2019-05-28T09:00:32Z</time>
      </trkpt>
      <trkpt lat="40.5929410" lon="-3.9519950">
        <ele>899.6</ele>
        <time>2019-05-28T09:00:37Z</time>
      </trkpt>
      <trkpt lat="40.5931700" lon="-3.9519360">
        <ele>899.0</ele>
        <time>2019-05-28T09:00:40Z</time>
      </trkpt>
      <trkpt lat="40.5935910" lon="-3.9518920">
        <ele>897.8</ele>
        <time>2019-05-28T09:00:45Z</time>
      </trkpt>
      <trkpt lat="40.5937730" lon="-3.9518980">
        <ele>897.2</ele>
        <time>2019-05-28T09:00:47Z</time>
      </trkpt>
      <trkpt lat="40.5938620" lon="-3.9519020">
        <ele>896.8</ele>
        <time>2019-05-28T09:00:48Z</time>
      </trkpt>
      <trkpt lat="40.5941430" lon="-3.9519390">
        <ele>895.2</ele>
        <time>2019-05-28T09:00:51Z</time>
      </trkpt>
      <trkpt lat="40.5943240" lon="-3.9519660">
        <ele>894.0</ele>
        <time>2019-05-28T09:00:53Z</time>
      </trkpt>
      <trkpt lat="40.5945830" lon="-3.9520320">
        <ele>893.0</ele>
        <time>2019-05-28T09:00:56Z</time>
      </trkpt>
      <trkpt lat="40.5948650" lon="-3.9521410">
        <ele>892.8</ele>
        <time>2019-05-28T09:01:00Z</time>
      </trkpt>
      <trkpt lat="40.5950000" lon="-3.9521570">
        <ele>892.8</ele>
        <time>2019-05-28T09:01:02Z</time>
      </trkpt>
      <trkpt lat="40.5953520" lon="-3.9523120">
        <ele>893.4</ele>
        <time>2019-05-28T09:01:10Z</time>
      </trkpt>
      <trkpt lat="40.5954900" lon="-3.9526020">
        <ele>893.4</ele>
        <time>2019-05-28T09:01:14Z</time>
      </trkpt>
      <trkpt lat="40.5956780" lon="-3.9528090">
        <ele>893.2</ele>
        <time>2019-05-28T09:01:17Z</time>
      </trkpt>
      <trkpt lat="40.5958980" lon="-3.9530500">
        <ele>893.0</ele>
        <time>2019-05-28T09:01:20Z</time>
      </trkpt>
      <trkpt lat="40.5960470" lon="-3.9532250">
        <ele>891.6</ele>
        <time>2019-05-28T09:01:22Z</time>
      </trkpt>
      <trkpt lat="40.5961920" lon="-3.9534110">
        <ele>890.0</ele>
        <time>2019-05-28T09:01:24Z</time>
      </trkpt>
      <trkpt lat="40.5962620" lon="-3.9535090">
        <ele>888.8</ele>
        <time>2019-05-28T09:01:25Z</time>
      </trkpt>
      <trkpt lat="40.5963960" lon="-3.9537110">
        <ele>886.8</ele>
        <time>2019-05-28T09:01:27Z</time>
      </trkpt>
      <trkpt lat="40.5965150" lon="-3.9539190">
        <ele>885.2</ele>
        <time>2019-05-28T09:01:29Z</time>
      </trkpt>
      <trkpt lat="40.5966760" lon="-3.9542310">
        <ele>884.2</ele>
        <time>2019-05-28T09:01:32Z</time>
      </trkpt>
      <trkpt lat="40.5968560" lon="-3.9546270">
        <ele>884.0</ele>
        <time>2019-05-28T09:01:36Z</time>
      </trkpt>
      <trkpt lat="40.5970220" lon="-3.9549700">
        <ele>884.0</ele>
        <time>2019-05-28T09:01:40Z</time>
      </trkpt>
      <trkpt lat="40.5970670" lon="-3.9550400">
        <ele>884.2</ele>
        <time>2019-05-28T09:01:41Z</time>
      </trkpt>
      <trkpt lat="40.5971620" lon="-3.9551550">
        <ele>884.4</ele>
        <time>2019-05-28T09:01:43Z</time>
      </trkpt>
      <trkpt lat="40.5972520" lon="-3.9552470">
        <ele>885.2</ele>
        <time>2019-05-28T09:01:45Z</time>
      </trkpt>
      <trkpt lat="40.5973790" lon="-3.9553650">
        <ele>886.0</ele>
        <time>2019-05-28T09:01:48Z</time>
      </trkpt>
      <trkpt lat="40.5974190" lon="-3.9554020">
        <ele>886.4</ele>
        <time>2019-05-28T09:01:49Z</time>
      </trkpt>
      <trkpt lat="40.5975000" lon="-3.9554780">
        <ele>887.6</ele>
        <time>2019-05-28T09:01:51Z</time>
      </trkpt>
      <trkpt lat="40.5975680" lon="-3.9555530">
        <ele>888.8</ele>
        <time>2019-05-28T09:01:53Z</time>
      </trkpt>
      <trkpt lat="40.5976280" lon="-3.9556350">
        <ele>890.2</ele>
        <time>2019-05-28T09:01:55Z</time>
      </trkpt>
      <trkpt lat="40.5976850" lon="-3.9557280">
        <ele>891.4</ele>
        <time>2019-05-28T09:01:57Z</time>
      </trkpt>
      <trkpt lat="40.5977360" lon="-3.9558260">
        <ele>892.0</ele>
        <time>2019-05-28T09:01:59Z</time>
      </trkpt>
      <trkpt lat="40.5977580" lon="-3.9558770">
        <ele>892.2</ele>
        <time>2019-05-28T09:02:00Z</time>
      </trkpt>
      <trkpt lat="40.5977770" lon="-3.9559290">
        <ele>892.6</ele>
        <time>2019-05-28T09:02:01Z</time>
      </trkpt>
      <trkpt lat="40.5978080" lon="-3.9560330">
        <ele>893.2</ele>
        <time>2019-05-28T09:02:03Z</time>
      </trkpt>
      <trkpt lat="40.5978300" lon="-3.9561370">
        <ele>893.6</ele>
        <time>2019-05-28T09:02:05Z</time>
      </trkpt>
      <trkpt lat="40.5978350" lon="-3.9561900">
        <ele>893.8</ele>
        <time>2019-05-28T09:02:06Z</time>
      </trkpt>
      <trkpt lat="40.5978370" lon="-3.9563490">
        <ele>894.4</ele>
        <time>2019-05-28T09:02:09Z</time>
      </trkpt>
      <trkpt lat="40.5978310" lon="-3.9564000">
        <ele>894.6</ele>
        <time>2019-05-28T09:02:10Z</time>
      </trkpt>
      <trkpt lat="40.5978030" lon="-3.9565570">
        <ele>895.6</ele>
        <time>2019-05-28T09:02:13Z</time>
      </trkpt>
      <trkpt lat="40.5977900" lon="-3.9566070">
        <ele>895.8</ele>
        <time>2019-05-28T09:02:14Z</time>
      </trkpt>
      <trkpt lat="40.5977660" lon="-3.9567080">
        <ele>896.2</ele>
        <time>2019-05-28T09:02:16Z</time>
      </trkpt>
      <trkpt lat="40.5976820" lon="-3.9569010">
        <ele>897.0</ele>
        <time>2019-05-28T09:02:20Z</time>
      </trkpt>
      <trkpt lat="40.5975420" lon="-3.9572260">
        <ele>898.2</ele>
        <time>2019-05-28T09:02:27Z</time>
      </trkpt>
      <trkpt lat="40.5974100" lon="-3.9575510">
        <ele>899.4</ele>
        <time>2019-05-28T09:02:34Z</time>
      </trkpt>
      <trkpt lat="40.5973100" lon="-3.9578330">
        <ele>900.4</ele>
        <time>2019-05-28T09:02:40Z</time>
      </trkpt>
      <trkpt lat="40.5972440" lon="-3.9580840">
        <ele>901.6</ele>
        <time>2019-05-28T09:02:45Z</time>
      </trkpt>
      <trkpt lat="40.5971830" lon="-3.9583990">
        <ele>902.6</ele>
        <time>2019-05-28T09:02:51Z</time>
      </trkpt>
      <trkpt lat="40.5971480" lon="-3.9586670">
        <ele>903.8</ele>
        <time>2019-05-28T09:02:56Z</time>
      </trkpt>
      <trkpt lat="40.5971320" lon="-3.9589380">
        <ele>904.8</ele>
        <time>2019-05-28T09:03:01Z</time>
      </trkpt>
      <trkpt lat="40.5971320" lon="-3.9591560">
        <ele>906.0</ele>
        <time>2019-05-28T09:03:05Z</time>
      </trkpt>
      <trkpt lat="40.5971570" lon="-3.9594940">
        <ele>907.0</ele>
        <time>2019-05-28T09:03:11Z</time>
      </trkpt>
      <trkpt lat="40.5972040" lon="-3.9598340">
        <ele>908.0</ele>
        <time>2019-05-28T09:03:17Z</time>
      </trkpt>
      <trkpt lat="40.5972530" lon="-3.9600620">
        <ele>908.4</ele>
        <time>2019-05-28T09:03:21Z</time>
      </trkpt>
      <trkpt lat="40.5972810" lon="-3.9601730">
        <ele>909.0</ele>
        <time>2019-05-28T09:03:23Z</time>
      </trkpt>
      <trkpt lat="40.5972980" lon="-3.9602250">
        <ele>909.2</ele>
        <time>2019-05-28T09:03:24Z</time>
      </trkpt>
      <trkpt lat="40.5975630" lon="-3.9608840">
        <ele>910.2</ele>
        <time>2019-05-28T09:03:37Z</time>
      </trkpt>
      <trkpt lat="40.5977340" lon="-3.9611810">
        <ele>911.4</ele>
        <time>2019-05-28T09:03:44Z</time>
      </trkpt>
      <trkpt lat="40.5978070" lon="-3.9612960">
        <ele>912.4</ele>
        <time>2019-05-28T09:03:47Z</time>
      </trkpt>
      <trkpt lat="40.5979130" lon="-3.9614390">
        <ele>913.6</ele>
        <time>2019-05-28T09:03:51Z</time>
      </trkpt>
      <trkpt lat="40.5979910" lon="-3.9615380">
        <ele>914.8</ele>
        <time>2019-05-28T09:03:54Z</time>
      </trkpt>
      <trkpt lat="40.5980710" lon="-3.9616350">
        <ele>916.2</ele>
        <time>2019-05-28T09:03:57Z</time>
      </trkpt>
      <trkpt lat="40.5981560" lon="-3.9617280">
        <ele>917.6</ele>
        <time>2019-05-28T09:04:00Z</time>
      </trkpt>
      <trkpt lat="40.5982830" lon="-3.9618480">
        <ele>918.6</ele>
        <time>2019-05-28T09:04:04Z</time>
      </trkpt>
      <trkpt lat="40.5984030" lon="-3.9619560">
        <ele>919.8</ele>
        <time>2019-05-28T09:04:08Z</time>
      </trkpt>
      <trkpt lat="40.5985390" lon="-3.9620590">
        <ele>921.0</ele>
        <time>2019-05-28T09:04:12Z</time>
      </trkpt>
      <trkpt lat="40.5986510" lon="-3.9621340">
        <ele>921.8</ele>
        <time>2019-05-28T09:04:15Z</time>
      </trkpt>
      <trkpt lat="40.5986900" lon="-3.9621560">
        <ele>922.0</ele>
        <time>2019-05-28T09:04:16Z</time>
      </trkpt>
      <trkpt lat="40.5989380" lon="-3.9622930">
        <ele>923.2</ele>
        <time>2019-05-28T09:04:22Z</time>
      </trkpt>
      <trkpt lat="40.5990660" lon="-3.9623510">
        <ele>924.4</ele>
        <time>2019-05-28T09:04:25Z</time>
      </trkpt>
      <trkpt lat="40.5992770" lon="-3.9624400">
        <ele>925.6</ele>
        <time>2019-05-28T09:04:30Z</time>
      </trkpt>
      <trkpt lat="40.5994870" lon="-3.9625290">
        <ele>926.8</ele>
        <time>2019-05-28T09:04:35Z</time>
      </trkpt>
      <trkpt lat="40.5997030" lon="-3.9626230">
        <ele>927.8</ele>
        <time>2019-05-28T09:04:40Z</time>
      </trkpt>
      <trkpt lat="40.5999170" lon="-3.9627190">
        <ele>928.6</ele>
        <time>2019-05-28T09:04:45Z</time>
      </trkpt>
      <trkpt lat="40.6000490" lon="-3.9627810">
        <ele>928.8</ele>
        <time>2019-05-28T09:04:48Z</time>
      </trkpt>
      <trkpt lat="40.6000930" lon="-3.9628020">
        <ele>929.0</ele>
        <time>2019-05-28T09:04:49Z</time>
      </trkpt>
      <trkpt lat="40.6003200" lon="-3.9629070">
        <ele>929.4</ele>
        <time>2019-05-28T09:04:54Z</time>
      </trkpt>
      <trkpt lat="40.6005580" lon="-3.9630160">
        <ele>929.6</ele>
        <time>2019-05-28T09:04:59Z</time>
      </trkpt>
      <trkpt lat="40.6008620" lon="-3.9631580">
        <ele>929.8</ele>
        <time>2019-05-28T09:05:05Z</time>
      </trkpt>
      <trkpt lat="40.6009710" lon="-3.9632090">
        <ele>929.8</ele>
        <time>2019-05-28T09:05:07Z</time>
      </trkpt>
      <trkpt lat="40.6010260" lon="-3.9632360">
        <ele>929.8</ele>
        <time>2019-05-28T09:05:08Z</time>
      </trkpt>
      <trkpt lat="40.6011360" lon="-3.9632930">
        <ele>929.8</ele>
        <time>2019-05-28T09:05:10Z</time>
      </trkpt>
      <trkpt lat="40.6014770" lon="-3.9634830">
        <ele>929.8</ele>
        <time>2019-05-28T09:05:16Z</time>
      </trkpt>
      <trkpt lat="40.6019350" lon="-3.9637850">
        <ele>929.0</ele>
        <time>2019-05-28T09:05:24Z</time>
      </trkpt>
      <trkpt lat="40.6022750" lon="-3.9640380">
        <ele>928.6</ele>
        <time>2019-05-28T09:05:30Z</time>
      </trkpt>
      <trkpt lat="40.6027530" lon="-3.9644600">
        <ele>928.2</ele>
        <time>2019-05-28T09:05:38Z</time>
      </trkpt>
      <trkpt lat="40.6028750" lon="-3.9645820">
        <ele>928.0</ele>
        <time>2019-05-28T09:05:40Z</time>
      </trkpt>
      <trkpt lat="40.6031240" lon="-3.9648400">
        <ele>927.6</ele>
        <time>2019-05-28T09:05:44Z</time>
      </trkpt>
      <trkpt lat="40.6032510" lon="-3.9649770">
        <ele>926.8</ele>
        <time>2019-05-28T09:05:46Z</time>
      </trkpt>
      <trkpt lat="40.6033790" lon="-3.9651220">
        <ele>926.4</ele>
        <time>2019-05-28T09:05:48Z</time>
      </trkpt>
      <trkpt lat="40.6035770" lon="-3.9653570">
        <ele>925.6</ele>
        <time>2019-05-28T09:05:51Z</time>
      </trkpt>
      <trkpt lat="40.6037770" lon="-3.9656220">
        <ele>924.2</ele>
        <time>2019-05-28T09:05:54Z</time>
      </trkpt>
      <trkpt lat="40.6039810" lon="-3.9659190">
        <ele>922.8</ele>
        <time>2019-05-28T09:05:57Z</time>
      </trkpt>
      <trkpt lat="40.6041160" lon="-3.9661310">
        <ele>921.4</ele>
        <time>2019-05-28T09:05:59Z</time>
      </trkpt>
      <trkpt lat="40.6042480" lon="-3.9663460">
        <ele>920.2</ele>
        <time>2019-05-28T09:06:01Z</time>
      </trkpt>
      <trkpt lat="40.6043740" lon="-3.9665600">
        <ele>918.8</ele>
        <time>2019-05-28T09:06:03Z</time>
      </trkpt>
      <trkpt lat="40.6044940" lon="-3.9667680">
        <ele>917.6</ele>
        <time>2019-05-28T09:06:05Z</time>
      </trkpt>
      <trkpt lat="40.6047430" lon="-3.9672680">
        <ele>916.2</ele>
        <time>2019-05-28T09:06:10Z</time>
      </trkpt>
      <trkpt lat="40.6049060" lon="-3.9676270">
        <ele>916.2</ele>
        <time>2019-05-28T09:06:14Z</time>
      </trkpt>
      <trkpt lat="40.6049740" lon="-3.9677890">
        <ele>916.2</ele>
        <time>2019-05-28T09:06:16Z</time>
      </trkpt>
      <trkpt lat="40.6050380" lon="-3.9679420">
        <ele>916.2</ele>
        <time>2019-05-28T09:06:18Z</time>
      </trkpt>
      <trkpt lat="40.6051020" lon="-3.9680910">
        <ele>916.8</ele>
        <time>2019-05-28T09:06:20Z</time>
      </trkpt>
      <trkpt lat="40.6051890" lon="-3.9683020">
        <ele>917.8</ele>
        <time>2019-05-28T09:06:23Z</time>
      </trkpt>
      <trkpt lat="40.6052460" lon="-3.9684380">
        <ele>918.6</ele>
        <time>2019-05-28T09:06:25Z</time>
      </trkpt>
      <trkpt lat="40.6052730" lon="-3.9685080">
        <ele>918.8</ele>
        <time>2019-05-28T09:06:26Z</time>
      </trkpt>
      <trkpt lat="40.6053590" lon="-3.9687140">
        <ele>920.0</ele>
        <time>2019-05-28T09:06:29Z</time>
      </trkpt>
      <trkpt lat="40.6054140" lon="-3.9688500">
        <ele>920.8</ele>
        <time>2019-05-28T09:06:31Z</time>
      </trkpt>
      <trkpt lat="40.6054410" lon="-3.9689170">
        <ele>921.6</ele>
        <time>2019-05-28T09:06:32Z</time>
      </trkpt>
      <trkpt lat="40.6055860" lon="-3.9692450">
        <ele>922.6</ele>
        <time>2019-05-28T09:06:37Z</time>
      </trkpt>
      <trkpt lat="40.6056120" lon="-3.9693100">
        <ele>922.8</ele>
        <time>2019-05-28T09:06:38Z</time>
      </trkpt>
      <trkpt lat="40.6057460" lon="-3.9696220">
        <ele>923.4</ele>
        <time>2019-05-28T09:06:43Z</time>
      </trkpt>
      <trkpt lat="40.6058510" lon="-3.9698660">
        <ele>924.0</ele>
        <time>2019-05-28T09:06:47Z</time>
      </trkpt>
      <trkpt lat="40.6059310" lon="-3.9700420">
        <ele>925.0</ele>
        <time>2019-05-28T09:06:50Z</time>
      </trkpt>
      <trkpt lat="40.6060730" lon="-3.9703310">
        <ele>926.0</ele>
        <time>2019-05-28T09:06:55Z</time>
      </trkpt>
      <trkpt lat="40.6061630" lon="-3.9704950">
        <ele>927.2</ele>
        <time>2019-05-28T09:06:58Z</time>
      </trkpt>
      <trkpt lat="40.6063220" lon="-3.9707640">
        <ele>928.4</ele>
        <time>2019-05-28T09:07:03Z</time>
      </trkpt>
      <trkpt lat="40.6063890" lon="-3.9708740">
        <ele>929.4</ele>
        <time>2019-05-28T09:07:05Z</time>
      </trkpt>
      <trkpt lat="40.6064250" lon="-3.9709310">
        <ele>929.8</ele>
        <time>2019-05-28T09:07:06Z</time>
      </trkpt>
      <trkpt lat="40.6064620" lon="-3.9709860">
        <ele>930.8</ele>
        <time>2019-05-28T09:07:07Z</time>
      </trkpt>
      <trkpt lat="40.6065720" lon="-3.9711530">
        <ele>932.0</ele>
        <time>2019-05-28T09:07:10Z</time>
      </trkpt>
      <trkpt lat="40.6067330" lon="-3.9713840">
        <ele>933.2</ele>
        <time>2019-05-28T09:07:14Z</time>
      </trkpt>
      <trkpt lat="40.6069470" lon="-3.9716680">
        <ele>934.4</ele>
        <time>2019-05-28T09:07:19Z</time>
      </trkpt>
      <trkpt lat="40.6073150" lon="-3.9721080">
        <ele>934.6</ele>
        <time>2019-05-28T09:07:27Z</time>
      </trkpt>
      <trkpt lat="40.6077380" lon="-3.9725590">
        <ele>934.2</ele>
        <time>2019-05-28T09:07:35Z</time>
      </trkpt>
      <trkpt lat="40.6080150" lon="-3.9728480">
        <ele>933.8</ele>
        <time>2019-05-28T09:07:40Z</time>
      </trkpt>
      <trkpt lat="40.6080710" lon="-3.9729070">
        <ele>933.4</ele>
        <time>2019-05-28T09:07:41Z</time>
      </trkpt>
      <trkpt lat="40.6082980" lon="-3.9731460">
        <ele>932.6</ele>
        <time>2019-05-28T09:07:45Z</time>
      </trkpt>
      <trkpt lat="40.6084730" lon="-3.9733280">
        <ele>932.2</ele>
        <time>2019-05-28T09:07:48Z</time>
      </trkpt>
      <trkpt lat="40.6088300" lon="-3.9737000">
        <ele>932.0</ele>
        <time>2019-05-28T09:07:54Z</time>
      </trkpt>
      <trkpt lat="40.6090760" lon="-3.9739560">
        <ele>931.2</ele>
        <time>2019-05-28T09:07:58Z</time>
      </trkpt>
      <trkpt lat="40.6093290" lon="-3.9742150">
        <ele>930.8</ele>
        <time>2019-05-28T09:08:02Z</time>
      </trkpt>
      <trkpt lat="40.6095800" lon="-3.9744760">
        <ele>903.6</ele>
        <time>2019-05-28T09:08:06Z</time>
      </trkpt>
      <trkpt lat="40.6098300" lon="-3.9747430">
        <ele>929.2</ele>
        <time>2019-05-28T09:08:10Z</time>
      </trkpt>
      <trkpt lat="40.6098930" lon="-3.9748120">
        <ele>929.0</ele>
        <time>2019-05-28T09:08:11Z</time>
      </trkpt>
      <trkpt lat="40.6103300" lon="-3.9752780">
        <ele>928.2</ele>
        <time>2019-05-28T09:08:18Z</time>
      </trkpt>
      <trkpt lat="40.6103910" lon="-3.9753440">
        <ele>928.0</ele>
        <time>2019-05-28T09:08:19Z</time>
      </trkpt>
      <trkpt lat="40.6108210" lon="-3.9758110">
        <ele>927.2</ele>
        <time>2019-05-28T09:08:26Z</time>
      </trkpt>
      <trkpt lat="40.6110580" lon="-3.9760810">
        <ele>927.0</ele>
        <time>2019-05-28T09:08:30Z</time>
      </trkpt>
      <trkpt lat="40.6114750" lon="-3.9765800">
        <ele>926.0</ele>
        <time>2019-05-28T09:08:37Z</time>
      </trkpt>
      <trkpt lat="40.6115330" lon="-3.9766530">
        <ele>926.0</ele>
        <time>2019-05-28T09:08:38Z</time>
      </trkpt>
      <trkpt lat="40.6117550" lon="-3.9769290">
        <ele>926.0</ele>
        <time>2019-05-28T09:08:42Z</time>
      </trkpt>
      <trkpt lat="40.6120850" lon="-3.9773430">
        <ele>926.4</ele>
        <time>2019-05-28T09:08:49Z</time>
      </trkpt>
      <trkpt lat="40.6121720" lon="-3.9774530">
        <ele>927.6</ele>
        <time>2019-05-28T09:08:51Z</time>
      </trkpt>
      <trkpt lat="40.6123050" lon="-3.9776090">
        <ele>929.0</ele>
        <time>2019-05-28T09:08:54Z</time>
      </trkpt>
      <trkpt lat="40.6124320" lon="-3.9777620">
        <ele>930.4</ele>
        <time>2019-05-28T09:08:57Z</time>
      </trkpt>
      <trkpt lat="40.6125600" lon="-3.9779110">
        <ele>931.2</ele>
        <time>2019-05-28T09:09:00Z</time>
      </trkpt>
      <trkpt lat="40.6126030" lon="-3.9779620">
        <ele>931.6</ele>
        <time>2019-05-28T09:09:01Z</time>
      </trkpt>
      <trkpt lat="40.6127290" lon="-3.9781100">
        <ele>932.2</ele>
        <time>2019-05-28T09:09:04Z</time>
      </trkpt>
      <trkpt lat="40.6127720" lon="-3.9781580">
        <ele>932.4</ele>
        <time>2019-05-28T09:09:05Z</time>
      </trkpt>
      <trkpt lat="40.6128130" lon="-3.9782100">
        <ele>932.8</ele>
        <time>2019-05-28T09:09:06Z</time>
      </trkpt>
      <trkpt lat="40.6130250" lon="-3.9784590">
        <ele>933.6</ele>
        <time>2019-05-28T09:09:11Z</time>
      </trkpt>
      <trkpt lat="40.6130690" lon="-3.9785090">
        <ele>934.0</ele>
        <time>2019-05-28T09:09:12Z</time>
      </trkpt>
      <trkpt lat="40.6133440" lon="-3.9788320">
        <ele>934.8</ele>
        <time>2019-05-28T09:09:18Z</time>
      </trkpt>
      <trkpt lat="40.6134980" lon="-3.9790130">
        <ele>934.8</ele>
        <time>2019-05-28T09:09:21Z</time>
      </trkpt>
      <trkpt lat="40.6137850" lon="-3.9793490">
        <ele>934.2</ele>
        <time>2019-05-28T09:09:26Z</time>
      </trkpt>
      <trkpt lat="40.6139770" lon="-3.9795800">
        <ele>933.6</ele>
        <time>2019-05-28T09:09:29Z</time>
      </trkpt>
      <trkpt lat="40.6140460" lon="-3.9796600">
        <ele>933.2</ele>
        <time>2019-05-28T09:09:30Z</time>
      </trkpt>
      <trkpt lat="40.6141160" lon="-3.9797410">
        <ele>932.8</ele>
        <time>2019-05-28T09:09:31Z</time>
      </trkpt>
      <trkpt lat="40.6142630" lon="-3.9799020">
        <ele>931.6</ele>
        <time>2019-05-28T09:09:33Z</time>
      </trkpt>
      <trkpt lat="40.6144180" lon="-3.9800680">
        <ele>930.8</ele>
        <time>2019-05-28T09:09:35Z</time>
      </trkpt>
      <trkpt lat="40.6144980" lon="-3.9801500">
        <ele>930.4</ele>
        <time>2019-05-28T09:09:36Z</time>
      </trkpt>
      <trkpt lat="40.6146630" lon="-3.9803110">
        <ele>929.4</ele>
        <time>2019-05-28T09:09:38Z</time>
      </trkpt>
      <trkpt lat="40.6147480" lon="-3.9803880">
        <ele>928.8</ele>
        <time>2019-05-28T09:09:39Z</time>
      </trkpt>
      <trkpt lat="40.6149200" lon="-3.9805310">
        <ele>927.8</ele>
        <time>2019-05-28T09:09:41Z</time>
      </trkpt>
      <trkpt lat="40.6150910" lon="-3.9806710">
        <ele>926.4</ele>
        <time>2019-05-28T09:09:43Z</time>
      </trkpt>
      <trkpt lat="40.6152620" lon="-3.9808090">
        <ele>925.2</ele>
        <time>2019-05-28T09:09:45Z</time>
      </trkpt>
      <trkpt lat="40.6154340" lon="-3.9809500">
        <ele>924.0</ele>
        <time>2019-05-28T09:09:47Z</time>
      </trkpt>
      <trkpt lat="40.6155210" lon="-3.9810220">
        <ele>923.6</ele>
        <time>2019-05-28T09:09:48Z</time>
      </trkpt>
      <trkpt lat="40.6156960" lon="-3.9811630">
        <ele>923.0</ele>
        <time>2019-05-28T09:09:50Z</time>
      </trkpt>
      <trkpt lat="40.6162180" lon="-3.9815810">
        <ele>921.8</ele>
        <time>2019-05-28T09:09:56Z</time>
      </trkpt>
      <trkpt lat="40.6164720" lon="-3.9817880">
        <ele>920.8</ele>
        <time>2019-05-28T09:09:59Z</time>
      </trkpt>
      <trkpt lat="40.6167980" lon="-3.9820560">
        <ele>919.8</ele>
        <time>2019-05-28T09:10:03Z</time>
      </trkpt>
      <trkpt lat="40.6172680" lon="-3.9824510">
        <ele>919.4</ele>
        <time>2019-05-28T09:10:09Z</time>
      </trkpt>
      <trkpt lat="40.6177310" lon="-3.9828790">
        <ele>918.8</ele>
        <time>2019-05-28T09:10:15Z</time>
      </trkpt>
      <trkpt lat="40.6178880" lon="-3.9830300">
        <ele>918.8</ele>
        <time>2019-05-28T09:10:17Z</time>
      </trkpt>
      <trkpt lat="40.6183730" lon="-3.9835280">
        <ele>918.4</ele>
        <time>2019-05-28T09:10:23Z</time>
      </trkpt>
      <trkpt lat="40.6185380" lon="-3.9837080">
        <ele>917.4</ele>
        <time>2019-05-28T09:10:25Z</time>
      </trkpt>
      <trkpt lat="40.6187850" lon="-3.9839900">
        <ele>916.2</ele>
        <time>2019-05-28T09:10:28Z</time>
      </trkpt>
      <trkpt lat="40.6189500" lon="-3.9841850">
        <ele>915.2</ele>
        <time>2019-05-28T09:10:30Z</time>
      </trkpt>
      <trkpt lat="40.6191990" lon="-3.9844910">
        <ele>913.6</ele>
        <time>2019-05-28T09:10:33Z</time>
      </trkpt>
      <trkpt lat="40.6193700" lon="-3.9847000">
        <ele>912.2</ele>
        <time>2019-05-28T09:10:35Z</time>
      </trkpt>
      <trkpt lat="40.6196210" lon="-3.9850150">
        <ele>910.8</ele>
        <time>2019-05-28T09:10:38Z</time>
      </trkpt>
      <trkpt lat="40.6199820" lon="-3.9854710">
        <ele>910.2</ele>
        <time>2019-05-28T09:10:43Z</time>
      </trkpt>
      <trkpt lat="40.6201640" lon="-3.9856990">
        <ele>910.2</ele>
        <time>2019-05-28T09:10:46Z</time>
      </trkpt>
      <trkpt lat="40.6204340" lon="-3.9860430">
        <ele>912.2</ele>
        <time>2019-05-28T09:10:51Z</time>
      </trkpt>
      <trkpt lat="40.6205360" lon="-3.9861690">
        <ele>914.2</ele>
        <time>2019-05-28T09:10:53Z</time>
      </trkpt>
      <trkpt lat="40.6206810" lon="-3.9863530">
        <ele>915.4</ele>
        <time>2019-05-28T09:10:56Z</time>
      </trkpt>
      <trkpt lat="40.6209240" lon="-3.9866640">
        <ele>916.6</ele>
        <time>2019-05-28T09:11:01Z</time>
      </trkpt>
      <trkpt lat="40.6212280" lon="-3.9870540">
        <ele>917.4</ele>
        <time>2019-05-28T09:11:07Z</time>
      </trkpt>
      <trkpt lat="40.6213310" lon="-3.9871830">
        <ele>917.8</ele>
        <time>2019-05-28T09:11:09Z</time>
      </trkpt>
      <trkpt lat="40.6217370" lon="-3.9876920">
        <ele>918.2</ele>
        <time>2019-05-28T09:11:17Z</time>
      </trkpt>
      <trkpt lat="40.6220410" lon="-3.9880320">
        <ele>918.8</ele>
        <time>2019-05-28T09:11:23Z</time>
      </trkpt>
      <trkpt lat="40.6221450" lon="-3.9881170">
        <ele>918.8</ele>
        <time>2019-05-28T09:11:25Z</time>
      </trkpt>
      <trkpt lat="40.6223310" lon="-3.9882550">
        <ele>919.4</ele>
        <time>2019-05-28T09:11:29Z</time>
      </trkpt>
      <trkpt lat="40.6223750" lon="-3.9882830">
        <ele>920.0</ele>
        <time>2019-05-28T09:11:30Z</time>
      </trkpt>
      <trkpt lat="40.6224570" lon="-3.9883380">
        <ele>920.8</ele>
        <time>2019-05-28T09:11:32Z</time>
      </trkpt>
      <trkpt lat="40.6224950" lon="-3.9883670">
        <ele>921.4</ele>
        <time>2019-05-28T09:11:33Z</time>
      </trkpt>
      <trkpt lat="40.6225690" lon="-3.9884210">
        <ele>922.6</ele>
        <time>2019-05-28T09:11:35Z</time>
      </trkpt>
      <trkpt lat="40.6226420" lon="-3.9884760">
        <ele>923.6</ele>
        <time>2019-05-28T09:11:37Z</time>
      </trkpt>
      <trkpt lat="40.6227520" lon="-3.9885630">
        <ele>925.2</ele>
        <time>2019-05-28T09:11:40Z</time>
      </trkpt>
      <trkpt lat="40.6228170" lon="-3.9886230">
        <ele>926.6</ele>
        <time>2019-05-28T09:11:42Z</time>
      </trkpt>
      <trkpt lat="40.6228850" lon="-3.9886850">
        <ele>927.8</ele>
        <time>2019-05-28T09:11:44Z</time>
      </trkpt>
      <trkpt lat="40.6229910" lon="-3.9887940">
        <ele>929.2</ele>
        <time>2019-05-28T09:11:47Z</time>
      </trkpt>
      <trkpt lat="40.6230970" lon="-3.9889190">
        <ele>930.2</ele>
        <time>2019-05-28T09:11:50Z</time>
      </trkpt>
      <trkpt lat="40.6232920" lon="-3.9891950">
        <ele>930.6</ele>
        <time>2019-05-28T09:11:56Z</time>
      </trkpt>
      <trkpt lat="40.6234210" lon="-3.9894130">
        <ele>930.6</ele>
        <time>2019-05-28T09:12:00Z</time>
      </trkpt>
      <trkpt lat="40.6234940" lon="-3.9895360">
        <ele>930.6</ele>
        <time>2019-05-28T09:12:02Z</time>
      </trkpt>
      <trkpt lat="40.6236190" lon="-3.9897510">
        <ele>930.2</ele>
        <time>2019-05-28T09:12:05Z</time>
      </trkpt>
      <trkpt lat="40.6237800" lon="-3.9900010">
        <ele>929.6</ele>
        <time>2019-05-28T09:12:08Z</time>
      </trkpt>
      <trkpt lat="40.6239100" lon="-3.9901740">
        <ele>928.6</ele>
        <time>2019-05-28T09:12:10Z</time>
      </trkpt>
      <trkpt lat="40.6239820" lon="-3.9902570">
        <ele>927.4</ele>
        <time>2019-05-28T09:12:11Z</time>
      </trkpt>
      <trkpt lat="40.6241280" lon="-3.9904210">
        <ele>925.8</ele>
        <time>2019-05-28T09:12:13Z</time>
      </trkpt>
      <trkpt lat="40.6242760" lon="-3.9905820">
        <ele>924.2</ele>
        <time>2019-05-28T09:12:15Z</time>
      </trkpt>
      <trkpt lat="40.6244210" lon="-3.9907410">
        <ele>922.2</ele>
        <time>2019-05-28T09:12:17Z</time>
      </trkpt>
      <trkpt lat="40.6245650" lon="-3.9908960">
        <ele>921.0</ele>
        <time>2019-05-28T09:12:19Z</time>
      </trkpt>
      <trkpt lat="40.6248440" lon="-3.9912030">
        <ele>919.8</ele>
        <time>2019-05-28T09:12:23Z</time>
      </trkpt>
      <trkpt lat="40.6251220" lon="-3.9915000">
        <ele>919.0</ele>
        <time>2019-05-28T09:12:27Z</time>
      </trkpt>
      <trkpt lat="40.6251880" lon="-3.9915740">
        <ele>918.6</ele>
        <time>2019-05-28T09:12:28Z</time>
      </trkpt>
      <trkpt lat="40.6256310" lon="-3.9920670">
        <ele>917.8</ele>
        <time>2019-05-28T09:12:35Z</time>
      </trkpt>
      <trkpt lat="40.6261130" lon="-3.9925790">
        <ele>917.8</ele>
        <time>2019-05-28T09:12:43Z</time>
      </trkpt>
      <trkpt lat="40.6265860" lon="-3.9930430">
        <ele>918.6</ele>
        <time>2019-05-28T09:12:51Z</time>
      </trkpt>
      <trkpt lat="40.6269690" lon="-3.9934010">
        <ele>919.4</ele>
        <time>2019-05-28T09:12:58Z</time>
      </trkpt>
      <trkpt lat="40.6270730" lon="-3.9934930">
        <ele>919.6</ele>
        <time>2019-05-28T09:13:00Z</time>
      </trkpt>
      <trkpt lat="40.6274650" lon="-3.9938570">
        <ele>920.8</ele>
        <time>2019-05-28T09:13:08Z</time>
      </trkpt>
      <trkpt lat="40.6278430" lon="-3.9942310">
        <ele>921.8</ele>
        <time>2019-05-28T09:13:16Z</time>
      </trkpt>
      <trkpt lat="40.6281240" lon="-3.9945360">
        <ele>923.0</ele>
        <time>2019-05-28T09:13:22Z</time>
      </trkpt>
      <trkpt lat="40.6282160" lon="-3.9946420">
        <ele>924.0</ele>
        <time>2019-05-28T09:13:24Z</time>
      </trkpt>
      <trkpt lat="40.6286220" lon="-3.9951480">
        <ele>924.6</ele>
        <time>2019-05-28T09:13:33Z</time>
      </trkpt>
      <trkpt lat="40.6289670" lon="-3.9957020">
        <ele>924.4</ele>
        <time>2019-05-28T09:13:42Z</time>
      </trkpt>
      <trkpt lat="40.6292700" lon="-3.9963120">
        <ele>924.6</ele>
        <time>2019-05-28T09:13:51Z</time>
      </trkpt>
      <trkpt lat="40.6295570" lon="-3.9969620">
        <ele>924.6</ele>
        <time>2019-05-28T09:14:00Z</time>
      </trkpt>
      <trkpt lat="40.6296280" lon="-3.9970970">
        <ele>924.4</ele>
        <time>2019-05-28T09:14:02Z</time>
      </trkpt>
      <trkpt lat="40.6299530" lon="-3.9977500">
        <ele>924.6</ele>
        <time>2019-05-28T09:14:12Z</time>
      </trkpt>
      <trkpt lat="40.6302700" lon="-3.9983020">
        <ele>925.2</ele>
        <time>2019-05-28T09:14:21Z</time>
      </trkpt>
      <trkpt lat="40.6306970" lon="-3.9988650">
        <ele>926.2</ele>
        <time>2019-05-28T09:14:31Z</time>
      </trkpt>
      <trkpt lat="40.6310310" lon="-3.9992410">
        <ele>927.0</ele>
        <time>2019-05-28T09:14:38Z</time>
      </trkpt>
      <trkpt lat="40.6311900" lon="-3.9993980">
        <ele>927.0</ele>
        <time>2019-05-28T09:14:41Z</time>
      </trkpt>
      <trkpt lat="40.6316720" lon="-3.9997870">
        <ele>925.4</ele>
        <time>2019-05-28T09:14:49Z</time>
      </trkpt>
      <trkpt lat="40.6317360" lon="-3.9998350">
        <ele>925.0</ele>
        <time>2019-05-28T09:14:50Z</time>
      </trkpt>
      <trkpt lat="40.6321870" lon="-4.0001910">
        <ele>923.8</ele>
        <time>2019-05-28T09:14:57Z</time>
      </trkpt>
      <trkpt lat="40.6324460" lon="-4.0004150">
        <ele>922.6</ele>
        <time>2019-05-28T09:15:01Z</time>
      </trkpt>
      <trkpt lat="40.6327000" lon="-4.0006530">
        <ele>921.6</ele>
        <time>2019-05-28T09:15:05Z</time>
      </trkpt>
      <trkpt lat="40.6329490" lon="-4.0009060">
        <ele>921.2</ele>
        <time>2019-05-28T09:15:09Z</time>
      </trkpt>
      <trkpt lat="40.6332130" lon="-4.0011900">
        <ele>920.8</ele>
        <time>2019-05-28T09:15:13Z</time>
      </trkpt>
      <trkpt lat="40.6333560" lon="-4.0013320">
        <ele>920.6</ele>
        <time>2019-05-28T09:15:15Z</time>
      </trkpt>
      <trkpt lat="40.6335080" lon="-4.0014660">
        <ele>919.2</ele>
        <time>2019-05-28T09:15:17Z</time>
      </trkpt>
      <trkpt lat="40.6336670" lon="-4.0015940">
        <ele>918.2</ele>
        <time>2019-05-28T09:15:19Z</time>
      </trkpt>
      <trkpt lat="40.6339100" lon="-4.0017750">
        <ele>916.8</ele>
        <time>2019-05-28T09:15:22Z</time>
      </trkpt>
      <trkpt lat="40.6342240" lon="-4.0020510">
        <ele>915.4</ele>
        <time>2019-05-28T09:15:26Z</time>
      </trkpt>
      <trkpt lat="40.6343020" lon="-4.0021220">
        <ele>914.6</ele>
        <time>2019-05-28T09:15:27Z</time>
      </trkpt>
      <trkpt lat="40.6343850" lon="-4.0021830">
        <ele>914.0</ele>
        <time>2019-05-28T09:15:28Z</time>
      </trkpt>
      <trkpt lat="40.6347500" lon="-4.0021950">
        <ele>912.8</ele>
        <time>2019-05-28T09:15:32Z</time>
      </trkpt>
      <trkpt lat="40.6348950" lon="-4.0020510">
        <ele>912.8</ele>
        <time>2019-05-28T09:15:34Z</time>
      </trkpt>
      <trkpt lat="40.6353990" lon="-4.0016390">
        <ele>912.8</ele>
        <time>2019-05-28T09:15:42Z</time>
      </trkpt>
      <trkpt lat="40.6356210" lon="-4.0015190">
        <ele>913.6</ele>
        <time>2019-05-28T09:15:46Z</time>
      </trkpt>
      <trkpt lat="40.6356760" lon="-4.0014870">
        <ele>914.0</ele>
        <time>2019-05-28T09:15:47Z</time>
      </trkpt>
      <trkpt lat="40.6357850" lon="-4.0014190">
        <ele>915.0</ele>
        <time>2019-05-28T09:15:49Z</time>
      </trkpt>
      <trkpt lat="40.6358420" lon="-4.0013900">
        <ele>915.2</ele>
        <time>2019-05-28T09:15:50Z</time>
      </trkpt>
      <trkpt lat="40.6358930" lon="-4.0013580">
        <ele>915.6</ele>
        <time>2019-05-28T09:15:51Z</time>
      </trkpt>
      <trkpt lat="40.6359910" lon="-4.0012910">
        <ele>916.0</ele>
        <time>2019-05-28T09:15:53Z</time>
      </trkpt>
      <trkpt lat="40.6360940" lon="-4.0012310">
        <ele>916.4</ele>
        <time>2019-05-28T09:15:55Z</time>
      </trkpt>
      <trkpt lat="40.6362580" lon="-4.0011400">
        <ele>917.6</ele>
        <time>2019-05-28T09:15:58Z</time>
      </trkpt>
      <trkpt lat="40.6364760" lon="-4.0009850">
        <ele>918.8</ele>
        <time>2019-05-28T09:16:02Z</time>
      </trkpt>
      <trkpt lat="40.6365190" lon="-4.0009400">
        <ele>919.2</ele>
        <time>2019-05-28T09:16:03Z</time>
      </trkpt>
      <trkpt lat="40.6366210" lon="-4.0008410">
        <ele>920.0</ele>
        <time>2019-05-28T09:16:05Z</time>
      </trkpt>
      <trkpt lat="40.6368350" lon="-4.0005610">
        <ele>921.2</ele>
        <time>2019-05-28T09:16:10Z</time>
      </trkpt>
      <trkpt lat="40.6371590" lon="-3.9999510">
        <ele>922.0</ele>
        <time>2019-05-28T09:16:19Z</time>
      </trkpt>
      <trkpt lat="40.6371980" lon="-3.9998810">
        <ele>922.2</ele>
        <time>2019-05-28T09:16:20Z</time>
      </trkpt>
      <trkpt lat="40.6375040" lon="-3.9994620">
        <ele>923.2</ele>
        <time>2019-05-28T09:16:27Z</time>
      </trkpt>
      <trkpt lat="40.6379710" lon="-3.9990030">
        <ele>923.8</ele>
        <time>2019-05-28T09:16:36Z</time>
      </trkpt>
      <trkpt lat="40.6381290" lon="-3.9988530">
        <ele>924.0</ele>
        <time>2019-05-28T09:16:39Z</time>
      </trkpt>
      <trkpt lat="40.6382200" lon="-3.9987360">
        <ele>924.0</ele>
        <time>2019-05-28T09:16:41Z</time>
      </trkpt>
      <trkpt lat="40.6383210" lon="-3.9985340">
        <ele>924.0</ele>
        <time>2019-05-28T09:16:44Z</time>
      </trkpt>
      <trkpt lat="40.6385520" lon="-3.9984120">
        <ele>924.2</ele>
        <time>2019-05-28T09:16:48Z</time>
      </trkpt>
      <trkpt lat="40.6386660" lon="-3.9983400">
        <ele>924.4</ele>
        <time>2019-05-28T09:16:50Z</time>
      </trkpt>
      <trkpt lat="40.6387650" lon="-3.9982530">
        <ele>924.4</ele>
        <time>2019-05-28T09:16:52Z</time>
      </trkpt>
      <trkpt lat="40.6392370" lon="-3.9978140">
        <ele>925.0</ele>
        <time>2019-05-28T09:17:01Z</time>
      </trkpt>
      <trkpt lat="40.6394280" lon="-3.9975990">
        <ele>925.4</ele>
        <time>2019-05-28T09:17:05Z</time>
      </trkpt>
      <trkpt lat="40.6398020" lon="-3.9971400">
        <ele>926.8</ele>
        <time>2019-05-28T09:17:13Z</time>
      </trkpt>
      <trkpt lat="40.6400930" lon="-3.9968030">
        <ele>927.8</ele>
        <time>2019-05-28T09:17:19Z</time>
      </trkpt>
      <trkpt lat="40.6402270" lon="-3.9966270">
        <ele>928.2</ele>
        <time>2019-05-28T09:17:22Z</time>
      </trkpt>
      <trkpt lat="40.6403330" lon="-3.9964390">
        <ele>928.4</ele>
        <time>2019-05-28T09:17:25Z</time>
      </trkpt>
      <trkpt lat="40.6403560" lon="-3.9962150">
        <ele>928.6</ele>
        <time>2019-05-28T09:17:28Z</time>
      </trkpt>
      <trkpt lat="40.6404240" lon="-3.9960940">
        <ele>929.0</ele>
        <time>2019-05-28T09:17:30Z</time>
      </trkpt>
      <trkpt lat="40.6409150" lon="-3.9960570">
        <ele>930.0</ele>
        <time>2019-05-28T09:17:38Z</time>
      </trkpt>
      <trkpt lat="40.6410490" lon="-3.9960190">
        <ele>930.0</ele>
        <time>2019-05-28T09:17:40Z</time>
      </trkpt>
      <trkpt lat="40.6411970" lon="-3.9960070">
        <ele>929.8</ele>
        <time>2019-05-28T09:17:42Z</time>
      </trkpt>
      <trkpt lat="40.6414860" lon="-3.9960030">
        <ele>929.0</ele>
        <time>2019-05-28T09:17:46Z</time>
      </trkpt>
      <trkpt lat="40.6417120" lon="-3.9960060">
        <ele>928.4</ele>
        <time>2019-05-28T09:17:49Z</time>
      </trkpt>
      <trkpt lat="40.6419300" lon="-3.9960230">
        <ele>928.0</ele>
        <time>2019-05-28T09:17:52Z</time>
      </trkpt>
      <trkpt lat="40.6420810" lon="-3.9960140">
        <ele>927.0</ele>
        <time>2019-05-28T09:17:54Z</time>
      </trkpt>
      <trkpt lat="40.6422190" lon="-3.9959470">
        <ele>925.6</ele>
        <time>2019-05-28T09:17:56Z</time>
      </trkpt>
      <trkpt lat="40.6425770" lon="-3.9959670">
        <ele>925.0</ele>
        <time>2019-05-28T09:18:01Z</time>
      </trkpt>
      <trkpt lat="40.6426500" lon="-3.9960090">
        <ele>924.8</ele>
        <time>2019-05-28T09:18:02Z</time>
      </trkpt>
      <trkpt lat="40.6428830" lon="-3.9960620">
        <ele>924.6</ele>
        <time>2019-05-28T09:18:05Z</time>
      </trkpt>
      <trkpt lat="40.6429620" lon="-3.9960660">
        <ele>924.4</ele>
        <time>2019-05-28T09:18:06Z</time>
      </trkpt>
      <trkpt lat="40.6432010" lon="-3.9960770">
        <ele>923.4</ele>
        <time>2019-05-28T09:18:09Z</time>
      </trkpt>
      <trkpt lat="40.6434400" lon="-3.9960980">
        <ele>923.2</ele>
        <time>2019-05-28T09:18:12Z</time>
      </trkpt>
      <trkpt lat="40.6439950" lon="-3.9960820">
        <ele>922.8</ele>
        <time>2019-05-28T09:18:19Z</time>
      </trkpt>
      <trkpt lat="40.6442350" lon="-3.9960680">
        <ele>922.8</ele>
        <time>2019-05-28T09:18:22Z</time>
      </trkpt>
      <trkpt lat="40.6445490" lon="-3.9960070">
        <ele>922.8</ele>
        <time>2019-05-28T09:18:26Z</time>
      </trkpt>
      <trkpt lat="40.6448530" lon="-3.9959140">
        <ele>922.8</ele>
        <time>2019-05-28T09:18:30Z</time>
      </trkpt>
      <trkpt lat="40.6452870" lon="-3.9956840">
        <ele>923.2</ele>
        <time>2019-05-28T09:18:36Z</time>
      </trkpt>
      <trkpt lat="40.6455470" lon="-3.9954690">
        <ele>923.8</ele>
        <time>2019-05-28T09:18:40Z</time>
      </trkpt>
      <trkpt lat="40.6457900" lon="-3.9952390">
        <ele>924.6</ele>
        <time>2019-05-28T09:18:44Z</time>
      </trkpt>
      <trkpt lat="40.6460700" lon="-3.9949520">
        <ele>925.4</ele>
        <time>2019-05-28T09:18:49Z</time>
      </trkpt>
      <trkpt lat="40.6461810" lon="-3.9948430">
        <ele>925.8</ele>
        <time>2019-05-28T09:18:51Z</time>
      </trkpt>
      <trkpt lat="40.6464070" lon="-3.9946230">
        <ele>927.0</ele>
        <time>2019-05-28T09:18:55Z</time>
      </trkpt>
      <trkpt lat="40.6467680" lon="-3.9942910">
        <ele>928.0</ele>
        <time>2019-05-28T09:19:02Z</time>
      </trkpt>
      <trkpt lat="40.6469290" lon="-3.9941710">
        <ele>929.0</ele>
        <time>2019-05-28T09:19:06Z</time>
      </trkpt>
      <trkpt lat="40.6469550" lon="-3.9941410">
        <ele>929.4</ele>
        <time>2019-05-28T09:19:07Z</time>
      </trkpt>
      <trkpt lat="40.6469950" lon="-3.9940600">
        <ele>930.2</ele>
        <time>2019-05-28T09:19:09Z</time>
      </trkpt>
      <trkpt lat="40.6470120" lon="-3.9940100">
        <ele>930.6</ele>
        <time>2019-05-28T09:19:10Z</time>
      </trkpt>
      <trkpt lat="40.6470320" lon="-3.9939570">
        <ele>930.8</ele>
        <time>2019-05-28T09:19:11Z</time>
      </trkpt>
      <trkpt lat="40.6471870" lon="-3.9937620">
        <ele>931.0</ele>
        <time>2019-05-28T09:19:15Z</time>
      </trkpt>
      <trkpt lat="40.6472460" lon="-3.9934580">
        <ele>931.2</ele>
        <time>2019-05-28T09:19:19Z</time>
      </trkpt>
      <trkpt lat="40.6472510" lon="-3.9927120">
        <ele>930.8</ele>
        <time>2019-05-28T09:19:28Z</time>
      </trkpt>
      <trkpt lat="40.6472650" lon="-3.9925520">
        <ele>930.8</ele>
        <time>2019-05-28T09:19:30Z</time>
      </trkpt>
      <trkpt lat="40.6473120" lon="-3.9923170">
        <ele>931.0</ele>
        <time>2019-05-28T09:19:33Z</time>
      </trkpt>
      <trkpt lat="40.6474000" lon="-3.9920960">
        <ele>931.6</ele>
        <time>2019-05-28T09:19:36Z</time>
      </trkpt>
      <trkpt lat="40.6476980" lon="-3.9916020">
        <ele>932.2</ele>
        <time>2019-05-28T09:19:43Z</time>
      </trkpt>
      <trkpt lat="40.6478080" lon="-3.9914630">
        <ele>932.2</ele>
        <time>2019-05-28T09:19:45Z</time>
      </trkpt>
      <trkpt lat="40.6479680" lon="-3.9912410">
        <ele>932.2</ele>
        <time>2019-05-28T09:19:48Z</time>
      </trkpt>
      <trkpt lat="40.6481050" lon="-3.9909890">
        <ele>931.6</ele>
        <time>2019-05-28T09:19:51Z</time>
      </trkpt>
      <trkpt lat="40.6481900" lon="-3.9906680">
        <ele>930.4</ele>
        <time>2019-05-28T09:19:54Z</time>
      </trkpt>
      <trkpt lat="40.6484680" lon="-3.9904560">
        <ele>929.4</ele>
        <time>2019-05-28T09:19:58Z</time>
      </trkpt>
      <trkpt lat="40.6487510" lon="-3.9902910">
        <ele>929.0</ele>
        <time>2019-05-28T09:20:02Z</time>
      </trkpt>
      <trkpt lat="40.6491970" lon="-3.9898280">
        <ele>929.2</ele>
        <time>2019-05-28T09:20:10Z</time>
      </trkpt>
      <trkpt lat="40.6494100" lon="-3.9896170">
        <ele>930.4</ele>
        <time>2019-05-28T09:20:14Z</time>
      </trkpt>
      <trkpt lat="40.6495180" lon="-3.9895190">
        <ele>931.0</ele>
        <time>2019-05-28T09:20:16Z</time>
      </trkpt>
      <trkpt lat="40.6496190" lon="-3.9894190">
        <ele>931.6</ele>
        <time>2019-05-28T09:20:18Z</time>
      </trkpt>
      <trkpt lat="40.6497730" lon="-3.9892750">
        <ele>932.4</ele>
        <time>2019-05-28T09:20:21Z</time>
      </trkpt>
      <trkpt lat="40.6498230" lon="-3.9892280">
        <ele>932.8</ele>
        <time>2019-05-28T09:20:22Z</time>
      </trkpt>
      <trkpt lat="40.6499210" lon="-3.9891370">
        <ele>934.2</ele>
        <time>2019-05-28T09:20:24Z</time>
      </trkpt>
      <trkpt lat="40.6501280" lon="-3.9889750">
        <ele>935.0</ele>
        <time>2019-05-28T09:20:28Z</time>
      </trkpt>
      <trkpt lat="40.6501810" lon="-3.9889370">
        <ele>935.2</ele>
        <time>2019-05-28T09:20:29Z</time>
      </trkpt>
      <trkpt lat="40.6503990" lon="-3.9888130">
        <ele>936.2</ele>
        <time>2019-05-28T09:20:33Z</time>
      </trkpt>
      <trkpt lat="40.6506840" lon="-3.9886890">
        <ele>937.4</ele>
        <time>2019-05-28T09:20:38Z</time>
      </trkpt>
      <trkpt lat="40.6509120" lon="-3.9885970">
        <ele>938.4</ele>
        <time>2019-05-28T09:20:42Z</time>
      </trkpt>
      <trkpt lat="40.6514670" lon="-3.9883670">
        <ele>939.2</ele>
        <time>2019-05-28T09:20:52Z</time>
      </trkpt>
      <trkpt lat="40.6516310" lon="-3.9882830">
        <ele>939.6</ele>
        <time>2019-05-28T09:20:55Z</time>
      </trkpt>
      <trkpt lat="40.6518470" lon="-3.9881530">
        <ele>940.8</ele>
        <time>2019-05-28T09:20:59Z</time>
      </trkpt>
      <trkpt lat="40.6522810" lon="-3.9879180">
        <ele>941.4</ele>
        <time>2019-05-28T09:21:07Z</time>
      </trkpt>
      <trkpt lat="40.6525020" lon="-3.9877770">
        <ele>941.6</ele>
        <time>2019-05-28T09:21:11Z</time>
      </trkpt>
      <trkpt lat="40.6527940" lon="-3.9875870">
        <ele>941.6</ele>
        <time>2019-05-28T09:21:16Z</time>
      </trkpt>
      <trkpt lat="40.6529810" lon="-3.9874670">
        <ele>941.6</ele>
        <time>2019-05-28T09:21:19Z</time>
      </trkpt>
      <trkpt lat="40.6531720" lon="-3.9873430">
        <ele>941.6</ele>
        <time>2019-05-28T09:21:22Z</time>
      </trkpt>
      <trkpt lat="40.6536210" lon="-3.9870530">
        <ele>940.8</ele>
        <time>2019-05-28T09:21:29Z</time>
      </trkpt>
      <trkpt lat="40.6538690" lon="-3.9868670">
        <ele>940.8</ele>
        <time>2019-05-28T09:21:33Z</time>
      </trkpt>
      <trkpt lat="40.6543460" lon="-3.9864000">
        <ele>940.8</ele>
        <time>2019-05-28T09:21:41Z</time>
      </trkpt>
      <trkpt lat="40.6547670" lon="-3.9858700">
        <ele>939.6</ele>
        <time>2019-05-28T09:21:48Z</time>
      </trkpt>
      <trkpt lat="40.6550720" lon="-3.9854770">
        <ele>938.4</ele>
        <time>2019-05-28T09:21:53Z</time>
      </trkpt>
      <trkpt lat="40.6551940" lon="-3.9853220">
        <ele>938.2</ele>
        <time>2019-05-28T09:21:55Z</time>
      </trkpt>
      <trkpt lat="40.6553170" lon="-3.9851660">
        <ele>938.0</ele>
        <time>2019-05-28T09:21:57Z</time>
      </trkpt>
      <trkpt lat="40.6556380" lon="-3.9847600">
        <ele>937.4</ele>
        <time>2019-05-28T09:22:02Z</time>
      </trkpt>
      <trkpt lat="40.6559130" lon="-3.9844370">
        <ele>937.2</ele>
        <time>2019-05-28T09:22:06Z</time>
      </trkpt>
      <trkpt lat="40.6560640" lon="-3.9842880">
        <ele>936.8</ele>
        <time>2019-05-28T09:22:08Z</time>
      </trkpt>
      <trkpt lat="40.6561450" lon="-3.9842180">
        <ele>936.4</ele>
        <time>2019-05-28T09:22:09Z</time>
      </trkpt>
      <trkpt lat="40.6564960" lon="-3.9839830">
        <ele>935.6</ele>
        <time>2019-05-28T09:22:13Z</time>
      </trkpt>
      <trkpt lat="40.6567760" lon="-3.9838340">
        <ele>935.2</ele>
        <time>2019-05-28T09:22:16Z</time>
      </trkpt>
      <trkpt lat="40.6571500" lon="-3.9836430">
        <ele>934.0</ele>
        <time>2019-05-28T09:22:20Z</time>
      </trkpt>
      <trkpt lat="40.6576840" lon="-3.9833650">
        <ele>933.0</ele>
        <time>2019-05-28T09:22:26Z</time>
      </trkpt>
      <trkpt lat="40.6579410" lon="-3.9832350">
        <ele>932.6</ele>
        <time>2019-05-28T09:22:29Z</time>
      </trkpt>
      <trkpt lat="40.6585230" lon="-3.9829370">
        <ele>932.6</ele>
        <time>2019-05-28T09:22:36Z</time>
      </trkpt>
      <trkpt lat="40.6590750" lon="-3.9826410">
        <ele>933.2</ele>
        <time>2019-05-28T09:22:43Z</time>
      </trkpt>
      <trkpt lat="40.6595220" lon="-3.9824060">
        <ele>933.6</ele>
        <time>2019-05-28T09:22:49Z</time>
      </trkpt>
      <trkpt lat="40.6599500" lon="-3.9821820">
        <ele>934.2</ele>
        <time>2019-05-28T09:22:55Z</time>
      </trkpt>
      <trkpt lat="40.6604980" lon="-3.9818960">
        <ele>935.0</ele>
        <time>2019-05-28T09:23:03Z</time>
      </trkpt>
      <trkpt lat="40.6605660" lon="-3.9818630">
        <ele>935.2</ele>
        <time>2019-05-28T09:23:04Z</time>
      </trkpt>
      <trkpt lat="40.6609480" lon="-3.9816490">
        <ele>935.6</ele>
        <time>2019-05-28T09:23:10Z</time>
      </trkpt>
      <trkpt lat="40.6611980" lon="-3.9815130">
        <ele>936.0</ele>
        <time>2019-05-28T09:23:14Z</time>
      </trkpt>
      <trkpt lat="40.6616820" lon="-3.9812810">
        <ele>937.0</ele>
        <time>2019-05-28T09:23:22Z</time>
      </trkpt>
      <trkpt lat="40.6620320" lon="-3.9811040">
        <ele>938.4</ele>
        <time>2019-05-28T09:23:28Z</time>
      </trkpt>
      <trkpt lat="40.6623780" lon="-3.9809220">
        <ele>939.4</ele>
        <time>2019-05-28T09:23:34Z</time>
      </trkpt>
      <trkpt lat="40.6628330" lon="-3.9806830">
        <ele>940.4</ele>
        <time>2019-05-28T09:23:42Z</time>
      </trkpt>
      <trkpt lat="40.6633660" lon="-3.9804060">
        <ele>940.8</ele>
        <time>2019-05-28T09:23:51Z</time>
      </trkpt>
      <trkpt lat="40.6638730" lon="-3.9801470">
        <ele>941.0</ele>
        <time>2019-05-28T09:23:59Z</time>
      </trkpt>
      <trkpt lat="40.6643920" lon="-3.9798830">
        <ele>941.2</ele>
        <time>2019-05-28T09:24:07Z</time>
      </trkpt>
      <trkpt lat="40.6646460" lon="-3.9797260">
        <ele>941.6</ele>
        <time>2019-05-28T09:24:11Z</time>
      </trkpt>
      <trkpt lat="40.6650860" lon="-3.9793000">
        <ele>942.4</ele>
        <time>2019-05-28T09:24:19Z</time>
      </trkpt>
      <trkpt lat="40.6652920" lon="-3.9790820">
        <ele>942.6</ele>
        <time>2019-05-28T09:24:23Z</time>
      </trkpt>
      <trkpt lat="40.6655020" lon="-3.9788600">
        <ele>943.6</ele>
        <time>2019-05-28T09:24:27Z</time>
      </trkpt>
      <trkpt lat="40.6658620" lon="-3.9784810">
        <ele>944.6</ele>
        <time>2019-05-28T09:24:34Z</time>
      </trkpt>
      <trkpt lat="40.6662700" lon="-3.9780530">
        <ele>945.8</ele>
        <time>2019-05-28T09:24:42Z</time>
      </trkpt>
      <trkpt lat="40.6667290" lon="-3.9775680">
        <ele>946.6</ele>
        <time>2019-05-28T09:24:51Z</time>
      </trkpt>
      <trkpt lat="40.6667810" lon="-3.9775140">
        <ele>946.8</ele>
        <time>2019-05-28T09:24:52Z</time>
      </trkpt>
      <trkpt lat="40.6672400" lon="-3.9770320">
        <ele>947.6</ele>
        <time>2019-05-28T09:25:01Z</time>
      </trkpt>
      <trkpt lat="40.6674480" lon="-3.9768150">
        <ele>947.6</ele>
        <time>2019-05-28T09:25:05Z</time>
      </trkpt>
      <trkpt lat="40.6679190" lon="-3.9763210">
        <ele>948.2</ele>
        <time>2019-05-28T09:25:14Z</time>
      </trkpt>
      <trkpt lat="40.6681780" lon="-3.9760480">
        <ele>948.8</ele>
        <time>2019-05-28T09:25:19Z</time>
      </trkpt>
      <trkpt lat="40.6686550" lon="-3.9755510">
        <ele>949.4</ele>
        <time>2019-05-28T09:25:28Z</time>
      </trkpt>
      <trkpt lat="40.6689270" lon="-3.9752700">
        <ele>949.8</ele>
        <time>2019-05-28T09:25:33Z</time>
      </trkpt>
      <trkpt lat="40.6691910" lon="-3.9750040">
        <ele>950.8</ele>
        <time>2019-05-28T09:25:38Z</time>
      </trkpt>
      <trkpt lat="40.6696720" lon="-3.9745960">
        <ele>951.6</ele>
        <time>2019-05-28T09:25:47Z</time>
      </trkpt>
      <trkpt lat="40.6697790" lon="-3.9745200">
        <ele>952.0</ele>
        <time>2019-05-28T09:25:49Z</time>
      </trkpt>
      <trkpt lat="40.6701590" lon="-3.9742700">
        <ele>953.2</ele>
        <time>2019-05-28T09:25:56Z</time>
      </trkpt>
      <trkpt lat="40.6703220" lon="-3.9741590">
        <ele>954.2</ele>
        <time>2019-05-28T09:25:59Z</time>
      </trkpt>
      <trkpt lat="40.6707080" lon="-3.9739040">
        <ele>955.2</ele>
        <time>2019-05-28T09:26:06Z</time>
      </trkpt>
      <trkpt lat="40.6712180" lon="-3.9735680">
        <ele>955.8</ele>
        <time>2019-05-28T09:26:15Z</time>
      </trkpt>
      <trkpt lat="40.6714960" lon="-3.9733830">
        <ele>956.2</ele>
        <time>2019-05-28T09:26:20Z</time>
      </trkpt>
      <trkpt lat="40.6718650" lon="-3.9731320">
        <ele>957.4</ele>
        <time>2019-05-28T09:26:27Z</time>
      </trkpt>
      <trkpt lat="40.6721490" lon="-3.9728950">
        <ele>958.2</ele>
        <time>2019-05-28T09:26:33Z</time>
      </trkpt>
      <trkpt lat="40.6721850" lon="-3.9728410">
        <ele>958.8</ele>
        <time>2019-05-28T09:26:34Z</time>
      </trkpt>
      <trkpt lat="40.6723200" lon="-3.9726260">
        <ele>959.8</ele>
        <time>2019-05-28T09:26:38Z</time>
      </trkpt>
      <trkpt lat="40.6724230" lon="-3.9725730">
        <ele>960.0</ele>
        <time>2019-05-28T09:26:40Z</time>
      </trkpt>
      <trkpt lat="40.6726220" lon="-3.9724350">
        <ele>960.4</ele>
        <time>2019-05-28T09:26:44Z</time>
      </trkpt>
      <trkpt lat="40.6727090" lon="-3.9723340">
        <ele>960.8</ele>
        <time>2019-05-28T09:26:46Z</time>
      </trkpt>
      <trkpt lat="40.6731270" lon="-3.9717850">
        <ele>962.0</ele>
        <time>2019-05-28T09:26:56Z</time>
      </trkpt>
      <trkpt lat="40.6733600" lon="-3.9714400">
        <ele>963.0</ele>
        <time>2019-05-28T09:27:02Z</time>
      </trkpt>
      <trkpt lat="40.6736190" lon="-3.9710320">
        <ele>964.2</ele>
        <time>2019-05-28T09:27:09Z</time>
      </trkpt>
      <trkpt lat="40.6738780" lon="-3.9706250">
        <ele>965.0</ele>
        <time>2019-05-28T09:27:16Z</time>
      </trkpt>
      <trkpt lat="40.6739570" lon="-3.9705130">
        <ele>965.2</ele>
        <time>2019-05-28T09:27:18Z</time>
      </trkpt>
      <trkpt lat="40.6741720" lon="-3.9702640">
        <ele>966.0</ele>
        <time>2019-05-28T09:27:23Z</time>
      </trkpt>
      <trkpt lat="40.6742640" lon="-3.9701700">
        <ele>966.6</ele>
        <time>2019-05-28T09:27:25Z</time>
      </trkpt>
      <trkpt lat="40.6744630" lon="-3.9699890">
        <ele>967.4</ele>
        <time>2019-05-28T09:27:29Z</time>
      </trkpt>
      <trkpt lat="40.6746700" lon="-3.9698190">
        <ele>968.0</ele>
        <time>2019-05-28T09:27:33Z</time>
      </trkpt>
      <trkpt lat="40.6749280" lon="-3.9696410">
        <ele>968.6</ele>
        <time>2019-05-28T09:27:38Z</time>
      </trkpt>
      <trkpt lat="40.6750850" lon="-3.9695540">
        <ele>968.8</ele>
        <time>2019-05-28T09:27:41Z</time>
      </trkpt>
      <trkpt lat="40.6752460" lon="-3.9694980">
        <ele>969.8</ele>
        <time>2019-05-28T09:27:44Z</time>
      </trkpt>
      <trkpt lat="40.6754490" lon="-3.9694090">
        <ele>970.8</ele>
        <time>2019-05-28T09:27:48Z</time>
      </trkpt>
      <trkpt lat="40.6754990" lon="-3.9693830">
        <ele>971.2</ele>
        <time>2019-05-28T09:27:49Z</time>
      </trkpt>
      <trkpt lat="40.6756870" lon="-3.9692490">
        <ele>971.8</ele>
        <time>2019-05-28T09:27:53Z</time>
      </trkpt>
      <trkpt lat="40.6757280" lon="-3.9692090">
        <ele>971.8</ele>
        <time>2019-05-28T09:27:54Z</time>
      </trkpt>
      <trkpt lat="40.6758470" lon="-3.9690790">
        <ele>973.2</ele>
        <time>2019-05-28T09:27:57Z</time>
      </trkpt>
      <trkpt lat="40.6759580" lon="-3.9689430">
        <ele>974.2</ele>
        <time>2019-05-28T09:28:00Z</time>
      </trkpt>
      <trkpt lat="40.6759980" lon="-3.9688960">
        <ele>974.6</ele>
        <time>2019-05-28T09:28:01Z</time>
      </trkpt>
      <trkpt lat="40.6760730" lon="-3.9688030">
        <ele>975.4</ele>
        <time>2019-05-28T09:28:03Z</time>
      </trkpt>
      <trkpt lat="40.6761060" lon="-3.9687530">
        <ele>975.6</ele>
        <time>2019-05-28T09:28:04Z</time>
      </trkpt>
      <trkpt lat="40.6762500" lon="-3.9685600">
        <ele>976.6</ele>
        <time>2019-05-28T09:28:08Z</time>
      </trkpt>
      <trkpt lat="40.6763170" lon="-3.9684660">
        <ele>977.4</ele>
        <time>2019-05-28T09:28:10Z</time>
      </trkpt>
      <trkpt lat="40.6763910" lon="-3.9683750">
        <ele>977.8</ele>
        <time>2019-05-28T09:28:12Z</time>
      </trkpt>
      <trkpt lat="40.6764970" lon="-3.9682330">
        <ele>979.2</ele>
        <time>2019-05-28T09:28:15Z</time>
      </trkpt>
      <trkpt lat="40.6766070" lon="-3.9680850">
        <ele>980.2</ele>
        <time>2019-05-28T09:28:18Z</time>
      </trkpt>
      <trkpt lat="40.6767140" lon="-3.9679430">
        <ele>981.6</ele>
        <time>2019-05-28T09:28:21Z</time>
      </trkpt>
      <trkpt lat="40.6768610" lon="-3.9677530">
        <ele>982.8</ele>
        <time>2019-05-28T09:28:25Z</time>
      </trkpt>
      <trkpt lat="40.6770090" lon="-3.9675690">
        <ele>983.8</ele>
        <time>2019-05-28T09:28:29Z</time>
      </trkpt>
      <trkpt lat="40.6771080" lon="-3.9674210">
        <ele>984.6</ele>
        <time>2019-05-28T09:28:32Z</time>
      </trkpt>
      <trkpt lat="40.6771460" lon="-3.9673780">
        <ele>985.0</ele>
        <time>2019-05-28T09:28:33Z</time>
      </trkpt>
      <trkpt lat="40.6772840" lon="-3.9671960">
        <ele>986.2</ele>
        <time>2019-05-28T09:28:37Z</time>
      </trkpt>
      <trkpt lat="40.6773930" lon="-3.9670590">
        <ele>987.4</ele>
        <time>2019-05-28T09:28:40Z</time>
      </trkpt>
      <trkpt lat="40.6774970" lon="-3.9669170">
        <ele>988.2</ele>
        <time>2019-05-28T09:28:43Z</time>
      </trkpt>
      <trkpt lat="40.6775680" lon="-3.9668170">
        <ele>989.0</ele>
        <time>2019-05-28T09:28:45Z</time>
      </trkpt>
      <trkpt lat="40.6775980" lon="-3.9667590">
        <ele>989.4</ele>
        <time>2019-05-28T09:28:46Z</time>
      </trkpt>
      <trkpt lat="40.6776770" lon="-3.9665670">
        <ele>990.6</ele>
        <time>2019-05-28T09:28:49Z</time>
      </trkpt>
      <trkpt lat="40.6777390" lon="-3.9663540">
        <ele>991.6</ele>
        <time>2019-05-28T09:28:52Z</time>
      </trkpt>
      <trkpt lat="40.6778210" lon="-3.9659000">
        <ele>992.6</ele>
        <time>2019-05-28T09:28:58Z</time>
      </trkpt>
      <trkpt lat="40.6779090" lon="-3.9653450">
        <ele>993.6</ele>
        <time>2019-05-28T09:29:05Z</time>
      </trkpt>
      <trkpt lat="40.6780010" lon="-3.9648660">
        <ele>994.6</ele>
        <time>2019-05-28T09:29:11Z</time>
      </trkpt>
      <trkpt lat="40.6780810" lon="-3.9645490">
        <ele>994.8</ele>
        <time>2019-05-28T09:29:15Z</time>
      </trkpt>
      <trkpt lat="40.6783490" lon="-3.9638390">
        <ele>995.2</ele>
        <time>2019-05-28T09:29:24Z</time>
      </trkpt>
      <trkpt lat="40.6784770" lon="-3.9635310">
        <ele>995.2</ele>
        <time>2019-05-28T09:29:28Z</time>
      </trkpt>
      <trkpt lat="40.6786520" lon="-3.9630640">
        <ele>995.0</ele>
        <time>2019-05-28T09:29:34Z</time>
      </trkpt>
      <trkpt lat="40.6787110" lon="-3.9629060">
        <ele>995.0</ele>
        <time>2019-05-28T09:29:36Z</time>
      </trkpt>
      <trkpt lat="40.6788300" lon="-3.9625940">
        <ele>994.8</ele>
        <time>2019-05-28T09:29:40Z</time>
      </trkpt>
      <trkpt lat="40.6789820" lon="-3.9621950">
        <ele>994.6</ele>
        <time>2019-05-28T09:29:45Z</time>
      </trkpt>
      <trkpt lat="40.6792310" lon="-3.9615330">
        <ele>994.6</ele>
        <time>2019-05-28T09:29:53Z</time>
      </trkpt>
      <trkpt lat="40.6794640" lon="-3.9608620">
        <ele>994.8</ele>
        <time>2019-05-28T09:30:01Z</time>
      </trkpt>
      <trkpt lat="40.6795670" lon="-3.9605130">
        <ele>994.8</ele>
        <time>2019-05-28T09:30:05Z</time>
      </trkpt>
      <trkpt lat="40.6796020" lon="-3.9602340">
        <ele>994.8</ele>
        <time>2019-05-28T09:30:08Z</time>
      </trkpt>
      <trkpt lat="40.6799100" lon="-3.9596990">
        <ele>994.8</ele>
        <time>2019-05-28T09:30:15Z</time>
      </trkpt>
      <trkpt lat="40.6801540" lon="-3.9590490">
        <ele>993.6</ele>
        <time>2019-05-28T09:30:23Z</time>
      </trkpt>
      <trkpt lat="40.6804060" lon="-3.9583990">
        <ele>993.6</ele>
        <time>2019-05-28T09:30:31Z</time>
      </trkpt>
      <trkpt lat="40.6806580" lon="-3.9577300">
        <ele>993.8</ele>
        <time>2019-05-28T09:30:39Z</time>
      </trkpt>
      <trkpt lat="40.6809260" lon="-3.9571640">
        <ele>994.2</ele>
        <time>2019-05-28T09:30:46Z</time>
      </trkpt>
      <trkpt lat="40.6813650" lon="-3.9567170">
        <ele>994.2</ele>
        <time>2019-05-28T09:30:53Z</time>
      </trkpt>
      <trkpt lat="40.6816360" lon="-3.9564700">
        <ele>993.2</ele>
        <time>2019-05-28T09:30:57Z</time>
      </trkpt>
      <trkpt lat="40.6818520" lon="-3.9562830">
        <ele>992.4</ele>
        <time>2019-05-28T09:31:00Z</time>
      </trkpt>
      <trkpt lat="40.6819240" lon="-3.9562200">
        <ele>992.0</ele>
        <time>2019-05-28T09:31:01Z</time>
      </trkpt>
      <trkpt lat="40.6821360" lon="-3.9560250">
        <ele>991.0</ele>
        <time>2019-05-28T09:31:04Z</time>
      </trkpt>
      <trkpt lat="40.6824230" lon="-3.9557630">
        <ele>989.8</ele>
        <time>2019-05-28T09:31:08Z</time>
      </trkpt>
      <trkpt lat="40.6825690" lon="-3.9556280">
        <ele>988.8</ele>
        <time>2019-05-28T09:31:10Z</time>
      </trkpt>
      <trkpt lat="40.6828570" lon="-3.9553570">
        <ele>987.6</ele>
        <time>2019-05-28T09:31:14Z</time>
      </trkpt>
      <trkpt lat="40.6831450" lon="-3.9550900">
        <ele>986.4</ele>
        <time>2019-05-28T09:31:18Z</time>
      </trkpt>
      <trkpt lat="40.6834480" lon="-3.9548560">
        <ele>985.6</ele>
        <time>2019-05-28T09:31:22Z</time>
      </trkpt>
      <trkpt lat="40.6840560" lon="-3.9547090">
        <ele>985.4</ele>
        <time>2019-05-28T09:31:29Z</time>
      </trkpt>
      <trkpt lat="40.6843160" lon="-3.9546730">
        <ele>985.2</ele>
        <time>2019-05-28T09:31:32Z</time>
      </trkpt>
      <trkpt lat="40.6846530" lon="-3.9546260">
        <ele>984.6</ele>
        <time>2019-05-28T09:31:36Z</time>
      </trkpt>
      <trkpt lat="40.6848190" lon="-3.9545850">
        <ele>984.0</ele>
        <time>2019-05-28T09:31:38Z</time>
      </trkpt>
      <trkpt lat="40.6851430" lon="-3.9544270">
        <ele>983.4</ele>
        <time>2019-05-28T09:31:42Z</time>
      </trkpt>
      <trkpt lat="40.6856320" lon="-3.9541320">
        <ele>983.0</ele>
        <time>2019-05-28T09:31:48Z</time>
      </trkpt>
      <trkpt lat="40.6860880" lon="-3.9537870">
        <ele>981.8</ele>
        <time>2019-05-28T09:31:54Z</time>
      </trkpt>
      <trkpt lat="40.6864570" lon="-3.9532980">
        <ele>981.2</ele>
        <time>2019-05-28T09:32:00Z</time>
      </trkpt>
      <trkpt lat="40.6867760" lon="-3.9527580">
        <ele>980.8</ele>
        <time>2019-05-28T09:32:06Z</time>
      </trkpt>
      <trkpt lat="40.6870140" lon="-3.9524380">
        <ele>980.8</ele>
        <time>2019-05-28T09:32:10Z</time>
      </trkpt>
      <trkpt lat="40.6873870" lon="-3.9521940">
        <ele>980.8</ele>
        <time>2019-05-28T09:32:15Z</time>
      </trkpt>
      <trkpt lat="40.6879320" lon="-3.9519600">
        <ele>980.8</ele>
        <time>2019-05-28T09:32:22Z</time>
      </trkpt>
      <trkpt lat="40.6881350" lon="-3.9517890">
        <ele>980.4</ele>
        <time>2019-05-28T09:32:25Z</time>
      </trkpt>
      <trkpt lat="40.6883460" lon="-3.9514640">
        <ele>979.8</ele>
        <time>2019-05-28T09:32:29Z</time>
      </trkpt>
      <trkpt lat="40.6886300" lon="-3.9507850">
        <ele>979.4</ele>
        <time>2019-05-28T09:32:36Z</time>
      </trkpt>
      <trkpt lat="40.6889190" lon="-3.9500750">
        <ele>979.2</ele>
        <time>2019-05-28T09:32:43Z</time>
      </trkpt>
      <trkpt lat="40.6891900" lon="-3.9494300">
        <ele>979.0</ele>
        <time>2019-05-28T09:32:49Z</time>
      </trkpt>
      <trkpt lat="40.6894590" lon="-3.9487720">
        <ele>979.0</ele>
        <time>2019-05-28T09:32:55Z</time>
      </trkpt>
      <trkpt lat="40.6896920" lon="-3.9480820">
        <ele>978.8</ele>
        <time>2019-05-28T09:33:01Z</time>
      </trkpt>
      <trkpt lat="40.6897700" lon="-3.9478460">
        <ele>978.2</ele>
        <time>2019-05-28T09:33:03Z</time>
      </trkpt>
      <trkpt lat="40.6898940" lon="-3.9474930">
        <ele>976.8</ele>
        <time>2019-05-28T09:33:06Z</time>
      </trkpt>
      <trkpt lat="40.6899980" lon="-3.9472720">
        <ele>976.2</ele>
        <time>2019-05-28T09:33:08Z</time>
      </trkpt>
      <trkpt lat="40.6902760" lon="-3.9469020">
        <ele>975.8</ele>
        <time>2019-05-28T09:33:12Z</time>
      </trkpt>
      <trkpt lat="40.6906390" lon="-3.9464840">
        <ele>974.8</ele>
        <time>2019-05-28T09:33:17Z</time>
      </trkpt>
      <trkpt lat="40.6910530" lon="-3.9459990">
        <ele>973.8</ele>
        <time>2019-05-28T09:33:23Z</time>
      </trkpt>
      <trkpt lat="40.6915210" lon="-3.9454600">
        <ele>974.0</ele>
        <time>2019-05-28T09:33:30Z</time>
      </trkpt>
      <trkpt lat="40.6918910" lon="-3.9449860">
        <ele>974.6</ele>
        <time>2019-05-28T09:33:36Z</time>
      </trkpt>
      <trkpt lat="40.6922640" lon="-3.9443940">
        <ele>975.0</ele>
        <time>2019-05-28T09:33:43Z</time>
      </trkpt>
      <trkpt lat="40.6923940" lon="-3.9439930">
        <ele>975.6</ele>
        <time>2019-05-28T09:33:47Z</time>
      </trkpt>
      <trkpt lat="40.6924160" lon="-3.9438880">
        <ele>975.8</ele>
        <time>2019-05-28T09:33:48Z</time>
      </trkpt>
      <trkpt lat="40.6925260" lon="-3.9432460">
        <ele>976.6</ele>
        <time>2019-05-28T09:33:54Z</time>
      </trkpt>
      <trkpt lat="40.6926130" lon="-3.9428250">
        <ele>976.8</ele>
        <time>2019-05-28T09:33:58Z</time>
      </trkpt>
      <trkpt lat="40.6926790" lon="-3.9426220">
        <ele>976.8</ele>
        <time>2019-05-28T09:34:00Z</time>
      </trkpt>
      <trkpt lat="40.6930490" lon="-3.9419950">
        <ele>977.2</ele>
        <time>2019-05-28T09:34:07Z</time>
      </trkpt>
      <trkpt lat="40.6934220" lon="-3.9414850">
        <ele>977.2</ele>
        <time>2019-05-28T09:34:13Z</time>
      </trkpt>
      <trkpt lat="40.6938100" lon="-3.9409230">
        <ele>977.0</ele>
        <time>2019-05-28T09:34:19Z</time>
      </trkpt>
      <trkpt lat="40.6940070" lon="-3.9406360">
        <ele>976.4</ele>
        <time>2019-05-28T09:34:22Z</time>
      </trkpt>
      <trkpt lat="40.6941970" lon="-3.9403600">
        <ele>975.6</ele>
        <time>2019-05-28T09:34:25Z</time>
      </trkpt>
      <trkpt lat="40.6944640" lon="-3.9400130">
        <ele>974.4</ele>
        <time>2019-05-28T09:34:29Z</time>
      </trkpt>
      <trkpt lat="40.6946630" lon="-3.9397510">
        <ele>973.8</ele>
        <time>2019-05-28T09:34:32Z</time>
      </trkpt>
      <trkpt lat="40.6949190" lon="-3.9393940">
        <ele>973.4</ele>
        <time>2019-05-28T09:34:36Z</time>
      </trkpt>
      <trkpt lat="40.6951730" lon="-3.9390420">
        <ele>972.4</ele>
        <time>2019-05-28T09:34:40Z</time>
      </trkpt>
      <trkpt lat="40.6954270" lon="-3.9386940">
        <ele>971.0</ele>
        <time>2019-05-28T09:34:44Z</time>
      </trkpt>
      <trkpt lat="40.6959020" lon="-3.9381530">
        <ele>970.4</ele>
        <time>2019-05-28T09:34:51Z</time>
      </trkpt>
      <trkpt lat="40.6960600" lon="-3.9380460">
        <ele>970.2</ele>
        <time>2019-05-28T09:34:53Z</time>
      </trkpt>
      <trkpt lat="40.6964840" lon="-3.9378820">
        <ele>970.2</ele>
        <time>2019-05-28T09:34:58Z</time>
      </trkpt>
      <trkpt lat="40.6970510" lon="-3.9376910">
        <ele>970.6</ele>
        <time>2019-05-28T09:35:05Z</time>
      </trkpt>
      <trkpt lat="40.6974390" lon="-3.9375750">
        <ele>971.0</ele>
        <time>2019-05-28T09:35:10Z</time>
      </trkpt>
      <trkpt lat="40.6980130" lon="-3.9374750">
        <ele>971.4</ele>
        <time>2019-05-28T09:35:18Z</time>
      </trkpt>
      <trkpt lat="40.6985010" lon="-3.9374200">
        <ele>972.0</ele>
        <time>2019-05-28T09:35:25Z</time>
      </trkpt>
      <trkpt lat="40.6990740" lon="-3.9373730">
        <ele>972.0</ele>
        <time>2019-05-28T09:35:33Z</time>
      </trkpt>
      <trkpt lat="40.6994200" lon="-3.9373440">
        <ele>971.8</ele>
        <time>2019-05-28T09:35:38Z</time>
      </trkpt>
      <trkpt lat="40.6998780" lon="-3.9372860">
        <ele>971.6</ele>
        <time>2019-05-28T09:35:45Z</time>
      </trkpt>
      <trkpt lat="40.7000930" lon="-3.9366590">
        <ele>970.8</ele>
        <time>2019-05-28T09:35:53Z</time>
      </trkpt>
      <trkpt lat="40.7000340" lon="-3.9364730">
        <ele>970.8</ele>
        <time>2019-05-28T09:35:55Z</time>
      </trkpt>
      <trkpt lat="40.6999020" lon="-3.9357770">
        <ele>970.6</ele>
        <time>2019-05-28T09:36:02Z</time>
      </trkpt>
      <trkpt lat="40.6999100" lon="-3.9350260">
        <ele>969.6</ele>
        <time>2019-05-28T09:36:09Z</time>
      </trkpt>
      <trkpt lat="40.6999350" lon="-3.9345770">
        <ele>968.6</ele>
        <time>2019-05-28T09:36:13Z</time>
      </trkpt>
      <trkpt lat="40.6998830" lon="-3.9338950">
        <ele>967.6</ele>
        <time>2019-05-28T09:36:19Z</time>
      </trkpt>
      <trkpt lat="40.6998190" lon="-3.9335520">
        <ele>966.4</ele>
        <time>2019-05-28T09:36:22Z</time>
      </trkpt>
      <trkpt lat="40.6997310" lon="-3.9330770">
        <ele>965.2</ele>
        <time>2019-05-28T09:36:26Z</time>
      </trkpt>
      <trkpt lat="40.6996650" lon="-3.9327230">
        <ele>965.0</ele>
        <time>2019-05-28T09:36:29Z</time>
      </trkpt>
      <trkpt lat="40.6995750" lon="-3.9322690">
        <ele>964.2</ele>
        <time>2019-05-28T09:36:33Z</time>
      </trkpt>
      <trkpt lat="40.6995290" lon="-3.9320410">
        <ele>962.8</ele>
        <time>2019-05-28T09:36:35Z</time>
      </trkpt>
      <trkpt lat="40.6994540" lon="-3.9317010">
        <ele>961.8</ele>
        <time>2019-05-28T09:36:38Z</time>
      </trkpt>
      <trkpt lat="40.6993530" lon="-3.9315090">
        <ele>961.4</ele>
        <time>2019-05-28T09:36:40Z</time>
      </trkpt>
      <trkpt lat="40.6993060" lon="-3.9314120">
        <ele>961.0</ele>
        <time>2019-05-28T09:36:41Z</time>
      </trkpt>
      <trkpt lat="40.6993090" lon="-3.9310880">
        <ele>960.4</ele>
        <time>2019-05-28T09:36:44Z</time>
      </trkpt>
      <trkpt lat="40.6994350" lon="-3.9309490">
        <ele>960.2</ele>
        <time>2019-05-28T09:36:46Z</time>
      </trkpt>
      <trkpt lat="40.6996130" lon="-3.9308630">
        <ele>960.2</ele>
        <time>2019-05-28T09:36:48Z</time>
      </trkpt>
      <trkpt lat="40.6997020" lon="-3.9308140">
        <ele>960.0</ele>
        <time>2019-05-28T09:36:49Z</time>
      </trkpt>
      <trkpt lat="40.6999810" lon="-3.9304360">
        <ele>959.8</ele>
        <time>2019-05-28T09:36:53Z</time>
      </trkpt>
      <trkpt lat="40.7001000" lon="-3.9302130">
        <ele>959.2</ele>
        <time>2019-05-28T09:36:55Z</time>
      </trkpt>
      <trkpt lat="40.7004120" lon="-3.9296490">
        <ele>957.4</ele>
        <time>2019-05-28T09:37:00Z</time>
      </trkpt>
      <trkpt lat="40.7005400" lon="-3.9294140">
        <ele>956.0</ele>
        <time>2019-05-28T09:37:02Z</time>
      </trkpt>
      <trkpt lat="40.7007980" lon="-3.9289400">
        <ele>954.8</ele>
        <time>2019-05-28T09:37:06Z</time>
      </trkpt>
      <trkpt lat="40.7009300" lon="-3.9287050">
        <ele>953.4</ele>
        <time>2019-05-28T09:37:08Z</time>
      </trkpt>
      <trkpt lat="40.7010550" lon="-3.9284760">
        <ele>952.4</ele>
        <time>2019-05-28T09:37:10Z</time>
      </trkpt>
      <trkpt lat="40.7012290" lon="-3.9281440">
        <ele>951.2</ele>
        <time>2019-05-28T09:37:13Z</time>
      </trkpt>
      <trkpt lat="40.7013290" lon="-3.9279150">
        <ele>950.2</ele>
        <time>2019-05-28T09:37:15Z</time>
      </trkpt>
      <trkpt lat="40.7013700" lon="-3.9277940">
        <ele>950.2</ele>
        <time>2019-05-28T09:37:16Z</time>
      </trkpt>
      <trkpt lat="40.7014330" lon="-3.9275340">
        <ele>950.0</ele>
        <time>2019-05-28T09:37:18Z</time>
      </trkpt>
      <trkpt lat="40.7014720" lon="-3.9272550">
        <ele>950.0</ele>
        <time>2019-05-28T09:37:20Z</time>
      </trkpt>
      <trkpt lat="40.7014860" lon="-3.9271160">
        <ele>950.0</ele>
        <time>2019-05-28T09:37:21Z</time>
      </trkpt>
      <trkpt lat="40.7015300" lon="-3.9266960">
        <ele>950.0</ele>
        <time>2019-05-28T09:37:24Z</time>
      </trkpt>
      <trkpt lat="40.7016640" lon="-3.9258780">
        <ele>950.8</ele>
        <time>2019-05-28T09:37:30Z</time>
      </trkpt>
      <trkpt lat="40.7019160" lon="-3.9250890">
        <ele>950.6</ele>
        <time>2019-05-28T09:37:36Z</time>
      </trkpt>
      <trkpt lat="40.7021790" lon="-3.9243170">
        <ele>949.6</ele>
        <time>2019-05-28T09:37:42Z</time>
      </trkpt>
      <trkpt lat="40.7023100" lon="-3.9239290">
        <ele>949.2</ele>
        <time>2019-05-28T09:37:45Z</time>
      </trkpt>
      <trkpt lat="40.7025710" lon="-3.9231520">
        <ele>948.0</ele>
        <time>2019-05-28T09:37:51Z</time>
      </trkpt>
      <trkpt lat="40.7027120" lon="-3.9227560">
        <ele>946.8</ele>
        <time>2019-05-28T09:37:54Z</time>
      </trkpt>
      <trkpt lat="40.7029630" lon="-3.9221040">
        <ele>945.6</ele>
        <time>2019-05-28T09:37:59Z</time>
      </trkpt>
      <trkpt lat="40.7032280" lon="-3.9216440">
        <ele>944.6</ele>
        <time>2019-05-28T09:38:03Z</time>
      </trkpt>
      <trkpt lat="40.7036390" lon="-3.9211530">
        <ele>943.6</ele>
        <time>2019-05-28T09:38:08Z</time>
      </trkpt>
      <trkpt lat="40.7040750" lon="-3.9207040">
        <ele>942.6</ele>
        <time>2019-05-28T09:38:13Z</time>
      </trkpt>
      <trkpt lat="40.7041630" lon="-3.9206150">
        <ele>942.4</ele>
        <time>2019-05-28T09:38:14Z</time>
      </trkpt>
      <trkpt lat="40.7044320" lon="-3.9203450">
        <ele>941.2</ele>
        <time>2019-05-28T09:38:17Z</time>
      </trkpt>
      <trkpt lat="40.7048770" lon="-3.9198750">
        <ele>940.0</ele>
        <time>2019-05-28T09:38:22Z</time>
      </trkpt>
      <trkpt lat="40.7052480" lon="-3.9193210">
        <ele>939.2</ele>
        <time>2019-05-28T09:38:27Z</time>
      </trkpt>
      <trkpt lat="40.7053730" lon="-3.9190760">
        <ele>939.0</ele>
        <time>2019-05-28T09:38:29Z</time>
      </trkpt>
      <trkpt lat="40.7056090" lon="-3.9185700">
        <ele>937.8</ele>
        <time>2019-05-28T09:38:33Z</time>
      </trkpt>
      <trkpt lat="40.7059010" lon="-3.9179440">
        <ele>937.4</ele>
        <time>2019-05-28T09:38:38Z</time>
      </trkpt>
      <trkpt lat="40.7061840" lon="-3.9173610">
        <ele>936.8</ele>
        <time>2019-05-28T09:38:43Z</time>
      </trkpt>
      <trkpt lat="40.7064510" lon="-3.9167700">
        <ele>935.6</ele>
        <time>2019-05-28T09:38:48Z</time>
      </trkpt>
      <trkpt lat="40.7067170" lon="-3.9162040">
        <ele>935.0</ele>
        <time>2019-05-28T09:38:53Z</time>
      </trkpt>
      <trkpt lat="40.7068810" lon="-3.9158540">
        <ele>934.8</ele>
        <time>2019-05-28T09:38:56Z</time>
      </trkpt>
      <trkpt lat="40.7069850" lon="-3.9156210">
        <ele>934.4</ele>
        <time>2019-05-28T09:38:58Z</time>
      </trkpt>
      <trkpt lat="40.7071480" lon="-3.9152750">
        <ele>933.2</ele>
        <time>2019-05-28T09:39:01Z</time>
      </trkpt>
      <trkpt lat="40.7073120" lon="-3.9149270">
        <ele>932.6</ele>
        <time>2019-05-28T09:39:04Z</time>
      </trkpt>
      <trkpt lat="40.7074770" lon="-3.9145800">
        <ele>932.4</ele>
        <time>2019-05-28T09:39:07Z</time>
      </trkpt>
      <trkpt lat="40.7077180" lon="-3.9141290">
        <ele>932.2</ele>
        <time>2019-05-28T09:39:11Z</time>
      </trkpt>
      <trkpt lat="40.7079210" lon="-3.9138120">
        <ele>932.0</ele>
        <time>2019-05-28T09:39:14Z</time>
      </trkpt>
      <trkpt lat="40.7082790" lon="-3.9132920">
        <ele>931.6</ele>
        <time>2019-05-28T09:39:19Z</time>
      </trkpt>
      <trkpt lat="40.7086450" lon="-3.9127540">
        <ele>931.2</ele>
        <time>2019-05-28T09:39:24Z</time>
      </trkpt>
      <trkpt lat="40.7090130" lon="-3.9122100">
        <ele>931.0</ele>
        <time>2019-05-28T09:39:29Z</time>
      </trkpt>
      <trkpt lat="40.7092360" lon="-3.9118860">
        <ele>930.6</ele>
        <time>2019-05-28T09:39:32Z</time>
      </trkpt>
      <trkpt lat="40.7096070" lon="-3.9113380">
        <ele>930.2</ele>
        <time>2019-05-28T09:39:37Z</time>
      </trkpt>
      <trkpt lat="40.7099760" lon="-3.9107940">
        <ele>930.0</ele>
        <time>2019-05-28T09:39:42Z</time>
      </trkpt>
      <trkpt lat="40.7102730" lon="-3.9103640">
        <ele>929.6</ele>
        <time>2019-05-28T09:39:46Z</time>
      </trkpt>
      <trkpt lat="40.7106820" lon="-3.9098880">
        <ele>929.0</ele>
        <time>2019-05-28T09:39:51Z</time>
      </trkpt>
      <trkpt lat="40.7111120" lon="-3.9094460">
        <ele>928.8</ele>
        <time>2019-05-28T09:39:56Z</time>
      </trkpt>
      <trkpt lat="40.7112000" lon="-3.9093590">
        <ele>928.6</ele>
        <time>2019-05-28T09:39:57Z</time>
      </trkpt>
      <trkpt lat="40.7116240" lon="-3.9089180">
        <ele>928.0</ele>
        <time>2019-05-28T09:40:02Z</time>
      </trkpt>
      <trkpt lat="40.7120790" lon="-3.9083410">
        <ele>927.6</ele>
        <time>2019-05-28T09:40:08Z</time>
      </trkpt>
      <trkpt lat="40.7122140" lon="-3.9081270">
        <ele>927.6</ele>
        <time>2019-05-28T09:40:10Z</time>
      </trkpt>
      <trkpt lat="40.7125790" lon="-3.9074540">
        <ele>927.2</ele>
        <time>2019-05-28T09:40:16Z</time>
      </trkpt>
      <trkpt lat="40.7129620" lon="-3.9067960">
        <ele>926.8</ele>
        <time>2019-05-28T09:40:22Z</time>
      </trkpt>
      <trkpt lat="40.7133590" lon="-3.9061320">
        <ele>926.6</ele>
        <time>2019-05-28T09:40:28Z</time>
      </trkpt>
      <trkpt lat="40.7134230" lon="-3.9060200">
        <ele>926.6</ele>
        <time>2019-05-28T09:40:29Z</time>
      </trkpt>
      <trkpt lat="40.7137540" lon="-3.9053070">
        <ele>926.4</ele>
        <time>2019-05-28T09:40:35Z</time>
      </trkpt>
      <trkpt lat="40.7139410" lon="-3.9045270">
        <ele>926.0</ele>
        <time>2019-05-28T09:40:41Z</time>
      </trkpt>
      <trkpt lat="40.7140070" lon="-3.9041490">
        <ele>925.4</ele>
        <time>2019-05-28T09:40:44Z</time>
      </trkpt>
      <trkpt lat="40.7141440" lon="-3.9033980">
        <ele>925.2</ele>
        <time>2019-05-28T09:40:50Z</time>
      </trkpt>
      <trkpt lat="40.7142780" lon="-3.9026510">
        <ele>926.6</ele>
        <time>2019-05-28T09:40:56Z</time>
      </trkpt>
      <trkpt lat="40.7144070" lon="-3.9019290">
        <ele>927.2</ele>
        <time>2019-05-28T09:41:02Z</time>
      </trkpt>
      <trkpt lat="40.7145350" lon="-3.9012310">
        <ele>927.0</ele>
        <time>2019-05-28T09:41:08Z</time>
      </trkpt>
      <trkpt lat="40.7146830" lon="-3.9004240">
        <ele>927.0</ele>
        <time>2019-05-28T09:41:15Z</time>
      </trkpt>
      <trkpt lat="40.7148280" lon="-3.8996220">
        <ele>926.6</ele>
        <time>2019-05-28T09:41:22Z</time>
      </trkpt>
      <trkpt lat="40.7149740" lon="-3.8988150">
        <ele>926.4</ele>
        <time>2019-05-28T09:41:29Z</time>
      </trkpt>
      <trkpt lat="40.7150870" lon="-3.8981170">
        <ele>926.4</ele>
        <time>2019-05-28T09:41:35Z</time>
      </trkpt>
      <trkpt lat="40.7151370" lon="-3.8974070">
        <ele>926.2</ele>
        <time>2019-05-28T09:41:41Z</time>
      </trkpt>
      <trkpt lat="40.7151730" lon="-3.8966940">
        <ele>926.0</ele>
        <time>2019-05-28T09:41:47Z</time>
      </trkpt>
      <trkpt lat="40.7152060" lon="-3.8959760">
        <ele>926.0</ele>
        <time>2019-05-28T09:41:53Z</time>
      </trkpt>
      <trkpt lat="40.7152410" lon="-3.8952630">
        <ele>926.0</ele>
        <time>2019-05-28T09:41:59Z</time>
      </trkpt>
      <trkpt lat="40.7152770" lon="-3.8945530">
        <ele>926.0</ele>
        <time>2019-05-28T09:42:05Z</time>
      </trkpt>
      <trkpt lat="40.7153020" lon="-3.8940780">
        <ele>925.8</ele>
        <time>2019-05-28T09:42:09Z</time>
      </trkpt>
      <trkpt lat="40.7153390" lon="-3.8933690">
        <ele>925.8</ele>
        <time>2019-05-28T09:42:15Z</time>
      </trkpt>
      <trkpt lat="40.7153820" lon="-3.8926670">
        <ele>925.6</ele>
        <time>2019-05-28T09:42:21Z</time>
      </trkpt>
      <trkpt lat="40.7154900" lon="-3.8919800">
        <ele>925.2</ele>
        <time>2019-05-28T09:42:27Z</time>
      </trkpt>
      <trkpt lat="40.7157040" lon="-3.8913320">
        <ele>924.8</ele>
        <time>2019-05-28T09:42:33Z</time>
      </trkpt>
      <trkpt lat="40.7158660" lon="-3.8909170">
        <ele>924.8</ele>
        <time>2019-05-28T09:42:37Z</time>
      </trkpt>
      <trkpt lat="40.7161150" lon="-3.8902880">
        <ele>924.6</ele>
        <time>2019-05-28T09:42:43Z</time>
      </trkpt>
      <trkpt lat="40.7162400" lon="-3.8899660">
        <ele>924.6</ele>
        <time>2019-05-28T09:42:46Z</time>
      </trkpt>
      <trkpt lat="40.7164920" lon="-3.8893360">
        <ele>924.2</ele>
        <time>2019-05-28T09:42:52Z</time>
      </trkpt>
      <trkpt lat="40.7166130" lon="-3.8890320">
        <ele>924.2</ele>
        <time>2019-05-28T09:42:55Z</time>
      </trkpt>
      <trkpt lat="40.7168930" lon="-3.8883530">
        <ele>923.8</ele>
        <time>2019-05-28T09:43:02Z</time>
      </trkpt>
      <trkpt lat="40.7171970" lon="-3.8876960">
        <ele>924.2</ele>
        <time>2019-05-28T09:43:09Z</time>
      </trkpt>
      <trkpt lat="40.7175200" lon="-3.8870460">
        <ele>924.4</ele>
        <time>2019-05-28T09:43:16Z</time>
      </trkpt>
      <trkpt lat="40.7178270" lon="-3.8864140">
        <ele>923.8</ele>
        <time>2019-05-28T09:43:23Z</time>
      </trkpt>
      <trkpt lat="40.7179100" lon="-3.8862370">
        <ele>923.4</ele>
        <time>2019-05-28T09:43:25Z</time>
      </trkpt>
      <trkpt lat="40.7181330" lon="-3.8857850">
        <ele>922.8</ele>
        <time>2019-05-28T09:43:30Z</time>
      </trkpt>
      <trkpt lat="40.7183200" lon="-3.8854050">
        <ele>922.6</ele>
        <time>2019-05-28T09:43:34Z</time>
      </trkpt>
      <trkpt lat="40.7186130" lon="-3.8848100">
        <ele>922.4</ele>
        <time>2019-05-28T09:43:40Z</time>
      </trkpt>
      <trkpt lat="40.7187100" lon="-3.8846060">
        <ele>922.2</ele>
        <time>2019-05-28T09:43:42Z</time>
      </trkpt>
      <trkpt lat="40.7190030" lon="-3.8840110">
        <ele>922.0</ele>
        <time>2019-05-28T09:43:48Z</time>
      </trkpt>
      <trkpt lat="40.7191910" lon="-3.8836290">
        <ele>922.0</ele>
        <time>2019-05-28T09:43:52Z</time>
      </trkpt>
      <trkpt lat="40.7194610" lon="-3.8830790">
        <ele>922.0</ele>
        <time>2019-05-28T09:43:58Z</time>
      </trkpt>
      <trkpt lat="40.7196780" lon="-3.8826300">
        <ele>922.8</ele>
        <time>2019-05-28T09:44:03Z</time>
      </trkpt>
      <trkpt lat="40.7197650" lon="-3.8824520">
        <ele>923.6</ele>
        <time>2019-05-28T09:44:05Z</time>
      </trkpt>
      <trkpt lat="40.7199000" lon="-3.8821790">
        <ele>924.6</ele>
        <time>2019-05-28T09:44:08Z</time>
      </trkpt>
      <trkpt lat="40.7202280" lon="-3.8815210">
        <ele>925.4</ele>
        <time>2019-05-28T09:44:15Z</time>
      </trkpt>
      <trkpt lat="40.7205600" lon="-3.8808410">
        <ele>925.4</ele>
        <time>2019-05-28T09:44:22Z</time>
      </trkpt>
      <trkpt lat="40.7209150" lon="-3.8801710">
        <ele>925.2</ele>
        <time>2019-05-28T09:44:29Z</time>
      </trkpt>
      <trkpt lat="40.7213040" lon="-3.8796600">
        <ele>924.8</ele>
        <time>2019-05-28T09:44:35Z</time>
      </trkpt>
      <trkpt lat="40.7216150" lon="-3.8793630">
        <ele>923.4</ele>
        <time>2019-05-28T09:44:39Z</time>
      </trkpt>
      <trkpt lat="40.7220320" lon="-3.8790100">
        <ele>922.4</ele>
        <time>2019-05-28T09:44:44Z</time>
      </trkpt>
      <trkpt lat="40.7224440" lon="-3.8786670">
        <ele>921.0</ele>
        <time>2019-05-28T09:44:49Z</time>
      </trkpt>
      <trkpt lat="40.7229150" lon="-3.8782660">
        <ele>920.2</ele>
        <time>2019-05-28T09:44:55Z</time>
      </trkpt>
      <trkpt lat="40.7233590" lon="-3.8778130">
        <ele>920.2</ele>
        <time>2019-05-28T09:45:01Z</time>
      </trkpt>
      <trkpt lat="40.7237150" lon="-3.8772280">
        <ele>920.2</ele>
        <time>2019-05-28T09:45:07Z</time>
      </trkpt>
      <trkpt lat="40.7239510" lon="-3.8764680">
        <ele>920.8</ele>
        <time>2019-05-28T09:45:14Z</time>
      </trkpt>
      <trkpt lat="40.7240110" lon="-3.8756520">
        <ele>921.4</ele>
        <time>2019-05-28T09:45:22Z</time>
      </trkpt>
      <trkpt lat="40.7240060" lon="-3.8754580">
        <ele>922.2</ele>
        <time>2019-05-28T09:45:24Z</time>
      </trkpt>
      <trkpt lat="40.7239960" lon="-3.8751730">
        <ele>923.4</ele>
        <time>2019-05-28T09:45:27Z</time>
      </trkpt>
      <trkpt lat="40.7239890" lon="-3.8747920">
        <ele>924.6</ele>
        <time>2019-05-28T09:45:31Z</time>
      </trkpt>
      <trkpt lat="40.7239880" lon="-3.8744040">
        <ele>925.8</ele>
        <time>2019-05-28T09:45:35Z</time>
      </trkpt>
      <trkpt lat="40.7239820" lon="-3.8741010">
        <ele>926.8</ele>
        <time>2019-05-28T09:45:38Z</time>
      </trkpt>
      <trkpt lat="40.7239770" lon="-3.8736980">
        <ele>928.0</ele>
        <time>2019-05-28T09:45:42Z</time>
      </trkpt>
      <trkpt lat="40.7239710" lon="-3.8731010">
        <ele>929.0</ele>
        <time>2019-05-28T09:45:48Z</time>
      </trkpt>
      <trkpt lat="40.7240070" lon="-3.8724050">
        <ele>930.0</ele>
        <time>2019-05-28T09:45:55Z</time>
      </trkpt>
      <trkpt lat="40.7240220" lon="-3.8723060">
        <ele>930.2</ele>
        <time>2019-05-28T09:45:56Z</time>
      </trkpt>
      <trkpt lat="40.7241620" lon="-3.8717250">
        <ele>931.0</ele>
        <time>2019-05-28T09:46:02Z</time>
      </trkpt>
      <trkpt lat="40.7243340" lon="-3.8712460">
        <ele>931.2</ele>
        <time>2019-05-28T09:46:07Z</time>
      </trkpt>
      <trkpt lat="40.7245930" lon="-3.8705700">
        <ele>932.2</ele>
        <time>2019-05-28T09:46:14Z</time>
      </trkpt>
      <trkpt lat="40.7246300" lon="-3.8704750">
        <ele>932.4</ele>
        <time>2019-05-28T09:46:15Z</time>
      </trkpt>
      <trkpt lat="40.7247960" lon="-3.8699840">
        <ele>932.6</ele>
        <time>2019-05-28T09:46:20Z</time>
      </trkpt>
      <trkpt lat="40.7249510" lon="-3.8694840">
        <ele>932.6</ele>
        <time>2019-05-28T09:46:25Z</time>
      </trkpt>
      <trkpt lat="40.7250200" lon="-3.8691760">
        <ele>932.4</ele>
        <time>2019-05-28T09:46:28Z</time>
      </trkpt>
      <trkpt lat="40.7250360" lon="-3.8690690">
        <ele>932.4</ele>
        <time>2019-05-28T09:46:29Z</time>
      </trkpt>
      <trkpt lat="40.7250480" lon="-3.8687320">
        <ele>932.0</ele>
        <time>2019-05-28T09:46:32Z</time>
      </trkpt>
      <trkpt lat="40.7250360" lon="-3.8686200">
        <ele>931.8</ele>
        <time>2019-05-28T09:46:33Z</time>
      </trkpt>
      <trkpt lat="40.7249560" lon="-3.8684200">
        <ele>931.2</ele>
        <time>2019-05-28T09:46:35Z</time>
      </trkpt>
      <trkpt lat="40.7249190" lon="-3.8683190">
        <ele>930.8</ele>
        <time>2019-05-28T09:46:36Z</time>
      </trkpt>
      <trkpt lat="40.7249170" lon="-3.8680920">
        <ele>929.8</ele>
        <time>2019-05-28T09:46:38Z</time>
      </trkpt>
      <trkpt lat="40.7249990" lon="-3.8678730">
        <ele>929.0</ele>
        <time>2019-05-28T09:46:40Z</time>
      </trkpt>
      <trkpt lat="40.7250380" lon="-3.8677580">
        <ele>928.4</ele>
        <time>2019-05-28T09:46:41Z</time>
      </trkpt>
      <trkpt lat="40.7250790" lon="-3.8675060">
        <ele>927.2</ele>
        <time>2019-05-28T09:46:43Z</time>
      </trkpt>
      <trkpt lat="40.7251010" lon="-3.8672430">
        <ele>925.8</ele>
        <time>2019-05-28T09:46:45Z</time>
      </trkpt>
      <trkpt lat="40.7251130" lon="-3.8668360">
        <ele>924.8</ele>
        <time>2019-05-28T09:46:48Z</time>
      </trkpt>
      <trkpt lat="40.7251160" lon="-3.8665630">
        <ele>923.4</ele>
        <time>2019-05-28T09:46:50Z</time>
      </trkpt>
      <trkpt lat="40.7251150" lon="-3.8662940">
        <ele>922.0</ele>
        <time>2019-05-28T09:46:52Z</time>
      </trkpt>
      <trkpt lat="40.7251170" lon="-3.8660280">
        <ele>921.0</ele>
        <time>2019-05-28T09:46:54Z</time>
      </trkpt>
      <trkpt lat="40.7251180" lon="-3.8655210">
        <ele>920.0</ele>
        <time>2019-05-28T09:46:58Z</time>
      </trkpt>
      <trkpt lat="40.7251230" lon="-3.8647980">
        <ele>919.8</ele>
        <time>2019-05-28T09:47:04Z</time>
      </trkpt>
      <trkpt lat="40.7251280" lon="-3.8641250">
        <ele>919.4</ele>
        <time>2019-05-28T09:47:10Z</time>
      </trkpt>
      <trkpt lat="40.7251780" lon="-3.8633760">
        <ele>919.6</ele>
        <time>2019-05-28T09:47:17Z</time>
      </trkpt>
      <trkpt lat="40.7252840" lon="-3.8628480">
        <ele>919.2</ele>
        <time>2019-05-28T09:47:22Z</time>
      </trkpt>
      <trkpt lat="40.7255310" lon="-3.8621680">
        <ele>919.2</ele>
        <time>2019-05-28T09:47:29Z</time>
      </trkpt>
      <trkpt lat="40.7259010" lon="-3.8615400">
        <ele>919.4</ele>
        <time>2019-05-28T09:47:37Z</time>
      </trkpt>
      <trkpt lat="40.7261200" lon="-3.8612840">
        <ele>921.0</ele>
        <time>2019-05-28T09:47:41Z</time>
      </trkpt>
      <trkpt lat="40.7264180" lon="-3.8610010">
        <ele>921.8</ele>
        <time>2019-05-28T09:47:46Z</time>
      </trkpt>
      <trkpt lat="40.7264840" lon="-3.8609510">
        <ele>922.2</ele>
        <time>2019-05-28T09:47:47Z</time>
      </trkpt>
      <trkpt lat="40.7268180" lon="-3.8606930">
        <ele>923.2</ele>
        <time>2019-05-28T09:47:52Z</time>
      </trkpt>
      <trkpt lat="40.7268880" lon="-3.8606360">
        <ele>923.4</ele>
        <time>2019-05-28T09:47:53Z</time>
      </trkpt>
      <trkpt lat="40.7273510" lon="-3.8601450">
        <ele>923.6</ele>
        <time>2019-05-28T09:48:00Z</time>
      </trkpt>
      <trkpt lat="40.7275790" lon="-3.8598050">
        <ele>923.4</ele>
        <time>2019-05-28T09:48:04Z</time>
      </trkpt>
      <trkpt lat="40.7277470" lon="-3.8595460">
        <ele>922.8</ele>
        <time>2019-05-28T09:48:07Z</time>
      </trkpt>
      <trkpt lat="40.7279120" lon="-3.8592880">
        <ele>921.8</ele>
        <time>2019-05-28T09:48:10Z</time>
      </trkpt>
      <trkpt lat="40.7281300" lon="-3.8589430">
        <ele>920.8</ele>
        <time>2019-05-28T09:48:14Z</time>
      </trkpt>
      <trkpt lat="40.7282820" lon="-3.8586680">
        <ele>920.4</ele>
        <time>2019-05-28T09:48:17Z</time>
      </trkpt>
      <trkpt lat="40.7284210" lon="-3.8582480">
        <ele>920.2</ele>
        <time>2019-05-28T09:48:21Z</time>
      </trkpt>
      <trkpt lat="40.7285000" lon="-3.8579190">
        <ele>919.6</ele>
        <time>2019-05-28T09:48:24Z</time>
      </trkpt>
      <trkpt lat="40.7286740" lon="-3.8571500">
        <ele>919.0</ele>
        <time>2019-05-28T09:48:31Z</time>
      </trkpt>
      <trkpt lat="40.7287760" lon="-3.8567040">
        <ele>918.6</ele>
        <time>2019-05-28T09:48:35Z</time>
      </trkpt>
      <trkpt lat="40.7289600" lon="-3.8559370">
        <ele>918.2</ele>
        <time>2019-05-28T09:48:42Z</time>
      </trkpt>
      <trkpt lat="40.7292250" lon="-3.8552390">
        <ele>918.6</ele>
        <time>2019-05-28T09:48:49Z</time>
      </trkpt>
      <trkpt lat="40.7296000" lon="-3.8546400">
        <ele>918.8</ele>
        <time>2019-05-28T09:48:56Z</time>
      </trkpt>
      <trkpt lat="40.7297730" lon="-3.8544010">
        <ele>918.8</ele>
        <time>2019-05-28T09:48:59Z</time>
      </trkpt>
      <trkpt lat="40.7301910" lon="-3.8538350">
        <ele>918.8</ele>
        <time>2019-05-28T09:49:06Z</time>
      </trkpt>
      <trkpt lat="40.7306000" lon="-3.8532630">
        <ele>918.0</ele>
        <time>2019-05-28T09:49:13Z</time>
      </trkpt>
      <trkpt lat="40.7309600" lon="-3.8527720">
        <ele>918.0</ele>
        <time>2019-05-28T09:49:19Z</time>
      </trkpt>
      <trkpt lat="40.7313800" lon="-3.8521940">
        <ele>918.0</ele>
        <time>2019-05-28T09:49:26Z</time>
      </trkpt>
      <trkpt lat="40.7318040" lon="-3.8516110">
        <ele>918.2</ele>
        <time>2019-05-28T09:49:33Z</time>
      </trkpt>
      <trkpt lat="40.7322280" lon="-3.8510290">
        <ele>918.2</ele>
        <time>2019-05-28T09:49:40Z</time>
      </trkpt>
      <trkpt lat="40.7326520" lon="-3.8504530">
        <ele>918.2</ele>
        <time>2019-05-28T09:49:47Z</time>
      </trkpt>
      <trkpt lat="40.7331250" lon="-3.8499650">
        <ele>918.0</ele>
        <time>2019-05-28T09:49:54Z</time>
      </trkpt>
      <trkpt lat="40.7335810" lon="-3.8496370">
        <ele>918.0</ele>
        <time>2019-05-28T09:50:00Z</time>
      </trkpt>
      <trkpt lat="40.7339370" lon="-3.8492950">
        <ele>918.0</ele>
        <time>2019-05-28T09:50:05Z</time>
      </trkpt>
      <trkpt lat="40.7342970" lon="-3.8487690">
        <ele>917.8</ele>
        <time>2019-05-28T09:50:11Z</time>
      </trkpt>
      <trkpt lat="40.7346250" lon="-3.8486840">
        <ele>917.2</ele>
        <time>2019-05-28T09:50:15Z</time>
      </trkpt>
      <trkpt lat="40.7347090" lon="-3.8486730">
        <ele>917.2</ele>
        <time>2019-05-28T09:50:16Z</time>
      </trkpt>
      <trkpt lat="40.7347910" lon="-3.8486450">
        <ele>917.2</ele>
        <time>2019-05-28T09:50:17Z</time>
      </trkpt>
      <trkpt lat="40.7352570" lon="-3.8483500">
        <ele>916.8</ele>
        <time>2019-05-28T09:50:23Z</time>
      </trkpt>
      <trkpt lat="40.7356930" lon="-3.8478000">
        <ele>917.2</ele>
        <time>2019-05-28T09:50:30Z</time>
      </trkpt>
      <trkpt lat="40.7360550" lon="-3.8471440">
        <ele>916.8</ele>
        <time>2019-05-28T09:50:37Z</time>
      </trkpt>
      <trkpt lat="40.7364120" lon="-3.8464790">
        <ele>916.8</ele>
        <time>2019-05-28T09:50:44Z</time>
      </trkpt>
      <trkpt lat="40.7367700" lon="-3.8458070">
        <ele>916.8</ele>
        <time>2019-05-28T09:50:51Z</time>
      </trkpt>
      <trkpt lat="40.7370840" lon="-3.8452290">
        <ele>917.4</ele>
        <time>2019-05-28T09:50:57Z</time>
      </trkpt>
      <trkpt lat="40.7374370" lon="-3.8446800">
        <ele>918.0</ele>
        <time>2019-05-28T09:51:03Z</time>
      </trkpt>
      <trkpt lat="40.7375700" lon="-3.8445130">
        <ele>918.4</ele>
        <time>2019-05-28T09:51:05Z</time>
      </trkpt>
      <trkpt lat="40.7380150" lon="-3.8440690">
        <ele>918.6</ele>
        <time>2019-05-28T09:51:11Z</time>
      </trkpt>
      <trkpt lat="40.7385020" lon="-3.8436930">
        <ele>918.8</ele>
        <time>2019-05-28T09:51:17Z</time>
      </trkpt>
      <trkpt lat="40.7389930" lon="-3.8433250">
        <ele>918.6</ele>
        <time>2019-05-28T09:51:23Z</time>
      </trkpt>
      <trkpt lat="40.7394610" lon="-3.8429180">
        <ele>918.4</ele>
        <time>2019-05-28T09:51:29Z</time>
      </trkpt>
      <trkpt lat="40.7398580" lon="-3.8423980">
        <ele>918.0</ele>
        <time>2019-05-28T09:51:35Z</time>
      </trkpt>
      <trkpt lat="40.7401620" lon="-3.8417680">
        <ele>918.0</ele>
        <time>2019-05-28T09:51:41Z</time>
      </trkpt>
      <trkpt lat="40.7404400" lon="-3.8410940">
        <ele>918.4</ele>
        <time>2019-05-28T09:51:47Z</time>
      </trkpt>
      <trkpt lat="40.7407230" lon="-3.8404150">
        <ele>918.6</ele>
        <time>2019-05-28T09:51:53Z</time>
      </trkpt>
      <trkpt lat="40.7410020" lon="-3.8397400">
        <ele>917.6</ele>
        <time>2019-05-28T09:51:59Z</time>
      </trkpt>
      <trkpt lat="40.7412850" lon="-3.8390650">
        <ele>917.4</ele>
        <time>2019-05-28T09:52:05Z</time>
      </trkpt>
      <trkpt lat="40.7415650" lon="-3.8383780">
        <ele>917.4</ele>
        <time>2019-05-28T09:52:11Z</time>
      </trkpt>
      <trkpt lat="40.7417650" lon="-3.8376450">
        <ele>917.4</ele>
        <time>2019-05-28T09:52:17Z</time>
      </trkpt>
      <trkpt lat="40.7418110" lon="-3.8368640">
        <ele>917.2</ele>
        <time>2019-05-28T09:52:23Z</time>
      </trkpt>
      <trkpt lat="40.7417090" lon="-3.8360960">
        <ele>916.8</ele>
        <time>2019-05-28T09:52:29Z</time>
      </trkpt>
      <trkpt lat="40.7415790" lon="-3.8353640">
        <ele>916.2</ele>
        <time>2019-05-28T09:52:35Z</time>
      </trkpt>
      <trkpt lat="40.7414390" lon="-3.8346650">
        <ele>916.2</ele>
        <time>2019-05-28T09:52:41Z</time>
      </trkpt>
      <trkpt lat="40.7413300" lon="-3.8339580">
        <ele>917.0</ele>
        <time>2019-05-28T09:52:47Z</time>
      </trkpt>
      <trkpt lat="40.7413110" lon="-3.8332220">
        <ele>917.4</ele>
        <time>2019-05-28T09:52:53Z</time>
      </trkpt>
      <trkpt lat="40.7413940" lon="-3.8324600">
        <ele>917.4</ele>
        <time>2019-05-28T09:52:59Z</time>
      </trkpt>
      <trkpt lat="40.7415440" lon="-3.8317020">
        <ele>917.2</ele>
        <time>2019-05-28T09:53:05Z</time>
      </trkpt>
      <trkpt lat="40.7417010" lon="-3.8309510">
        <ele>916.8</ele>
        <time>2019-05-28T09:53:11Z</time>
      </trkpt>
      <trkpt lat="40.7418480" lon="-3.8302050">
        <ele>916.6</ele>
        <time>2019-05-28T09:53:17Z</time>
      </trkpt>
      <trkpt lat="40.7419370" lon="-3.8294460">
        <ele>916.4</ele>
        <time>2019-05-28T09:53:23Z</time>
      </trkpt>
      <trkpt lat="40.7419270" lon="-3.8287190">
        <ele>916.6</ele>
        <time>2019-05-28T09:53:29Z</time>
      </trkpt>
      <trkpt lat="40.7418550" lon="-3.8281450">
        <ele>916.8</ele>
        <time>2019-05-28T09:53:34Z</time>
      </trkpt>
      <trkpt lat="40.7417580" lon="-3.8277040">
        <ele>917.2</ele>
        <time>2019-05-28T09:53:38Z</time>
      </trkpt>
      <trkpt lat="40.7415170" lon="-3.8269930">
        <ele>917.4</ele>
        <time>2019-05-28T09:53:45Z</time>
      </trkpt>
      <trkpt lat="40.7413880" lon="-3.8266870">
        <ele>917.6</ele>
        <time>2019-05-28T09:53:48Z</time>
      </trkpt>
      <trkpt lat="40.7412250" lon="-3.8263740">
        <ele>917.6</ele>
        <time>2019-05-28T09:53:51Z</time>
      </trkpt>
      <trkpt lat="40.7410150" lon="-3.8260850">
        <ele>917.4</ele>
        <time>2019-05-28T09:53:54Z</time>
      </trkpt>
      <trkpt lat="40.7405620" lon="-3.8255470">
        <ele>917.4</ele>
        <time>2019-05-28T09:54:00Z</time>
      </trkpt>
      <trkpt lat="40.7400970" lon="-3.8250450">
        <ele>917.0</ele>
        <time>2019-05-28T09:54:06Z</time>
      </trkpt>
      <trkpt lat="40.7396450" lon="-3.8245630">
        <ele>917.2</ele>
        <time>2019-05-28T09:54:12Z</time>
      </trkpt>
      <trkpt lat="40.7392070" lon="-3.8240850">
        <ele>917.2</ele>
        <time>2019-05-28T09:54:18Z</time>
      </trkpt>
      <trkpt lat="40.7388010" lon="-3.8235660">
        <ele>917.2</ele>
        <time>2019-05-28T09:54:24Z</time>
      </trkpt>
      <trkpt lat="40.7384520" lon="-3.8229760">
        <ele>917.2</ele>
        <time>2019-05-28T09:54:30Z</time>
      </trkpt>
      <trkpt lat="40.7381740" lon="-3.8223180">
        <ele>917.0</ele>
        <time>2019-05-28T09:54:36Z</time>
      </trkpt>
      <trkpt lat="40.7379710" lon="-3.8216280">
        <ele>917.0</ele>
        <time>2019-05-28T09:54:42Z</time>
      </trkpt>
      <trkpt lat="40.7378540" lon="-3.8209000">
        <ele>916.8</ele>
        <time>2019-05-28T09:54:48Z</time>
      </trkpt>
      <trkpt lat="40.7378180" lon="-3.8201350">
        <ele>916.8</ele>
        <time>2019-05-28T09:54:54Z</time>
      </trkpt>
      <trkpt lat="40.7378700" lon="-3.8193760">
        <ele>917.0</ele>
        <time>2019-05-28T09:55:00Z</time>
      </trkpt>
      <trkpt lat="40.7380130" lon="-3.8186300">
        <ele>917.0</ele>
        <time>2019-05-28T09:55:06Z</time>
      </trkpt>
      <trkpt lat="40.7382400" lon="-3.8178970">
        <ele>917.0</ele>
        <time>2019-05-28T09:55:12Z</time>
      </trkpt>
      <trkpt lat="40.7384640" lon="-3.8173080">
        <ele>916.8</ele>
        <time>2019-05-28T09:55:17Z</time>
      </trkpt>
      <trkpt lat="40.7387230" lon="-3.8166160">
        <ele>916.4</ele>
        <time>2019-05-28T09:55:23Z</time>
      </trkpt>
      <trkpt lat="40.7389770" lon="-3.8159500">
        <ele>916.0</ele>
        <time>2019-05-28T09:55:29Z</time>
      </trkpt>
      <trkpt lat="40.7392270" lon="-3.8152180">
        <ele>916.2</ele>
        <time>2019-05-28T09:55:36Z</time>
      </trkpt>
      <trkpt lat="40.7392990" lon="-3.8149260">
        <ele>916.6</ele>
        <time>2019-05-28T09:55:39Z</time>
      </trkpt>
      <trkpt lat="40.7391700" lon="-3.8142780">
        <ele>917.2</ele>
        <time>2019-05-28T09:55:46Z</time>
      </trkpt>
      <trkpt lat="40.7391310" lon="-3.8141940">
        <ele>917.2</ele>
        <time>2019-05-28T09:55:47Z</time>
      </trkpt>
      <trkpt lat="40.7391140" lon="-3.8137100">
        <ele>917.4</ele>
        <time>2019-05-28T09:55:52Z</time>
      </trkpt>
      <trkpt lat="40.7391790" lon="-3.8135230">
        <ele>917.6</ele>
        <time>2019-05-28T09:55:54Z</time>
      </trkpt>
      <trkpt lat="40.7393690" lon="-3.8128550">
        <ele>917.6</ele>
        <time>2019-05-28T09:56:01Z</time>
      </trkpt>
      <trkpt lat="40.7393780" lon="-3.8127530">
        <ele>917.6</ele>
        <time>2019-05-28T09:56:02Z</time>
      </trkpt>
      <trkpt lat="40.7393640" lon="-3.8122280">
        <ele>917.6</ele>
        <time>2019-05-28T09:56:07Z</time>
      </trkpt>
      <trkpt lat="40.7393350" lon="-3.8117970">
        <ele>918.0</ele>
        <time>2019-05-28T09:56:11Z</time>
      </trkpt>
      <trkpt lat="40.7392880" lon="-3.8110530">
        <ele>918.2</ele>
        <time>2019-05-28T09:56:18Z</time>
      </trkpt>
      <trkpt lat="40.7392440" lon="-3.8103020">
        <ele>918.2</ele>
        <time>2019-05-28T09:56:25Z</time>
      </trkpt>
      <trkpt lat="40.7392020" lon="-3.8095300">
        <ele>918.2</ele>
        <time>2019-05-28T09:56:32Z</time>
      </trkpt>
      <trkpt lat="40.7391600" lon="-3.8087500">
        <ele>918.4</ele>
        <time>2019-05-28T09:56:39Z</time>
      </trkpt>
      <trkpt lat="40.7391160" lon="-3.8079620">
        <ele>918.6</ele>
        <time>2019-05-28T09:56:46Z</time>
      </trkpt>
      <trkpt lat="40.7390740" lon="-3.8071850">
        <ele>918.8</ele>
        <time>2019-05-28T09:56:53Z</time>
      </trkpt>
      <trkpt lat="40.7390410" lon="-3.8066220">
        <ele>919.0</ele>
        <time>2019-05-28T09:56:58Z</time>
      </trkpt>
      <trkpt lat="40.7390030" lon="-3.8060650">
        <ele>919.0</ele>
        <time>2019-05-28T09:57:03Z</time>
      </trkpt>
      <trkpt lat="40.7389090" lon="-3.8052980">
        <ele>918.6</ele>
        <time>2019-05-28T09:57:10Z</time>
      </trkpt>
      <trkpt lat="40.7387500" lon="-3.8045520">
        <ele>918.2</ele>
        <time>2019-05-28T09:57:17Z</time>
      </trkpt>
      <trkpt lat="40.7385670" lon="-3.8038210">
        <ele>918.2</ele>
        <time>2019-05-28T09:57:24Z</time>
      </trkpt>
      <trkpt lat="40.7383830" lon="-3.8030700">
        <ele>919.0</ele>
        <time>2019-05-28T09:57:31Z</time>
      </trkpt>
      <trkpt lat="40.7381980" lon="-3.8023230">
        <ele>919.2</ele>
        <time>2019-05-28T09:57:38Z</time>
      </trkpt>
      <trkpt lat="40.7380060" lon="-3.8015810">
        <ele>918.2</ele>
        <time>2019-05-28T09:57:45Z</time>
      </trkpt>
      <trkpt lat="40.7379790" lon="-3.8014740">
        <ele>918.0</ele>
        <time>2019-05-28T09:57:46Z</time>
      </trkpt>
      <trkpt lat="40.7378390" lon="-3.8009430">
        <ele>917.4</ele>
        <time>2019-05-28T09:57:51Z</time>
      </trkpt>
      <trkpt lat="40.7376470" lon="-3.8001880">
        <ele>917.4</ele>
        <time>2019-05-28T09:57:58Z</time>
      </trkpt>
      <trkpt lat="40.7374590" lon="-3.7994260">
        <ele>917.4</ele>
        <time>2019-05-28T09:58:05Z</time>
      </trkpt>
      <trkpt lat="40.7372920" lon="-3.7987790">
        <ele>917.4</ele>
        <time>2019-05-28T09:58:11Z</time>
      </trkpt>
      <trkpt lat="40.7371180" lon="-3.7981210">
        <ele>917.2</ele>
        <time>2019-05-28T09:58:17Z</time>
      </trkpt>
      <trkpt lat="40.7369250" lon="-3.7974660">
        <ele>917.0</ele>
        <time>2019-05-28T09:58:23Z</time>
      </trkpt>
      <trkpt lat="40.7366700" lon="-3.7968370">
        <ele>916.8</ele>
        <time>2019-05-28T09:58:29Z</time>
      </trkpt>
      <trkpt lat="40.7366230" lon="-3.7967370">
        <ele>916.8</ele>
        <time>2019-05-28T09:58:30Z</time>
      </trkpt>
      <trkpt lat="40.7363060" lon="-3.7961630">
        <ele>916.4</ele>
        <time>2019-05-28T09:58:36Z</time>
      </trkpt>
      <trkpt lat="40.7359050" lon="-3.7955310">
        <ele>916.2</ele>
        <time>2019-05-28T09:58:43Z</time>
      </trkpt>
      <trkpt lat="40.7355090" lon="-3.7949230">
        <ele>916.0</ele>
        <time>2019-05-28T09:58:50Z</time>
      </trkpt>
      <trkpt lat="40.7351240" lon="-3.7943120">
        <ele>916.0</ele>
        <time>2019-05-28T09:58:57Z</time>
      </trkpt>
      <trkpt lat="40.7347340" lon="-3.7937030">
        <ele>915.8</ele>
        <time>2019-05-28T09:59:04Z</time>
      </trkpt>
      <trkpt lat="40.7343460" lon="-3.7930920">
        <ele>915.6</ele>
        <time>2019-05-28T09:59:11Z</time>
      </trkpt>
      <trkpt lat="40.7339570" lon="-3.7924840">
        <ele>915.6</ele>
        <time>2019-05-28T09:59:18Z</time>
      </trkpt>
      <trkpt lat="40.7336390" lon="-3.7919890">
        <ele>916.0</ele>
        <time>2019-05-28T09:59:24Z</time>
      </trkpt>
      <trkpt lat="40.7333510" lon="-3.7915360">
        <ele>917.4</ele>
        <time>2019-05-28T09:59:30Z</time>
      </trkpt>
      <trkpt lat="40.7333050" lon="-3.7914640">
        <ele>917.6</ele>
        <time>2019-05-28T09:59:31Z</time>
      </trkpt>
      <trkpt lat="40.7331270" lon="-3.7911840">
        <ele>918.8</ele>
        <time>2019-05-28T09:59:35Z</time>
      </trkpt>
      <trkpt lat="40.7330450" lon="-3.7910510">
        <ele>920.2</ele>
        <time>2019-05-28T09:59:37Z</time>
      </trkpt>
      <trkpt lat="40.7328770" lon="-3.7907890">
        <ele>921.4</ele>
        <time>2019-05-28T09:59:41Z</time>
      </trkpt>
      <trkpt lat="40.7327510" lon="-3.7905890">
        <ele>922.8</ele>
        <time>2019-05-28T09:59:44Z</time>
      </trkpt>
      <trkpt lat="40.7326250" lon="-3.7903950">
        <ele>924.4</ele>
        <time>2019-05-28T09:59:47Z</time>
      </trkpt>
      <trkpt lat="40.7325030" lon="-3.7902070">
        <ele>925.4</ele>
        <time>2019-05-28T09:59:50Z</time>
      </trkpt>
      <trkpt lat="40.7323080" lon="-3.7899090">
        <ele>926.6</ele>
        <time>2019-05-28T09:59:55Z</time>
      </trkpt>
      <trkpt lat="40.7321570" lon="-3.7896780">
        <ele>927.8</ele>
        <time>2019-05-28T09:59:59Z</time>
      </trkpt>
      <trkpt lat="40.7320010" lon="-3.7894800">
        <ele>928.4</ele>
        <time>2019-05-28T10:00:04Z</time>
      </trkpt>
      <trkpt lat="40.7319880" lon="-3.7894750">
        <ele>929.0</ele>
        <time>2019-05-28T10:00:06Z</time>
      </trkpt>
      <trkpt lat="40.7319760" lon="-3.7894650">
        <ele>929.6</ele>
        <time>2019-05-28T10:00:08Z</time>
      </trkpt>
      <trkpt lat="40.7319470" lon="-3.7894590">
        <ele>930.6</ele>
        <time>2019-05-28T10:01:51Z</time>
      </trkpt>
      <trkpt lat="40.7319410" lon="-3.7894560">
        <ele>930.6</ele>
        <time>2019-05-28T10:01:52Z</time>
      </trkpt>
      <trkpt lat="40.7319050" lon="-3.7894420">
        <ele>931.0</ele>
        <time>2019-05-28T10:01:56Z</time>
      </trkpt>
      <trkpt lat="40.7318800" lon="-3.7894450">
        <ele>931.0</ele>
        <time>2019-05-28T10:01:58Z</time>
      </trkpt>
      <trkpt lat="40.7317500" lon="-3.7895030">
        <ele>931.0</ele>
        <time>2019-05-28T10:02:03Z</time>
      </trkpt>
      <trkpt lat="40.7316260" lon="-3.7895640">
        <ele>931.0</ele>
        <time>2019-05-28T10:02:06Z</time>
      </trkpt>
      <trkpt lat="40.7314860" lon="-3.7896190">
        <ele>931.0</ele>
        <time>2019-05-28T10:02:09Z</time>
      </trkpt>
      <trkpt lat="40.7313880" lon="-3.7896610">
        <ele>931.2</ele>
        <time>2019-05-28T10:02:11Z</time>
      </trkpt>
      <trkpt lat="40.7312370" lon="-3.7897260">
        <ele>931.2</ele>
        <time>2019-05-28T10:02:14Z</time>
      </trkpt>
      <trkpt lat="40.7311340" lon="-3.7897650">
        <ele>931.4</ele>
        <time>2019-05-28T10:02:16Z</time>
      </trkpt>
      <trkpt lat="40.7310300" lon="-3.7898050">
        <ele>931.6</ele>
        <time>2019-05-28T10:02:18Z</time>
      </trkpt>
      <trkpt lat="40.7309250" lon="-3.7898480">
        <ele>932.2</ele>
        <time>2019-05-28T10:02:20Z</time>
      </trkpt>
      <trkpt lat="40.7307640" lon="-3.7899070">
        <ele>932.4</ele>
        <time>2019-05-28T10:02:23Z</time>
      </trkpt>
      <trkpt lat="40.7306580" lon="-3.7899490">
        <ele>932.6</ele>
        <time>2019-05-28T10:02:25Z</time>
      </trkpt>
      <trkpt lat="40.7305550" lon="-3.7900000">
        <ele>933.2</ele>
        <time>2019-05-28T10:02:27Z</time>
      </trkpt>
      <trkpt lat="40.7304600" lon="-3.7900780">
        <ele>933.8</ele>
        <time>2019-05-28T10:02:29Z</time>
      </trkpt>
      <trkpt lat="40.7303040" lon="-3.7901610">
        <ele>934.2</ele>
        <time>2019-05-28T10:02:32Z</time>
      </trkpt>
      <trkpt lat="40.7301910" lon="-3.7902000">
        <ele>934.8</ele>
        <time>2019-05-28T10:02:34Z</time>
      </trkpt>
      <trkpt lat="40.7300120" lon="-3.7902370">
        <ele>936.0</ele>
        <time>2019-05-28T10:02:37Z</time>
      </trkpt>
      <trkpt lat="40.7297410" lon="-3.7903520">
        <ele>937.0</ele>
        <time>2019-05-28T10:02:42Z</time>
      </trkpt>
      <trkpt lat="40.7294020" lon="-3.7904670">
        <ele>937.4</ele>
        <time>2019-05-28T10:02:48Z</time>
      </trkpt>
      <trkpt lat="40.7292230" lon="-3.7905170">
        <ele>937.4</ele>
        <time>2019-05-28T10:02:51Z</time>
      </trkpt>
      <trkpt lat="40.7290350" lon="-3.7905750">
        <ele>937.4</ele>
        <time>2019-05-28T10:02:54Z</time>
      </trkpt>
      <trkpt lat="40.7287050" lon="-3.7906660">
        <ele>937.4</ele>
        <time>2019-05-28T10:02:59Z</time>
      </trkpt>
      <trkpt lat="40.7284240" lon="-3.7907500">
        <ele>936.8</ele>
        <time>2019-05-28T10:03:03Z</time>
      </trkpt>
      <trkpt lat="40.7282010" lon="-3.7908130">
        <ele>936.4</ele>
        <time>2019-05-28T10:03:06Z</time>
      </trkpt>
      <trkpt lat="40.7279680" lon="-3.7908800">
        <ele>935.8</ele>
        <time>2019-05-28T10:03:09Z</time>
      </trkpt>
      <trkpt lat="40.7275800" lon="-3.7910050">
        <ele>934.6</ele>
        <time>2019-05-28T10:03:14Z</time>
      </trkpt>
      <trkpt lat="40.7274270" lon="-3.7910610">
        <ele>933.8</ele>
        <time>2019-05-28T10:03:16Z</time>
      </trkpt>
      <trkpt lat="40.7273500" lon="-3.7910890">
        <ele>933.4</ele>
        <time>2019-05-28T10:03:17Z</time>
      </trkpt>
      <trkpt lat="40.7272750" lon="-3.7911180">
        <ele>933.0</ele>
        <time>2019-05-28T10:03:18Z</time>
      </trkpt>
      <trkpt lat="40.7271260" lon="-3.7911810">
        <ele>932.4</ele>
        <time>2019-05-28T10:03:20Z</time>
      </trkpt>
      <trkpt lat="40.7270520" lon="-3.7912130">
        <ele>932.2</ele>
        <time>2019-05-28T10:03:21Z</time>
      </trkpt>
      <trkpt lat="40.7264970" lon="-3.7915240">
        <ele>931.4</ele>
        <time>2019-05-28T10:03:29Z</time>
      </trkpt>
      <trkpt lat="40.7263070" lon="-3.7916600">
        <ele>931.2</ele>
        <time>2019-05-28T10:03:32Z</time>
      </trkpt>
      <trkpt lat="40.7260530" lon="-3.7918530">
        <ele>931.0</ele>
        <time>2019-05-28T10:03:36Z</time>
      </trkpt>
      <trkpt lat="40.7258640" lon="-3.7920030">
        <ele>931.0</ele>
        <time>2019-05-28T10:03:39Z</time>
      </trkpt>
      <trkpt lat="40.7257430" lon="-3.7921060">
        <ele>931.0</ele>
        <time>2019-05-28T10:03:41Z</time>
      </trkpt>
      <trkpt lat="40.7255150" lon="-3.7923090">
        <ele>930.8</ele>
        <time>2019-05-28T10:03:45Z</time>
      </trkpt>
      <trkpt lat="40.7250300" lon="-3.7927390">
        <ele>931.2</ele>
        <time>2019-05-28T10:03:54Z</time>
      </trkpt>
      <trkpt lat="40.7248730" lon="-3.7928740">
        <ele>931.6</ele>
        <time>2019-05-28T10:03:57Z</time>
      </trkpt>
      <trkpt lat="40.7246720" lon="-3.7930730">
        <ele>932.0</ele>
        <time>2019-05-28T10:04:01Z</time>
      </trkpt>
      <trkpt lat="40.7246320" lon="-3.7931340">
        <ele>932.4</ele>
        <time>2019-05-28T10:04:02Z</time>
      </trkpt>
      <trkpt lat="40.7243100" lon="-3.7933200">
        <ele>933.2</ele>
        <time>2019-05-28T10:04:08Z</time>
      </trkpt>
      <trkpt lat="40.7242570" lon="-3.7933340">
        <ele>933.2</ele>
        <time>2019-05-28T10:04:09Z</time>
      </trkpt>
      <trkpt lat="40.7240950" lon="-3.7933840">
        <ele>934.0</ele>
        <time>2019-05-28T10:04:13Z</time>
      </trkpt>
      <trkpt lat="40.7240470" lon="-3.7933960">
        <ele>936.0</ele>
        <time>2019-05-28T10:07:04Z</time>
      </trkpt>
      <trkpt lat="40.7240340" lon="-3.7933980">
        <ele>936.0</ele>
        <time>2019-05-28T10:07:05Z</time>
      </trkpt>
      <trkpt lat="40.7240130" lon="-3.7934050">
        <ele>936.0</ele>
        <time>2019-05-28T10:07:07Z</time>
      </trkpt>
      <trkpt lat="40.7238930" lon="-3.7934420">
        <ele>936.2</ele>
        <time>2019-05-28T10:07:14Z</time>
      </trkpt>
      <trkpt lat="40.7238200" lon="-3.7934600">
        <ele>936.2</ele>
        <time>2019-05-28T10:07:16Z</time>
      </trkpt>
      <trkpt lat="40.7237760" lon="-3.7934700">
        <ele>936.2</ele>
        <time>2019-05-28T10:07:17Z</time>
      </trkpt>
      <trkpt lat="40.7236790" lon="-3.7934930">
        <ele>936.0</ele>
        <time>2019-05-28T10:07:19Z</time>
      </trkpt>
      <trkpt lat="40.7235720" lon="-3.7935130">
        <ele>936.0</ele>
        <time>2019-05-28T10:07:21Z</time>
      </trkpt>
      <trkpt lat="40.7232020" lon="-3.7935470">
        <ele>935.8</ele>
        <time>2019-05-28T10:07:28Z</time>
      </trkpt>
      <trkpt lat="40.7226380" lon="-3.7935090">
        <ele>935.8</ele>
        <time>2019-05-28T10:07:38Z</time>
      </trkpt>
      <trkpt lat="40.7223500" lon="-3.7934380">
        <ele>936.6</ele>
        <time>2019-05-28T10:07:43Z</time>
      </trkpt>
      <trkpt lat="40.7220700" lon="-3.7933290">
        <ele>937.0</ele>
        <time>2019-05-28T10:07:48Z</time>
      </trkpt>
      <trkpt lat="40.7215370" lon="-3.7930270">
        <ele>937.8</ele>
        <time>2019-05-28T10:07:58Z</time>
      </trkpt>
      <trkpt lat="40.7210930" lon="-3.7927590">
        <ele>937.8</ele>
        <time>2019-05-28T10:08:06Z</time>
      </trkpt>
      <trkpt lat="40.7208270" lon="-3.7927280">
        <ele>937.4</ele>
        <time>2019-05-28T10:08:10Z</time>
      </trkpt>
      <trkpt lat="40.7205480" lon="-3.7927280">
        <ele>936.6</ele>
        <time>2019-05-28T10:08:14Z</time>
      </trkpt>
      <trkpt lat="40.7203310" lon="-3.7927290">
        <ele>935.8</ele>
        <time>2019-05-28T10:08:17Z</time>
      </trkpt>
      <trkpt lat="40.7200350" lon="-3.7927430">
        <ele>935.6</ele>
        <time>2019-05-28T10:08:21Z</time>
      </trkpt>
      <trkpt lat="40.7197350" lon="-3.7927820">
        <ele>935.6</ele>
        <time>2019-05-28T10:08:25Z</time>
      </trkpt>
      <trkpt lat="40.7191850" lon="-3.7928850">
        <ele>935.0</ele>
        <time>2019-05-28T10:08:32Z</time>
      </trkpt>
      <trkpt lat="40.7191050" lon="-3.7929010">
        <ele>934.8</ele>
        <time>2019-05-28T10:08:33Z</time>
      </trkpt>
      <trkpt lat="40.7188650" lon="-3.7929470">
        <ele>933.6</ele>
        <time>2019-05-28T10:08:36Z</time>
      </trkpt>
      <trkpt lat="40.7185340" lon="-3.7930050">
        <ele>932.2</ele>
        <time>2019-05-28T10:08:40Z</time>
      </trkpt>
      <trkpt lat="40.7181940" lon="-3.7930640">
        <ele>931.2</ele>
        <time>2019-05-28T10:08:44Z</time>
      </trkpt>
      <trkpt lat="40.7175890" lon="-3.7931730">
        <ele>929.8</ele>
        <time>2019-05-28T10:08:51Z</time>
      </trkpt>
      <trkpt lat="40.7173320" lon="-3.7932210">
        <ele>928.6</ele>
        <time>2019-05-28T10:08:54Z</time>
      </trkpt>
      <trkpt lat="40.7167350" lon="-3.7933320">
        <ele>928.0</ele>
        <time>2019-05-28T10:09:01Z</time>
      </trkpt>
      <trkpt lat="40.7165670" lon="-3.7933610">
        <ele>927.6</ele>
        <time>2019-05-28T10:09:03Z</time>
      </trkpt>
      <trkpt lat="40.7160840" lon="-3.7934500">
        <ele>926.6</ele>
        <time>2019-05-28T10:09:09Z</time>
      </trkpt>
      <trkpt lat="40.7158440" lon="-3.7935170">
        <ele>926.0</ele>
        <time>2019-05-28T10:09:12Z</time>
      </trkpt>
      <trkpt lat="40.7152970" lon="-3.7937930">
        <ele>925.6</ele>
        <time>2019-05-28T10:09:19Z</time>
      </trkpt>
      <trkpt lat="40.7150560" lon="-3.7939040">
        <ele>925.6</ele>
        <time>2019-05-28T10:09:22Z</time>
      </trkpt>
      <trkpt lat="40.7146770" lon="-3.7940500">
        <ele>925.2</ele>
        <time>2019-05-28T10:09:27Z</time>
      </trkpt>
      <trkpt lat="40.7140560" lon="-3.7941820">
        <ele>925.2</ele>
        <time>2019-05-28T10:09:36Z</time>
      </trkpt>
      <trkpt lat="40.7138590" lon="-3.7941960">
        <ele>925.6</ele>
        <time>2019-05-28T10:09:40Z</time>
      </trkpt>
      <trkpt lat="40.7138210" lon="-3.7941960">
        <ele>928.0</ele>
        <time>2019-05-28T10:11:37Z</time>
      </trkpt>
      <trkpt lat="40.7138020" lon="-3.7941940">
        <ele>928.0</ele>
        <time>2019-05-28T10:11:38Z</time>
      </trkpt>
      <trkpt lat="40.7137450" lon="-3.7941910">
        <ele>928.0</ele>
        <time>2019-05-28T10:11:40Z</time>
      </trkpt>
      <trkpt lat="40.7136110" lon="-3.7941810">
        <ele>928.0</ele>
        <time>2019-05-28T10:11:43Z</time>
      </trkpt>
      <trkpt lat="40.7135560" lon="-3.7941790">
        <ele>927.8</ele>
        <time>2019-05-28T10:11:44Z</time>
      </trkpt>
      <trkpt lat="40.7132260" lon="-3.7941760">
        <ele>927.0</ele>
        <time>2019-05-28T10:11:49Z</time>
      </trkpt>
      <trkpt lat="40.7129890" lon="-3.7941570">
        <ele>926.0</ele>
        <time>2019-05-28T10:11:52Z</time>
      </trkpt>
      <trkpt lat="40.7129080" lon="-3.7941430">
        <ele>925.6</ele>
        <time>2019-05-28T10:11:53Z</time>
      </trkpt>
      <trkpt lat="40.7127450" lon="-3.7941060">
        <ele>925.0</ele>
        <time>2019-05-28T10:11:55Z</time>
      </trkpt>
      <trkpt lat="40.7125810" lon="-3.7940640">
        <ele>924.4</ele>
        <time>2019-05-28T10:11:57Z</time>
      </trkpt>
      <trkpt lat="40.7124170" lon="-3.7940160">
        <ele>923.8</ele>
        <time>2019-05-28T10:11:59Z</time>
      </trkpt>
      <trkpt lat="40.7122600" lon="-3.7939350">
        <ele>923.4</ele>
        <time>2019-05-28T10:12:01Z</time>
      </trkpt>
      <trkpt lat="40.7120100" lon="-3.7938700">
        <ele>922.8</ele>
        <time>2019-05-28T10:12:04Z</time>
      </trkpt>
      <trkpt lat="40.7116670" lon="-3.7938380">
        <ele>921.8</ele>
        <time>2019-05-28T10:12:08Z</time>
      </trkpt>
      <trkpt lat="40.7110950" lon="-3.7938040">
        <ele>920.6</ele>
        <time>2019-05-28T10:12:15Z</time>
      </trkpt>
      <trkpt lat="40.7108620" lon="-3.7937890">
        <ele>919.4</ele>
        <time>2019-05-28T10:12:18Z</time>
      </trkpt>
      <trkpt lat="40.7103370" lon="-3.7937530">
        <ele>918.8</ele>
        <time>2019-05-28T10:12:25Z</time>
      </trkpt>
      <trkpt lat="40.7101170" lon="-3.7937340">
        <ele>918.6</ele>
        <time>2019-05-28T10:12:28Z</time>
      </trkpt>
      <trkpt lat="40.7098280" lon="-3.7937120">
        <ele>918.6</ele>
        <time>2019-05-28T10:12:32Z</time>
      </trkpt>
      <trkpt lat="40.7092110" lon="-3.7936610">
        <ele>919.8</ele>
        <time>2019-05-28T10:12:41Z</time>
      </trkpt>
      <trkpt lat="40.7087380" lon="-3.7936170">
        <ele>920.4</ele>
        <time>2019-05-28T10:12:48Z</time>
      </trkpt>
      <trkpt lat="40.7081650" lon="-3.7935680">
        <ele>921.0</ele>
        <time>2019-05-28T10:12:57Z</time>
      </trkpt>
      <trkpt lat="40.7078660" lon="-3.7935370">
        <ele>921.4</ele>
        <time>2019-05-28T10:13:02Z</time>
      </trkpt>
      <trkpt lat="40.7074450" lon="-3.7934890">
        <ele>922.6</ele>
        <time>2019-05-28T10:13:09Z</time>
      </trkpt>
      <trkpt lat="40.7068960" lon="-3.7934250">
        <ele>923.4</ele>
        <time>2019-05-28T10:13:18Z</time>
      </trkpt>
      <trkpt lat="40.7063450" lon="-3.7933680">
        <ele>923.2</ele>
        <time>2019-05-28T10:13:27Z</time>
      </trkpt>
      <trkpt lat="40.7058530" lon="-3.7933130">
        <ele>923.6</ele>
        <time>2019-05-28T10:13:35Z</time>
      </trkpt>
      <trkpt lat="40.7053940" lon="-3.7932650">
        <ele>924.8</ele>
        <time>2019-05-28T10:13:43Z</time>
      </trkpt>
      <trkpt lat="40.7051620" lon="-3.7932430">
        <ele>925.6</ele>
        <time>2019-05-28T10:13:47Z</time>
      </trkpt>
      <trkpt lat="40.7049260" lon="-3.7932220">
        <ele>926.8</ele>
        <time>2019-05-28T10:13:51Z</time>
      </trkpt>
      <trkpt lat="40.7046330" lon="-3.7931960">
        <ele>927.8</ele>
        <time>2019-05-28T10:13:56Z</time>
      </trkpt>
      <trkpt lat="40.7043450" lon="-3.7931710">
        <ele>929.2</ele>
        <time>2019-05-28T10:14:01Z</time>
      </trkpt>
      <trkpt lat="40.7040650" lon="-3.7931380">
        <ele>930.2</ele>
        <time>2019-05-28T10:14:06Z</time>
      </trkpt>
      <trkpt lat="40.7039560" lon="-3.7931310">
        <ele>930.8</ele>
        <time>2019-05-28T10:14:08Z</time>
      </trkpt>
      <trkpt lat="40.7039030" lon="-3.7931360">
        <ele>931.4</ele>
        <time>2019-05-28T10:14:09Z</time>
      </trkpt>
      <trkpt lat="40.7037470" lon="-3.7931610">
        <ele>932.2</ele>
        <time>2019-05-28T10:14:12Z</time>
      </trkpt>
      <trkpt lat="40.7036990" lon="-3.7931780">
        <ele>932.4</ele>
        <time>2019-05-28T10:14:13Z</time>
      </trkpt>
      <trkpt lat="40.7035620" lon="-3.7932450">
        <ele>933.0</ele>
        <time>2019-05-28T10:14:16Z</time>
      </trkpt>
      <trkpt lat="40.7034680" lon="-3.7932150">
        <ele>933.6</ele>
        <time>2019-05-28T10:14:18Z</time>
      </trkpt>
      <trkpt lat="40.7032390" lon="-3.7930170">
        <ele>934.8</ele>
        <time>2019-05-28T10:14:23Z</time>
      </trkpt>
      <trkpt lat="40.7030380" lon="-3.7928750">
        <ele>936.0</ele>
        <time>2019-05-28T10:14:27Z</time>
      </trkpt>
      <trkpt lat="40.7027210" lon="-3.7926820">
        <ele>937.0</ele>
        <time>2019-05-28T10:14:33Z</time>
      </trkpt>
      <trkpt lat="40.7024720" lon="-3.7924880">
        <ele>938.0</ele>
        <time>2019-05-28T10:14:38Z</time>
      </trkpt>
      <trkpt lat="40.7021140" lon="-3.7922200">
        <ele>939.0</ele>
        <time>2019-05-28T10:14:45Z</time>
      </trkpt>
      <trkpt lat="40.7017010" lon="-3.7918840">
        <ele>940.0</ele>
        <time>2019-05-28T10:14:53Z</time>
      </trkpt>
      <trkpt lat="40.7012880" lon="-3.7915320">
        <ele>941.0</ele>
        <time>2019-05-28T10:15:01Z</time>
      </trkpt>
      <trkpt lat="40.7009710" lon="-3.7912680">
        <ele>941.8</ele>
        <time>2019-05-28T10:15:07Z</time>
      </trkpt>
      <trkpt lat="40.7007600" lon="-3.7910920">
        <ele>943.0</ele>
        <time>2019-05-28T10:15:11Z</time>
      </trkpt>
      <trkpt lat="40.7004950" lon="-3.7908690">
        <ele>944.2</ele>
        <time>2019-05-28T10:15:16Z</time>
      </trkpt>
      <trkpt lat="40.7000540" lon="-3.7905140">
        <ele>945.6</ele>
        <time>2019-05-28T10:15:24Z</time>
      </trkpt>
      <trkpt lat="40.6998270" lon="-3.7903530">
        <ele>946.8</ele>
        <time>2019-05-28T10:15:28Z</time>
      </trkpt>
      <trkpt lat="40.6993020" lon="-3.7900390">
        <ele>947.2</ele>
        <time>2019-05-28T10:15:37Z</time>
      </trkpt>
      <trkpt lat="40.6988570" lon="-3.7898310">
        <ele>947.8</ele>
        <time>2019-05-28T10:15:44Z</time>
      </trkpt>
      <trkpt lat="40.6983560" lon="-3.7896490">
        <ele>948.8</ele>
        <time>2019-05-28T10:15:51Z</time>
      </trkpt>
      <trkpt lat="40.6978330" lon="-3.7894610">
        <ele>948.8</ele>
        <time>2019-05-28T10:15:58Z</time>
      </trkpt>
      <trkpt lat="40.6972900" lon="-3.7892650">
        <ele>948.0</ele>
        <time>2019-05-28T10:16:05Z</time>
      </trkpt>
      <trkpt lat="40.6967400" lon="-3.7890680">
        <ele>948.0</ele>
        <time>2019-05-28T10:16:12Z</time>
      </trkpt>
      <trkpt lat="40.6961790" lon="-3.7888780">
        <ele>948.0</ele>
        <time>2019-05-28T10:16:19Z</time>
      </trkpt>
      <trkpt lat="40.6956120" lon="-3.7887010">
        <ele>947.8</ele>
        <time>2019-05-28T10:16:26Z</time>
      </trkpt>
      <trkpt lat="40.6952860" lon="-3.7885860">
        <ele>947.8</ele>
        <time>2019-05-28T10:16:30Z</time>
      </trkpt>
      <trkpt lat="40.6947340" lon="-3.7883930">
        <ele>947.8</ele>
        <time>2019-05-28T10:16:37Z</time>
      </trkpt>
      <trkpt lat="40.6945300" lon="-3.7884510">
        <ele>947.8</ele>
        <time>2019-05-28T10:16:40Z</time>
      </trkpt>
      <trkpt lat="40.6940680" lon="-3.7881550">
        <ele>948.2</ele>
        <time>2019-05-28T10:16:49Z</time>
      </trkpt>
      <trkpt lat="40.6940010" lon="-3.7881310">
        <ele>948.2</ele>
        <time>2019-05-28T10:16:50Z</time>
      </trkpt>
      <trkpt lat="40.6934450" lon="-3.7879280">
        <ele>948.0</ele>
        <time>2019-05-28T10:16:58Z</time>
      </trkpt>
      <trkpt lat="40.6929250" lon="-3.7877110">
        <ele>948.0</ele>
        <time>2019-05-28T10:17:05Z</time>
      </trkpt>
      <trkpt lat="40.6923900" lon="-3.7874590">
        <ele>947.6</ele>
        <time>2019-05-28T10:17:12Z</time>
      </trkpt>
      <trkpt lat="40.6918380" lon="-3.7872160">
        <ele>946.8</ele>
        <time>2019-05-28T10:17:19Z</time>
      </trkpt>
      <trkpt lat="40.6916760" lon="-3.7871470">
        <ele>946.4</ele>
        <time>2019-05-28T10:17:21Z</time>
      </trkpt>
      <trkpt lat="40.6915950" lon="-3.7871120">
        <ele>946.4</ele>
        <time>2019-05-28T10:17:22Z</time>
      </trkpt>
      <trkpt lat="40.6910100" lon="-3.7868780">
        <ele>946.2</ele>
        <time>2019-05-28T10:17:29Z</time>
      </trkpt>
      <trkpt lat="40.6904010" lon="-3.7867010">
        <ele>946.2</ele>
        <time>2019-05-28T10:17:36Z</time>
      </trkpt>
      <trkpt lat="40.6898510" lon="-3.7865520">
        <ele>946.4</ele>
        <time>2019-05-28T10:17:42Z</time>
      </trkpt>
      <trkpt lat="40.6892990" lon="-3.7864040">
        <ele>947.8</ele>
        <time>2019-05-28T10:17:48Z</time>
      </trkpt>
      <trkpt lat="40.6886720" lon="-3.7862350">
        <ele>948.2</ele>
        <time>2019-05-28T10:17:55Z</time>
      </trkpt>
      <trkpt lat="40.6882230" lon="-3.7861080">
        <ele>948.2</ele>
        <time>2019-05-28T10:18:00Z</time>
      </trkpt>
      <trkpt lat="40.6875990" lon="-3.7859400">
        <ele>948.2</ele>
        <time>2019-05-28T10:18:07Z</time>
      </trkpt>
      <trkpt lat="40.6869890" lon="-3.7857770">
        <ele>948.4</ele>
        <time>2019-05-28T10:18:14Z</time>
      </trkpt>
      <trkpt lat="40.6864040" lon="-3.7856340">
        <ele>948.6</ele>
        <time>2019-05-28T10:18:21Z</time>
      </trkpt>
      <trkpt lat="40.6860960" lon="-3.7856160">
        <ele>948.2</ele>
        <time>2019-05-28T10:18:25Z</time>
      </trkpt>
      <trkpt lat="40.6858910" lon="-3.7856950">
        <ele>948.0</ele>
        <time>2019-05-28T10:18:28Z</time>
      </trkpt>
      <trkpt lat="40.6856260" lon="-3.7858450">
        <ele>947.8</ele>
        <time>2019-05-28T10:18:32Z</time>
      </trkpt>
      <trkpt lat="40.6852820" lon="-3.7860280">
        <ele>947.2</ele>
        <time>2019-05-28T10:18:38Z</time>
      </trkpt>
      <trkpt lat="40.6852400" lon="-3.7860430">
        <ele>947.0</ele>
        <time>2019-05-28T10:18:39Z</time>
      </trkpt>
      <trkpt lat="40.6851470" lon="-3.7860790">
        <ele>946.6</ele>
        <time>2019-05-28T10:18:41Z</time>
      </trkpt>
      <trkpt lat="40.6849570" lon="-3.7862970">
        <ele>945.6</ele>
        <time>2019-05-28T10:18:45Z</time>
      </trkpt>
      <trkpt lat="40.6848300" lon="-3.7865540">
        <ele>944.4</ele>
        <time>2019-05-28T10:18:48Z</time>
      </trkpt>
      <trkpt lat="40.6847530" lon="-3.7867560">
        <ele>943.2</ele>
        <time>2019-05-28T10:18:50Z</time>
      </trkpt>
      <trkpt lat="40.6846450" lon="-3.7870870">
        <ele>942.2</ele>
        <time>2019-05-28T10:18:53Z</time>
      </trkpt>
      <trkpt lat="40.6845770" lon="-3.7873220">
        <ele>941.0</ele>
        <time>2019-05-28T10:18:55Z</time>
      </trkpt>
      <trkpt lat="40.6845100" lon="-3.7875630">
        <ele>939.8</ele>
        <time>2019-05-28T10:18:57Z</time>
      </trkpt>
      <trkpt lat="40.6844440" lon="-3.7878050">
        <ele>938.8</ele>
        <time>2019-05-28T10:18:59Z</time>
      </trkpt>
      <trkpt lat="40.6843800" lon="-3.7880390">
        <ele>937.6</ele>
        <time>2019-05-28T10:19:01Z</time>
      </trkpt>
      <trkpt lat="40.6843160" lon="-3.7882690">
        <ele>936.4</ele>
        <time>2019-05-28T10:19:03Z</time>
      </trkpt>
      <trkpt lat="40.6841790" lon="-3.7888510">
        <ele>935.8</ele>
        <time>2019-05-28T10:19:08Z</time>
      </trkpt>
      <trkpt lat="40.6840020" lon="-3.7895670">
        <ele>935.2</ele>
        <time>2019-05-28T10:19:14Z</time>
      </trkpt>
      <trkpt lat="40.6838280" lon="-3.7902190">
        <ele>934.6</ele>
        <time>2019-05-28T10:19:19Z</time>
      </trkpt>
      <trkpt lat="40.6837600" lon="-3.7904940">
        <ele>933.8</ele>
        <time>2019-05-28T10:19:21Z</time>
      </trkpt>
      <trkpt lat="40.6836230" lon="-3.7910660">
        <ele>932.8</ele>
        <time>2019-05-28T10:19:25Z</time>
      </trkpt>
      <trkpt lat="40.6835250" lon="-3.7914900">
        <ele>931.4</ele>
        <time>2019-05-28T10:19:28Z</time>
      </trkpt>
      <trkpt lat="40.6834430" lon="-3.7918960">
        <ele>930.2</ele>
        <time>2019-05-28T10:19:31Z</time>
      </trkpt>
      <trkpt lat="40.6833970" lon="-3.7921550">
        <ele>929.0</ele>
        <time>2019-05-28T10:19:33Z</time>
      </trkpt>
      <trkpt lat="40.6833630" lon="-3.7924070">
        <ele>928.4</ele>
        <time>2019-05-28T10:19:35Z</time>
      </trkpt>
      <trkpt lat="40.6833230" lon="-3.7927770">
        <ele>927.8</ele>
        <time>2019-05-28T10:19:38Z</time>
      </trkpt>
      <trkpt lat="40.6833090" lon="-3.7934090">
        <ele>927.4</ele>
        <time>2019-05-28T10:19:43Z</time>
      </trkpt>
      <trkpt lat="40.6833460" lon="-3.7939200">
        <ele>926.6</ele>
        <time>2019-05-28T10:19:47Z</time>
      </trkpt>
      <trkpt lat="40.6833960" lon="-3.7943060">
        <ele>926.4</ele>
        <time>2019-05-28T10:19:50Z</time>
      </trkpt>
      <trkpt lat="40.6835700" lon="-3.7950740">
        <ele>926.2</ele>
        <time>2019-05-28T10:19:56Z</time>
      </trkpt>
      <trkpt lat="40.6837310" lon="-3.7955720">
        <ele>925.8</ele>
        <time>2019-05-28T10:20:00Z</time>
      </trkpt>
      <trkpt lat="40.6838810" lon="-3.7959340">
        <ele>925.6</ele>
        <time>2019-05-28T10:20:03Z</time>
      </trkpt>
      <trkpt lat="40.6841830" lon="-3.7965290">
        <ele>924.8</ele>
        <time>2019-05-28T10:20:08Z</time>
      </trkpt>
      <trkpt lat="40.6843220" lon="-3.7967700">
        <ele>924.4</ele>
        <time>2019-05-28T10:20:10Z</time>
      </trkpt>
      <trkpt lat="40.6846140" lon="-3.7972660">
        <ele>922.8</ele>
        <time>2019-05-28T10:20:14Z</time>
      </trkpt>
      <trkpt lat="40.6847650" lon="-3.7975250">
        <ele>922.2</ele>
        <time>2019-05-28T10:20:16Z</time>
      </trkpt>
      <trkpt lat="40.6849900" lon="-3.7979160">
        <ele>921.8</ele>
        <time>2019-05-28T10:20:19Z</time>
      </trkpt>
      <trkpt lat="40.6851440" lon="-3.7981770">
        <ele>920.2</ele>
        <time>2019-05-28T10:20:21Z</time>
      </trkpt>
      <trkpt lat="40.6852990" lon="-3.7984450">
        <ele>918.6</ele>
        <time>2019-05-28T10:20:23Z</time>
      </trkpt>
      <trkpt lat="40.6854570" lon="-3.7987180">
        <ele>917.6</ele>
        <time>2019-05-28T10:20:25Z</time>
      </trkpt>
      <trkpt lat="40.6856110" lon="-3.7989990">
        <ele>915.2</ele>
        <time>2019-05-28T10:20:27Z</time>
      </trkpt>
      <trkpt lat="40.6857570" lon="-3.7992860">
        <ele>913.6</ele>
        <time>2019-05-28T10:20:29Z</time>
      </trkpt>
      <trkpt lat="40.6858900" lon="-3.7995820">
        <ele>912.8</ele>
        <time>2019-05-28T10:20:31Z</time>
      </trkpt>
      <trkpt lat="40.6859500" lon="-3.7997360">
        <ele>912.4</ele>
        <time>2019-05-28T10:20:32Z</time>
      </trkpt>
      <trkpt lat="40.6860610" lon="-3.8000520">
        <ele>911.2</ele>
        <time>2019-05-28T10:20:34Z</time>
      </trkpt>
      <trkpt lat="40.6862040" lon="-3.8005410">
        <ele>910.0</ele>
        <time>2019-05-28T10:20:37Z</time>
      </trkpt>
      <trkpt lat="40.6863330" lon="-3.8010360">
        <ele>909.6</ele>
        <time>2019-05-28T10:20:40Z</time>
      </trkpt>
      <trkpt lat="40.6864180" lon="-3.8013660">
        <ele>909.0</ele>
        <time>2019-05-28T10:20:42Z</time>
      </trkpt>
      <trkpt lat="40.6865780" lon="-3.8020120">
        <ele>908.0</ele>
        <time>2019-05-28T10:20:46Z</time>
      </trkpt>
      <trkpt lat="40.6867520" lon="-3.8027820">
        <ele>907.6</ele>
        <time>2019-05-28T10:20:51Z</time>
      </trkpt>
      <trkpt lat="40.6868340" lon="-3.8032320">
        <ele>907.6</ele>
        <time>2019-05-28T10:20:54Z</time>
      </trkpt>
      <trkpt lat="40.6869170" lon="-3.8038230">
        <ele>908.0</ele>
        <time>2019-05-28T10:20:58Z</time>
      </trkpt>
      <trkpt lat="40.6869860" lon="-3.8045530">
        <ele>908.4</ele>
        <time>2019-05-28T10:21:03Z</time>
      </trkpt>
      <trkpt lat="40.6870430" lon="-3.8052650">
        <ele>908.4</ele>
        <time>2019-05-28T10:21:08Z</time>
      </trkpt>
      <trkpt lat="40.6871100" lon="-3.8060730">
        <ele>907.2</ele>
        <time>2019-05-28T10:21:14Z</time>
      </trkpt>
      <trkpt lat="40.6871610" lon="-3.8068700">
        <ele>907.0</ele>
        <time>2019-05-28T10:21:20Z</time>
      </trkpt>
      <trkpt lat="40.6871980" lon="-3.8076790">
        <ele>907.0</ele>
        <time>2019-05-28T10:21:26Z</time>
      </trkpt>
      <trkpt lat="40.6871530" lon="-3.8084720">
        <ele>906.6</ele>
        <time>2019-05-28T10:21:32Z</time>
      </trkpt>
      <trkpt lat="40.6870180" lon="-3.8092350">
        <ele>906.0</ele>
        <time>2019-05-28T10:21:38Z</time>
      </trkpt>
      <trkpt lat="40.6869030" lon="-3.8097350">
        <ele>905.6</ele>
        <time>2019-05-28T10:21:42Z</time>
      </trkpt>
      <trkpt lat="40.6867310" lon="-3.8104830">
        <ele>904.6</ele>
        <time>2019-05-28T10:21:48Z</time>
      </trkpt>
      <trkpt lat="40.6865690" lon="-3.8112230">
        <ele>903.8</ele>
        <time>2019-05-28T10:21:54Z</time>
      </trkpt>
      <trkpt lat="40.6864560" lon="-3.8119690">
        <ele>903.6</ele>
        <time>2019-05-28T10:22:00Z</time>
      </trkpt>
      <trkpt lat="40.6864280" lon="-3.8127440">
        <ele>903.6</ele>
        <time>2019-05-28T10:22:06Z</time>
      </trkpt>
      <trkpt lat="40.6864590" lon="-3.8132640">
        <ele>903.4</ele>
        <time>2019-05-28T10:22:10Z</time>
      </trkpt>
      <trkpt lat="40.6865690" lon="-3.8140360">
        <ele>902.8</ele>
        <time>2019-05-28T10:22:16Z</time>
      </trkpt>
      <trkpt lat="40.6867160" lon="-3.8148130">
        <ele>903.0</ele>
        <time>2019-05-28T10:22:22Z</time>
      </trkpt>
      <trkpt lat="40.6868170" lon="-3.8156210">
        <ele>902.6</ele>
        <time>2019-05-28T10:22:28Z</time>
      </trkpt>
      <trkpt lat="40.6868270" lon="-3.8161800">
        <ele>902.2</ele>
        <time>2019-05-28T10:22:32Z</time>
      </trkpt>
      <trkpt lat="40.6868140" lon="-3.8164660">
        <ele>901.8</ele>
        <time>2019-05-28T10:22:34Z</time>
      </trkpt>
      <trkpt lat="40.6867900" lon="-3.8167560">
        <ele>901.0</ele>
        <time>2019-05-28T10:22:36Z</time>
      </trkpt>
      <trkpt lat="40.6867330" lon="-3.8171970">
        <ele>900.2</ele>
        <time>2019-05-28T10:22:39Z</time>
      </trkpt>
      <trkpt lat="40.6867070" lon="-3.8173450">
        <ele>899.0</ele>
        <time>2019-05-28T10:22:40Z</time>
      </trkpt>
      <trkpt lat="40.6866180" lon="-3.8177950">
        <ele>898.0</ele>
        <time>2019-05-28T10:22:43Z</time>
      </trkpt>
      <trkpt lat="40.6865840" lon="-3.8179460">
        <ele>897.8</ele>
        <time>2019-05-28T10:22:44Z</time>
      </trkpt>
      <trkpt lat="40.6864320" lon="-3.8185440">
        <ele>896.4</ele>
        <time>2019-05-28T10:22:48Z</time>
      </trkpt>
      <trkpt lat="40.6863510" lon="-3.8188440">
        <ele>895.2</ele>
        <time>2019-05-28T10:22:50Z</time>
      </trkpt>
      <trkpt lat="40.6862710" lon="-3.8191480">
        <ele>894.0</ele>
        <time>2019-05-28T10:22:52Z</time>
      </trkpt>
      <trkpt lat="40.6861900" lon="-3.8194550">
        <ele>892.8</ele>
        <time>2019-05-28T10:22:54Z</time>
      </trkpt>
      <trkpt lat="40.6861080" lon="-3.8197660">
        <ele>892.0</ele>
        <time>2019-05-28T10:22:56Z</time>
      </trkpt>
      <trkpt lat="40.6860660" lon="-3.8199250">
        <ele>891.6</ele>
        <time>2019-05-28T10:22:57Z</time>
      </trkpt>
      <trkpt lat="40.6859810" lon="-3.8202420">
        <ele>890.4</ele>
        <time>2019-05-28T10:22:59Z</time>
      </trkpt>
      <trkpt lat="40.6858990" lon="-3.8205580">
        <ele>889.2</ele>
        <time>2019-05-28T10:23:01Z</time>
      </trkpt>
      <trkpt lat="40.6858170" lon="-3.8208740">
        <ele>887.8</ele>
        <time>2019-05-28T10:23:03Z</time>
      </trkpt>
      <trkpt lat="40.6857370" lon="-3.8211940">
        <ele>886.0</ele>
        <time>2019-05-28T10:23:05Z</time>
      </trkpt>
      <trkpt lat="40.6856630" lon="-3.8215140">
        <ele>884.4</ele>
        <time>2019-05-28T10:23:07Z</time>
      </trkpt>
      <trkpt lat="40.6855950" lon="-3.8218310">
        <ele>882.6</ele>
        <time>2019-05-28T10:23:09Z</time>
      </trkpt>
      <trkpt lat="40.6855360" lon="-3.8221540">
        <ele>881.4</ele>
        <time>2019-05-28T10:23:11Z</time>
      </trkpt>
      <trkpt lat="40.6854890" lon="-3.8224830">
        <ele>880.2</ele>
        <time>2019-05-28T10:23:13Z</time>
      </trkpt>
      <trkpt lat="40.6854730" lon="-3.8226470">
        <ele>878.0</ele>
        <time>2019-05-28T10:23:14Z</time>
      </trkpt>
      <trkpt lat="40.6854470" lon="-3.8229740">
        <ele>876.6</ele>
        <time>2019-05-28T10:23:16Z</time>
      </trkpt>
      <trkpt lat="40.6854310" lon="-3.8234480">
        <ele>875.6</ele>
        <time>2019-05-28T10:23:19Z</time>
      </trkpt>
      <trkpt lat="40.6854630" lon="-3.8243490">
        <ele>874.6</ele>
        <time>2019-05-28T10:23:25Z</time>
      </trkpt>
      <trkpt lat="40.6854920" lon="-3.8246340">
        <ele>874.0</ele>
        <time>2019-05-28T10:23:27Z</time>
      </trkpt>
      <trkpt lat="40.6855280" lon="-3.8249120">
        <ele>874.0</ele>
        <time>2019-05-28T10:23:29Z</time>
      </trkpt>
      <trkpt lat="40.6855710" lon="-3.8251790">
        <ele>874.0</ele>
        <time>2019-05-28T10:23:31Z</time>
      </trkpt>
      <trkpt lat="40.6857020" lon="-3.8257890">
        <ele>874.2</ele>
        <time>2019-05-28T10:23:36Z</time>
      </trkpt>
      <trkpt lat="40.6857900" lon="-3.8261180">
        <ele>874.6</ele>
        <time>2019-05-28T10:23:39Z</time>
      </trkpt>
      <trkpt lat="40.6858520" lon="-3.8263220">
        <ele>874.8</ele>
        <time>2019-05-28T10:23:41Z</time>
      </trkpt>
      <trkpt lat="40.6858850" lon="-3.8264180">
        <ele>875.0</ele>
        <time>2019-05-28T10:23:42Z</time>
      </trkpt>
      <trkpt lat="40.6859840" lon="-3.8266960">
        <ele>875.6</ele>
        <time>2019-05-28T10:23:45Z</time>
      </trkpt>
      <trkpt lat="40.6860850" lon="-3.8269600">
        <ele>876.6</ele>
        <time>2019-05-28T10:23:48Z</time>
      </trkpt>
      <trkpt lat="40.6861520" lon="-3.8271280">
        <ele>877.6</ele>
        <time>2019-05-28T10:23:50Z</time>
      </trkpt>
      <trkpt lat="40.6862230" lon="-3.8272890">
        <ele>878.6</ele>
        <time>2019-05-28T10:23:52Z</time>
      </trkpt>
      <trkpt lat="40.6862600" lon="-3.8273660">
        <ele>879.0</ele>
        <time>2019-05-28T10:23:53Z</time>
      </trkpt>
      <trkpt lat="40.6863530" lon="-3.8275970">
        <ele>880.4</ele>
        <time>2019-05-28T10:23:56Z</time>
      </trkpt>
      <trkpt lat="40.6864390" lon="-3.8278250">
        <ele>881.8</ele>
        <time>2019-05-28T10:23:59Z</time>
      </trkpt>
      <trkpt lat="40.6865240" lon="-3.8280520">
        <ele>882.8</ele>
        <time>2019-05-28T10:24:02Z</time>
      </trkpt>
      <trkpt lat="40.6865750" lon="-3.8282050">
        <ele>884.0</ele>
        <time>2019-05-28T10:24:04Z</time>
      </trkpt>
      <trkpt lat="40.6867130" lon="-3.8286690">
        <ele>885.0</ele>
        <time>2019-05-28T10:24:10Z</time>
      </trkpt>
      <trkpt lat="40.6867720" lon="-3.8289050">
        <ele>886.0</ele>
        <time>2019-05-28T10:24:13Z</time>
      </trkpt>
      <trkpt lat="40.6868560" lon="-3.8293960">
        <ele>887.2</ele>
        <time>2019-05-28T10:24:19Z</time>
      </trkpt>
      <trkpt lat="40.6868940" lon="-3.8297260">
        <ele>888.4</ele>
        <time>2019-05-28T10:24:23Z</time>
      </trkpt>
      <trkpt lat="40.6869190" lon="-3.8303820">
        <ele>889.4</ele>
        <time>2019-05-28T10:24:31Z</time>
      </trkpt>
      <trkpt lat="40.6868840" lon="-3.8310340">
        <ele>890.4</ele>
        <time>2019-05-28T10:24:39Z</time>
      </trkpt>
      <trkpt lat="40.6867970" lon="-3.8316200">
        <ele>891.4</ele>
        <time>2019-05-28T10:24:46Z</time>
      </trkpt>
      <trkpt lat="40.6866780" lon="-3.8321940">
        <ele>892.4</ele>
        <time>2019-05-28T10:24:53Z</time>
      </trkpt>
      <trkpt lat="40.6865780" lon="-3.8326090">
        <ele>893.4</ele>
        <time>2019-05-28T10:24:58Z</time>
      </trkpt>
      <trkpt lat="40.6864200" lon="-3.8333660">
        <ele>894.4</ele>
        <time>2019-05-28T10:25:07Z</time>
      </trkpt>
      <trkpt lat="40.6864040" lon="-3.8334500">
        <ele>894.6</ele>
        <time>2019-05-28T10:25:08Z</time>
      </trkpt>
      <trkpt lat="40.6863130" lon="-3.8340360">
        <ele>895.8</ele>
        <time>2019-05-28T10:25:15Z</time>
      </trkpt>
      <trkpt lat="40.6862200" lon="-3.8347930">
        <ele>896.8</ele>
        <time>2019-05-28T10:25:24Z</time>
      </trkpt>
      <trkpt lat="40.6861390" lon="-3.8353940">
        <ele>897.8</ele>
        <time>2019-05-28T10:25:31Z</time>
      </trkpt>
      <trkpt lat="40.6861240" lon="-3.8354820">
        <ele>899.0</ele>
        <time>2019-05-28T10:25:32Z</time>
      </trkpt>
      <trkpt lat="40.6860570" lon="-3.8358280">
        <ele>900.0</ele>
        <time>2019-05-28T10:25:36Z</time>
      </trkpt>
      <trkpt lat="40.6859210" lon="-3.8363390">
        <ele>901.2</ele>
        <time>2019-05-28T10:25:42Z</time>
      </trkpt>
      <trkpt lat="40.6856760" lon="-3.8370120">
        <ele>902.2</ele>
        <time>2019-05-28T10:25:50Z</time>
      </trkpt>
      <trkpt lat="40.6856420" lon="-3.8370920">
        <ele>902.4</ele>
        <time>2019-05-28T10:25:51Z</time>
      </trkpt>
      <trkpt lat="40.6854020" lon="-3.8376310">
        <ele>903.4</ele>
        <time>2019-05-28T10:25:58Z</time>
      </trkpt>
      <trkpt lat="40.6851350" lon="-3.8382810">
        <ele>904.0</ele>
        <time>2019-05-28T10:26:06Z</time>
      </trkpt>
      <trkpt lat="40.6848950" lon="-3.8389740">
        <ele>904.4</ele>
        <time>2019-05-28T10:26:14Z</time>
      </trkpt>
      <trkpt lat="40.6848680" lon="-3.8390670">
        <ele>904.4</ele>
        <time>2019-05-28T10:26:15Z</time>
      </trkpt>
      <trkpt lat="40.6846640" lon="-3.8397530">
        <ele>904.4</ele>
        <time>2019-05-28T10:26:22Z</time>
      </trkpt>
      <trkpt lat="40.6845450" lon="-3.8401740">
        <ele>904.4</ele>
        <time>2019-05-28T10:26:26Z</time>
      </trkpt>
      <trkpt lat="40.6843190" lon="-3.8409290">
        <ele>903.0</ele>
        <time>2019-05-28T10:26:33Z</time>
      </trkpt>
      <trkpt lat="40.6841680" lon="-3.8414880">
        <ele>902.0</ele>
        <time>2019-05-28T10:26:38Z</time>
      </trkpt>
      <trkpt lat="40.6840090" lon="-3.8422950">
        <ele>901.4</ele>
        <time>2019-05-28T10:26:45Z</time>
      </trkpt>
      <trkpt lat="40.6839100" lon="-3.8431120">
        <ele>901.6</ele>
        <time>2019-05-28T10:26:52Z</time>
      </trkpt>
      <trkpt lat="40.6838350" lon="-3.8439150">
        <ele>901.6</ele>
        <time>2019-05-28T10:26:59Z</time>
      </trkpt>
      <trkpt lat="40.6837640" lon="-3.8447060">
        <ele>901.8</ele>
        <time>2019-05-28T10:27:06Z</time>
      </trkpt>
      <trkpt lat="40.6836930" lon="-3.8455200">
        <ele>901.8</ele>
        <time>2019-05-28T10:27:13Z</time>
      </trkpt>
      <trkpt lat="40.6836420" lon="-3.8461150">
        <ele>903.0</ele>
        <time>2019-05-28T10:27:18Z</time>
      </trkpt>
      <trkpt lat="40.6835710" lon="-3.8469260">
        <ele>904.0</ele>
        <time>2019-05-28T10:27:25Z</time>
      </trkpt>
      <trkpt lat="40.6835590" lon="-3.8470380">
        <ele>904.2</ele>
        <time>2019-05-28T10:27:26Z</time>
      </trkpt>
      <trkpt lat="40.6835300" lon="-3.8473750">
        <ele>904.6</ele>
        <time>2019-05-28T10:27:29Z</time>
      </trkpt>
      <trkpt lat="40.6834750" lon="-3.8478250">
        <ele>905.4</ele>
        <time>2019-05-28T10:27:33Z</time>
      </trkpt>
      <trkpt lat="40.6834140" lon="-3.8481610">
        <ele>906.4</ele>
        <time>2019-05-28T10:27:36Z</time>
      </trkpt>
      <trkpt lat="40.6833400" lon="-3.8484960">
        <ele>907.4</ele>
        <time>2019-05-28T10:27:39Z</time>
      </trkpt>
      <trkpt lat="40.6832830" lon="-3.8487160">
        <ele>907.8</ele>
        <time>2019-05-28T10:27:41Z</time>
      </trkpt>
      <trkpt lat="40.6831800" lon="-3.8490420">
        <ele>908.8</ele>
        <time>2019-05-28T10:27:44Z</time>
      </trkpt>
      <trkpt lat="40.6830260" lon="-3.8494520">
        <ele>909.8</ele>
        <time>2019-05-28T10:27:48Z</time>
      </trkpt>
      <trkpt lat="40.6828530" lon="-3.8498390">
        <ele>911.0</ele>
        <time>2019-05-28T10:27:52Z</time>
      </trkpt>
      <trkpt lat="40.6825900" lon="-3.8504130">
        <ele>912.0</ele>
        <time>2019-05-28T10:27:58Z</time>
      </trkpt>
      <trkpt lat="40.6824530" lon="-3.8507020">
        <ele>912.0</ele>
        <time>2019-05-28T10:28:01Z</time>
      </trkpt>
      <trkpt lat="40.6821800" lon="-3.8512760">
        <ele>912.0</ele>
        <time>2019-05-28T10:28:07Z</time>
      </trkpt>
      <trkpt lat="40.6820480" lon="-3.8515580">
        <ele>911.6</ele>
        <time>2019-05-28T10:28:10Z</time>
      </trkpt>
      <trkpt lat="40.6819200" lon="-3.8518430">
        <ele>911.0</ele>
        <time>2019-05-28T10:28:13Z</time>
      </trkpt>
      <trkpt lat="40.6817930" lon="-3.8521350">
        <ele>910.4</ele>
        <time>2019-05-28T10:28:16Z</time>
      </trkpt>
      <trkpt lat="40.6817170" lon="-3.8523400">
        <ele>910.0</ele>
        <time>2019-05-28T10:28:18Z</time>
      </trkpt>
      <trkpt lat="40.6816090" lon="-3.8526580">
        <ele>908.8</ele>
        <time>2019-05-28T10:28:21Z</time>
      </trkpt>
      <trkpt lat="40.6814890" lon="-3.8531110">
        <ele>907.6</ele>
        <time>2019-05-28T10:28:25Z</time>
      </trkpt>
      <trkpt lat="40.6813790" lon="-3.8537080">
        <ele>906.2</ele>
        <time>2019-05-28T10:28:30Z</time>
      </trkpt>
      <trkpt lat="40.6813500" lon="-3.8539560">
        <ele>905.2</ele>
        <time>2019-05-28T10:28:32Z</time>
      </trkpt>
      <trkpt lat="40.6813160" lon="-3.8545810">
        <ele>904.2</ele>
        <time>2019-05-28T10:28:37Z</time>
      </trkpt>
      <trkpt lat="40.6813420" lon="-3.8553120">
        <ele>903.2</ele>
        <time>2019-05-28T10:28:43Z</time>
      </trkpt>
      <trkpt lat="40.6814570" lon="-3.8561010">
        <ele>903.4</ele>
        <time>2019-05-28T10:28:50Z</time>
      </trkpt>
      <trkpt lat="40.6816470" lon="-3.8568320">
        <ele>904.6</ele>
        <time>2019-05-28T10:28:57Z</time>
      </trkpt>
      <trkpt lat="40.6817440" lon="-3.8571340">
        <ele>905.2</ele>
        <time>2019-05-28T10:29:00Z</time>
      </trkpt>
      <trkpt lat="40.6819340" lon="-3.8577100">
        <ele>906.2</ele>
        <time>2019-05-28T10:29:06Z</time>
      </trkpt>
      <trkpt lat="40.6821260" lon="-3.8583780">
        <ele>907.2</ele>
        <time>2019-05-28T10:29:13Z</time>
      </trkpt>
      <trkpt lat="40.6821940" lon="-3.8586870">
        <ele>907.2</ele>
        <time>2019-05-28T10:29:16Z</time>
      </trkpt>
      <trkpt lat="40.6823140" lon="-3.8594500">
        <ele>908.0</ele>
        <time>2019-05-28T10:29:23Z</time>
      </trkpt>
      <trkpt lat="40.6823400" lon="-3.8597900">
        <ele>908.2</ele>
        <time>2019-05-28T10:29:26Z</time>
      </trkpt>
      <trkpt lat="40.6823440" lon="-3.8603650">
        <ele>908.6</ele>
        <time>2019-05-28T10:29:31Z</time>
      </trkpt>
      <trkpt lat="40.6822920" lon="-3.8611630">
        <ele>908.4</ele>
        <time>2019-05-28T10:29:38Z</time>
      </trkpt>
      <trkpt lat="40.6821820" lon="-3.8619270">
        <ele>908.8</ele>
        <time>2019-05-28T10:29:45Z</time>
      </trkpt>
      <trkpt lat="40.6820810" lon="-3.8626560">
        <ele>909.0</ele>
        <time>2019-05-28T10:29:52Z</time>
      </trkpt>
      <trkpt lat="40.6820230" lon="-3.8630590">
        <ele>909.2</ele>
        <time>2019-05-28T10:29:56Z</time>
      </trkpt>
      <trkpt lat="40.6819280" lon="-3.8637950">
        <ele>910.0</ele>
        <time>2019-05-28T10:30:03Z</time>
      </trkpt>
      <trkpt lat="40.6819070" lon="-3.8640220">
        <ele>910.2</ele>
        <time>2019-05-28T10:30:05Z</time>
      </trkpt>
      <trkpt lat="40.6818390" lon="-3.8647220">
        <ele>910.4</ele>
        <time>2019-05-28T10:30:11Z</time>
      </trkpt>
      <trkpt lat="40.6817870" lon="-3.8654360">
        <ele>910.4</ele>
        <time>2019-05-28T10:30:17Z</time>
      </trkpt>
      <trkpt lat="40.6817230" lon="-3.8662570">
        <ele>910.0</ele>
        <time>2019-05-28T10:30:24Z</time>
      </trkpt>
      <trkpt lat="40.6816640" lon="-3.8670530">
        <ele>910.2</ele>
        <time>2019-05-28T10:30:31Z</time>
      </trkpt>
      <trkpt lat="40.6816110" lon="-3.8678250">
        <ele>911.2</ele>
        <time>2019-05-28T10:30:38Z</time>
      </trkpt>
      <trkpt lat="40.6815810" lon="-3.8682550">
        <ele>911.4</ele>
        <time>2019-05-28T10:30:42Z</time>
      </trkpt>
      <trkpt lat="40.6815260" lon="-3.8689880">
        <ele>912.2</ele>
        <time>2019-05-28T10:30:49Z</time>
      </trkpt>
      <trkpt lat="40.6815180" lon="-3.8690930">
        <ele>912.4</ele>
        <time>2019-05-28T10:30:50Z</time>
      </trkpt>
      <trkpt lat="40.6814660" lon="-3.8698270">
        <ele>913.4</ele>
        <time>2019-05-28T10:30:57Z</time>
      </trkpt>
      <trkpt lat="40.6814230" lon="-3.8705650">
        <ele>914.2</ele>
        <time>2019-05-28T10:31:04Z</time>
      </trkpt>
      <trkpt lat="40.6814080" lon="-3.8708810">
        <ele>914.4</ele>
        <time>2019-05-28T10:31:07Z</time>
      </trkpt>
      <trkpt lat="40.6813930" lon="-3.8715920">
        <ele>915.2</ele>
        <time>2019-05-28T10:31:14Z</time>
      </trkpt>
      <trkpt lat="40.6813930" lon="-3.8718910">
        <ele>915.8</ele>
        <time>2019-05-28T10:31:17Z</time>
      </trkpt>
      <trkpt lat="40.6814030" lon="-3.8726000">
        <ele>916.4</ele>
        <time>2019-05-28T10:31:24Z</time>
      </trkpt>
      <trkpt lat="40.6814090" lon="-3.8728070">
        <ele>916.8</ele>
        <time>2019-05-28T10:31:26Z</time>
      </trkpt>
      <trkpt lat="40.6814420" lon="-3.8735230">
        <ele>917.0</ele>
        <time>2019-05-28T10:31:33Z</time>
      </trkpt>
      <trkpt lat="40.6815090" lon="-3.8742970">
        <ele>916.8</ele>
        <time>2019-05-28T10:31:41Z</time>
      </trkpt>
      <trkpt lat="40.6816280" lon="-3.8750570">
        <ele>916.6</ele>
        <time>2019-05-28T10:31:49Z</time>
      </trkpt>
      <trkpt lat="40.6817510" lon="-3.8756190">
        <ele>917.6</ele>
        <time>2019-05-28T10:31:55Z</time>
      </trkpt>
      <trkpt lat="40.6818190" lon="-3.8759090">
        <ele>919.0</ele>
        <time>2019-05-28T10:31:58Z</time>
      </trkpt>
      <trkpt lat="40.6819660" lon="-3.8765880">
        <ele>919.6</ele>
        <time>2019-05-28T10:32:05Z</time>
      </trkpt>
      <trkpt lat="40.6820640" lon="-3.8773130">
        <ele>919.4</ele>
        <time>2019-05-28T10:32:12Z</time>
      </trkpt>
      <trkpt lat="40.6821050" lon="-3.8780410">
        <ele>919.2</ele>
        <time>2019-05-28T10:32:19Z</time>
      </trkpt>
      <trkpt lat="40.6821560" lon="-3.8787650">
        <ele>919.0</ele>
        <time>2019-05-28T10:32:26Z</time>
      </trkpt>
      <trkpt lat="40.6822750" lon="-3.8795350">
        <ele>918.4</ele>
        <time>2019-05-28T10:32:34Z</time>
      </trkpt>
      <trkpt lat="40.6824670" lon="-3.8802230">
        <ele>918.8</ele>
        <time>2019-05-28T10:32:42Z</time>
      </trkpt>
      <trkpt lat="40.6826860" lon="-3.8807740">
        <ele>919.8</ele>
        <time>2019-05-28T10:32:49Z</time>
      </trkpt>
      <trkpt lat="40.6827520" lon="-3.8809190">
        <ele>920.2</ele>
        <time>2019-05-28T10:32:51Z</time>
      </trkpt>
      <trkpt lat="40.6828500" lon="-3.8811270">
        <ele>921.4</ele>
        <time>2019-05-28T10:32:54Z</time>
      </trkpt>
      <trkpt lat="40.6829450" lon="-3.8813340">
        <ele>922.6</ele>
        <time>2019-05-28T10:32:57Z</time>
      </trkpt>
      <trkpt lat="40.6830660" lon="-3.8816030">
        <ele>923.6</ele>
        <time>2019-05-28T10:33:01Z</time>
      </trkpt>
      <trkpt lat="40.6831600" lon="-3.8818010">
        <ele>925.0</ele>
        <time>2019-05-28T10:33:04Z</time>
      </trkpt>
      <trkpt lat="40.6832500" lon="-3.8819960">
        <ele>926.2</ele>
        <time>2019-05-28T10:33:07Z</time>
      </trkpt>
      <trkpt lat="40.6834020" lon="-3.8823190">
        <ele>927.2</ele>
        <time>2019-05-28T10:33:12Z</time>
      </trkpt>
      <trkpt lat="40.6835170" lon="-3.8825790">
        <ele>928.6</ele>
        <time>2019-05-28T10:33:16Z</time>
      </trkpt>
      <trkpt lat="40.6836040" lon="-3.8827760">
        <ele>929.6</ele>
        <time>2019-05-28T10:33:19Z</time>
      </trkpt>
      <trkpt lat="40.6836360" lon="-3.8828400">
        <ele>929.8</ele>
        <time>2019-05-28T10:33:20Z</time>
      </trkpt>
      <trkpt lat="40.6837830" lon="-3.8831600">
        <ele>931.0</ele>
        <time>2019-05-28T10:33:25Z</time>
      </trkpt>
      <trkpt lat="40.6839330" lon="-3.8834810">
        <ele>932.4</ele>
        <time>2019-05-28T10:33:30Z</time>
      </trkpt>
      <trkpt lat="40.6840820" lon="-3.8838080">
        <ele>933.4</ele>
        <time>2019-05-28T10:33:35Z</time>
      </trkpt>
      <trkpt lat="40.6841650" lon="-3.8840010">
        <ele>935.0</ele>
        <time>2019-05-28T10:33:38Z</time>
      </trkpt>
      <trkpt lat="40.6842530" lon="-3.8841870">
        <ele>936.2</ele>
        <time>2019-05-28T10:33:41Z</time>
      </trkpt>
      <trkpt lat="40.6843900" lon="-3.8845060">
        <ele>937.2</ele>
        <time>2019-05-28T10:33:46Z</time>
      </trkpt>
      <trkpt lat="40.6844410" lon="-3.8846360">
        <ele>937.4</ele>
        <time>2019-05-28T10:33:48Z</time>
      </trkpt>
      <trkpt lat="40.6845390" lon="-3.8849030">
        <ele>938.4</ele>
        <time>2019-05-28T10:33:52Z</time>
      </trkpt>
      <trkpt lat="40.6846290" lon="-3.8851830">
        <ele>939.6</ele>
        <time>2019-05-28T10:33:56Z</time>
      </trkpt>
      <trkpt lat="40.6847080" lon="-3.8854770">
        <ele>940.6</ele>
        <time>2019-05-28T10:34:00Z</time>
      </trkpt>
      <trkpt lat="40.6847750" lon="-3.8857860">
        <ele>942.2</ele>
        <time>2019-05-28T10:34:04Z</time>
      </trkpt>
      <trkpt lat="40.6848240" lon="-3.8861120">
        <ele>943.2</ele>
        <time>2019-05-28T10:34:08Z</time>
      </trkpt>
      <trkpt lat="40.6848560" lon="-3.8863650">
        <ele>944.4</ele>
        <time>2019-05-28T10:34:11Z</time>
      </trkpt>
      <trkpt lat="40.6848950" lon="-3.8868750">
        <ele>945.4</ele>
        <time>2019-05-28T10:34:17Z</time>
      </trkpt>
      <trkpt lat="40.6849160" lon="-3.8872930">
        <ele>946.4</ele>
        <time>2019-05-28T10:34:22Z</time>
      </trkpt>
      <trkpt lat="40.6849330" lon="-3.8876260">
        <ele>947.6</ele>
        <time>2019-05-28T10:34:26Z</time>
      </trkpt>
      <trkpt lat="40.6849580" lon="-3.8881280">
        <ele>948.8</ele>
        <time>2019-05-28T10:34:32Z</time>
      </trkpt>
      <trkpt lat="40.6849900" lon="-3.8887400">
        <ele>949.6</ele>
        <time>2019-05-28T10:34:39Z</time>
      </trkpt>
      <trkpt lat="40.6850170" lon="-3.8892820">
        <ele>950.0</ele>
        <time>2019-05-28T10:34:45Z</time>
      </trkpt>
      <trkpt lat="40.6850520" lon="-3.8900360">
        <ele>950.2</ele>
        <time>2019-05-28T10:34:53Z</time>
      </trkpt>
      <trkpt lat="40.6851120" lon="-3.8908080">
        <ele>950.2</ele>
        <time>2019-05-28T10:35:01Z</time>
      </trkpt>
      <trkpt lat="40.6852490" lon="-3.8915880">
        <ele>950.2</ele>
        <time>2019-05-28T10:35:09Z</time>
      </trkpt>
      <trkpt lat="40.6853830" lon="-3.8920640">
        <ele>950.0</ele>
        <time>2019-05-28T10:35:14Z</time>
      </trkpt>
      <trkpt lat="40.6855550" lon="-3.8925270">
        <ele>950.0</ele>
        <time>2019-05-28T10:35:19Z</time>
      </trkpt>
      <trkpt lat="40.6858350" lon="-3.8931790">
        <ele>950.4</ele>
        <time>2019-05-28T10:35:26Z</time>
      </trkpt>
      <trkpt lat="40.6861460" lon="-3.8938690">
        <ele>950.4</ele>
        <time>2019-05-28T10:35:33Z</time>
      </trkpt>
      <trkpt lat="40.6864220" lon="-3.8944820">
        <ele>949.4</ele>
        <time>2019-05-28T10:35:39Z</time>
      </trkpt>
      <trkpt lat="40.6866980" lon="-3.8951200">
        <ele>948.8</ele>
        <time>2019-05-28T10:35:45Z</time>
      </trkpt>
      <trkpt lat="40.6868260" lon="-3.8954420">
        <ele>948.6</ele>
        <time>2019-05-28T10:35:48Z</time>
      </trkpt>
      <trkpt lat="40.6870680" lon="-3.8962000">
        <ele>947.4</ele>
        <time>2019-05-28T10:35:55Z</time>
      </trkpt>
      <trkpt lat="40.6870950" lon="-3.8963090">
        <ele>947.2</ele>
        <time>2019-05-28T10:35:56Z</time>
      </trkpt>
      <trkpt lat="40.6872500" lon="-3.8970790">
        <ele>947.0</ele>
        <time>2019-05-28T10:36:03Z</time>
      </trkpt>
      <trkpt lat="40.6873890" lon="-3.8978680">
        <ele>947.4</ele>
        <time>2019-05-28T10:36:10Z</time>
      </trkpt>
      <trkpt lat="40.6875700" lon="-3.8986410">
        <ele>947.6</ele>
        <time>2019-05-28T10:36:17Z</time>
      </trkpt>
      <trkpt lat="40.6877990" lon="-3.8993680">
        <ele>947.6</ele>
        <time>2019-05-28T10:36:24Z</time>
      </trkpt>
      <trkpt lat="40.6880630" lon="-3.9000760">
        <ele>948.0</ele>
        <time>2019-05-28T10:36:31Z</time>
      </trkpt>
      <trkpt lat="40.6881390" lon="-3.9002770">
        <ele>948.4</ele>
        <time>2019-05-28T10:36:33Z</time>
      </trkpt>
      <trkpt lat="40.6883660" lon="-3.9008970">
        <ele>949.4</ele>
        <time>2019-05-28T10:36:39Z</time>
      </trkpt>
      <trkpt lat="40.6884030" lon="-3.9010010">
        <ele>949.4</ele>
        <time>2019-05-28T10:36:40Z</time>
      </trkpt>
      <trkpt lat="40.6886560" lon="-3.9017330">
        <ele>949.6</ele>
        <time>2019-05-28T10:36:47Z</time>
      </trkpt>
      <trkpt lat="40.6888890" lon="-3.9024780">
        <ele>949.8</ele>
        <time>2019-05-28T10:36:54Z</time>
      </trkpt>
      <trkpt lat="40.6891020" lon="-3.9032080">
        <ele>950.4</ele>
        <time>2019-05-28T10:37:01Z</time>
      </trkpt>
      <trkpt lat="40.6891310" lon="-3.9033140">
        <ele>950.4</ele>
        <time>2019-05-28T10:37:02Z</time>
      </trkpt>
      <trkpt lat="40.6893170" lon="-3.9039440">
        <ele>951.4</ele>
        <time>2019-05-28T10:37:08Z</time>
      </trkpt>
      <trkpt lat="40.6895310" lon="-3.9046700">
        <ele>952.4</ele>
        <time>2019-05-28T10:37:15Z</time>
      </trkpt>
      <trkpt lat="40.6895940" lon="-3.9048800">
        <ele>952.6</ele>
        <time>2019-05-28T10:37:17Z</time>
      </trkpt>
      <trkpt lat="40.6898280" lon="-3.9055940">
        <ele>953.4</ele>
        <time>2019-05-28T10:37:24Z</time>
      </trkpt>
      <trkpt lat="40.6898640" lon="-3.9056940">
        <ele>953.6</ele>
        <time>2019-05-28T10:37:25Z</time>
      </trkpt>
      <trkpt lat="40.6900680" lon="-3.9062780">
        <ele>954.8</ele>
        <time>2019-05-28T10:37:31Z</time>
      </trkpt>
      <trkpt lat="40.6903080" lon="-3.9069450">
        <ele>955.6</ele>
        <time>2019-05-28T10:37:38Z</time>
      </trkpt>
      <trkpt lat="40.6903390" lon="-3.9070400">
        <ele>956.0</ele>
        <time>2019-05-28T10:37:39Z</time>
      </trkpt>
      <trkpt lat="40.6906090" lon="-3.9077680">
        <ele>957.0</ele>
        <time>2019-05-28T10:37:47Z</time>
      </trkpt>
      <trkpt lat="40.6907970" lon="-3.9082950">
        <ele>958.0</ele>
        <time>2019-05-28T10:37:53Z</time>
      </trkpt>
      <trkpt lat="40.6910240" lon="-3.9089260">
        <ele>958.6</ele>
        <time>2019-05-28T10:38:00Z</time>
      </trkpt>
      <trkpt lat="40.6911290" lon="-3.9092080">
        <ele>959.0</ele>
        <time>2019-05-28T10:38:03Z</time>
      </trkpt>
      <trkpt lat="40.6913960" lon="-3.9098670">
        <ele>959.4</ele>
        <time>2019-05-28T10:38:10Z</time>
      </trkpt>
      <trkpt lat="40.6917050" lon="-3.9104990">
        <ele>959.8</ele>
        <time>2019-05-28T10:38:17Z</time>
      </trkpt>
      <trkpt lat="40.6920600" lon="-3.9110950">
        <ele>960.2</ele>
        <time>2019-05-28T10:38:24Z</time>
      </trkpt>
      <trkpt lat="40.6924500" lon="-3.9116380">
        <ele>960.8</ele>
        <time>2019-05-28T10:38:31Z</time>
      </trkpt>
      <trkpt lat="40.6927370" lon="-3.9119920">
        <ele>961.4</ele>
        <time>2019-05-28T10:38:36Z</time>
      </trkpt>
      <trkpt lat="40.6931250" lon="-3.9124510">
        <ele>962.6</ele>
        <time>2019-05-28T10:38:43Z</time>
      </trkpt>
      <trkpt lat="40.6934500" lon="-3.9128470">
        <ele>963.6</ele>
        <time>2019-05-28T10:38:49Z</time>
      </trkpt>
      <trkpt lat="40.6937730" lon="-3.9132560">
        <ele>964.6</ele>
        <time>2019-05-28T10:38:55Z</time>
      </trkpt>
      <trkpt lat="40.6938260" lon="-3.9133240">
        <ele>964.6</ele>
        <time>2019-05-28T10:38:56Z</time>
      </trkpt>
      <trkpt lat="40.6938790" lon="-3.9133920">
        <ele>964.6</ele>
        <time>2019-05-28T10:38:57Z</time>
      </trkpt>
      <trkpt lat="40.6942770" lon="-3.9139350">
        <ele>965.6</ele>
        <time>2019-05-28T10:39:05Z</time>
      </trkpt>
      <trkpt lat="40.6946720" lon="-3.9144860">
        <ele>965.8</ele>
        <time>2019-05-28T10:39:13Z</time>
      </trkpt>
      <trkpt lat="40.6949670" lon="-3.9149150">
        <ele>965.6</ele>
        <time>2019-05-28T10:39:19Z</time>
      </trkpt>
      <trkpt lat="40.6950660" lon="-3.9150610">
        <ele>965.6</ele>
        <time>2019-05-28T10:39:21Z</time>
      </trkpt>
      <trkpt lat="40.6953580" lon="-3.9155200">
        <ele>965.0</ele>
        <time>2019-05-28T10:39:27Z</time>
      </trkpt>
      <trkpt lat="40.6955450" lon="-3.9158550">
        <ele>964.6</ele>
        <time>2019-05-28T10:39:31Z</time>
      </trkpt>
      <trkpt lat="40.6958650" lon="-3.9165050">
        <ele>964.0</ele>
        <time>2019-05-28T10:39:38Z</time>
      </trkpt>
      <trkpt lat="40.6960380" lon="-3.9169190">
        <ele>963.4</ele>
        <time>2019-05-28T10:39:42Z</time>
      </trkpt>
      <trkpt lat="40.6962800" lon="-3.9175670">
        <ele>962.4</ele>
        <time>2019-05-28T10:39:48Z</time>
      </trkpt>
      <trkpt lat="40.6963190" lon="-3.9176780">
        <ele>962.0</ele>
        <time>2019-05-28T10:39:49Z</time>
      </trkpt>
      <trkpt lat="40.6964390" lon="-3.9180110">
        <ele>961.0</ele>
        <time>2019-05-28T10:39:52Z</time>
      </trkpt>
      <trkpt lat="40.6965590" lon="-3.9183480">
        <ele>960.0</ele>
        <time>2019-05-28T10:39:55Z</time>
      </trkpt>
      <trkpt lat="40.6968100" lon="-3.9190400">
        <ele>959.2</ele>
        <time>2019-05-28T10:40:01Z</time>
      </trkpt>
      <trkpt lat="40.6968520" lon="-3.9191600">
        <ele>958.8</ele>
        <time>2019-05-28T10:40:02Z</time>
      </trkpt>
      <trkpt lat="40.6970700" lon="-3.9197830">
        <ele>957.8</ele>
        <time>2019-05-28T10:40:07Z</time>
      </trkpt>
      <trkpt lat="40.6972390" lon="-3.9203180">
        <ele>956.4</ele>
        <time>2019-05-28T10:40:11Z</time>
      </trkpt>
      <trkpt lat="40.6973540" lon="-3.9207450">
        <ele>954.8</ele>
        <time>2019-05-28T10:40:14Z</time>
      </trkpt>
      <trkpt lat="40.6974570" lon="-3.9211850">
        <ele>953.6</ele>
        <time>2019-05-28T10:40:17Z</time>
      </trkpt>
      <trkpt lat="40.6975640" lon="-3.9217650">
        <ele>952.2</ele>
        <time>2019-05-28T10:40:21Z</time>
      </trkpt>
      <trkpt lat="40.6975880" lon="-3.9219060">
        <ele>951.2</ele>
        <time>2019-05-28T10:40:22Z</time>
      </trkpt>
      <trkpt lat="40.6976350" lon="-3.9221880">
        <ele>949.4</ele>
        <time>2019-05-28T10:40:24Z</time>
      </trkpt>
      <trkpt lat="40.6977770" lon="-3.9228860">
        <ele>948.4</ele>
        <time>2019-05-28T10:40:29Z</time>
      </trkpt>
      <trkpt lat="40.6979020" lon="-3.9235480">
        <ele>948.2</ele>
        <time>2019-05-28T10:40:34Z</time>
      </trkpt>
      <trkpt lat="40.6981000" lon="-3.9243360">
        <ele>948.4</ele>
        <time>2019-05-28T10:40:41Z</time>
      </trkpt>
      <trkpt lat="40.6982350" lon="-3.9246070">
        <ele>948.8</ele>
        <time>2019-05-28T10:40:44Z</time>
      </trkpt>
      <trkpt lat="40.6983800" lon="-3.9248750">
        <ele>948.8</ele>
        <time>2019-05-28T10:40:47Z</time>
      </trkpt>
      <trkpt lat="40.6983900" lon="-3.9252970">
        <ele>948.8</ele>
        <time>2019-05-28T10:40:51Z</time>
      </trkpt>
      <trkpt lat="40.6983710" lon="-3.9253990">
        <ele>949.0</ele>
        <time>2019-05-28T10:40:52Z</time>
      </trkpt>
      <trkpt lat="40.6983590" lon="-3.9255020">
        <ele>949.2</ele>
        <time>2019-05-28T10:40:53Z</time>
      </trkpt>
      <trkpt lat="40.6983520" lon="-3.9257160">
        <ele>949.2</ele>
        <time>2019-05-28T10:40:55Z</time>
      </trkpt>
      <trkpt lat="40.6983730" lon="-3.9260320">
        <ele>949.4</ele>
        <time>2019-05-28T10:40:58Z</time>
      </trkpt>
      <trkpt lat="40.6983890" lon="-3.9261370">
        <ele>949.4</ele>
        <time>2019-05-28T10:40:59Z</time>
      </trkpt>
      <trkpt lat="40.6984600" lon="-3.9265540">
        <ele>950.4</ele>
        <time>2019-05-28T10:41:03Z</time>
      </trkpt>
      <trkpt lat="40.6984790" lon="-3.9266600">
        <ele>950.6</ele>
        <time>2019-05-28T10:41:04Z</time>
      </trkpt>
      <trkpt lat="40.6986150" lon="-3.9273760">
        <ele>951.6</ele>
        <time>2019-05-28T10:41:11Z</time>
      </trkpt>
      <trkpt lat="40.6986340" lon="-3.9274760">
        <ele>951.8</ele>
        <time>2019-05-28T10:41:12Z</time>
      </trkpt>
      <trkpt lat="40.6986940" lon="-3.9277770">
        <ele>953.0</ele>
        <time>2019-05-28T10:41:15Z</time>
      </trkpt>
      <trkpt lat="40.6988200" lon="-3.9284620">
        <ele>953.4</ele>
        <time>2019-05-28T10:41:22Z</time>
      </trkpt>
      <trkpt lat="40.6988930" lon="-3.9288510">
        <ele>954.0</ele>
        <time>2019-05-28T10:41:26Z</time>
      </trkpt>
      <trkpt lat="40.6990000" lon="-3.9294190">
        <ele>955.0</ele>
        <time>2019-05-28T10:41:32Z</time>
      </trkpt>
      <trkpt lat="40.6990850" lon="-3.9298730">
        <ele>956.2</ele>
        <time>2019-05-28T10:41:37Z</time>
      </trkpt>
      <trkpt lat="40.6991530" lon="-3.9302280">
        <ele>957.2</ele>
        <time>2019-05-28T10:41:41Z</time>
      </trkpt>
      <trkpt lat="40.6992460" lon="-3.9306450">
        <ele>958.2</ele>
        <time>2019-05-28T10:41:46Z</time>
      </trkpt>
      <trkpt lat="40.6992770" lon="-3.9307160">
        <ele>958.2</ele>
        <time>2019-05-28T10:41:47Z</time>
      </trkpt>
      <trkpt lat="40.6994780" lon="-3.9308870">
        <ele>958.8</ele>
        <time>2019-05-28T10:41:52Z</time>
      </trkpt>
      <trkpt lat="40.6995120" lon="-3.9308940">
        <ele>959.2</ele>
        <time>2019-05-28T10:41:53Z</time>
      </trkpt>
      <trkpt lat="40.6995510" lon="-3.9309040">
        <ele>959.4</ele>
        <time>2019-05-28T10:41:54Z</time>
      </trkpt>
      <trkpt lat="40.6995940" lon="-3.9309240">
        <ele>959.6</ele>
        <time>2019-05-28T10:41:55Z</time>
      </trkpt>
      <trkpt lat="40.6997350" lon="-3.9310260">
        <ele>959.8</ele>
        <time>2019-05-28T10:41:58Z</time>
      </trkpt>
      <trkpt lat="40.6998010" lon="-3.9313950">
        <ele>960.0</ele>
        <time>2019-05-28T10:42:03Z</time>
      </trkpt>
      <trkpt lat="40.6996260" lon="-3.9316270">
        <ele>960.4</ele>
        <time>2019-05-28T10:42:07Z</time>
      </trkpt>
      <trkpt lat="40.6995040" lon="-3.9316380">
        <ele>960.6</ele>
        <time>2019-05-28T10:42:09Z</time>
      </trkpt>
      <trkpt lat="40.6990460" lon="-3.9316500">
        <ele>961.2</ele>
        <time>2019-05-28T10:42:17Z</time>
      </trkpt>
      <trkpt lat="40.6987990" lon="-3.9318840">
        <ele>961.4</ele>
        <time>2019-05-28T10:42:23Z</time>
      </trkpt>
      <trkpt lat="40.6987690" lon="-3.9319190">
        <ele>961.8</ele>
        <time>2019-05-28T10:42:24Z</time>
      </trkpt>
      <trkpt lat="40.6986740" lon="-3.9320350">
        <ele>962.6</ele>
        <time>2019-05-28T10:42:28Z</time>
      </trkpt>
      <trkpt lat="40.6986480" lon="-3.9320440">
        <ele>962.8</ele>
        <time>2019-05-28T10:42:29Z</time>
      </trkpt>
      <trkpt lat="40.6986140" lon="-3.9320250">
        <ele>963.6</ele>
        <time>2019-05-28T10:42:32Z</time>
      </trkpt>
      <trkpt lat="40.6986120" lon="-3.9320220">
        <ele>963.8</ele>
        <time>2019-05-28T10:42:33Z</time>
      </trkpt>
      <trkpt lat="40.6986120" lon="-3.9320190">
        <ele>963.8</ele>
        <time>2019-05-28T10:42:34Z</time>
      </trkpt>
      <trkpt lat="40.6986150" lon="-3.9320160">
        <ele>964.0</ele>
        <time>2019-05-28T10:42:35Z</time>
      </trkpt>
      <trkpt lat="40.6986160" lon="-3.9320170">
        <ele>965.2</ele>
        <time>2019-05-28T10:43:13Z</time>
      </trkpt>
      <trkpt lat="40.6986110" lon="-3.9320700">
        <ele>965.2</ele>
        <time>2019-05-28T10:43:17Z</time>
      </trkpt>
      <trkpt lat="40.6985770" lon="-3.9321740">
        <ele>965.2</ele>
        <time>2019-05-28T10:43:20Z</time>
      </trkpt>
      <trkpt lat="40.6985180" lon="-3.9323580">
        <ele>965.2</ele>
        <time>2019-05-28T10:43:24Z</time>
      </trkpt>
      <trkpt lat="40.6985050" lon="-3.9324200">
        <ele>965.2</ele>
        <time>2019-05-28T10:43:25Z</time>
      </trkpt>
      <trkpt lat="40.6984420" lon="-3.9326550">
        <ele>965.2</ele>
        <time>2019-05-28T10:43:29Z</time>
      </trkpt>
      <trkpt lat="40.6983910" lon="-3.9328060">
        <ele>965.2</ele>
        <time>2019-05-28T10:43:32Z</time>
      </trkpt>
      <trkpt lat="40.6983290" lon="-3.9329690">
        <ele>965.4</ele>
        <time>2019-05-28T10:43:36Z</time>
      </trkpt>
      <trkpt lat="40.6982490" lon="-3.9330280">
        <ele>966.2</ele>
        <time>2019-05-28T10:43:41Z</time>
      </trkpt>
      <trkpt lat="40.6982200" lon="-3.9330120">
        <ele>966.4</ele>
        <time>2019-05-28T10:43:43Z</time>
      </trkpt>
      <trkpt lat="40.6982090" lon="-3.9329780">
        <ele>966.6</ele>
        <time>2019-05-28T10:43:49Z</time>
      </trkpt>
      <trkpt lat="40.6982240" lon="-3.9329780">
        <ele>967.2</ele>
        <time>2019-05-28T10:44:12Z</time>
      </trkpt>
      <trkpt lat="40.6982290" lon="-3.9329780">
        <ele>967.2</ele>
        <time>2019-05-28T10:44:13Z</time>
      </trkpt>
      <trkpt lat="40.6982860" lon="-3.9328950">
        <ele>967.2</ele>
        <time>2019-05-28T10:44:16Z</time>
      </trkpt>
      <trkpt lat="40.6983070" lon="-3.9328470">
        <ele>967.2</ele>
        <time>2019-05-28T10:44:17Z</time>
      </trkpt>
      <trkpt lat="40.6985340" lon="-3.9322260">
        <ele>965.8</ele>
        <time>2019-05-28T10:44:29Z</time>
      </trkpt>
      <trkpt lat="40.6986010" lon="-3.9320590">
        <ele>965.4</ele>
        <time>2019-05-28T10:44:32Z</time>
      </trkpt>
      <trkpt lat="40.6986720" lon="-3.9317540">
        <ele>965.0</ele>
        <time>2019-05-28T10:44:40Z</time>
      </trkpt>
      <trkpt lat="40.6986850" lon="-3.9317400">
        <ele>965.2</ele>
        <time>2019-05-28T10:44:42Z</time>
      </trkpt>
      <trkpt lat="40.6987340" lon="-3.9317280">
        <ele>965.2</ele>
        <time>2019-05-28T10:44:45Z</time>
      </trkpt>
      <trkpt lat="40.6987440" lon="-3.9317230">
        <ele>965.2</ele>
        <time>2019-05-28T10:44:46Z</time>
      </trkpt>
      <trkpt lat="40.6987790" lon="-3.9317250">
        <ele>965.0</ele>
        <time>2019-05-28T10:44:51Z</time>
      </trkpt>
      <trkpt lat="40.6988070" lon="-3.9317310">
        <ele>965.0</ele>
        <time>2019-05-28T10:44:54Z</time>
      </trkpt>
      <trkpt lat="40.6988070" lon="-3.9317310">
        <ele>965.0</ele>
        <time>2019-05-28T10:44:55Z</time>
      </trkpt>
      <trkpt lat="40.6987300" lon="-3.9318020">
        <ele>965.4</ele>
        <time>2019-05-28T11:02:27Z</time>
      </trkpt>
      <trkpt lat="40.6987210" lon="-3.9318000">
        <ele>965.4</ele>
        <time>2019-05-28T11:02:28Z</time>
      </trkpt>
      <trkpt lat="40.6987090" lon="-3.9318390">
        <ele>965.4</ele>
        <time>2019-05-28T11:02:32Z</time>
      </trkpt>
      <trkpt lat="40.6987270" lon="-3.9318910">
        <ele>965.6</ele>
        <time>2019-05-28T11:02:38Z</time>
      </trkpt>
      <trkpt lat="40.6986900" lon="-3.9319220">
        <ele>965.6</ele>
        <time>2019-05-28T11:02:42Z</time>
      </trkpt>
      <trkpt lat="40.6986810" lon="-3.9320150">
        <ele>965.6</ele>
        <time>2019-05-28T11:02:45Z</time>
      </trkpt>
      <trkpt lat="40.6986540" lon="-3.9320850">
        <ele>965.6</ele>
        <time>2019-05-28T11:02:47Z</time>
      </trkpt>
      <trkpt lat="40.6986110" lon="-3.9322000">
        <ele>965.6</ele>
        <time>2019-05-28T11:02:50Z</time>
      </trkpt>
      <trkpt lat="40.6985760" lon="-3.9323190">
        <ele>965.6</ele>
        <time>2019-05-28T11:02:53Z</time>
      </trkpt>
      <trkpt lat="40.6984010" lon="-3.9328790">
        <ele>966.6</ele>
        <time>2019-05-28T11:03:07Z</time>
      </trkpt>
      <trkpt lat="40.6983310" lon="-3.9331280">
        <ele>967.2</ele>
        <time>2019-05-28T11:03:14Z</time>
      </trkpt>
      <trkpt lat="40.6980850" lon="-3.9336410">
        <ele>967.6</ele>
        <time>2019-05-28T11:03:29Z</time>
      </trkpt>
      <trkpt lat="40.6980170" lon="-3.9342620">
        <ele>968.6</ele>
        <time>2019-05-28T11:03:44Z</time>
      </trkpt>
      <trkpt lat="40.6979630" lon="-3.9343720">
        <ele>968.8</ele>
        <time>2019-05-28T11:03:47Z</time>
      </trkpt>
      <trkpt lat="40.6977830" lon="-3.9348130">
        <ele>969.6</ele>
        <time>2019-05-28T11:03:57Z</time>
      </trkpt>
      <trkpt lat="40.6977220" lon="-3.9349920">
        <ele>969.8</ele>
        <time>2019-05-28T11:04:01Z</time>
      </trkpt>
      <trkpt lat="40.6975790" lon="-3.9353190">
        <ele>970.2</ele>
        <time>2019-05-28T11:04:09Z</time>
      </trkpt>
      <trkpt lat="40.6974700" lon="-3.9355980">
        <ele>970.8</ele>
        <time>2019-05-28T11:04:16Z</time>
      </trkpt>
      <trkpt lat="40.6974550" lon="-3.9356410">
        <ele>970.8</ele>
        <time>2019-05-28T11:04:17Z</time>
      </trkpt>
      <trkpt lat="40.6974420" lon="-3.9356850">
        <ele>970.8</ele>
        <time>2019-05-28T11:04:18Z</time>
      </trkpt>
      <trkpt lat="40.6973820" lon="-3.9359890">
        <ele>971.6</ele>
        <time>2019-05-28T11:04:24Z</time>
      </trkpt>
      <trkpt lat="40.6973700" lon="-3.9360940">
        <ele>971.6</ele>
        <time>2019-05-28T11:04:26Z</time>
      </trkpt>
      <trkpt lat="40.6973540" lon="-3.9363510">
        <ele>971.8</ele>
        <time>2019-05-28T11:04:31Z</time>
      </trkpt>
      <trkpt lat="40.6972820" lon="-3.9368860">
        <ele>972.4</ele>
        <time>2019-05-28T11:04:41Z</time>
      </trkpt>
      <trkpt lat="40.6972500" lon="-3.9370440">
        <ele>972.8</ele>
        <time>2019-05-28T11:04:44Z</time>
      </trkpt>
      <trkpt lat="40.6972430" lon="-3.9370940">
        <ele>972.8</ele>
        <time>2019-05-28T11:04:45Z</time>
      </trkpt>
      <trkpt lat="40.6972350" lon="-3.9371440">
        <ele>973.0</ele>
        <time>2019-05-28T11:04:46Z</time>
      </trkpt>
      <trkpt lat="40.6971900" lon="-3.9373470">
        <ele>973.2</ele>
        <time>2019-05-28T11:04:50Z</time>
      </trkpt>
      <trkpt lat="40.6971710" lon="-3.9376430">
        <ele>973.2</ele>
        <time>2019-05-28T11:04:56Z</time>
      </trkpt>
      <trkpt lat="40.6971590" lon="-3.9376780">
        <ele>973.2</ele>
        <time>2019-05-28T11:04:57Z</time>
      </trkpt>
      <trkpt lat="40.6969820" lon="-3.9378240">
        <ele>973.4</ele>
        <time>2019-05-28T11:05:02Z</time>
      </trkpt>
      <trkpt lat="40.6967660" lon="-3.9379080">
        <ele>973.2</ele>
        <time>2019-05-28T11:05:06Z</time>
      </trkpt>
      <trkpt lat="40.6966480" lon="-3.9379480">
        <ele>973.2</ele>
        <time>2019-05-28T11:05:08Z</time>
      </trkpt>
      <trkpt lat="40.6961110" lon="-3.9381510">
        <ele>972.4</ele>
        <time>2019-05-28T11:05:17Z</time>
      </trkpt>
      <trkpt lat="40.6959890" lon="-3.9382160">
        <ele>972.4</ele>
        <time>2019-05-28T11:05:19Z</time>
      </trkpt>
      <trkpt lat="40.6955270" lon="-3.9386920">
        <ele>972.2</ele>
        <time>2019-05-28T11:05:28Z</time>
      </trkpt>
      <trkpt lat="40.6952600" lon="-3.9390600">
        <ele>972.2</ele>
        <time>2019-05-28T11:05:34Z</time>
      </trkpt>
      <trkpt lat="40.6950060" lon="-3.9394160">
        <ele>972.4</ele>
        <time>2019-05-28T11:05:40Z</time>
      </trkpt>
      <trkpt lat="40.6948370" lon="-3.9396460">
        <ele>972.6</ele>
        <time>2019-05-28T11:05:44Z</time>
      </trkpt>
      <trkpt lat="40.6946360" lon="-3.9399300">
        <ele>973.8</ele>
        <time>2019-05-28T11:05:49Z</time>
      </trkpt>
      <trkpt lat="40.6944010" lon="-3.9402800">
        <ele>974.8</ele>
        <time>2019-05-28T11:05:55Z</time>
      </trkpt>
      <trkpt lat="40.6942860" lon="-3.9404560">
        <ele>975.0</ele>
        <time>2019-05-28T11:05:58Z</time>
      </trkpt>
      <trkpt lat="40.6938830" lon="-3.9409790">
        <ele>975.8</ele>
        <time>2019-05-28T11:06:08Z</time>
      </trkpt>
      <trkpt lat="40.6938440" lon="-3.9410320">
        <ele>976.0</ele>
        <time>2019-05-28T11:06:09Z</time>
      </trkpt>
      <trkpt lat="40.6935320" lon="-3.9414630">
        <ele>977.2</ele>
        <time>2019-05-28T11:06:17Z</time>
      </trkpt>
      <trkpt lat="40.6933770" lon="-3.9416770">
        <ele>978.2</ele>
        <time>2019-05-28T11:06:21Z</time>
      </trkpt>
      <trkpt lat="40.6929940" lon="-3.9422100">
        <ele>979.4</ele>
        <time>2019-05-28T11:06:31Z</time>
      </trkpt>
      <trkpt lat="40.6926610" lon="-3.9428130">
        <ele>979.6</ele>
        <time>2019-05-28T11:06:41Z</time>
      </trkpt>
      <trkpt lat="40.6925130" lon="-3.9435210">
        <ele>979.8</ele>
        <time>2019-05-28T11:06:50Z</time>
      </trkpt>
      <trkpt lat="40.6924690" lon="-3.9437760">
        <ele>979.8</ele>
        <time>2019-05-28T11:06:53Z</time>
      </trkpt>
      <trkpt lat="40.6924220" lon="-3.9440340">
        <ele>979.4</ele>
        <time>2019-05-28T11:06:56Z</time>
      </trkpt>
      <trkpt lat="40.6923280" lon="-3.9443730">
        <ele>978.8</ele>
        <time>2019-05-28T11:07:00Z</time>
      </trkpt>
      <trkpt lat="40.6921310" lon="-3.9447680">
        <ele>978.6</ele>
        <time>2019-05-28T11:07:05Z</time>
      </trkpt>
      <trkpt lat="40.6919830" lon="-3.9449850">
        <ele>978.4</ele>
        <time>2019-05-28T11:07:08Z</time>
      </trkpt>
      <trkpt lat="40.6919310" lon="-3.9450530">
        <ele>978.0</ele>
        <time>2019-05-28T11:07:09Z</time>
      </trkpt>
      <trkpt lat="40.6915200" lon="-3.9455970">
        <ele>977.0</ele>
        <time>2019-05-28T11:07:17Z</time>
      </trkpt>
      <trkpt lat="40.6911080" lon="-3.9460820">
        <ele>976.2</ele>
        <time>2019-05-28T11:07:25Z</time>
      </trkpt>
      <trkpt lat="40.6910010" lon="-3.9462010">
        <ele>976.2</ele>
        <time>2019-05-28T11:07:27Z</time>
      </trkpt>
      <trkpt lat="40.6908410" lon="-3.9463870">
        <ele>976.0</ele>
        <time>2019-05-28T11:07:30Z</time>
      </trkpt>
      <trkpt lat="40.6906330" lon="-3.9466330">
        <ele>975.8</ele>
        <time>2019-05-28T11:07:34Z</time>
      </trkpt>
      <trkpt lat="40.6905850" lon="-3.9466940">
        <ele>975.8</ele>
        <time>2019-05-28T11:07:35Z</time>
      </trkpt>
      <trkpt lat="40.6903370" lon="-3.9470040">
        <ele>975.8</ele>
        <time>2019-05-28T11:07:40Z</time>
      </trkpt>
      <trkpt lat="40.6900180" lon="-3.9474510">
        <ele>976.2</ele>
        <time>2019-05-28T11:07:47Z</time>
      </trkpt>
      <trkpt lat="40.6898580" lon="-3.9478350">
        <ele>976.4</ele>
        <time>2019-05-28T11:07:52Z</time>
      </trkpt>
      <trkpt lat="40.6897290" lon="-3.9482350">
        <ele>977.0</ele>
        <time>2019-05-28T11:07:57Z</time>
      </trkpt>
      <trkpt lat="40.6897030" lon="-3.9483140">
        <ele>977.2</ele>
        <time>2019-05-28T11:07:58Z</time>
      </trkpt>
      <trkpt lat="40.6896020" lon="-3.9486350">
        <ele>977.6</ele>
        <time>2019-05-28T11:08:02Z</time>
      </trkpt>
      <trkpt lat="40.6894930" lon="-3.9489510">
        <ele>978.2</ele>
        <time>2019-05-28T11:08:06Z</time>
      </trkpt>
      <trkpt lat="40.6893550" lon="-3.9492640">
        <ele>978.8</ele>
        <time>2019-05-28T11:08:10Z</time>
      </trkpt>
      <trkpt lat="40.6892840" lon="-3.9494240">
        <ele>979.4</ele>
        <time>2019-05-28T11:08:12Z</time>
      </trkpt>
      <trkpt lat="40.6890420" lon="-3.9499890">
        <ele>980.6</ele>
        <time>2019-05-28T11:08:19Z</time>
      </trkpt>
      <trkpt lat="40.6887810" lon="-3.9506600">
        <ele>981.0</ele>
        <time>2019-05-28T11:08:27Z</time>
      </trkpt>
      <trkpt lat="40.6885020" lon="-3.9513380">
        <ele>981.4</ele>
        <time>2019-05-28T11:08:35Z</time>
      </trkpt>
      <trkpt lat="40.6884620" lon="-3.9514190">
        <ele>981.6</ele>
        <time>2019-05-28T11:08:36Z</time>
      </trkpt>
      <trkpt lat="40.6880590" lon="-3.9519660">
        <ele>982.0</ele>
        <time>2019-05-28T11:08:44Z</time>
      </trkpt>
      <trkpt lat="40.6878670" lon="-3.9521140">
        <ele>982.4</ele>
        <time>2019-05-28T11:08:47Z</time>
      </trkpt>
      <trkpt lat="40.6875810" lon="-3.9522460">
        <ele>982.6</ele>
        <time>2019-05-28T11:08:51Z</time>
      </trkpt>
      <trkpt lat="40.6873620" lon="-3.9523360">
        <ele>982.6</ele>
        <time>2019-05-28T11:08:54Z</time>
      </trkpt>
      <trkpt lat="40.6868480" lon="-3.9527370">
        <ele>982.2</ele>
        <time>2019-05-28T11:09:02Z</time>
      </trkpt>
      <trkpt lat="40.6864830" lon="-3.9533500">
        <ele>982.4</ele>
        <time>2019-05-28T11:09:10Z</time>
      </trkpt>
      <trkpt lat="40.6861240" lon="-3.9538500">
        <ele>983.0</ele>
        <time>2019-05-28T11:09:17Z</time>
      </trkpt>
      <trkpt lat="40.6856130" lon="-3.9542400">
        <ele>983.2</ele>
        <time>2019-05-28T11:09:25Z</time>
      </trkpt>
      <trkpt lat="40.6851450" lon="-3.9545230">
        <ele>983.6</ele>
        <time>2019-05-28T11:09:32Z</time>
      </trkpt>
      <trkpt lat="40.6847330" lon="-3.9547220">
        <ele>984.6</ele>
        <time>2019-05-28T11:09:38Z</time>
      </trkpt>
      <trkpt lat="40.6846620" lon="-3.9547400">
        <ele>984.8</ele>
        <time>2019-05-28T11:09:39Z</time>
      </trkpt>
      <trkpt lat="40.6841000" lon="-3.9548280">
        <ele>985.2</ele>
        <time>2019-05-28T11:09:47Z</time>
      </trkpt>
      <trkpt lat="40.6836210" lon="-3.9549110">
        <ele>985.8</ele>
        <time>2019-05-28T11:09:54Z</time>
      </trkpt>
      <trkpt lat="40.6834830" lon="-3.9549510">
        <ele>986.2</ele>
        <time>2019-05-28T11:09:56Z</time>
      </trkpt>
      <trkpt lat="40.6832980" lon="-3.9550720">
        <ele>986.8</ele>
        <time>2019-05-28T11:09:59Z</time>
      </trkpt>
      <trkpt lat="40.6828060" lon="-3.9555100">
        <ele>987.2</ele>
        <time>2019-05-28T11:10:08Z</time>
      </trkpt>
      <trkpt lat="40.6823470" lon="-3.9559370">
        <ele>987.8</ele>
        <time>2019-05-28T11:10:17Z</time>
      </trkpt>
      <trkpt lat="40.6820870" lon="-3.9561740">
        <ele>989.0</ele>
        <time>2019-05-28T11:10:22Z</time>
      </trkpt>
      <trkpt lat="40.6818790" lon="-3.9563690">
        <ele>990.0</ele>
        <time>2019-05-28T11:10:26Z</time>
      </trkpt>
      <trkpt lat="40.6816170" lon="-3.9566180">
        <ele>991.2</ele>
        <time>2019-05-28T11:10:31Z</time>
      </trkpt>
      <trkpt lat="40.6812380" lon="-3.9569650">
        <ele>992.2</ele>
        <time>2019-05-28T11:10:38Z</time>
      </trkpt>
      <trkpt lat="40.6809330" lon="-3.9572850">
        <ele>993.2</ele>
        <time>2019-05-28T11:10:44Z</time>
      </trkpt>
      <trkpt lat="40.6808920" lon="-3.9573520">
        <ele>993.4</ele>
        <time>2019-05-28T11:10:45Z</time>
      </trkpt>
      <trkpt lat="40.6806230" lon="-3.9579720">
        <ele>994.4</ele>
        <time>2019-05-28T11:10:53Z</time>
      </trkpt>
      <trkpt lat="40.6805900" lon="-3.9580520">
        <ele>994.6</ele>
        <time>2019-05-28T11:10:54Z</time>
      </trkpt>
      <trkpt lat="40.6803380" lon="-3.9587280">
        <ele>994.6</ele>
        <time>2019-05-28T11:11:02Z</time>
      </trkpt>
      <trkpt lat="40.6800790" lon="-3.9594200">
        <ele>994.4</ele>
        <time>2019-05-28T11:11:10Z</time>
      </trkpt>
      <trkpt lat="40.6799910" lon="-3.9596760">
        <ele>994.2</ele>
        <time>2019-05-28T11:11:13Z</time>
      </trkpt>
      <trkpt lat="40.6798570" lon="-3.9603240">
        <ele>994.0</ele>
        <time>2019-05-28T11:11:20Z</time>
      </trkpt>
      <trkpt lat="40.6795250" lon="-3.9608960">
        <ele>994.2</ele>
        <time>2019-05-28T11:11:27Z</time>
      </trkpt>
      <trkpt lat="40.6792600" lon="-3.9615970">
        <ele>994.4</ele>
        <time>2019-05-28T11:11:34Z</time>
      </trkpt>
      <trkpt lat="40.6789950" lon="-3.9623010">
        <ele>994.2</ele>
        <time>2019-05-28T11:11:41Z</time>
      </trkpt>
      <trkpt lat="40.6787330" lon="-3.9630080">
        <ele>995.0</ele>
        <time>2019-05-28T11:11:48Z</time>
      </trkpt>
      <trkpt lat="40.6784790" lon="-3.9636830">
        <ele>994.2</ele>
        <time>2019-05-28T11:11:55Z</time>
      </trkpt>
      <trkpt lat="40.6782280" lon="-3.9643630">
        <ele>994.0</ele>
        <time>2019-05-28T11:12:02Z</time>
      </trkpt>
      <trkpt lat="40.6780430" lon="-3.9648690">
        <ele>993.8</ele>
        <time>2019-05-28T11:12:07Z</time>
      </trkpt>
      <trkpt lat="40.6778950" lon="-3.9655840">
        <ele>993.8</ele>
        <time>2019-05-28T11:12:14Z</time>
      </trkpt>
      <trkpt lat="40.6778240" lon="-3.9660000">
        <ele>993.6</ele>
        <time>2019-05-28T11:12:18Z</time>
      </trkpt>
      <trkpt lat="40.6777860" lon="-3.9662030">
        <ele>993.2</ele>
        <time>2019-05-28T11:12:20Z</time>
      </trkpt>
      <trkpt lat="40.6777470" lon="-3.9664030">
        <ele>992.2</ele>
        <time>2019-05-28T11:12:22Z</time>
      </trkpt>
      <trkpt lat="40.6777270" lon="-3.9665010">
        <ele>992.0</ele>
        <time>2019-05-28T11:12:23Z</time>
      </trkpt>
      <trkpt lat="40.6776990" lon="-3.9665990">
        <ele>992.0</ele>
        <time>2019-05-28T11:12:24Z</time>
      </trkpt>
      <trkpt lat="40.6775840" lon="-3.9668650">
        <ele>991.0</ele>
        <time>2019-05-28T11:12:27Z</time>
      </trkpt>
      <trkpt lat="40.6775350" lon="-3.9669480">
        <ele>990.8</ele>
        <time>2019-05-28T11:12:28Z</time>
      </trkpt>
      <trkpt lat="40.6774260" lon="-3.9671070">
        <ele>990.4</ele>
        <time>2019-05-28T11:12:30Z</time>
      </trkpt>
      <trkpt lat="40.6773670" lon="-3.9671870">
        <ele>990.4</ele>
        <time>2019-05-28T11:12:31Z</time>
      </trkpt>
      <trkpt lat="40.6771680" lon="-3.9674430">
        <ele>990.0</ele>
        <time>2019-05-28T11:12:34Z</time>
      </trkpt>
      <trkpt lat="40.6768880" lon="-3.9678130">
        <ele>989.0</ele>
        <time>2019-05-28T11:12:38Z</time>
      </trkpt>
      <trkpt lat="40.6766740" lon="-3.9680990">
        <ele>987.4</ele>
        <time>2019-05-28T11:12:41Z</time>
      </trkpt>
      <trkpt lat="40.6764570" lon="-3.9683870">
        <ele>986.0</ele>
        <time>2019-05-28T11:12:44Z</time>
      </trkpt>
      <trkpt lat="40.6763110" lon="-3.9685730">
        <ele>984.4</ele>
        <time>2019-05-28T11:12:46Z</time>
      </trkpt>
      <trkpt lat="40.6761650" lon="-3.9687600">
        <ele>982.8</ele>
        <time>2019-05-28T11:12:48Z</time>
      </trkpt>
      <trkpt lat="40.6760170" lon="-3.9689570">
        <ele>981.4</ele>
        <time>2019-05-28T11:12:50Z</time>
      </trkpt>
      <trkpt lat="40.6758720" lon="-3.9691520">
        <ele>979.8</ele>
        <time>2019-05-28T11:12:52Z</time>
      </trkpt>
      <trkpt lat="40.6756440" lon="-3.9694300">
        <ele>978.4</ele>
        <time>2019-05-28T11:12:55Z</time>
      </trkpt>
      <trkpt lat="40.6755600" lon="-3.9694980">
        <ele>977.0</ele>
        <time>2019-05-28T11:12:56Z</time>
      </trkpt>
      <trkpt lat="40.6753870" lon="-3.9696030">
        <ele>975.2</ele>
        <time>2019-05-28T11:12:58Z</time>
      </trkpt>
      <trkpt lat="40.6753030" lon="-3.9696450">
        <ele>974.4</ele>
        <time>2019-05-28T11:12:59Z</time>
      </trkpt>
      <trkpt lat="40.6752190" lon="-3.9696840">
        <ele>973.8</ele>
        <time>2019-05-28T11:13:00Z</time>
      </trkpt>
      <trkpt lat="40.6750510" lon="-3.9697730">
        <ele>972.4</ele>
        <time>2019-05-28T11:13:02Z</time>
      </trkpt>
      <trkpt lat="40.6748970" lon="-3.9699140">
        <ele>971.6</ele>
        <time>2019-05-28T11:13:04Z</time>
      </trkpt>
      <trkpt lat="40.6747490" lon="-3.9700760">
        <ele>971.2</ele>
        <time>2019-05-28T11:13:06Z</time>
      </trkpt>
      <trkpt lat="40.6745750" lon="-3.9701730">
        <ele>970.6</ele>
        <time>2019-05-28T11:13:08Z</time>
      </trkpt>
      <trkpt lat="40.6743990" lon="-3.9702610">
        <ele>969.8</ele>
        <time>2019-05-28T11:13:10Z</time>
      </trkpt>
      <trkpt lat="40.6742310" lon="-3.9703650">
        <ele>968.6</ele>
        <time>2019-05-28T11:13:12Z</time>
      </trkpt>
      <trkpt lat="40.6741540" lon="-3.9704310">
        <ele>968.4</ele>
        <time>2019-05-28T11:13:13Z</time>
      </trkpt>
      <trkpt lat="40.6740130" lon="-3.9705780">
        <ele>967.4</ele>
        <time>2019-05-28T11:13:15Z</time>
      </trkpt>
      <trkpt lat="40.6738190" lon="-3.9708300">
        <ele>965.8</ele>
        <time>2019-05-28T11:13:18Z</time>
      </trkpt>
      <trkpt lat="40.6736310" lon="-3.9711130">
        <ele>964.8</ele>
        <time>2019-05-28T11:13:21Z</time>
      </trkpt>
      <trkpt lat="40.6735690" lon="-3.9712100">
        <ele>964.6</ele>
        <time>2019-05-28T11:13:22Z</time>
      </trkpt>
      <trkpt lat="40.6734390" lon="-3.9714040">
        <ele>964.4</ele>
        <time>2019-05-28T11:13:24Z</time>
      </trkpt>
      <trkpt lat="40.6733080" lon="-3.9716060">
        <ele>964.2</ele>
        <time>2019-05-28T11:13:26Z</time>
      </trkpt>
      <trkpt lat="40.6731070" lon="-3.9719140">
        <ele>963.8</ele>
        <time>2019-05-28T11:13:29Z</time>
      </trkpt>
      <trkpt lat="40.6730380" lon="-3.9720140">
        <ele>963.0</ele>
        <time>2019-05-28T11:13:30Z</time>
      </trkpt>
      <trkpt lat="40.6726220" lon="-3.9725920">
        <ele>962.0</ele>
        <time>2019-05-28T11:13:36Z</time>
      </trkpt>
      <trkpt lat="40.6725630" lon="-3.9726910">
        <ele>961.8</ele>
        <time>2019-05-28T11:13:37Z</time>
      </trkpt>
      <trkpt lat="40.6722210" lon="-3.9730930">
        <ele>960.6</ele>
        <time>2019-05-28T11:13:42Z</time>
      </trkpt>
      <trkpt lat="40.6721210" lon="-3.9731400">
        <ele>960.4</ele>
        <time>2019-05-28T11:13:43Z</time>
      </trkpt>
      <trkpt lat="40.6717150" lon="-3.9733600">
        <ele>959.4</ele>
        <time>2019-05-28T11:13:47Z</time>
      </trkpt>
      <trkpt lat="40.6713130" lon="-3.9736170">
        <ele>958.8</ele>
        <time>2019-05-28T11:13:51Z</time>
      </trkpt>
      <trkpt lat="40.6711150" lon="-3.9737470">
        <ele>958.4</ele>
        <time>2019-05-28T11:13:53Z</time>
      </trkpt>
      <trkpt lat="40.6706280" lon="-3.9740640">
        <ele>957.2</ele>
        <time>2019-05-28T11:13:58Z</time>
      </trkpt>
      <trkpt lat="40.6703340" lon="-3.9742630">
        <ele>956.2</ele>
        <time>2019-05-28T11:14:01Z</time>
      </trkpt>
      <trkpt lat="40.6698430" lon="-3.9745990">
        <ele>955.0</ele>
        <time>2019-05-28T11:14:06Z</time>
      </trkpt>
      <trkpt lat="40.6694610" lon="-3.9748890">
        <ele>953.6</ele>
        <time>2019-05-28T11:14:10Z</time>
      </trkpt>
      <trkpt lat="40.6691800" lon="-3.9751220">
        <ele>952.4</ele>
        <time>2019-05-28T11:14:13Z</time>
      </trkpt>
      <trkpt lat="40.6688220" lon="-3.9754760">
        <ele>951.4</ele>
        <time>2019-05-28T11:14:17Z</time>
      </trkpt>
      <trkpt lat="40.6683120" lon="-3.9760140">
        <ele>950.6</ele>
        <time>2019-05-28T11:14:23Z</time>
      </trkpt>
      <trkpt lat="40.6678840" lon="-3.9764590">
        <ele>950.6</ele>
        <time>2019-05-28T11:14:28Z</time>
      </trkpt>
      <trkpt lat="40.6674390" lon="-3.9769210">
        <ele>950.4</ele>
        <time>2019-05-28T11:14:33Z</time>
      </trkpt>
      <trkpt lat="40.6671670" lon="-3.9772070">
        <ele>950.4</ele>
        <time>2019-05-28T11:14:36Z</time>
      </trkpt>
      <trkpt lat="40.6667060" lon="-3.9776920">
        <ele>949.2</ele>
        <time>2019-05-28T11:14:41Z</time>
      </trkpt>
      <trkpt lat="40.6662350" lon="-3.9781790">
        <ele>948.4</ele>
        <time>2019-05-28T11:14:46Z</time>
      </trkpt>
      <trkpt lat="40.6660450" lon="-3.9783760">
        <ele>948.0</ele>
        <time>2019-05-28T11:14:48Z</time>
      </trkpt>
      <trkpt lat="40.6655730" lon="-3.9788850">
        <ele>947.0</ele>
        <time>2019-05-28T11:14:53Z</time>
      </trkpt>
      <trkpt lat="40.6654770" lon="-3.9789870">
        <ele>946.8</ele>
        <time>2019-05-28T11:14:54Z</time>
      </trkpt>
      <trkpt lat="40.6649910" lon="-3.9794880">
        <ele>946.2</ele>
        <time>2019-05-28T11:14:59Z</time>
      </trkpt>
      <trkpt lat="40.6646970" lon="-3.9797720">
        <ele>945.6</ele>
        <time>2019-05-28T11:15:02Z</time>
      </trkpt>
      <trkpt lat="40.6642780" lon="-3.9800470">
        <ele>944.4</ele>
        <time>2019-05-28T11:15:06Z</time>
      </trkpt>
      <trkpt lat="40.6639540" lon="-3.9802140">
        <ele>944.2</ele>
        <time>2019-05-28T11:15:09Z</time>
      </trkpt>
      <trkpt lat="40.6634120" lon="-3.9804870">
        <ele>943.6</ele>
        <time>2019-05-28T11:15:14Z</time>
      </trkpt>
      <trkpt lat="40.6628750" lon="-3.9807630">
        <ele>943.6</ele>
        <time>2019-05-28T11:15:19Z</time>
      </trkpt>
      <trkpt lat="40.6623710" lon="-3.9810260">
        <ele>943.4</ele>
        <time>2019-05-28T11:15:24Z</time>
      </trkpt>
      <trkpt lat="40.6618580" lon="-3.9812900">
        <ele>942.6</ele>
        <time>2019-05-28T11:15:29Z</time>
      </trkpt>
      <trkpt lat="40.6617540" lon="-3.9813430">
        <ele>942.4</ele>
        <time>2019-05-28T11:15:30Z</time>
      </trkpt>
      <trkpt lat="40.6612410" lon="-3.9816140">
        <ele>941.4</ele>
        <time>2019-05-28T11:15:35Z</time>
      </trkpt>
      <trkpt lat="40.6611410" lon="-3.9816700">
        <ele>941.0</ele>
        <time>2019-05-28T11:15:36Z</time>
      </trkpt>
      <trkpt lat="40.6606640" lon="-3.9819310">
        <ele>939.8</ele>
        <time>2019-05-28T11:15:41Z</time>
      </trkpt>
      <trkpt lat="40.6603800" lon="-3.9820700">
        <ele>938.0</ele>
        <time>2019-05-28T11:15:44Z</time>
      </trkpt>
      <trkpt lat="40.6601960" lon="-3.9821650">
        <ele>936.8</ele>
        <time>2019-05-28T11:15:46Z</time>
      </trkpt>
      <trkpt lat="40.6600140" lon="-3.9822580">
        <ele>935.4</ele>
        <time>2019-05-28T11:15:48Z</time>
      </trkpt>
      <trkpt lat="40.6594680" lon="-3.9825400">
        <ele>935.2</ele>
        <time>2019-05-28T11:15:54Z</time>
      </trkpt>
      <trkpt lat="40.6589170" lon="-3.9828190">
        <ele>936.0</ele>
        <time>2019-05-28T11:16:00Z</time>
      </trkpt>
      <trkpt lat="40.6583720" lon="-3.9831020">
        <ele>936.2</ele>
        <time>2019-05-28T11:16:06Z</time>
      </trkpt>
      <trkpt lat="40.6578370" lon="-3.9833920">
        <ele>935.6</ele>
        <time>2019-05-28T11:16:12Z</time>
      </trkpt>
      <trkpt lat="40.6572950" lon="-3.9836740">
        <ele>935.2</ele>
        <time>2019-05-28T11:16:18Z</time>
      </trkpt>
      <trkpt lat="40.6567660" lon="-3.9839500">
        <ele>935.2</ele>
        <time>2019-05-28T11:16:24Z</time>
      </trkpt>
      <trkpt lat="40.6562520" lon="-3.9842310">
        <ele>935.2</ele>
        <time>2019-05-28T11:16:30Z</time>
      </trkpt>
      <trkpt lat="40.6557510" lon="-3.9846980">
        <ele>935.4</ele>
        <time>2019-05-28T11:16:37Z</time>
      </trkpt>
      <trkpt lat="40.6553760" lon="-3.9851560">
        <ele>936.4</ele>
        <time>2019-05-28T11:16:43Z</time>
      </trkpt>
      <trkpt lat="40.6549790" lon="-3.9856630">
        <ele>936.8</ele>
        <time>2019-05-28T11:16:50Z</time>
      </trkpt>
      <trkpt lat="40.6545810" lon="-3.9861740">
        <ele>937.4</ele>
        <time>2019-05-28T11:16:57Z</time>
      </trkpt>
      <trkpt lat="40.6541700" lon="-3.9866660">
        <ele>938.6</ele>
        <time>2019-05-28T11:17:04Z</time>
      </trkpt>
      <trkpt lat="40.6538500" lon="-3.9869650">
        <ele>939.6</ele>
        <time>2019-05-28T11:17:09Z</time>
      </trkpt>
      <trkpt lat="40.6533480" lon="-3.9873160">
        <ele>940.4</ele>
        <time>2019-05-28T11:17:16Z</time>
      </trkpt>
      <trkpt lat="40.6531170" lon="-3.9874610">
        <ele>940.6</ele>
        <time>2019-05-28T11:17:19Z</time>
      </trkpt>
      <trkpt lat="40.6525820" lon="-3.9878130">
        <ele>940.8</ele>
        <time>2019-05-28T11:17:26Z</time>
      </trkpt>
      <trkpt lat="40.6520540" lon="-3.9881500">
        <ele>940.6</ele>
        <time>2019-05-28T11:17:33Z</time>
      </trkpt>
      <trkpt lat="40.6514920" lon="-3.9884530">
        <ele>940.4</ele>
        <time>2019-05-28T11:17:40Z</time>
      </trkpt>
      <trkpt lat="40.6509420" lon="-3.9886940">
        <ele>940.0</ele>
        <time>2019-05-28T11:17:46Z</time>
      </trkpt>
      <trkpt lat="40.6504510" lon="-3.9888920">
        <ele>939.8</ele>
        <time>2019-05-28T11:17:51Z</time>
      </trkpt>
      <trkpt lat="40.6503510" lon="-3.9889370">
        <ele>939.6</ele>
        <time>2019-05-28T11:17:52Z</time>
      </trkpt>
      <trkpt lat="40.6500620" lon="-3.9891160">
        <ele>939.0</ele>
        <time>2019-05-28T11:17:55Z</time>
      </trkpt>
      <trkpt lat="40.6499710" lon="-3.9891900">
        <ele>938.2</ele>
        <time>2019-05-28T11:17:56Z</time>
      </trkpt>
      <trkpt lat="40.6496990" lon="-3.9894330">
        <ele>936.8</ele>
        <time>2019-05-28T11:17:59Z</time>
      </trkpt>
      <trkpt lat="40.6495160" lon="-3.9896100">
        <ele>935.6</ele>
        <time>2019-05-28T11:18:01Z</time>
      </trkpt>
      <trkpt lat="40.6493310" lon="-3.9897930">
        <ele>934.4</ele>
        <time>2019-05-28T11:18:03Z</time>
      </trkpt>
      <trkpt lat="40.6490560" lon="-3.9900720">
        <ele>933.2</ele>
        <time>2019-05-28T11:18:06Z</time>
      </trkpt>
      <trkpt lat="40.6489660" lon="-3.9901650">
        <ele>932.2</ele>
        <time>2019-05-28T11:18:07Z</time>
      </trkpt>
      <trkpt lat="40.6487920" lon="-3.9903450">
        <ele>931.0</ele>
        <time>2019-05-28T11:18:09Z</time>
      </trkpt>
      <trkpt lat="40.6487150" lon="-3.9904410">
        <ele>930.4</ele>
        <time>2019-05-28T11:18:10Z</time>
      </trkpt>
      <trkpt lat="40.6486560" lon="-3.9905560">
        <ele>930.0</ele>
        <time>2019-05-28T11:18:11Z</time>
      </trkpt>
      <trkpt lat="40.6485930" lon="-3.9908280">
        <ele>928.8</ele>
        <time>2019-05-28T11:18:13Z</time>
      </trkpt>
      <trkpt lat="40.6485530" lon="-3.9909540">
        <ele>928.4</ele>
        <time>2019-05-28T11:18:14Z</time>
      </trkpt>
      <trkpt lat="40.6484100" lon="-3.9911230">
        <ele>927.6</ele>
        <time>2019-05-28T11:18:16Z</time>
      </trkpt>
      <trkpt lat="40.6482270" lon="-3.9911920">
        <ele>927.0</ele>
        <time>2019-05-28T11:18:18Z</time>
      </trkpt>
      <trkpt lat="40.6481350" lon="-3.9912370">
        <ele>926.8</ele>
        <time>2019-05-28T11:18:19Z</time>
      </trkpt>
      <trkpt lat="40.6480550" lon="-3.9913050">
        <ele>926.6</ele>
        <time>2019-05-28T11:18:20Z</time>
      </trkpt>
      <trkpt lat="40.6477910" lon="-3.9916360">
        <ele>926.6</ele>
        <time>2019-05-28T11:18:24Z</time>
      </trkpt>
      <trkpt lat="40.6475530" lon="-3.9919530">
        <ele>926.6</ele>
        <time>2019-05-28T11:18:28Z</time>
      </trkpt>
      <trkpt lat="40.6474500" lon="-3.9921280">
        <ele>927.0</ele>
        <time>2019-05-28T11:18:30Z</time>
      </trkpt>
      <trkpt lat="40.6473310" lon="-3.9924520">
        <ele>928.0</ele>
        <time>2019-05-28T11:18:33Z</time>
      </trkpt>
      <trkpt lat="40.6472620" lon="-3.9929180">
        <ele>929.0</ele>
        <time>2019-05-28T11:18:37Z</time>
      </trkpt>
      <trkpt lat="40.6472540" lon="-3.9937200">
        <ele>928.6</ele>
        <time>2019-05-28T11:18:44Z</time>
      </trkpt>
      <trkpt lat="40.6472640" lon="-3.9938290">
        <ele>928.4</ele>
        <time>2019-05-28T11:18:45Z</time>
      </trkpt>
      <trkpt lat="40.6472930" lon="-3.9940360">
        <ele>928.0</ele>
        <time>2019-05-28T11:18:47Z</time>
      </trkpt>
      <trkpt lat="40.6472930" lon="-3.9941370">
        <ele>927.8</ele>
        <time>2019-05-28T11:18:48Z</time>
      </trkpt>
      <trkpt lat="40.6470360" lon="-3.9943890">
        <ele>927.4</ele>
        <time>2019-05-28T11:18:53Z</time>
      </trkpt>
      <trkpt lat="40.6467480" lon="-3.9944680">
        <ele>927.8</ele>
        <time>2019-05-28T11:18:57Z</time>
      </trkpt>
      <trkpt lat="40.6462780" lon="-3.9948790">
        <ele>928.2</ele>
        <time>2019-05-28T11:19:04Z</time>
      </trkpt>
      <trkpt lat="40.6460740" lon="-3.9950960">
        <ele>928.4</ele>
        <time>2019-05-28T11:19:09Z</time>
      </trkpt>
      <trkpt lat="40.6460570" lon="-3.9951160">
        <ele>928.4</ele>
        <time>2019-05-28T11:19:10Z</time>
      </trkpt>
      <trkpt lat="40.6460340" lon="-3.9951400">
        <ele>928.4</ele>
        <time>2019-05-28T11:19:12Z</time>
      </trkpt>
      <trkpt lat="40.6457660" lon="-3.9953840">
        <ele>928.2</ele>
        <time>2019-05-28T11:19:22Z</time>
      </trkpt>
      <trkpt lat="40.6453230" lon="-3.9957640">
        <ele>927.2</ele>
        <time>2019-05-28T11:19:30Z</time>
      </trkpt>
      <trkpt lat="40.6450900" lon="-3.9959100">
        <ele>926.8</ele>
        <time>2019-05-28T11:19:33Z</time>
      </trkpt>
      <trkpt lat="40.6447310" lon="-3.9960550">
        <ele>925.8</ele>
        <time>2019-05-28T11:19:37Z</time>
      </trkpt>
      <trkpt lat="40.6444220" lon="-3.9961410">
        <ele>925.4</ele>
        <time>2019-05-28T11:19:40Z</time>
      </trkpt>
      <trkpt lat="40.6441150" lon="-3.9961800">
        <ele>924.6</ele>
        <time>2019-05-28T11:19:43Z</time>
      </trkpt>
      <trkpt lat="40.6434800" lon="-3.9962090">
        <ele>923.6</ele>
        <time>2019-05-28T11:19:49Z</time>
      </trkpt>
      <trkpt lat="40.6433760" lon="-3.9962060">
        <ele>923.6</ele>
        <time>2019-05-28T11:19:50Z</time>
      </trkpt>
      <trkpt lat="40.6427680" lon="-3.9961860">
        <ele>923.4</ele>
        <time>2019-05-28T11:19:56Z</time>
      </trkpt>
      <trkpt lat="40.6426700" lon="-3.9961960">
        <ele>923.6</ele>
        <time>2019-05-28T11:19:57Z</time>
      </trkpt>
      <trkpt lat="40.6423940" lon="-3.9962850">
        <ele>923.6</ele>
        <time>2019-05-28T11:20:00Z</time>
      </trkpt>
      <trkpt lat="40.6420410" lon="-3.9961880">
        <ele>923.6</ele>
        <time>2019-05-28T11:20:04Z</time>
      </trkpt>
      <trkpt lat="40.6414990" lon="-3.9961310">
        <ele>924.2</ele>
        <time>2019-05-28T11:20:10Z</time>
      </trkpt>
      <trkpt lat="40.6412350" lon="-3.9961250">
        <ele>924.6</ele>
        <time>2019-05-28T11:20:13Z</time>
      </trkpt>
      <trkpt lat="40.6408930" lon="-3.9961620">
        <ele>925.6</ele>
        <time>2019-05-28T11:20:17Z</time>
      </trkpt>
      <trkpt lat="40.6408080" lon="-3.9961850">
        <ele>925.8</ele>
        <time>2019-05-28T11:20:18Z</time>
      </trkpt>
      <trkpt lat="40.6406160" lon="-3.9962730">
        <ele>927.0</ele>
        <time>2019-05-28T11:20:21Z</time>
      </trkpt>
      <trkpt lat="40.6404940" lon="-3.9964050">
        <ele>927.6</ele>
        <time>2019-05-28T11:20:24Z</time>
      </trkpt>
      <trkpt lat="40.6404520" lon="-3.9964410">
        <ele>927.8</ele>
        <time>2019-05-28T11:20:25Z</time>
      </trkpt>
      <trkpt lat="40.6403630" lon="-3.9965230">
        <ele>928.4</ele>
        <time>2019-05-28T11:20:27Z</time>
      </trkpt>
      <trkpt lat="40.6402090" lon="-3.9967630">
        <ele>928.8</ele>
        <time>2019-05-28T11:20:31Z</time>
      </trkpt>
      <trkpt lat="40.6398400" lon="-3.9972400">
        <ele>928.4</ele>
        <time>2019-05-28T11:20:38Z</time>
      </trkpt>
      <trkpt lat="40.6394050" lon="-3.9977450">
        <ele>927.6</ele>
        <time>2019-05-28T11:20:45Z</time>
      </trkpt>
      <trkpt lat="40.6392780" lon="-3.9978860">
        <ele>927.4</ele>
        <time>2019-05-28T11:20:47Z</time>
      </trkpt>
      <trkpt lat="40.6392130" lon="-3.9979550">
        <ele>927.2</ele>
        <time>2019-05-28T11:20:48Z</time>
      </trkpt>
      <trkpt lat="40.6391480" lon="-3.9980220">
        <ele>927.0</ele>
        <time>2019-05-28T11:20:49Z</time>
      </trkpt>
      <trkpt lat="40.6389600" lon="-3.9982100">
        <ele>926.6</ele>
        <time>2019-05-28T11:20:52Z</time>
      </trkpt>
      <trkpt lat="40.6387850" lon="-3.9983640">
        <ele>926.2</ele>
        <time>2019-05-28T11:20:55Z</time>
      </trkpt>
      <trkpt lat="40.6385870" lon="-3.9985030">
        <ele>925.6</ele>
        <time>2019-05-28T11:20:59Z</time>
      </trkpt>
      <trkpt lat="40.6383580" lon="-3.9987430">
        <ele>925.4</ele>
        <time>2019-05-28T11:21:04Z</time>
      </trkpt>
      <trkpt lat="40.6382440" lon="-3.9988340">
        <ele>925.2</ele>
        <time>2019-05-28T11:21:06Z</time>
      </trkpt>
      <trkpt lat="40.6381870" lon="-3.9988830">
        <ele>925.2</ele>
        <time>2019-05-28T11:21:07Z</time>
      </trkpt>
      <trkpt lat="40.6381330" lon="-3.9989400">
        <ele>925.0</ele>
        <time>2019-05-28T11:21:08Z</time>
      </trkpt>
      <trkpt lat="40.6376630" lon="-3.9994190">
        <ele>924.4</ele>
        <time>2019-05-28T11:21:16Z</time>
      </trkpt>
      <trkpt lat="40.6375390" lon="-3.9995480">
        <ele>924.0</ele>
        <time>2019-05-28T11:21:18Z</time>
      </trkpt>
      <trkpt lat="40.6373190" lon="-3.9998060">
        <ele>923.8</ele>
        <time>2019-05-28T11:21:22Z</time>
      </trkpt>
      <trkpt lat="40.6371290" lon="-4.0001270">
        <ele>922.6</ele>
        <time>2019-05-28T11:21:26Z</time>
      </trkpt>
      <trkpt lat="40.6368880" lon="-4.0005910">
        <ele>921.4</ele>
        <time>2019-05-28T11:21:31Z</time>
      </trkpt>
      <trkpt lat="40.6366340" lon="-4.0009360">
        <ele>920.4</ele>
        <time>2019-05-28T11:21:35Z</time>
      </trkpt>
      <trkpt lat="40.6361470" lon="-4.0013220">
        <ele>919.4</ele>
        <time>2019-05-28T11:21:41Z</time>
      </trkpt>
      <trkpt lat="40.6359600" lon="-4.0014190">
        <ele>919.2</ele>
        <time>2019-05-28T11:21:43Z</time>
      </trkpt>
      <trkpt lat="40.6355660" lon="-4.0016380">
        <ele>918.8</ele>
        <time>2019-05-28T11:21:47Z</time>
      </trkpt>
      <trkpt lat="40.6352660" lon="-4.0018260">
        <ele>917.8</ele>
        <time>2019-05-28T11:21:50Z</time>
      </trkpt>
      <trkpt lat="40.6349810" lon="-4.0020370">
        <ele>916.4</ele>
        <time>2019-05-28T11:21:53Z</time>
      </trkpt>
      <trkpt lat="40.6348370" lon="-4.0021880">
        <ele>914.8</ele>
        <time>2019-05-28T11:21:55Z</time>
      </trkpt>
      <trkpt lat="40.6347520" lon="-4.0023340">
        <ele>913.8</ele>
        <time>2019-05-28T11:21:57Z</time>
      </trkpt>
      <trkpt lat="40.6347050" lon="-4.0024950">
        <ele>913.0</ele>
        <time>2019-05-28T11:21:59Z</time>
      </trkpt>
      <trkpt lat="40.6346720" lon="-4.0025730">
        <ele>912.6</ele>
        <time>2019-05-28T11:22:00Z</time>
      </trkpt>
      <trkpt lat="40.6345220" lon="-4.0026580">
        <ele>911.8</ele>
        <time>2019-05-28T11:22:03Z</time>
      </trkpt>
      <trkpt lat="40.6343690" lon="-4.0024180">
        <ele>911.8</ele>
        <time>2019-05-28T11:22:07Z</time>
      </trkpt>
      <trkpt lat="40.6342900" lon="-4.0022890">
        <ele>911.8</ele>
        <time>2019-05-28T11:22:09Z</time>
      </trkpt>
      <trkpt lat="40.6341870" lon="-4.0021700">
        <ele>912.2</ele>
        <time>2019-05-28T11:22:11Z</time>
      </trkpt>
      <trkpt lat="40.6340140" lon="-4.0020010">
        <ele>913.0</ele>
        <time>2019-05-28T11:22:14Z</time>
      </trkpt>
      <trkpt lat="40.6338930" lon="-4.0019010">
        <ele>913.4</ele>
        <time>2019-05-28T11:22:16Z</time>
      </trkpt>
      <trkpt lat="40.6337090" lon="-4.0017540">
        <ele>913.6</ele>
        <time>2019-05-28T11:22:19Z</time>
      </trkpt>
      <trkpt lat="40.6335910" lon="-4.0016660">
        <ele>913.8</ele>
        <time>2019-05-28T11:22:21Z</time>
      </trkpt>
      <trkpt lat="40.6334190" lon="-4.0015110">
        <ele>915.0</ele>
        <time>2019-05-28T11:22:24Z</time>
      </trkpt>
      <trkpt lat="40.6332420" lon="-4.0013470">
        <ele>915.8</ele>
        <time>2019-05-28T11:22:27Z</time>
      </trkpt>
      <trkpt lat="40.6331840" lon="-4.0012920">
        <ele>916.0</ele>
        <time>2019-05-28T11:22:28Z</time>
      </trkpt>
      <trkpt lat="40.6329570" lon="-4.0010490">
        <ele>917.0</ele>
        <time>2019-05-28T11:22:32Z</time>
      </trkpt>
      <trkpt lat="40.6328390" lon="-4.0009250">
        <ele>917.4</ele>
        <time>2019-05-28T11:22:34Z</time>
      </trkpt>
      <trkpt lat="40.6326650" lon="-4.0007470">
        <ele>918.4</ele>
        <time>2019-05-28T11:22:37Z</time>
      </trkpt>
      <trkpt lat="40.6325470" lon="-4.0006320">
        <ele>919.6</ele>
        <time>2019-05-28T11:22:39Z</time>
      </trkpt>
      <trkpt lat="40.6323700" lon="-4.0004650">
        <ele>920.8</ele>
        <time>2019-05-28T11:22:42Z</time>
      </trkpt>
      <trkpt lat="40.6321910" lon="-4.0003070">
        <ele>922.0</ele>
        <time>2019-05-28T11:22:45Z</time>
      </trkpt>
      <trkpt lat="40.6318930" lon="-4.0000610">
        <ele>923.2</ele>
        <time>2019-05-28T11:22:50Z</time>
      </trkpt>
      <trkpt lat="40.6315950" lon="-3.9998330">
        <ele>924.2</ele>
        <time>2019-05-28T11:22:55Z</time>
      </trkpt>
      <trkpt lat="40.6311160" lon="-3.9994510">
        <ele>925.0</ele>
        <time>2019-05-28T11:23:03Z</time>
      </trkpt>
      <trkpt lat="40.6309970" lon="-3.9993480">
        <ele>925.2</ele>
        <time>2019-05-28T11:23:05Z</time>
      </trkpt>
      <trkpt lat="40.6306670" lon="-3.9989980">
        <ele>926.6</ele>
        <time>2019-05-28T11:23:11Z</time>
      </trkpt>
      <trkpt lat="40.6305600" lon="-3.9988820">
        <ele>927.0</ele>
        <time>2019-05-28T11:23:13Z</time>
      </trkpt>
      <trkpt lat="40.6302720" lon="-3.9990270">
        <ele>927.8</ele>
        <time>2019-05-28T11:23:18Z</time>
      </trkpt>
      <trkpt lat="40.6297900" lon="-3.9994200">
        <ele>928.0</ele>
        <time>2019-05-28T11:23:26Z</time>
      </trkpt>
      <trkpt lat="40.6295600" lon="-3.9996250">
        <ele>927.6</ele>
        <time>2019-05-28T11:23:29Z</time>
      </trkpt>
      <trkpt lat="40.6293940" lon="-3.9998100">
        <ele>927.2</ele>
        <time>2019-05-28T11:23:31Z</time>
      </trkpt>
      <trkpt lat="40.6292320" lon="-4.0000140">
        <ele>926.6</ele>
        <time>2019-05-28T11:23:33Z</time>
      </trkpt>
      <trkpt lat="40.6290970" lon="-4.0001980">
        <ele>924.6</ele>
        <time>2019-05-28T11:23:35Z</time>
      </trkpt>
      <trkpt lat="40.6290490" lon="-4.0002680">
        <ele>923.2</ele>
        <time>2019-05-28T11:23:36Z</time>
      </trkpt>
      <trkpt lat="40.6290000" lon="-4.0003220">
        <ele>921.2</ele>
        <time>2019-05-28T11:23:37Z</time>
      </trkpt>
      <trkpt lat="40.6289720" lon="-4.0003570">
        <ele>919.4</ele>
        <time>2019-05-28T11:23:38Z</time>
      </trkpt>
      <trkpt lat="40.6289620" lon="-4.0003750">
        <ele>918.2</ele>
        <time>2019-05-28T11:23:39Z</time>
      </trkpt>
      <trkpt lat="40.6289550" lon="-4.0003810">
        <ele>917.6</ele>
        <time>2019-05-28T11:23:40Z</time>
      </trkpt>
      <trkpt lat="40.6289490" lon="-4.0003870">
        <ele>916.6</ele>
        <time>2019-05-28T11:23:41Z</time>
      </trkpt>
      <trkpt lat="40.6289240" lon="-4.0003930">
        <ele>915.8</ele>
        <time>2019-05-28T11:23:44Z</time>
      </trkpt>
      <trkpt lat="40.6288540" lon="-4.0003790">
        <ele>915.6</ele>
        <time>2019-05-28T11:23:46Z</time>
      </trkpt>
      <trkpt lat="40.6287190" lon="-4.0001550">
        <ele>915.4</ele>
        <time>2019-05-28T11:23:50Z</time>
      </trkpt>
      <trkpt lat="40.6285670" lon="-3.9997740">
        <ele>914.8</ele>
        <time>2019-05-28T11:23:55Z</time>
      </trkpt>
      <trkpt lat="40.6285070" lon="-3.9995360">
        <ele>914.6</ele>
        <time>2019-05-28T11:23:58Z</time>
      </trkpt>
      <trkpt lat="40.6284930" lon="-3.9994460">
        <ele>914.6</ele>
        <time>2019-05-28T11:23:59Z</time>
      </trkpt>
      <trkpt lat="40.6284450" lon="-3.9991840">
        <ele>914.6</ele>
        <time>2019-05-28T11:24:02Z</time>
      </trkpt>
      <trkpt lat="40.6284090" lon="-3.9990070">
        <ele>914.6</ele>
        <time>2019-05-28T11:24:04Z</time>
      </trkpt>
      <trkpt lat="40.6283510" lon="-3.9987570">
        <ele>915.0</ele>
        <time>2019-05-28T11:24:07Z</time>
      </trkpt>
      <trkpt lat="40.6282730" lon="-3.9984270">
        <ele>915.4</ele>
        <time>2019-05-28T11:24:11Z</time>
      </trkpt>
      <trkpt lat="40.6282560" lon="-3.9983420">
        <ele>915.8</ele>
        <time>2019-05-28T11:24:12Z</time>
      </trkpt>
      <trkpt lat="40.6281800" lon="-3.9980010">
        <ele>917.0</ele>
        <time>2019-05-28T11:24:16Z</time>
      </trkpt>
      <trkpt lat="40.6280900" lon="-3.9976750">
        <ele>918.0</ele>
        <time>2019-05-28T11:24:20Z</time>
      </trkpt>
      <trkpt lat="40.6279800" lon="-3.9973840">
        <ele>919.0</ele>
        <time>2019-05-28T11:24:24Z</time>
      </trkpt>
      <trkpt lat="40.6278700" lon="-3.9969820">
        <ele>920.0</ele>
        <time>2019-05-28T11:24:29Z</time>
      </trkpt>
      <trkpt lat="40.6278370" lon="-3.9969050">
        <ele>920.2</ele>
        <time>2019-05-28T11:24:30Z</time>
      </trkpt>
      <trkpt lat="40.6276500" lon="-3.9965020">
        <ele>920.6</ele>
        <time>2019-05-28T11:24:35Z</time>
      </trkpt>
      <trkpt lat="40.6275350" lon="-3.9958040">
        <ele>920.8</ele>
        <time>2019-05-28T11:24:43Z</time>
      </trkpt>
      <trkpt lat="40.6275870" lon="-3.9953540">
        <ele>921.4</ele>
        <time>2019-05-28T11:24:48Z</time>
      </trkpt>
      <trkpt lat="40.6275920" lon="-3.9952620">
        <ele>921.6</ele>
        <time>2019-05-28T11:24:49Z</time>
      </trkpt>
      <trkpt lat="40.6275900" lon="-3.9951780">
        <ele>921.8</ele>
        <time>2019-05-28T11:24:50Z</time>
      </trkpt>
      <trkpt lat="40.6275490" lon="-3.9950150">
        <ele>922.2</ele>
        <time>2019-05-28T11:24:52Z</time>
      </trkpt>
      <trkpt lat="40.6274630" lon="-3.9948690">
        <ele>922.8</ele>
        <time>2019-05-28T11:24:54Z</time>
      </trkpt>
      <trkpt lat="40.6273480" lon="-3.9947460">
        <ele>923.0</ele>
        <time>2019-05-28T11:24:56Z</time>
      </trkpt>
      <trkpt lat="40.6268920" lon="-3.9942640">
        <ele>923.0</ele>
        <time>2019-05-28T11:25:03Z</time>
      </trkpt>
      <trkpt lat="40.6265820" lon="-3.9940300">
        <ele>921.4</ele>
        <time>2019-05-28T11:25:07Z</time>
      </trkpt>
      <trkpt lat="40.6261410" lon="-3.9937890">
        <ele>920.4</ele>
        <time>2019-05-28T11:25:12Z</time>
      </trkpt>
      <trkpt lat="40.6260590" lon="-3.9937220">
        <ele>920.4</ele>
        <time>2019-05-28T11:25:13Z</time>
      </trkpt>
      <trkpt lat="40.6258830" lon="-3.9934300">
        <ele>919.6</ele>
        <time>2019-05-28T11:25:16Z</time>
      </trkpt>
      <trkpt lat="40.6258370" lon="-3.9933220">
        <ele>919.2</ele>
        <time>2019-05-28T11:25:17Z</time>
      </trkpt>
      <trkpt lat="40.6257290" lon="-3.9931200">
        <ele>918.8</ele>
        <time>2019-05-28T11:25:19Z</time>
      </trkpt>
      <trkpt lat="40.6253660" lon="-3.9927090">
        <ele>918.6</ele>
        <time>2019-05-28T11:25:24Z</time>
      </trkpt>
      <trkpt lat="40.6252100" lon="-3.9925500">
        <ele>918.4</ele>
        <time>2019-05-28T11:25:26Z</time>
      </trkpt>
      <trkpt lat="40.6247450" lon="-3.9920520">
        <ele>918.6</ele>
        <time>2019-05-28T11:25:32Z</time>
      </trkpt>
      <trkpt lat="40.6242870" lon="-3.9915320">
        <ele>918.8</ele>
        <time>2019-05-28T11:25:38Z</time>
      </trkpt>
      <trkpt lat="40.6239830" lon="-3.9911870">
        <ele>919.2</ele>
        <time>2019-05-28T11:25:42Z</time>
      </trkpt>
      <trkpt lat="40.6235280" lon="-3.9906790">
        <ele>919.4</ele>
        <time>2019-05-28T11:25:48Z</time>
      </trkpt>
      <trkpt lat="40.6230730" lon="-3.9902170">
        <ele>919.6</ele>
        <time>2019-05-28T11:25:54Z</time>
      </trkpt>
      <trkpt lat="40.6226940" lon="-3.9899540">
        <ele>920.6</ele>
        <time>2019-05-28T11:25:59Z</time>
      </trkpt>
      <trkpt lat="40.6225460" lon="-3.9898360">
        <ele>921.8</ele>
        <time>2019-05-28T11:26:01Z</time>
      </trkpt>
      <trkpt lat="40.6223960" lon="-3.9897010">
        <ele>922.6</ele>
        <time>2019-05-28T11:26:03Z</time>
      </trkpt>
      <trkpt lat="40.6223260" lon="-3.9896210">
        <ele>923.2</ele>
        <time>2019-05-28T11:26:04Z</time>
      </trkpt>
      <trkpt lat="40.6222040" lon="-3.9894500">
        <ele>925.4</ele>
        <time>2019-05-28T11:26:06Z</time>
      </trkpt>
      <trkpt lat="40.6220880" lon="-3.9892530">
        <ele>926.2</ele>
        <time>2019-05-28T11:26:08Z</time>
      </trkpt>
      <trkpt lat="40.6219670" lon="-3.9890340">
        <ele>926.4</ele>
        <time>2019-05-28T11:26:10Z</time>
      </trkpt>
      <trkpt lat="40.6215380" lon="-3.9884570">
        <ele>926.4</ele>
        <time>2019-05-28T11:26:15Z</time>
      </trkpt>
      <trkpt lat="40.6213390" lon="-3.9882350">
        <ele>924.8</ele>
        <time>2019-05-28T11:26:17Z</time>
      </trkpt>
      <trkpt lat="40.6212380" lon="-3.9881230">
        <ele>923.4</ele>
        <time>2019-05-28T11:26:18Z</time>
      </trkpt>
      <trkpt lat="40.6211370" lon="-3.9880100">
        <ele>921.8</ele>
        <time>2019-05-28T11:26:19Z</time>
      </trkpt>
      <trkpt lat="40.6210370" lon="-3.9878970">
        <ele>920.8</ele>
        <time>2019-05-28T11:26:20Z</time>
      </trkpt>
      <trkpt lat="40.6209360" lon="-3.9877840">
        <ele>919.6</ele>
        <time>2019-05-28T11:26:21Z</time>
      </trkpt>
      <trkpt lat="40.6208350" lon="-3.9876700">
        <ele>918.4</ele>
        <time>2019-05-28T11:26:22Z</time>
      </trkpt>
      <trkpt lat="40.6207340" lon="-3.9875580">
        <ele>917.4</ele>
        <time>2019-05-28T11:26:23Z</time>
      </trkpt>
      <trkpt lat="40.6205300" lon="-3.9873330">
        <ele>916.2</ele>
        <time>2019-05-28T11:26:25Z</time>
      </trkpt>
      <trkpt lat="40.6202230" lon="-3.9869970">
        <ele>915.0</ele>
        <time>2019-05-28T11:26:28Z</time>
      </trkpt>
      <trkpt lat="40.6198190" lon="-3.9865520">
        <ele>913.8</ele>
        <time>2019-05-28T11:26:32Z</time>
      </trkpt>
      <trkpt lat="40.6195260" lon="-3.9862250">
        <ele>912.6</ele>
        <time>2019-05-28T11:26:35Z</time>
      </trkpt>
      <trkpt lat="40.6193360" lon="-3.9860110">
        <ele>911.4</ele>
        <time>2019-05-28T11:26:37Z</time>
      </trkpt>
      <trkpt lat="40.6190550" lon="-3.9856970">
        <ele>910.4</ele>
        <time>2019-05-28T11:26:40Z</time>
      </trkpt>
      <trkpt lat="40.6185910" lon="-3.9851880">
        <ele>910.0</ele>
        <time>2019-05-28T11:26:45Z</time>
      </trkpt>
      <trkpt lat="40.6181430" lon="-3.9846920">
        <ele>910.2</ele>
        <time>2019-05-28T11:26:50Z</time>
      </trkpt>
      <trkpt lat="40.6177160" lon="-3.9842160">
        <ele>910.8</ele>
        <time>2019-05-28T11:26:55Z</time>
      </trkpt>
      <trkpt lat="40.6173040" lon="-3.9837600">
        <ele>911.6</ele>
        <time>2019-05-28T11:27:00Z</time>
      </trkpt>
      <trkpt lat="40.6170630" lon="-3.9834910">
        <ele>912.6</ele>
        <time>2019-05-28T11:27:03Z</time>
      </trkpt>
      <trkpt lat="40.6167420" lon="-3.9831430">
        <ele>914.0</ele>
        <time>2019-05-28T11:27:07Z</time>
      </trkpt>
      <trkpt lat="40.6165070" lon="-3.9828960">
        <ele>915.2</ele>
        <time>2019-05-28T11:27:10Z</time>
      </trkpt>
      <trkpt lat="40.6161900" lon="-3.9825930">
        <ele>916.4</ele>
        <time>2019-05-28T11:27:14Z</time>
      </trkpt>
      <trkpt lat="40.6158750" lon="-3.9823020">
        <ele>917.4</ele>
        <time>2019-05-28T11:27:18Z</time>
      </trkpt>
      <trkpt lat="40.6155660" lon="-3.9820390">
        <ele>918.8</ele>
        <time>2019-05-28T11:27:22Z</time>
      </trkpt>
      <trkpt lat="40.6153400" lon="-3.9818580">
        <ele>919.8</ele>
        <time>2019-05-28T11:27:25Z</time>
      </trkpt>
      <trkpt lat="40.6148320" lon="-3.9814750">
        <ele>920.6</ele>
        <time>2019-05-28T11:27:32Z</time>
      </trkpt>
      <trkpt lat="40.6146880" lon="-3.9813750">
        <ele>921.2</ele>
        <time>2019-05-28T11:27:34Z</time>
      </trkpt>
      <trkpt lat="40.6144040" lon="-3.9811870">
        <ele>922.6</ele>
        <time>2019-05-28T11:27:38Z</time>
      </trkpt>
      <trkpt lat="40.6139300" lon="-3.9808930">
        <ele>923.4</ele>
        <time>2019-05-28T11:27:45Z</time>
      </trkpt>
      <trkpt lat="40.6138630" lon="-3.9808590">
        <ele>923.6</ele>
        <time>2019-05-28T11:27:46Z</time>
      </trkpt>
      <trkpt lat="40.6134070" lon="-3.9805750">
        <ele>924.8</ele>
        <time>2019-05-28T11:27:53Z</time>
      </trkpt>
      <trkpt lat="40.6131000" lon="-3.9803660">
        <ele>926.0</ele>
        <time>2019-05-28T11:27:58Z</time>
      </trkpt>
      <trkpt lat="40.6129280" lon="-3.9802370">
        <ele>927.2</ele>
        <time>2019-05-28T11:28:01Z</time>
      </trkpt>
      <trkpt lat="40.6128230" lon="-3.9801560">
        <ele>928.2</ele>
        <time>2019-05-28T11:28:03Z</time>
      </trkpt>
      <trkpt lat="40.6127250" lon="-3.9800790">
        <ele>929.4</ele>
        <time>2019-05-28T11:28:05Z</time>
      </trkpt>
      <trkpt lat="40.6126750" lon="-3.9800460">
        <ele>929.8</ele>
        <time>2019-05-28T11:28:06Z</time>
      </trkpt>
      <trkpt lat="40.6125620" lon="-3.9800350">
        <ele>930.4</ele>
        <time>2019-05-28T11:28:08Z</time>
      </trkpt>
      <trkpt lat="40.6124370" lon="-3.9800520">
        <ele>930.8</ele>
        <time>2019-05-28T11:28:10Z</time>
      </trkpt>
      <trkpt lat="40.6122370" lon="-3.9798430">
        <ele>931.0</ele>
        <time>2019-05-28T11:28:14Z</time>
      </trkpt>
      <trkpt lat="40.6121270" lon="-3.9795290">
        <ele>931.0</ele>
        <time>2019-05-28T11:28:18Z</time>
      </trkpt>
      <trkpt lat="40.6120730" lon="-3.9794610">
        <ele>931.0</ele>
        <time>2019-05-28T11:28:19Z</time>
      </trkpt>
      <trkpt lat="40.6119010" lon="-3.9792340">
        <ele>930.8</ele>
        <time>2019-05-28T11:28:22Z</time>
      </trkpt>
      <trkpt lat="40.6116650" lon="-3.9788770">
        <ele>930.4</ele>
        <time>2019-05-28T11:28:26Z</time>
      </trkpt>
      <trkpt lat="40.6114960" lon="-3.9785790">
        <ele>928.8</ele>
        <time>2019-05-28T11:28:29Z</time>
      </trkpt>
      <trkpt lat="40.6113840" lon="-3.9783710">
        <ele>926.6</ele>
        <time>2019-05-28T11:28:31Z</time>
      </trkpt>
      <trkpt lat="40.6111650" lon="-3.9779600">
        <ele>925.4</ele>
        <time>2019-05-28T11:28:35Z</time>
      </trkpt>
      <trkpt lat="40.6108480" lon="-3.9773710">
        <ele>925.2</ele>
        <time>2019-05-28T11:28:41Z</time>
      </trkpt>
      <trkpt lat="40.6104910" lon="-3.9767140">
        <ele>925.0</ele>
        <time>2019-05-28T11:28:48Z</time>
      </trkpt>
      <trkpt lat="40.6101190" lon="-3.9761250">
        <ele>925.2</ele>
        <time>2019-05-28T11:28:55Z</time>
      </trkpt>
      <trkpt lat="40.6097140" lon="-3.9755940">
        <ele>926.4</ele>
        <time>2019-05-28T11:29:02Z</time>
      </trkpt>
      <trkpt lat="40.6096510" lon="-3.9755220">
        <ele>926.6</ele>
        <time>2019-05-28T11:29:03Z</time>
      </trkpt>
      <trkpt lat="40.6092660" lon="-3.9751080">
        <ele>928.0</ele>
        <time>2019-05-28T11:29:09Z</time>
      </trkpt>
      <trkpt lat="40.6088010" lon="-3.9746270">
        <ele>929.0</ele>
        <time>2019-05-28T11:29:16Z</time>
      </trkpt>
      <trkpt lat="40.6087340" lon="-3.9745560">
        <ele>929.2</ele>
        <time>2019-05-28T11:29:17Z</time>
      </trkpt>
      <trkpt lat="40.6082510" lon="-3.9740570">
        <ele>930.4</ele>
        <time>2019-05-28T11:29:24Z</time>
      </trkpt>
      <trkpt lat="40.6077630" lon="-3.9735580">
        <ele>931.0</ele>
        <time>2019-05-28T11:29:31Z</time>
      </trkpt>
      <trkpt lat="40.6074210" lon="-3.9731950">
        <ele>931.4</ele>
        <time>2019-05-28T11:29:36Z</time>
      </trkpt>
      <trkpt lat="40.6070020" lon="-3.9727410">
        <ele>931.6</ele>
        <time>2019-05-28T11:29:42Z</time>
      </trkpt>
      <trkpt lat="40.6065890" lon="-3.9722450">
        <ele>931.8</ele>
        <time>2019-05-28T11:29:48Z</time>
      </trkpt>
      <trkpt lat="40.6062620" lon="-3.9717860">
        <ele>931.8</ele>
        <time>2019-05-28T11:29:53Z</time>
      </trkpt>
      <trkpt lat="40.6058950" lon="-3.9711860">
        <ele>931.4</ele>
        <time>2019-05-28T11:29:59Z</time>
      </trkpt>
      <trkpt lat="40.6056590" lon="-3.9707480">
        <ele>930.6</ele>
        <time>2019-05-28T11:30:03Z</time>
      </trkpt>
      <trkpt lat="40.6056020" lon="-3.9706340">
        <ele>930.4</ele>
        <time>2019-05-28T11:30:04Z</time>
      </trkpt>
      <trkpt lat="40.6054400" lon="-3.9702840">
        <ele>929.8</ele>
        <time>2019-05-28T11:30:07Z</time>
      </trkpt>
      <trkpt lat="40.6053360" lon="-3.9700490">
        <ele>929.0</ele>
        <time>2019-05-28T11:30:09Z</time>
      </trkpt>
      <trkpt lat="40.6052300" lon="-3.9698150">
        <ele>928.0</ele>
        <time>2019-05-28T11:30:11Z</time>
      </trkpt>
      <trkpt lat="40.6051230" lon="-3.9695760">
        <ele>926.8</ele>
        <time>2019-05-28T11:30:13Z</time>
      </trkpt>
      <trkpt lat="40.6050120" lon="-3.9693280">
        <ele>925.2</ele>
        <time>2019-05-28T11:30:15Z</time>
      </trkpt>
      <trkpt lat="40.6049000" lon="-3.9690740">
        <ele>924.2</ele>
        <time>2019-05-28T11:30:17Z</time>
      </trkpt>
      <trkpt lat="40.6047860" lon="-3.9688100">
        <ele>922.8</ele>
        <time>2019-05-28T11:30:19Z</time>
      </trkpt>
      <trkpt lat="40.6045250" lon="-3.9682520">
        <ele>921.4</ele>
        <time>2019-05-28T11:30:23Z</time>
      </trkpt>
      <trkpt lat="40.6043390" lon="-3.9678180">
        <ele>920.4</ele>
        <time>2019-05-28T11:30:26Z</time>
      </trkpt>
      <trkpt lat="40.6040320" lon="-3.9671250">
        <ele>918.8</ele>
        <time>2019-05-28T11:30:31Z</time>
      </trkpt>
      <trkpt lat="40.6039690" lon="-3.9669960">
        <ele>917.4</ele>
        <time>2019-05-28T11:30:32Z</time>
      </trkpt>
      <trkpt lat="40.6038340" lon="-3.9667420">
        <ele>916.0</ele>
        <time>2019-05-28T11:30:34Z</time>
      </trkpt>
      <trkpt lat="40.6034300" lon="-3.9660920">
        <ele>915.6</ele>
        <time>2019-05-28T11:30:40Z</time>
      </trkpt>
      <trkpt lat="40.6030480" lon="-3.9656140">
        <ele>917.2</ele>
        <time>2019-05-28T11:30:46Z</time>
      </trkpt>
      <trkpt lat="40.6028600" lon="-3.9654130">
        <ele>918.0</ele>
        <time>2019-05-28T11:30:49Z</time>
      </trkpt>
      <trkpt lat="40.6027990" lon="-3.9653500">
        <ele>918.8</ele>
        <time>2019-05-28T11:30:50Z</time>
      </trkpt>
      <trkpt lat="40.6026790" lon="-3.9652320">
        <ele>920.2</ele>
        <time>2019-05-28T11:30:52Z</time>
      </trkpt>
      <trkpt lat="40.6025560" lon="-3.9651240">
        <ele>921.8</ele>
        <time>2019-05-28T11:30:54Z</time>
      </trkpt>
      <trkpt lat="40.6024340" lon="-3.9650180">
        <ele>923.2</ele>
        <time>2019-05-28T11:30:56Z</time>
      </trkpt>
      <trkpt lat="40.6023050" lon="-3.9649210">
        <ele>924.4</ele>
        <time>2019-05-28T11:30:58Z</time>
      </trkpt>
      <trkpt lat="40.6021750" lon="-3.9648270">
        <ele>925.4</ele>
        <time>2019-05-28T11:31:00Z</time>
      </trkpt>
      <trkpt lat="40.6019880" lon="-3.9646950">
        <ele>926.8</ele>
        <time>2019-05-28T11:31:03Z</time>
      </trkpt>
      <trkpt lat="40.6017970" lon="-3.9645670">
        <ele>927.8</ele>
        <time>2019-05-28T11:31:06Z</time>
      </trkpt>
      <trkpt lat="40.6015160" lon="-3.9644070">
        <ele>929.0</ele>
        <time>2019-05-28T11:31:10Z</time>
      </trkpt>
      <trkpt lat="40.6012270" lon="-3.9642650">
        <ele>930.2</ele>
        <time>2019-05-28T11:31:14Z</time>
      </trkpt>
      <trkpt lat="40.6006920" lon="-3.9640450">
        <ele>931.0</ele>
        <time>2019-05-28T11:31:21Z</time>
      </trkpt>
      <trkpt lat="40.6001280" lon="-3.9638230">
        <ele>930.6</ele>
        <time>2019-05-28T11:31:28Z</time>
      </trkpt>
      <trkpt lat="40.5996220" lon="-3.9636240">
        <ele>929.6</ele>
        <time>2019-05-28T11:31:34Z</time>
      </trkpt>
      <trkpt lat="40.5992850" lon="-3.9634630">
        <ele>929.2</ele>
        <time>2019-05-28T11:31:38Z</time>
      </trkpt>
      <trkpt lat="40.5988570" lon="-3.9632190">
        <ele>928.6</ele>
        <time>2019-05-28T11:31:43Z</time>
      </trkpt>
      <trkpt lat="40.5984170" lon="-3.9629070">
        <ele>928.2</ele>
        <time>2019-05-28T11:31:48Z</time>
      </trkpt>
      <trkpt lat="40.5981610" lon="-3.9626930">
        <ele>928.0</ele>
        <time>2019-05-28T11:31:51Z</time>
      </trkpt>
      <trkpt lat="40.5979120" lon="-3.9624550">
        <ele>926.8</ele>
        <time>2019-05-28T11:31:54Z</time>
      </trkpt>
      <trkpt lat="40.5978310" lon="-3.9623700">
        <ele>925.6</ele>
        <time>2019-05-28T11:31:55Z</time>
      </trkpt>
      <trkpt lat="40.5977520" lon="-3.9622810">
        <ele>924.4</ele>
        <time>2019-05-28T11:31:56Z</time>
      </trkpt>
      <trkpt lat="40.5976740" lon="-3.9621910">
        <ele>923.4</ele>
        <time>2019-05-28T11:31:57Z</time>
      </trkpt>
      <trkpt lat="40.5975240" lon="-3.9620040">
        <ele>922.0</ele>
        <time>2019-05-28T11:31:59Z</time>
      </trkpt>
      <trkpt lat="40.5973810" lon="-3.9618010">
        <ele>920.8</ele>
        <time>2019-05-28T11:32:01Z</time>
      </trkpt>
      <trkpt lat="40.5973110" lon="-3.9616940">
        <ele>919.8</ele>
        <time>2019-05-28T11:32:02Z</time>
      </trkpt>
      <trkpt lat="40.5971710" lon="-3.9614680">
        <ele>918.4</ele>
        <time>2019-05-28T11:32:04Z</time>
      </trkpt>
      <trkpt lat="40.5970440" lon="-3.9612240">
        <ele>917.0</ele>
        <time>2019-05-28T11:32:06Z</time>
      </trkpt>
      <trkpt lat="40.5969280" lon="-3.9609600">
        <ele>915.8</ele>
        <time>2019-05-28T11:32:08Z</time>
      </trkpt>
      <trkpt lat="40.5968210" lon="-3.9606810">
        <ele>914.6</ele>
        <time>2019-05-28T11:32:10Z</time>
      </trkpt>
      <trkpt lat="40.5966820" lon="-3.9602340">
        <ele>913.2</ele>
        <time>2019-05-28T11:32:13Z</time>
      </trkpt>
      <trkpt lat="40.5965830" lon="-3.9597590">
        <ele>911.4</ele>
        <time>2019-05-28T11:32:16Z</time>
      </trkpt>
      <trkpt lat="40.5965320" lon="-3.9594340">
        <ele>910.0</ele>
        <time>2019-05-28T11:32:18Z</time>
      </trkpt>
      <trkpt lat="40.5965000" lon="-3.9590960">
        <ele>909.0</ele>
        <time>2019-05-28T11:32:20Z</time>
      </trkpt>
      <trkpt lat="40.5964930" lon="-3.9587510">
        <ele>908.0</ele>
        <time>2019-05-28T11:32:22Z</time>
      </trkpt>
      <trkpt lat="40.5965010" lon="-3.9583980">
        <ele>906.2</ele>
        <time>2019-05-28T11:32:24Z</time>
      </trkpt>
      <trkpt lat="40.5965080" lon="-3.9580390">
        <ele>905.0</ele>
        <time>2019-05-28T11:32:26Z</time>
      </trkpt>
      <trkpt lat="40.5965160" lon="-3.9576790">
        <ele>903.0</ele>
        <time>2019-05-28T11:32:28Z</time>
      </trkpt>
      <trkpt lat="40.5965200" lon="-3.9575000">
        <ele>901.4</ele>
        <time>2019-05-28T11:32:29Z</time>
      </trkpt>
      <trkpt lat="40.5965260" lon="-3.9571440">
        <ele>899.8</ele>
        <time>2019-05-28T11:32:31Z</time>
      </trkpt>
      <trkpt lat="40.5965260" lon="-3.9567890">
        <ele>898.0</ele>
        <time>2019-05-28T11:32:33Z</time>
      </trkpt>
      <trkpt lat="40.5965200" lon="-3.9566110">
        <ele>895.4</ele>
        <time>2019-05-28T11:32:34Z</time>
      </trkpt>
      <trkpt lat="40.5965090" lon="-3.9564320">
        <ele>893.8</ele>
        <time>2019-05-28T11:32:35Z</time>
      </trkpt>
      <trkpt lat="40.5964930" lon="-3.9562530">
        <ele>892.0</ele>
        <time>2019-05-28T11:32:36Z</time>
      </trkpt>
      <trkpt lat="40.5964580" lon="-3.9558930">
        <ele>889.8</ele>
        <time>2019-05-28T11:32:38Z</time>
      </trkpt>
      <trkpt lat="40.5964400" lon="-3.9557120">
        <ele>888.8</ele>
        <time>2019-05-28T11:32:39Z</time>
      </trkpt>
      <trkpt lat="40.5963910" lon="-3.9553490">
        <ele>887.8</ele>
        <time>2019-05-28T11:32:41Z</time>
      </trkpt>
      <trkpt lat="40.5962530" lon="-3.9548340">
        <ele>886.2</ele>
        <time>2019-05-28T11:32:44Z</time>
      </trkpt>
      <trkpt lat="40.5961290" lon="-3.9545280">
        <ele>885.0</ele>
        <time>2019-05-28T11:32:46Z</time>
      </trkpt>
      <trkpt lat="40.5959840" lon="-3.9542670">
        <ele>883.6</ele>
        <time>2019-05-28T11:32:48Z</time>
      </trkpt>
      <trkpt lat="40.5958260" lon="-3.9540550">
        <ele>882.8</ele>
        <time>2019-05-28T11:32:50Z</time>
      </trkpt>
      <trkpt lat="40.5956700" lon="-3.9538900">
        <ele>882.8</ele>
        <time>2019-05-28T11:32:52Z</time>
      </trkpt>
      <trkpt lat="40.5954630" lon="-3.9537080">
        <ele>882.6</ele>
        <time>2019-05-28T11:32:55Z</time>
      </trkpt>
      <trkpt lat="40.5953370" lon="-3.9536150">
        <ele>882.6</ele>
        <time>2019-05-28T11:32:57Z</time>
      </trkpt>
      <trkpt lat="40.5952180" lon="-3.9535330">
        <ele>884.4</ele>
        <time>2019-05-28T11:32:59Z</time>
      </trkpt>
      <trkpt lat="40.5951620" lon="-3.9534920">
        <ele>885.0</ele>
        <time>2019-05-28T11:33:00Z</time>
      </trkpt>
      <trkpt lat="40.5950530" lon="-3.9534190">
        <ele>887.0</ele>
        <time>2019-05-28T11:33:02Z</time>
      </trkpt>
      <trkpt lat="40.5950000" lon="-3.9533800">
        <ele>888.4</ele>
        <time>2019-05-28T11:33:03Z</time>
      </trkpt>
      <trkpt lat="40.5949470" lon="-3.9533460">
        <ele>889.4</ele>
        <time>2019-05-28T11:33:04Z</time>
      </trkpt>
      <trkpt lat="40.5948940" lon="-3.9533110">
        <ele>890.8</ele>
        <time>2019-05-28T11:33:05Z</time>
      </trkpt>
      <trkpt lat="40.5948420" lon="-3.9532770">
        <ele>891.8</ele>
        <time>2019-05-28T11:33:06Z</time>
      </trkpt>
      <trkpt lat="40.5947410" lon="-3.9532150">
        <ele>894.2</ele>
        <time>2019-05-28T11:33:08Z</time>
      </trkpt>
      <trkpt lat="40.5946430" lon="-3.9531600">
        <ele>895.2</ele>
        <time>2019-05-28T11:33:10Z</time>
      </trkpt>
      <trkpt lat="40.5944920" lon="-3.9530870">
        <ele>896.6</ele>
        <time>2019-05-28T11:33:13Z</time>
      </trkpt>
      <trkpt lat="40.5942200" lon="-3.9529760">
        <ele>897.6</ele>
        <time>2019-05-28T11:33:18Z</time>
      </trkpt>
      <trkpt lat="40.5936430" lon="-3.9528600">
        <ele>897.8</ele>
        <time>2019-05-28T11:33:28Z</time>
      </trkpt>
      <trkpt lat="40.5930550" lon="-3.9528840">
        <ele>897.8</ele>
        <time>2019-05-28T11:33:37Z</time>
      </trkpt>
      <trkpt lat="40.5927060" lon="-3.9529760">
        <ele>897.8</ele>
        <time>2019-05-28T11:33:42Z</time>
      </trkpt>
      <trkpt lat="40.5922960" lon="-3.9531540">
        <ele>897.8</ele>
        <time>2019-05-28T11:33:48Z</time>
      </trkpt>
      <trkpt lat="40.5917450" lon="-3.9534790">
        <ele>897.8</ele>
        <time>2019-05-28T11:33:56Z</time>
      </trkpt>
      <trkpt lat="40.5912210" lon="-3.9537780">
        <ele>898.0</ele>
        <time>2019-05-28T11:34:03Z</time>
      </trkpt>
      <trkpt lat="40.5906560" lon="-3.9540560">
        <ele>898.0</ele>
        <time>2019-05-28T11:34:10Z</time>
      </trkpt>
      <trkpt lat="40.5900510" lon="-3.9542640">
        <ele>896.6</ele>
        <time>2019-05-28T11:34:17Z</time>
      </trkpt>
      <trkpt lat="40.5896930" lon="-3.9543490">
        <ele>895.6</ele>
        <time>2019-05-28T11:34:21Z</time>
      </trkpt>
      <trkpt lat="40.5894170" lon="-3.9543920">
        <ele>894.4</ele>
        <time>2019-05-28T11:34:24Z</time>
      </trkpt>
      <trkpt lat="40.5888490" lon="-3.9544220">
        <ele>893.4</ele>
        <time>2019-05-28T11:34:30Z</time>
      </trkpt>
      <trkpt lat="40.5883740" lon="-3.9543610">
        <ele>892.2</ele>
        <time>2019-05-28T11:34:35Z</time>
      </trkpt>
      <trkpt lat="40.5880930" lon="-3.9543090">
        <ele>891.4</ele>
        <time>2019-05-28T11:34:38Z</time>
      </trkpt>
      <trkpt lat="40.5877180" lon="-3.9542170">
        <ele>890.6</ele>
        <time>2019-05-28T11:34:42Z</time>
      </trkpt>
      <trkpt lat="40.5875330" lon="-3.9541540">
        <ele>890.2</ele>
        <time>2019-05-28T11:34:44Z</time>
      </trkpt>
      <trkpt lat="40.5872570" lon="-3.9540350">
        <ele>889.2</ele>
        <time>2019-05-28T11:34:47Z</time>
      </trkpt>
      <trkpt lat="40.5867130" lon="-3.9537280">
        <ele>888.0</ele>
        <time>2019-05-28T11:34:53Z</time>
      </trkpt>
      <trkpt lat="40.5861930" lon="-3.9533650">
        <ele>887.4</ele>
        <time>2019-05-28T11:34:59Z</time>
      </trkpt>
      <trkpt lat="40.5860260" lon="-3.9532350">
        <ele>887.0</ele>
        <time>2019-05-28T11:35:01Z</time>
      </trkpt>
      <trkpt lat="40.5855500" lon="-3.9528470">
        <ele>886.4</ele>
        <time>2019-05-28T11:35:07Z</time>
      </trkpt>
      <trkpt lat="40.5853960" lon="-3.9527110">
        <ele>885.8</ele>
        <time>2019-05-28T11:35:09Z</time>
      </trkpt>
      <trkpt lat="40.5848540" lon="-3.9522330">
        <ele>885.0</ele>
        <time>2019-05-28T11:35:16Z</time>
      </trkpt>
      <trkpt lat="40.5844030" lon="-3.9518060">
        <ele>884.8</ele>
        <time>2019-05-28T11:35:22Z</time>
      </trkpt>
      <trkpt lat="40.5839680" lon="-3.9513550">
        <ele>884.6</ele>
        <time>2019-05-28T11:35:28Z</time>
      </trkpt>
      <trkpt lat="40.5836590" lon="-3.9510380">
        <ele>883.6</ele>
        <time>2019-05-28T11:35:32Z</time>
      </trkpt>
      <trkpt lat="40.5833600" lon="-3.9506970">
        <ele>882.4</ele>
        <time>2019-05-28T11:35:36Z</time>
      </trkpt>
      <trkpt lat="40.5829910" lon="-3.9502920">
        <ele>882.0</ele>
        <time>2019-05-28T11:35:41Z</time>
      </trkpt>
      <trkpt lat="40.5828280" lon="-3.9501230">
        <ele>881.4</ele>
        <time>2019-05-28T11:35:43Z</time>
      </trkpt>
      <trkpt lat="40.5823710" lon="-3.9496490">
        <ele>880.6</ele>
        <time>2019-05-28T11:35:49Z</time>
      </trkpt>
      <trkpt lat="40.5818710" lon="-3.9491410">
        <ele>881.0</ele>
        <time>2019-05-28T11:35:56Z</time>
      </trkpt>
      <trkpt lat="40.5813860" lon="-3.9486360">
        <ele>881.2</ele>
        <time>2019-05-28T11:36:03Z</time>
      </trkpt>
      <trkpt lat="40.5809340" lon="-3.9481590">
        <ele>881.4</ele>
        <time>2019-05-28T11:36:10Z</time>
      </trkpt>
      <trkpt lat="40.5804480" lon="-3.9476660">
        <ele>882.0</ele>
        <time>2019-05-28T11:36:18Z</time>
      </trkpt>
      <trkpt lat="40.5802800" lon="-3.9474830">
        <ele>882.6</ele>
        <time>2019-05-28T11:36:21Z</time>
      </trkpt>
      <trkpt lat="40.5800650" lon="-3.9472300">
        <ele>883.2</ele>
        <time>2019-05-28T11:36:25Z</time>
      </trkpt>
      <trkpt lat="40.5799590" lon="-3.9470980">
        <ele>883.8</ele>
        <time>2019-05-28T11:36:27Z</time>
      </trkpt>
      <trkpt lat="40.5796930" lon="-3.9467600">
        <ele>885.0</ele>
        <time>2019-05-28T11:36:32Z</time>
      </trkpt>
      <trkpt lat="40.5794360" lon="-3.9464030">
        <ele>886.0</ele>
        <time>2019-05-28T11:36:37Z</time>
      </trkpt>
      <trkpt lat="40.5792890" lon="-3.9461810">
        <ele>886.6</ele>
        <time>2019-05-28T11:36:40Z</time>
      </trkpt>
      <trkpt lat="40.5791550" lon="-3.9459400">
        <ele>887.0</ele>
        <time>2019-05-28T11:36:43Z</time>
      </trkpt>
      <trkpt lat="40.5788880" lon="-3.9454530">
        <ele>888.4</ele>
        <time>2019-05-28T11:36:49Z</time>
      </trkpt>
      <trkpt lat="40.5788100" lon="-3.9452840">
        <ele>888.8</ele>
        <time>2019-05-28T11:36:51Z</time>
      </trkpt>
      <trkpt lat="40.5787340" lon="-3.9451120">
        <ele>889.2</ele>
        <time>2019-05-28T11:36:53Z</time>
      </trkpt>
      <trkpt lat="40.5786260" lon="-3.9448480">
        <ele>889.4</ele>
        <time>2019-05-28T11:36:56Z</time>
      </trkpt>
      <trkpt lat="40.5784340" lon="-3.9442990">
        <ele>890.6</ele>
        <time>2019-05-28T11:37:02Z</time>
      </trkpt>
      <trkpt lat="40.5782960" lon="-3.9438270">
        <ele>891.6</ele>
        <time>2019-05-28T11:37:07Z</time>
      </trkpt>
      <trkpt lat="40.5782120" lon="-3.9434360">
        <ele>892.8</ele>
        <time>2019-05-28T11:37:11Z</time>
      </trkpt>
      <trkpt lat="40.5781700" lon="-3.9432410">
        <ele>893.4</ele>
        <time>2019-05-28T11:37:13Z</time>
      </trkpt>
      <trkpt lat="40.5781050" lon="-3.9428480">
        <ele>894.0</ele>
        <time>2019-05-28T11:37:17Z</time>
      </trkpt>
      <trkpt lat="40.5780300" lon="-3.9423730">
        <ele>895.4</ele>
        <time>2019-05-28T11:37:22Z</time>
      </trkpt>
      <trkpt lat="40.5779930" lon="-3.9420790">
        <ele>896.6</ele>
        <time>2019-05-28T11:37:25Z</time>
      </trkpt>
      <trkpt lat="40.5779800" lon="-3.9419830">
        <ele>897.2</ele>
        <time>2019-05-28T11:37:26Z</time>
      </trkpt>
      <trkpt lat="40.5779720" lon="-3.9418900">
        <ele>897.8</ele>
        <time>2019-05-28T11:37:27Z</time>
      </trkpt>
      <trkpt lat="40.5779390" lon="-3.9415400">
        <ele>898.8</ele>
        <time>2019-05-28T11:37:31Z</time>
      </trkpt>
      <trkpt lat="40.5778820" lon="-3.9409490">
        <ele>900.0</ele>
        <time>2019-05-28T11:37:38Z</time>
      </trkpt>
      <trkpt lat="40.5778310" lon="-3.9404600">
        <ele>901.0</ele>
        <time>2019-05-28T11:37:44Z</time>
      </trkpt>
      <trkpt lat="40.5777440" lon="-3.9398170">
        <ele>902.0</ele>
        <time>2019-05-28T11:37:52Z</time>
      </trkpt>
      <trkpt lat="40.5777270" lon="-3.9397410">
        <ele>902.2</ele>
        <time>2019-05-28T11:37:53Z</time>
      </trkpt>
      <trkpt lat="40.5775810" lon="-3.9392970">
        <ele>902.2</ele>
        <time>2019-05-28T11:37:59Z</time>
      </trkpt>
      <trkpt lat="40.5775250" lon="-3.9391410">
        <ele>902.2</ele>
        <time>2019-05-28T11:38:01Z</time>
      </trkpt>
      <trkpt lat="40.5774670" lon="-3.9386050">
        <ele>902.0</ele>
        <time>2019-05-28T11:38:07Z</time>
      </trkpt>
      <trkpt lat="40.5774190" lon="-3.9382090">
        <ele>902.0</ele>
        <time>2019-05-28T11:38:11Z</time>
      </trkpt>
      <trkpt lat="40.5773730" lon="-3.9378590">
        <ele>901.8</ele>
        <time>2019-05-28T11:38:14Z</time>
      </trkpt>
      <trkpt lat="40.5772830" lon="-3.9373210">
        <ele>900.2</ele>
        <time>2019-05-28T11:38:18Z</time>
      </trkpt>
      <trkpt lat="40.5772060" lon="-3.9370330">
        <ele>898.4</ele>
        <time>2019-05-28T11:38:20Z</time>
      </trkpt>
      <trkpt lat="40.5771580" lon="-3.9368890">
        <ele>897.6</ele>
        <time>2019-05-28T11:38:21Z</time>
      </trkpt>
      <trkpt lat="40.5771030" lon="-3.9367440">
        <ele>896.6</ele>
        <time>2019-05-28T11:38:22Z</time>
      </trkpt>
      <trkpt lat="40.5769760" lon="-3.9364610">
        <ele>894.4</ele>
        <time>2019-05-28T11:38:24Z</time>
      </trkpt>
      <trkpt lat="40.5769040" lon="-3.9363230">
        <ele>893.2</ele>
        <time>2019-05-28T11:38:25Z</time>
      </trkpt>
      <trkpt lat="40.5768250" lon="-3.9361880">
        <ele>892.2</ele>
        <time>2019-05-28T11:38:26Z</time>
      </trkpt>
      <trkpt lat="40.5767430" lon="-3.9360520">
        <ele>891.0</ele>
        <time>2019-05-28T11:38:27Z</time>
      </trkpt>
      <trkpt lat="40.5766600" lon="-3.9359140">
        <ele>889.8</ele>
        <time>2019-05-28T11:38:28Z</time>
      </trkpt>
      <trkpt lat="40.5765770" lon="-3.9357750">
        <ele>888.4</ele>
        <time>2019-05-28T11:38:29Z</time>
      </trkpt>
      <trkpt lat="40.5764940" lon="-3.9356360">
        <ele>887.2</ele>
        <time>2019-05-28T11:38:30Z</time>
      </trkpt>
      <trkpt lat="40.5764110" lon="-3.9354970">
        <ele>885.8</ele>
        <time>2019-05-28T11:38:31Z</time>
      </trkpt>
      <trkpt lat="40.5762460" lon="-3.9352160">
        <ele>883.8</ele>
        <time>2019-05-28T11:38:33Z</time>
      </trkpt>
      <trkpt lat="40.5761630" lon="-3.9350740">
        <ele>882.8</ele>
        <time>2019-05-28T11:38:34Z</time>
      </trkpt>
      <trkpt lat="40.5760000" lon="-3.9347880">
        <ele>881.0</ele>
        <time>2019-05-28T11:38:36Z</time>
      </trkpt>
      <trkpt lat="40.5759200" lon="-3.9346470">
        <ele>879.8</ele>
        <time>2019-05-28T11:38:37Z</time>
      </trkpt>
      <trkpt lat="40.5758410" lon="-3.9345050">
        <ele>878.8</ele>
        <time>2019-05-28T11:38:38Z</time>
      </trkpt>
      <trkpt lat="40.5756890" lon="-3.9342210">
        <ele>877.8</ele>
        <time>2019-05-28T11:38:40Z</time>
      </trkpt>
      <trkpt lat="40.5754130" lon="-3.9336590">
        <ele>876.6</ele>
        <time>2019-05-28T11:38:44Z</time>
      </trkpt>
      <trkpt lat="40.5751430" lon="-3.9330890">
        <ele>875.4</ele>
        <time>2019-05-28T11:38:48Z</time>
      </trkpt>
      <trkpt lat="40.5749330" lon="-3.9326500">
        <ele>874.6</ele>
        <time>2019-05-28T11:38:51Z</time>
      </trkpt>
      <trkpt lat="40.5747940" lon="-3.9323580">
        <ele>874.0</ele>
        <time>2019-05-28T11:38:53Z</time>
      </trkpt>
      <trkpt lat="40.5745830" lon="-3.9319100">
        <ele>872.4</ele>
        <time>2019-05-28T11:38:56Z</time>
      </trkpt>
      <trkpt lat="40.5744440" lon="-3.9316070">
        <ele>871.0</ele>
        <time>2019-05-28T11:38:58Z</time>
      </trkpt>
      <trkpt lat="40.5742530" lon="-3.9311450">
        <ele>869.6</ele>
        <time>2019-05-28T11:39:01Z</time>
      </trkpt>
      <trkpt lat="40.5741150" lon="-3.9306630">
        <ele>868.6</ele>
        <time>2019-05-28T11:39:04Z</time>
      </trkpt>
      <trkpt lat="40.5740850" lon="-3.9305010">
        <ele>866.6</ele>
        <time>2019-05-28T11:39:05Z</time>
      </trkpt>
      <trkpt lat="40.5740600" lon="-3.9303370">
        <ele>865.6</ele>
        <time>2019-05-28T11:39:06Z</time>
      </trkpt>
      <trkpt lat="40.5740250" lon="-3.9298550">
        <ele>865.0</ele>
        <time>2019-05-28T11:39:09Z</time>
      </trkpt>
      <trkpt lat="40.5740210" lon="-3.9295510">
        <ele>864.8</ele>
        <time>2019-05-28T11:39:11Z</time>
      </trkpt>
      <trkpt lat="40.5740180" lon="-3.9291170">
        <ele>864.8</ele>
        <time>2019-05-28T11:39:14Z</time>
      </trkpt>
      <trkpt lat="40.5740000" lon="-3.9288260">
        <ele>865.0</ele>
        <time>2019-05-28T11:39:16Z</time>
      </trkpt>
      <trkpt lat="40.5739720" lon="-3.9285360">
        <ele>865.8</ele>
        <time>2019-05-28T11:39:18Z</time>
      </trkpt>
      <trkpt lat="40.5739500" lon="-3.9283900">
        <ele>866.2</ele>
        <time>2019-05-28T11:39:19Z</time>
      </trkpt>
      <trkpt lat="40.5739000" lon="-3.9281030">
        <ele>867.6</ele>
        <time>2019-05-28T11:39:21Z</time>
      </trkpt>
      <trkpt lat="40.5738470" lon="-3.9278190">
        <ele>868.6</ele>
        <time>2019-05-28T11:39:23Z</time>
      </trkpt>
      <trkpt lat="40.5737780" lon="-3.9275350">
        <ele>869.8</ele>
        <time>2019-05-28T11:39:25Z</time>
      </trkpt>
      <trkpt lat="40.5736920" lon="-3.9272550">
        <ele>871.2</ele>
        <time>2019-05-28T11:39:27Z</time>
      </trkpt>
      <trkpt lat="40.5734940" lon="-3.9267140">
        <ele>872.2</ele>
        <time>2019-05-28T11:39:31Z</time>
      </trkpt>
      <trkpt lat="40.5732220" lon="-3.9261220">
        <ele>873.4</ele>
        <time>2019-05-28T11:39:36Z</time>
      </trkpt>
      <trkpt lat="40.5728480" lon="-3.9255250">
        <ele>874.2</ele>
        <time>2019-05-28T11:39:42Z</time>
      </trkpt>
      <trkpt lat="40.5725810" lon="-3.9251790">
        <ele>874.2</ele>
        <time>2019-05-28T11:39:46Z</time>
      </trkpt>
      <trkpt lat="40.5724370" lon="-3.9250410">
        <ele>874.2</ele>
        <time>2019-05-28T11:39:48Z</time>
      </trkpt>
      <trkpt lat="40.5722020" lon="-3.9250310">
        <ele>874.0</ele>
        <time>2019-05-28T11:39:51Z</time>
      </trkpt>
      <trkpt lat="40.5720840" lon="-3.9251500">
        <ele>874.0</ele>
        <time>2019-05-28T11:39:53Z</time>
      </trkpt>
      <trkpt lat="40.5720230" lon="-3.9251760">
        <ele>874.0</ele>
        <time>2019-05-28T11:39:54Z</time>
      </trkpt>
      <trkpt lat="40.5718700" lon="-3.9249310">
        <ele>873.6</ele>
        <time>2019-05-28T11:39:58Z</time>
      </trkpt>
      <trkpt lat="40.5719070" lon="-3.9247240">
        <ele>873.4</ele>
        <time>2019-05-28T11:40:00Z</time>
      </trkpt>
      <trkpt lat="40.5719210" lon="-3.9246230">
        <ele>873.2</ele>
        <time>2019-05-28T11:40:01Z</time>
      </trkpt>
      <trkpt lat="40.5718270" lon="-3.9242020">
        <ele>872.4</ele>
        <time>2019-05-28T11:40:05Z</time>
      </trkpt>
      <trkpt lat="40.5716940" lon="-3.9240220">
        <ele>872.2</ele>
        <time>2019-05-28T11:40:07Z</time>
      </trkpt>
      <trkpt lat="40.5715530" lon="-3.9238390">
        <ele>872.0</ele>
        <time>2019-05-28T11:40:09Z</time>
      </trkpt>
      <trkpt lat="40.5714830" lon="-3.9237430">
        <ele>871.4</ele>
        <time>2019-05-28T11:40:10Z</time>
      </trkpt>
      <trkpt lat="40.5713370" lon="-3.9235480">
        <ele>869.8</ele>
        <time>2019-05-28T11:40:12Z</time>
      </trkpt>
      <trkpt lat="40.5711740" lon="-3.9233500">
        <ele>868.4</ele>
        <time>2019-05-28T11:40:14Z</time>
      </trkpt>
      <trkpt lat="40.5710010" lon="-3.9231330">
        <ele>867.0</ele>
        <time>2019-05-28T11:40:16Z</time>
      </trkpt>
      <trkpt lat="40.5708420" lon="-3.9228800">
        <ele>866.0</ele>
        <time>2019-05-28T11:40:18Z</time>
      </trkpt>
      <trkpt lat="40.5707010" lon="-3.9225920">
        <ele>864.8</ele>
        <time>2019-05-28T11:40:20Z</time>
      </trkpt>
      <trkpt lat="40.5705750" lon="-3.9222750">
        <ele>863.0</ele>
        <time>2019-05-28T11:40:22Z</time>
      </trkpt>
      <trkpt lat="40.5705170" lon="-3.9221110">
        <ele>861.8</ele>
        <time>2019-05-28T11:40:23Z</time>
      </trkpt>
      <trkpt lat="40.5704580" lon="-3.9219490">
        <ele>860.6</ele>
        <time>2019-05-28T11:40:24Z</time>
      </trkpt>
      <trkpt lat="40.5703350" lon="-3.9216370">
        <ele>858.8</ele>
        <time>2019-05-28T11:40:26Z</time>
      </trkpt>
      <trkpt lat="40.5702720" lon="-3.9214860">
        <ele>857.6</ele>
        <time>2019-05-28T11:40:27Z</time>
      </trkpt>
      <trkpt lat="40.5701530" lon="-3.9211970">
        <ele>855.4</ele>
        <time>2019-05-28T11:40:29Z</time>
      </trkpt>
      <trkpt lat="40.5700960" lon="-3.9210600">
        <ele>853.8</ele>
        <time>2019-05-28T11:40:30Z</time>
      </trkpt>
      <trkpt lat="40.5699860" lon="-3.9207920">
        <ele>852.8</ele>
        <time>2019-05-28T11:40:32Z</time>
      </trkpt>
      <trkpt lat="40.5697710" lon="-3.9202710">
        <ele>851.8</ele>
        <time>2019-05-28T11:40:36Z</time>
      </trkpt>
      <trkpt lat="40.5697160" lon="-3.9201410">
        <ele>851.8</ele>
        <time>2019-05-28T11:40:37Z</time>
      </trkpt>
      <trkpt lat="40.5694840" lon="-3.9196250">
        <ele>851.8</ele>
        <time>2019-05-28T11:40:41Z</time>
      </trkpt>
      <trkpt lat="40.5691910" lon="-3.9190010">
        <ele>851.8</ele>
        <time>2019-05-28T11:40:46Z</time>
      </trkpt>
      <trkpt lat="40.5688930" lon="-3.9183690">
        <ele>851.4</ele>
        <time>2019-05-28T11:40:51Z</time>
      </trkpt>
      <trkpt lat="40.5686530" lon="-3.9178590">
        <ele>851.0</ele>
        <time>2019-05-28T11:40:55Z</time>
      </trkpt>
      <trkpt lat="40.5684680" lon="-3.9174660">
        <ele>850.0</ele>
        <time>2019-05-28T11:40:58Z</time>
      </trkpt>
      <trkpt lat="40.5682860" lon="-3.9170660">
        <ele>848.8</ele>
        <time>2019-05-28T11:41:01Z</time>
      </trkpt>
      <trkpt lat="40.5681060" lon="-3.9166600">
        <ele>847.4</ele>
        <time>2019-05-28T11:41:04Z</time>
      </trkpt>
      <trkpt lat="40.5679770" lon="-3.9163900">
        <ele>846.4</ele>
        <time>2019-05-28T11:41:06Z</time>
      </trkpt>
      <trkpt lat="40.5676360" lon="-3.9157420">
        <ele>845.4</ele>
        <time>2019-05-28T11:41:11Z</time>
      </trkpt>
      <trkpt lat="40.5675700" lon="-3.9156130">
        <ele>845.0</ele>
        <time>2019-05-28T11:41:12Z</time>
      </trkpt>
      <trkpt lat="40.5674360" lon="-3.9153550">
        <ele>843.2</ele>
        <time>2019-05-28T11:41:14Z</time>
      </trkpt>
      <trkpt lat="40.5673010" lon="-3.9150910">
        <ele>842.2</ele>
        <time>2019-05-28T11:41:16Z</time>
      </trkpt>
      <trkpt lat="40.5670800" lon="-3.9146960">
        <ele>840.8</ele>
        <time>2019-05-28T11:41:19Z</time>
      </trkpt>
      <trkpt lat="40.5667100" lon="-3.9140400">
        <ele>840.2</ele>
        <time>2019-05-28T11:41:24Z</time>
      </trkpt>
      <trkpt lat="40.5666380" lon="-3.9139130">
        <ele>839.6</ele>
        <time>2019-05-28T11:41:25Z</time>
      </trkpt>
      <trkpt lat="40.5664940" lon="-3.9136640">
        <ele>837.8</ele>
        <time>2019-05-28T11:41:27Z</time>
      </trkpt>
      <trkpt lat="40.5664240" lon="-3.9135400">
        <ele>836.2</ele>
        <time>2019-05-28T11:41:28Z</time>
      </trkpt>
      <trkpt lat="40.5662860" lon="-3.9132970">
        <ele>834.6</ele>
        <time>2019-05-28T11:41:30Z</time>
      </trkpt>
      <trkpt lat="40.5661590" lon="-3.9130530">
        <ele>833.4</ele>
        <time>2019-05-28T11:41:32Z</time>
      </trkpt>
      <trkpt lat="40.5659140" lon="-3.9125580">
        <ele>832.2</ele>
        <time>2019-05-28T11:41:36Z</time>
      </trkpt>
      <trkpt lat="40.5656220" lon="-3.9118970">
        <ele>831.4</ele>
        <time>2019-05-28T11:41:41Z</time>
      </trkpt>
      <trkpt lat="40.5655030" lon="-3.9116250">
        <ele>831.0</ele>
        <time>2019-05-28T11:41:43Z</time>
      </trkpt>
      <trkpt lat="40.5653260" lon="-3.9112000">
        <ele>828.6</ele>
        <time>2019-05-28T11:41:46Z</time>
      </trkpt>
      <trkpt lat="40.5652060" lon="-3.9109060">
        <ele>826.6</ele>
        <time>2019-05-28T11:41:48Z</time>
      </trkpt>
      <trkpt lat="40.5650840" lon="-3.9106010">
        <ele>824.8</ele>
        <time>2019-05-28T11:41:50Z</time>
      </trkpt>
      <trkpt lat="40.5649610" lon="-3.9102860">
        <ele>823.2</ele>
        <time>2019-05-28T11:41:52Z</time>
      </trkpt>
      <trkpt lat="40.5648360" lon="-3.9099660">
        <ele>821.4</ele>
        <time>2019-05-28T11:41:54Z</time>
      </trkpt>
      <trkpt lat="40.5647060" lon="-3.9096450">
        <ele>819.4</ele>
        <time>2019-05-28T11:41:56Z</time>
      </trkpt>
      <trkpt lat="40.5646390" lon="-3.9094820">
        <ele>818.4</ele>
        <time>2019-05-28T11:41:57Z</time>
      </trkpt>
      <trkpt lat="40.5645020" lon="-3.9091600">
        <ele>816.8</ele>
        <time>2019-05-28T11:41:59Z</time>
      </trkpt>
      <trkpt lat="40.5644320" lon="-3.9090020">
        <ele>815.2</ele>
        <time>2019-05-28T11:42:00Z</time>
      </trkpt>
      <trkpt lat="40.5643620" lon="-3.9088450">
        <ele>813.8</ele>
        <time>2019-05-28T11:42:01Z</time>
      </trkpt>
      <trkpt lat="40.5642210" lon="-3.9085380">
        <ele>812.2</ele>
        <time>2019-05-28T11:42:03Z</time>
      </trkpt>
      <trkpt lat="40.5640800" lon="-3.9082340">
        <ele>811.0</ele>
        <time>2019-05-28T11:42:05Z</time>
      </trkpt>
      <trkpt lat="40.5638750" lon="-3.9077890">
        <ele>809.8</ele>
        <time>2019-05-28T11:42:08Z</time>
      </trkpt>
      <trkpt lat="40.5636060" lon="-3.9072240">
        <ele>808.6</ele>
        <time>2019-05-28T11:42:12Z</time>
      </trkpt>
      <trkpt lat="40.5634710" lon="-3.9069480">
        <ele>807.6</ele>
        <time>2019-05-28T11:42:14Z</time>
      </trkpt>
      <trkpt lat="40.5632700" lon="-3.9065360">
        <ele>806.8</ele>
        <time>2019-05-28T11:42:17Z</time>
      </trkpt>
      <trkpt lat="40.5630110" lon="-3.9060000">
        <ele>805.4</ele>
        <time>2019-05-28T11:42:21Z</time>
      </trkpt>
      <trkpt lat="40.5626880" lon="-3.9053610">
        <ele>804.8</ele>
        <time>2019-05-28T11:42:26Z</time>
      </trkpt>
      <trkpt lat="40.5623890" lon="-3.9047380">
        <ele>804.6</ele>
        <time>2019-05-28T11:42:31Z</time>
      </trkpt>
      <trkpt lat="40.5621290" lon="-3.9042510">
        <ele>804.4</ele>
        <time>2019-05-28T11:42:35Z</time>
      </trkpt>
      <trkpt lat="40.5616540" lon="-3.9036290">
        <ele>803.6</ele>
        <time>2019-05-28T11:42:41Z</time>
      </trkpt>
      <trkpt lat="40.5615670" lon="-3.9035410">
        <ele>803.4</ele>
        <time>2019-05-28T11:42:42Z</time>
      </trkpt>
      <trkpt lat="40.5612940" lon="-3.9032950">
        <ele>801.8</ele>
        <time>2019-05-28T11:42:45Z</time>
      </trkpt>
      <trkpt lat="40.5611100" lon="-3.9031460">
        <ele>800.6</ele>
        <time>2019-05-28T11:42:47Z</time>
      </trkpt>
      <trkpt lat="40.5609240" lon="-3.9030050">
        <ele>799.6</ele>
        <time>2019-05-28T11:42:49Z</time>
      </trkpt>
      <trkpt lat="40.5603670" lon="-3.9026210">
        <ele>798.8</ele>
        <time>2019-05-28T11:42:55Z</time>
      </trkpt>
      <trkpt lat="40.5602760" lon="-3.9025660">
        <ele>798.4</ele>
        <time>2019-05-28T11:42:56Z</time>
      </trkpt>
      <trkpt lat="40.5598460" lon="-3.9023320">
        <ele>797.4</ele>
        <time>2019-05-28T11:43:01Z</time>
      </trkpt>
      <trkpt lat="40.5592750" lon="-3.9020440">
        <ele>796.6</ele>
        <time>2019-05-28T11:43:08Z</time>
      </trkpt>
      <trkpt lat="40.5589380" lon="-3.9018790">
        <ele>796.2</ele>
        <time>2019-05-28T11:43:12Z</time>
      </trkpt>
      <trkpt lat="40.5585870" lon="-3.9017100">
        <ele>795.0</ele>
        <time>2019-05-28T11:43:16Z</time>
      </trkpt>
      <trkpt lat="40.5582320" lon="-3.9015300">
        <ele>793.6</ele>
        <time>2019-05-28T11:43:20Z</time>
      </trkpt>
      <trkpt lat="40.5580500" lon="-3.9014400">
        <ele>792.4</ele>
        <time>2019-05-28T11:43:22Z</time>
      </trkpt>
      <trkpt lat="40.5578670" lon="-3.9013500">
        <ele>791.4</ele>
        <time>2019-05-28T11:43:24Z</time>
      </trkpt>
      <trkpt lat="40.5574930" lon="-3.9012040">
        <ele>790.0</ele>
        <time>2019-05-28T11:43:28Z</time>
      </trkpt>
      <trkpt lat="40.5573020" lon="-3.9011780">
        <ele>789.0</ele>
        <time>2019-05-28T11:43:30Z</time>
      </trkpt>
      <trkpt lat="40.5572220" lon="-3.9011240">
        <ele>788.8</ele>
        <time>2019-05-28T11:43:31Z</time>
      </trkpt>
      <trkpt lat="40.5569420" lon="-3.9008190">
        <ele>788.0</ele>
        <time>2019-05-28T11:43:35Z</time>
      </trkpt>
      <trkpt lat="40.5567150" lon="-3.9006230">
        <ele>788.0</ele>
        <time>2019-05-28T11:43:38Z</time>
      </trkpt>
      <trkpt lat="40.5565050" lon="-3.9004510">
        <ele>788.0</ele>
        <time>2019-05-28T11:43:41Z</time>
      </trkpt>
      <trkpt lat="40.5560850" lon="-3.9001920">
        <ele>789.0</ele>
        <time>2019-05-28T11:43:47Z</time>
      </trkpt>
      <trkpt lat="40.5558710" lon="-3.9000740">
        <ele>790.0</ele>
        <time>2019-05-28T11:43:50Z</time>
      </trkpt>
      <trkpt lat="40.5557250" lon="-3.8999980">
        <ele>791.0</ele>
        <time>2019-05-28T11:43:52Z</time>
      </trkpt>
      <trkpt lat="40.5552030" lon="-3.8997340">
        <ele>791.4</ele>
        <time>2019-05-28T11:43:59Z</time>
      </trkpt>
      <trkpt lat="40.5546750" lon="-3.8994660">
        <ele>790.8</ele>
        <time>2019-05-28T11:44:06Z</time>
      </trkpt>
      <trkpt lat="40.5542790" lon="-3.8992640">
        <ele>790.2</ele>
        <time>2019-05-28T11:44:11Z</time>
      </trkpt>
      <trkpt lat="40.5537020" lon="-3.8989640">
        <ele>789.6</ele>
        <time>2019-05-28T11:44:18Z</time>
      </trkpt>
      <trkpt lat="40.5533620" lon="-3.8987880">
        <ele>789.2</ele>
        <time>2019-05-28T11:44:22Z</time>
      </trkpt>
      <trkpt lat="40.5531040" lon="-3.8986490">
        <ele>788.6</ele>
        <time>2019-05-28T11:44:25Z</time>
      </trkpt>
      <trkpt lat="40.5527540" lon="-3.8984730">
        <ele>788.0</ele>
        <time>2019-05-28T11:44:29Z</time>
      </trkpt>
      <trkpt lat="40.5523950" lon="-3.8982980">
        <ele>787.4</ele>
        <time>2019-05-28T11:44:33Z</time>
      </trkpt>
      <trkpt lat="40.5522070" lon="-3.8982110">
        <ele>787.0</ele>
        <time>2019-05-28T11:44:35Z</time>
      </trkpt>
      <trkpt lat="40.5520230" lon="-3.8981220">
        <ele>785.6</ele>
        <time>2019-05-28T11:44:37Z</time>
      </trkpt>
      <trkpt lat="40.5516550" lon="-3.8979380">
        <ele>784.4</ele>
        <time>2019-05-28T11:44:41Z</time>
      </trkpt>
      <trkpt lat="40.5514690" lon="-3.8978730">
        <ele>783.6</ele>
        <time>2019-05-28T11:44:43Z</time>
      </trkpt>
      <trkpt lat="40.5512800" lon="-3.8978500">
        <ele>783.0</ele>
        <time>2019-05-28T11:44:45Z</time>
      </trkpt>
      <trkpt lat="40.5510900" lon="-3.8978380">
        <ele>781.6</ele>
        <time>2019-05-28T11:44:47Z</time>
      </trkpt>
      <trkpt lat="40.5506040" lon="-3.8977060">
        <ele>780.4</ele>
        <time>2019-05-28T11:44:52Z</time>
      </trkpt>
      <trkpt lat="40.5503120" lon="-3.8975460">
        <ele>779.0</ele>
        <time>2019-05-28T11:44:55Z</time>
      </trkpt>
      <trkpt lat="40.5500140" lon="-3.8973850">
        <ele>777.8</ele>
        <time>2019-05-28T11:44:58Z</time>
      </trkpt>
      <trkpt lat="40.5498130" lon="-3.8972800">
        <ele>776.8</ele>
        <time>2019-05-28T11:45:00Z</time>
      </trkpt>
      <trkpt lat="40.5496110" lon="-3.8971760">
        <ele>775.2</ele>
        <time>2019-05-28T11:45:02Z</time>
      </trkpt>
      <trkpt lat="40.5494140" lon="-3.8970710">
        <ele>773.8</ele>
        <time>2019-05-28T11:45:04Z</time>
      </trkpt>
      <trkpt lat="40.5491200" lon="-3.8969210">
        <ele>772.8</ele>
        <time>2019-05-28T11:45:07Z</time>
      </trkpt>
      <trkpt lat="40.5486490" lon="-3.8966940">
        <ele>771.8</ele>
        <time>2019-05-28T11:45:12Z</time>
      </trkpt>
      <trkpt lat="40.5480530" lon="-3.8964200">
        <ele>771.6</ele>
        <time>2019-05-28T11:45:20Z</time>
      </trkpt>
      <trkpt lat="40.5479340" lon="-3.8963540">
        <ele>772.0</ele>
        <time>2019-05-28T11:45:22Z</time>
      </trkpt>
      <trkpt lat="40.5478250" lon="-3.8962840">
        <ele>773.2</ele>
        <time>2019-05-28T11:45:24Z</time>
      </trkpt>
      <trkpt lat="40.5477160" lon="-3.8962100">
        <ele>774.6</ele>
        <time>2019-05-28T11:45:26Z</time>
      </trkpt>
      <trkpt lat="40.5476660" lon="-3.8961750">
        <ele>775.8</ele>
        <time>2019-05-28T11:45:27Z</time>
      </trkpt>
      <trkpt lat="40.5476160" lon="-3.8961400">
        <ele>776.8</ele>
        <time>2019-05-28T11:45:28Z</time>
      </trkpt>
      <trkpt lat="40.5475240" lon="-3.8960710">
        <ele>778.2</ele>
        <time>2019-05-28T11:45:30Z</time>
      </trkpt>
      <trkpt lat="40.5474800" lon="-3.8960430">
        <ele>778.8</ele>
        <time>2019-05-28T11:45:31Z</time>
      </trkpt>
      <trkpt lat="40.5474280" lon="-3.8960240">
        <ele>779.4</ele>
        <time>2019-05-28T11:45:32Z</time>
      </trkpt>
      <trkpt lat="40.5471770" lon="-3.8959730">
        <ele>779.8</ele>
        <time>2019-05-28T11:45:36Z</time>
      </trkpt>
      <trkpt lat="40.5469890" lon="-3.8958830">
        <ele>780.0</ele>
        <time>2019-05-28T11:45:39Z</time>
      </trkpt>
      <trkpt lat="40.5464600" lon="-3.8958460">
        <ele>779.8</ele>
        <time>2019-05-28T11:45:47Z</time>
      </trkpt>
      <trkpt lat="40.5461610" lon="-3.8955730">
        <ele>779.2</ele>
        <time>2019-05-28T11:45:51Z</time>
      </trkpt>
      <trkpt lat="40.5459290" lon="-3.8952740">
        <ele>778.4</ele>
        <time>2019-05-28T11:45:54Z</time>
      </trkpt>
      <trkpt lat="40.5457570" lon="-3.8950630">
        <ele>777.0</ele>
        <time>2019-05-28T11:45:56Z</time>
      </trkpt>
      <trkpt lat="40.5455730" lon="-3.8948820">
        <ele>775.2</ele>
        <time>2019-05-28T11:45:58Z</time>
      </trkpt>
      <trkpt lat="40.5454710" lon="-3.8948230">
        <ele>774.0</ele>
        <time>2019-05-28T11:45:59Z</time>
      </trkpt>
      <trkpt lat="40.5453640" lon="-3.8947750">
        <ele>772.8</ele>
        <time>2019-05-28T11:46:00Z</time>
      </trkpt>
      <trkpt lat="40.5452580" lon="-3.8947280">
        <ele>771.8</ele>
        <time>2019-05-28T11:46:01Z</time>
      </trkpt>
      <trkpt lat="40.5450450" lon="-3.8946320">
        <ele>770.2</ele>
        <time>2019-05-28T11:46:03Z</time>
      </trkpt>
      <trkpt lat="40.5448300" lon="-3.8945390">
        <ele>769.2</ele>
        <time>2019-05-28T11:46:05Z</time>
      </trkpt>
      <trkpt lat="40.5442010" lon="-3.8942730">
        <ele>768.0</ele>
        <time>2019-05-28T11:46:11Z</time>
      </trkpt>
      <trkpt lat="40.5438980" lon="-3.8941470">
        <ele>767.0</ele>
        <time>2019-05-28T11:46:14Z</time>
      </trkpt>
      <trkpt lat="40.5433090" lon="-3.8938980">
        <ele>766.4</ele>
        <time>2019-05-28T11:46:20Z</time>
      </trkpt>
      <trkpt lat="40.5430230" lon="-3.8937740">
        <ele>766.0</ele>
        <time>2019-05-28T11:46:23Z</time>
      </trkpt>
      <trkpt lat="40.5424510" lon="-3.8935190">
        <ele>765.6</ele>
        <time>2019-05-28T11:46:29Z</time>
      </trkpt>
      <trkpt lat="40.5418750" lon="-3.8932540">
        <ele>765.4</ele>
        <time>2019-05-28T11:46:35Z</time>
      </trkpt>
      <trkpt lat="40.5413080" lon="-3.8929490">
        <ele>765.2</ele>
        <time>2019-05-28T11:46:41Z</time>
      </trkpt>
      <trkpt lat="40.5407430" lon="-3.8926100">
        <ele>765.0</ele>
        <time>2019-05-28T11:46:47Z</time>
      </trkpt>
      <trkpt lat="40.5401820" lon="-3.8922660">
        <ele>763.8</ele>
        <time>2019-05-28T11:46:53Z</time>
      </trkpt>
      <trkpt lat="40.5396330" lon="-3.8919330">
        <ele>763.2</ele>
        <time>2019-05-28T11:46:59Z</time>
      </trkpt>
      <trkpt lat="40.5390940" lon="-3.8916030">
        <ele>763.2</ele>
        <time>2019-05-28T11:47:05Z</time>
      </trkpt>
      <trkpt lat="40.5385450" lon="-3.8912600">
        <ele>763.2</ele>
        <time>2019-05-28T11:47:11Z</time>
      </trkpt>
      <trkpt lat="40.5380130" lon="-3.8909200">
        <ele>763.0</ele>
        <time>2019-05-28T11:47:17Z</time>
      </trkpt>
      <trkpt lat="40.5375750" lon="-3.8906530">
        <ele>762.8</ele>
        <time>2019-05-28T11:47:22Z</time>
      </trkpt>
      <trkpt lat="40.5370340" lon="-3.8903170">
        <ele>762.2</ele>
        <time>2019-05-28T11:47:28Z</time>
      </trkpt>
      <trkpt lat="40.5368480" lon="-3.8902060">
        <ele>761.8</ele>
        <time>2019-05-28T11:47:30Z</time>
      </trkpt>
      <trkpt lat="40.5362700" lon="-3.8899020">
        <ele>761.4</ele>
        <time>2019-05-28T11:47:36Z</time>
      </trkpt>
      <trkpt lat="40.5359770" lon="-3.8897660">
        <ele>760.6</ele>
        <time>2019-05-28T11:47:39Z</time>
      </trkpt>
      <trkpt lat="40.5353970" lon="-3.8895230">
        <ele>760.0</ele>
        <time>2019-05-28T11:47:45Z</time>
      </trkpt>
      <trkpt lat="40.5352990" lon="-3.8894830">
        <ele>759.8</ele>
        <time>2019-05-28T11:47:46Z</time>
      </trkpt>
      <trkpt lat="40.5346970" lon="-3.8892630">
        <ele>758.6</ele>
        <time>2019-05-28T11:47:52Z</time>
      </trkpt>
      <trkpt lat="40.5340940" lon="-3.8890540">
        <ele>757.4</ele>
        <time>2019-05-28T11:47:58Z</time>
      </trkpt>
      <trkpt lat="40.5337900" lon="-3.8889470">
        <ele>756.2</ele>
        <time>2019-05-28T11:48:01Z</time>
      </trkpt>
      <trkpt lat="40.5331860" lon="-3.8887410">
        <ele>755.6</ele>
        <time>2019-05-28T11:48:07Z</time>
      </trkpt>
      <trkpt lat="40.5326070" lon="-3.8885330">
        <ele>755.2</ele>
        <time>2019-05-28T11:48:13Z</time>
      </trkpt>
      <trkpt lat="40.5320080" lon="-3.8883140">
        <ele>755.4</ele>
        <time>2019-05-28T11:48:20Z</time>
      </trkpt>
      <trkpt lat="40.5315050" lon="-3.8881460">
        <ele>756.4</ele>
        <time>2019-05-28T11:48:26Z</time>
      </trkpt>
      <trkpt lat="40.5312550" lon="-3.8880410">
        <ele>757.2</ele>
        <time>2019-05-28T11:48:29Z</time>
      </trkpt>
      <trkpt lat="40.5308250" lon="-3.8879150">
        <ele>758.4</ele>
        <time>2019-05-28T11:48:34Z</time>
      </trkpt>
      <trkpt lat="40.5303060" lon="-3.8877420">
        <ele>758.8</ele>
        <time>2019-05-28T11:48:40Z</time>
      </trkpt>
      <trkpt lat="40.5297720" lon="-3.8875860">
        <ele>759.0</ele>
        <time>2019-05-28T11:48:46Z</time>
      </trkpt>
      <trkpt lat="40.5291530" lon="-3.8874570">
        <ele>758.8</ele>
        <time>2019-05-28T11:48:53Z</time>
      </trkpt>
      <trkpt lat="40.5285540" lon="-3.8873750">
        <ele>759.0</ele>
        <time>2019-05-28T11:49:00Z</time>
      </trkpt>
      <trkpt lat="40.5279810" lon="-3.8873200">
        <ele>759.4</ele>
        <time>2019-05-28T11:49:07Z</time>
      </trkpt>
      <trkpt lat="40.5279010" lon="-3.8873130">
        <ele>759.6</ele>
        <time>2019-05-28T11:49:08Z</time>
      </trkpt>
      <trkpt lat="40.5274010" lon="-3.8872880">
        <ele>760.6</ele>
        <time>2019-05-28T11:49:15Z</time>
      </trkpt>
      <trkpt lat="40.5272810" lon="-3.8872890">
        <ele>761.2</ele>
        <time>2019-05-28T11:49:17Z</time>
      </trkpt>
      <trkpt lat="40.5271410" lon="-3.8873450">
        <ele>761.8</ele>
        <time>2019-05-28T11:49:20Z</time>
      </trkpt>
      <trkpt lat="40.5269810" lon="-3.8874460">
        <ele>763.0</ele>
        <time>2019-05-28T11:49:25Z</time>
      </trkpt>
      <trkpt lat="40.5269670" lon="-3.8875950">
        <ele>763.4</ele>
        <time>2019-05-28T11:49:27Z</time>
      </trkpt>
      <trkpt lat="40.5269130" lon="-3.8881340">
        <ele>763.6</ele>
        <time>2019-05-28T11:49:33Z</time>
      </trkpt>
      <trkpt lat="40.5268690" lon="-3.8885380">
        <ele>763.2</ele>
        <time>2019-05-28T11:49:37Z</time>
      </trkpt>
      <trkpt lat="40.5268360" lon="-3.8888600">
        <ele>762.0</ele>
        <time>2019-05-28T11:49:40Z</time>
      </trkpt>
      <trkpt lat="40.5268260" lon="-3.8889720">
        <ele>761.8</ele>
        <time>2019-05-28T11:49:41Z</time>
      </trkpt>
      <trkpt lat="40.5267770" lon="-3.8894340">
        <ele>760.6</ele>
        <time>2019-05-28T11:49:45Z</time>
      </trkpt>
      <trkpt lat="40.5267400" lon="-3.8897970">
        <ele>759.2</ele>
        <time>2019-05-28T11:49:48Z</time>
      </trkpt>
      <trkpt lat="40.5266910" lon="-3.8902970">
        <ele>758.2</ele>
        <time>2019-05-28T11:49:52Z</time>
      </trkpt>
      <trkpt lat="40.5266470" lon="-3.8906680">
        <ele>757.0</ele>
        <time>2019-05-28T11:49:55Z</time>
      </trkpt>
      <trkpt lat="40.5266090" lon="-3.8910310">
        <ele>755.6</ele>
        <time>2019-05-28T11:49:58Z</time>
      </trkpt>
      <trkpt lat="40.5265840" lon="-3.8912890">
        <ele>754.6</ele>
        <time>2019-05-28T11:50:00Z</time>
      </trkpt>
      <trkpt lat="40.5265260" lon="-3.8918230">
        <ele>753.4</ele>
        <time>2019-05-28T11:50:04Z</time>
      </trkpt>
      <trkpt lat="40.5264980" lon="-3.8921050">
        <ele>752.4</ele>
        <time>2019-05-28T11:50:06Z</time>
      </trkpt>
      <trkpt lat="40.5264710" lon="-3.8923920">
        <ele>750.4</ele>
        <time>2019-05-28T11:50:08Z</time>
      </trkpt>
      <trkpt lat="40.5264590" lon="-3.8925340">
        <ele>749.2</ele>
        <time>2019-05-28T11:50:09Z</time>
      </trkpt>
      <trkpt lat="40.5264270" lon="-3.8928010">
        <ele>748.2</ele>
        <time>2019-05-28T11:50:11Z</time>
      </trkpt>
      <trkpt lat="40.5264190" lon="-3.8929220">
        <ele>747.6</ele>
        <time>2019-05-28T11:50:12Z</time>
      </trkpt>
      <trkpt lat="40.5264020" lon="-3.8931440">
        <ele>747.0</ele>
        <time>2019-05-28T11:50:14Z</time>
      </trkpt>
      <trkpt lat="40.5263880" lon="-3.8933540">
        <ele>745.8</ele>
        <time>2019-05-28T11:50:16Z</time>
      </trkpt>
      <trkpt lat="40.5263770" lon="-3.8934630">
        <ele>745.6</ele>
        <time>2019-05-28T11:50:17Z</time>
      </trkpt>
      <trkpt lat="40.5260790" lon="-3.8936850">
        <ele>745.4</ele>
        <time>2019-05-28T11:50:22Z</time>
      </trkpt>
      <trkpt lat="40.5259140" lon="-3.8936500">
        <ele>745.2</ele>
        <time>2019-05-28T11:50:24Z</time>
      </trkpt>
      <trkpt lat="40.5253710" lon="-3.8935360">
        <ele>745.0</ele>
        <time>2019-05-28T11:50:30Z</time>
      </trkpt>
      <trkpt lat="40.5252780" lon="-3.8935120">
        <ele>744.6</ele>
        <time>2019-05-28T11:50:31Z</time>
      </trkpt>
      <trkpt lat="40.5250100" lon="-3.8934750">
        <ele>744.2</ele>
        <time>2019-05-28T11:50:34Z</time>
      </trkpt>
      <trkpt lat="40.5249280" lon="-3.8936410">
        <ele>743.4</ele>
        <time>2019-05-28T11:50:36Z</time>
      </trkpt>
      <trkpt lat="40.5249240" lon="-3.8938970">
        <ele>742.8</ele>
        <time>2019-05-28T11:50:38Z</time>
      </trkpt>
      <trkpt lat="40.5248770" lon="-3.8942790">
        <ele>742.2</ele>
        <time>2019-05-28T11:50:41Z</time>
      </trkpt>
      <trkpt lat="40.5248490" lon="-3.8944040">
        <ele>742.2</ele>
        <time>2019-05-28T11:50:42Z</time>
      </trkpt>
      <trkpt lat="40.5247220" lon="-3.8947760">
        <ele>740.6</ele>
        <time>2019-05-28T11:50:45Z</time>
      </trkpt>
      <trkpt lat="40.5245930" lon="-3.8949990">
        <ele>739.0</ele>
        <time>2019-05-28T11:50:47Z</time>
      </trkpt>
      <trkpt lat="40.5244410" lon="-3.8952010">
        <ele>737.8</ele>
        <time>2019-05-28T11:50:49Z</time>
      </trkpt>
      <trkpt lat="40.5242770" lon="-3.8953780">
        <ele>736.4</ele>
        <time>2019-05-28T11:50:51Z</time>
      </trkpt>
      <trkpt lat="40.5241090" lon="-3.8955460">
        <ele>734.6</ele>
        <time>2019-05-28T11:50:53Z</time>
      </trkpt>
      <trkpt lat="40.5239380" lon="-3.8957120">
        <ele>733.4</ele>
        <time>2019-05-28T11:50:55Z</time>
      </trkpt>
      <trkpt lat="40.5237670" lon="-3.8958820">
        <ele>732.2</ele>
        <time>2019-05-28T11:50:57Z</time>
      </trkpt>
      <trkpt lat="40.5235130" lon="-3.8961440">
        <ele>731.2</ele>
        <time>2019-05-28T11:51:00Z</time>
      </trkpt>
      <trkpt lat="40.5234280" lon="-3.8962300">
        <ele>731.0</ele>
        <time>2019-05-28T11:51:01Z</time>
      </trkpt>
      <trkpt lat="40.5230260" lon="-3.8966340">
        <ele>729.8</ele>
        <time>2019-05-28T11:51:06Z</time>
      </trkpt>
      <trkpt lat="40.5225460" lon="-3.8971380">
        <ele>729.6</ele>
        <time>2019-05-28T11:51:13Z</time>
      </trkpt>
      <trkpt lat="40.5222340" lon="-3.8974360">
        <ele>731.0</ele>
        <time>2019-05-28T11:51:18Z</time>
      </trkpt>
      <trkpt lat="40.5221090" lon="-3.8975560">
        <ele>731.6</ele>
        <time>2019-05-28T11:51:20Z</time>
      </trkpt>
      <trkpt lat="40.5219870" lon="-3.8976880">
        <ele>732.0</ele>
        <time>2019-05-28T11:51:22Z</time>
      </trkpt>
      <trkpt lat="40.5218540" lon="-3.8979300">
        <ele>732.8</ele>
        <time>2019-05-28T11:51:25Z</time>
      </trkpt>
      <trkpt lat="40.5218670" lon="-3.8981510">
        <ele>733.2</ele>
        <time>2019-05-28T11:51:27Z</time>
      </trkpt>
      <trkpt lat="40.5217900" lon="-3.8984700">
        <ele>734.2</ele>
        <time>2019-05-28T11:51:30Z</time>
      </trkpt>
      <trkpt lat="40.5217580" lon="-3.8985650">
        <ele>734.2</ele>
        <time>2019-05-28T11:51:31Z</time>
      </trkpt>
      <trkpt lat="40.5217240" lon="-3.8986560">
        <ele>734.4</ele>
        <time>2019-05-28T11:51:32Z</time>
      </trkpt>
      <trkpt lat="40.5216530" lon="-3.8988360">
        <ele>734.4</ele>
        <time>2019-05-28T11:51:34Z</time>
      </trkpt>
      <trkpt lat="40.5215910" lon="-3.8991330">
        <ele>734.6</ele>
        <time>2019-05-28T11:51:37Z</time>
      </trkpt>
      <trkpt lat="40.5215340" lon="-3.8998590">
        <ele>734.2</ele>
        <time>2019-05-28T11:51:44Z</time>
      </trkpt>
      <trkpt lat="40.5214650" lon="-3.9005800">
        <ele>734.0</ele>
        <time>2019-05-28T11:51:51Z</time>
      </trkpt>
      <trkpt lat="40.5213870" lon="-3.9013410">
        <ele>734.6</ele>
        <time>2019-05-28T11:51:59Z</time>
      </trkpt>
      <trkpt lat="40.5213520" lon="-3.9015290">
        <ele>735.2</ele>
        <time>2019-05-28T11:52:01Z</time>
      </trkpt>
      <trkpt lat="40.5212820" lon="-3.9018140">
        <ele>735.8</ele>
        <time>2019-05-28T11:52:04Z</time>
      </trkpt>
      <trkpt lat="40.5211890" lon="-3.9021920">
        <ele>736.2</ele>
        <time>2019-05-28T11:52:08Z</time>
      </trkpt>
      <trkpt lat="40.5211570" lon="-3.9022880">
        <ele>736.2</ele>
        <time>2019-05-28T11:52:09Z</time>
      </trkpt>
      <trkpt lat="40.5209490" lon="-3.9027610">
        <ele>736.6</ele>
        <time>2019-05-28T11:52:15Z</time>
      </trkpt>
      <trkpt lat="40.5211030" lon="-3.9030060">
        <ele>736.8</ele>
        <time>2019-05-28T11:52:21Z</time>
      </trkpt>
      <trkpt lat="40.5211320" lon="-3.9030550">
        <ele>736.8</ele>
        <time>2019-05-28T11:52:22Z</time>
      </trkpt>
      <trkpt lat="40.5209320" lon="-3.9033430">
        <ele>736.8</ele>
        <time>2019-05-28T11:52:28Z</time>
      </trkpt>
      <trkpt lat="40.5206960" lon="-3.9035180">
        <ele>736.8</ele>
        <time>2019-05-28T11:52:32Z</time>
      </trkpt>
      <trkpt lat="40.5207290" lon="-3.9037090">
        <ele>735.2</ele>
        <time>2019-05-28T11:52:35Z</time>
      </trkpt>
      <trkpt lat="40.5207760" lon="-3.9037780">
        <ele>734.8</ele>
        <time>2019-05-28T11:52:36Z</time>
      </trkpt>
      <trkpt lat="40.5209260" lon="-3.9040230">
        <ele>734.0</ele>
        <time>2019-05-28T11:52:39Z</time>
      </trkpt>
      <trkpt lat="40.5210840" lon="-3.9043160">
        <ele>733.4</ele>
        <time>2019-05-28T11:52:42Z</time>
      </trkpt>
      <trkpt lat="40.5211400" lon="-3.9044130">
        <ele>732.8</ele>
        <time>2019-05-28T11:52:43Z</time>
      </trkpt>
      <trkpt lat="40.5212400" lon="-3.9045960">
        <ele>732.0</ele>
        <time>2019-05-28T11:52:45Z</time>
      </trkpt>
      <trkpt lat="40.5212950" lon="-3.9046520">
        <ele>731.2</ele>
        <time>2019-05-28T11:52:46Z</time>
      </trkpt>
      <trkpt lat="40.5215870" lon="-3.9045320">
        <ele>730.6</ele>
        <time>2019-05-28T11:52:52Z</time>
      </trkpt>
      <trkpt lat="40.5218230" lon="-3.9043920">
        <ele>731.0</ele>
        <time>2019-05-28T11:52:57Z</time>
      </trkpt>
      <trkpt lat="40.5220130" lon="-3.9043680">
        <ele>732.0</ele>
        <time>2019-05-28T11:53:00Z</time>
      </trkpt>
      <trkpt lat="40.5222410" lon="-3.9044610">
        <ele>732.0</ele>
        <time>2019-05-28T11:53:03Z</time>
      </trkpt>
      <trkpt lat="40.5225050" lon="-3.9048390">
        <ele>732.0</ele>
        <time>2019-05-28T11:53:07Z</time>
      </trkpt>
      <trkpt lat="40.5227910" lon="-3.9053890">
        <ele>730.0</ele>
        <time>2019-05-28T11:53:12Z</time>
      </trkpt>
      <trkpt lat="40.5229010" lon="-3.9055950">
        <ele>729.0</ele>
        <time>2019-05-28T11:53:14Z</time>
      </trkpt>
      <trkpt lat="40.5230930" lon="-3.9059900">
        <ele>728.0</ele>
        <time>2019-05-28T11:53:18Z</time>
      </trkpt>
      <trkpt lat="40.5233980" lon="-3.9066430">
        <ele>728.0</ele>
        <time>2019-05-28T11:53:25Z</time>
      </trkpt>
      <trkpt lat="40.5237150" lon="-3.9072330">
        <ele>728.2</ele>
        <time>2019-05-28T11:53:31Z</time>
      </trkpt>
      <trkpt lat="40.5241310" lon="-3.9078640">
        <ele>727.4</ele>
        <time>2019-05-28T11:53:37Z</time>
      </trkpt>
      <trkpt lat="40.5242070" lon="-3.9079630">
        <ele>726.6</ele>
        <time>2019-05-28T11:53:38Z</time>
      </trkpt>
      <trkpt lat="40.5243690" lon="-3.9081510">
        <ele>725.2</ele>
        <time>2019-05-28T11:53:40Z</time>
      </trkpt>
      <trkpt lat="40.5245380" lon="-3.9083260">
        <ele>723.8</ele>
        <time>2019-05-28T11:53:42Z</time>
      </trkpt>
      <trkpt lat="40.5247060" lon="-3.9085010">
        <ele>722.4</ele>
        <time>2019-05-28T11:53:44Z</time>
      </trkpt>
      <trkpt lat="40.5249360" lon="-3.9087750">
        <ele>721.0</ele>
        <time>2019-05-28T11:53:47Z</time>
      </trkpt>
      <trkpt lat="40.5253040" lon="-3.9091380">
        <ele>719.8</ele>
        <time>2019-05-28T11:53:51Z</time>
      </trkpt>
      <trkpt lat="40.5255380" lon="-3.9092860">
        <ele>718.4</ele>
        <time>2019-05-28T11:53:53Z</time>
      </trkpt>
      <trkpt lat="40.5256580" lon="-3.9093410">
        <ele>717.6</ele>
        <time>2019-05-28T11:53:54Z</time>
      </trkpt>
      <trkpt lat="40.5257950" lon="-3.9093740">
        <ele>716.2</ele>
        <time>2019-05-28T11:53:55Z</time>
      </trkpt>
      <trkpt lat="40.5259360" lon="-3.9093920">
        <ele>714.8</ele>
        <time>2019-05-28T11:53:56Z</time>
      </trkpt>
      <trkpt lat="40.5260710" lon="-3.9094050">
        <ele>713.4</ele>
        <time>2019-05-28T11:53:57Z</time>
      </trkpt>
      <trkpt lat="40.5261940" lon="-3.9094180">
        <ele>711.4</ele>
        <time>2019-05-28T11:53:58Z</time>
      </trkpt>
      <trkpt lat="40.5262910" lon="-3.9094350">
        <ele>709.6</ele>
        <time>2019-05-28T11:53:59Z</time>
      </trkpt>
      <trkpt lat="40.5263750" lon="-3.9094580">
        <ele>708.4</ele>
        <time>2019-05-28T11:54:00Z</time>
      </trkpt>
      <trkpt lat="40.5264420" lon="-3.9094890">
        <ele>707.4</ele>
        <time>2019-05-28T11:54:01Z</time>
      </trkpt>
      <trkpt lat="40.5241290" lon="-3.9076720">
        <ele>663.0</ele>
        <time>2019-05-28T07:28:41Z</time>
      </trkpt>
      <trkpt lat="40.5239730" lon="-3.9074220">
        <ele>663.4</ele>
        <time>2019-05-28T07:28:46Z</time>
      </trkpt>
      <trkpt lat="40.5238310" lon="-3.9072360">
        <ele>663.8</ele>
        <time>2019-05-28T07:28:50Z</time>
      </trkpt>
      <trkpt lat="40.5237960" lon="-3.9071880">
        <ele>664.2</ele>
        <time>2019-05-28T07:28:51Z</time>
      </trkpt>
      <trkpt lat="40.5237640" lon="-3.9071410">
        <ele>664.4</ele>
        <time>2019-05-28T07:28:52Z</time>
      </trkpt>
      <trkpt lat="40.5237020" lon="-3.9070370">
        <ele>665.4</ele>
        <time>2019-05-28T07:28:54Z</time>
      </trkpt>
      <trkpt lat="40.5236040" lon="-3.9069130">
        <ele>666.4</ele>
        <time>2019-05-28T07:28:57Z</time>
      </trkpt>
      <trkpt lat="40.5235440" lon="-3.9068170">
        <ele>665.4</ele>
        <time>2019-05-28T07:28:59Z</time>
      </trkpt>
      <trkpt lat="40.5232970" lon="-3.9063810">
        <ele>666.6</ele>
        <time>2019-05-28T07:29:07Z</time>
      </trkpt>
      <trkpt lat="40.5229920" lon="-3.9057570">
        <ele>667.6</ele>
        <time>2019-05-28T07:29:17Z</time>
      </trkpt>
      <trkpt lat="40.5228210" lon="-3.9054260">
        <ele>667.8</ele>
        <time>2019-05-28T07:29:22Z</time>
      </trkpt>
      <trkpt lat="40.5225000" lon="-3.9048020">
        <ele>668.0</ele>
        <time>2019-05-28T07:29:31Z</time>
      </trkpt>
      <trkpt lat="40.5224610" lon="-3.9047400">
        <ele>668.0</ele>
        <time>2019-05-28T07:29:32Z</time>
      </trkpt>
      <trkpt lat="40.5222490" lon="-3.9045030">
        <ele>668.4</ele>
        <time>2019-05-28T07:29:37Z</time>
      </trkpt>
      <trkpt lat="40.5222030" lon="-3.9044660">
        <ele>668.6</ele>
        <time>2019-05-28T07:29:38Z</time>
      </trkpt>
      <trkpt lat="40.5221530" lon="-3.9044350">
        <ele>669.0</ele>
        <time>2019-05-28T07:29:39Z</time>
      </trkpt>
      <trkpt lat="40.5219990" lon="-3.9043930">
        <ele>669.6</ele>
        <time>2019-05-28T07:29:42Z</time>
      </trkpt>
      <trkpt lat="40.5218420" lon="-3.9044180">
        <ele>670.8</ele>
        <time>2019-05-28T07:29:45Z</time>
      </trkpt>
      <trkpt lat="40.5217340" lon="-3.9044650">
        <ele>671.4</ele>
        <time>2019-05-28T07:29:47Z</time>
      </trkpt>
      <trkpt lat="40.5216280" lon="-3.9045250">
        <ele>672.0</ele>
        <time>2019-05-28T07:29:49Z</time>
      </trkpt>
      <trkpt lat="40.5215730" lon="-3.9045650">
        <ele>672.2</ele>
        <time>2019-05-28T07:29:50Z</time>
      </trkpt>
      <trkpt lat="40.5214210" lon="-3.9046870">
        <ele>672.4</ele>
        <time>2019-05-28T07:29:53Z</time>
      </trkpt>
      <trkpt lat="40.5212750" lon="-3.9046050">
        <ele>672.4</ele>
        <time>2019-05-28T07:29:56Z</time>
      </trkpt>
      <trkpt lat="40.5211960" lon="-3.9044860">
        <ele>672.4</ele>
        <time>2019-05-28T07:29:58Z</time>
      </trkpt>
      <trkpt lat="40.5208530" lon="-3.9038630">
        <ele>671.4</ele>
        <time>2019-05-28T07:30:08Z</time>
      </trkpt>
      <trkpt lat="40.5207690" lon="-3.9036910">
        <ele>671.6</ele>
        <time>2019-05-28T07:30:11Z</time>
      </trkpt>
      <trkpt lat="40.5207390" lon="-3.9036410">
        <ele>671.8</ele>
        <time>2019-05-28T07:30:12Z</time>
      </trkpt>
      <trkpt lat="40.5205350" lon="-3.9036420">
        <ele>672.8</ele>
        <time>2019-05-28T07:30:17Z</time>
      </trkpt>
      <trkpt lat="40.5203930" lon="-3.9036720">
        <ele>673.8</ele>
        <time>2019-05-28T07:30:20Z</time>
      </trkpt>
      <trkpt lat="40.5204070" lon="-3.9035430">
        <ele>675.0</ele>
        <time>2019-05-28T07:30:23Z</time>
      </trkpt>
      <trkpt lat="40.5204740" lon="-3.9034360">
        <ele>675.6</ele>
        <time>2019-05-28T07:30:25Z</time>
      </trkpt>
      <trkpt lat="40.5206000" lon="-3.9032560">
        <ele>676.0</ele>
        <time>2019-05-28T07:30:28Z</time>
      </trkpt>
      <trkpt lat="40.5207340" lon="-3.9030750">
        <ele>676.0</ele>
        <time>2019-05-28T07:30:31Z</time>
      </trkpt>
      <trkpt lat="40.5210760" lon="-3.9025200">
        <ele>676.4</ele>
        <time>2019-05-28T07:30:40Z</time>
      </trkpt>
      <trkpt lat="40.5212450" lon="-3.9021360">
        <ele>676.8</ele>
        <time>2019-05-28T07:30:46Z</time>
      </trkpt>
      <trkpt lat="40.5213140" lon="-3.9019400">
        <ele>677.0</ele>
        <time>2019-05-28T07:30:49Z</time>
      </trkpt>
      <trkpt lat="40.5213380" lon="-3.9017960">
        <ele>677.2</ele>
        <time>2019-05-28T07:30:51Z</time>
      </trkpt>
      <trkpt lat="40.5213980" lon="-3.9010790">
        <ele>677.2</ele>
        <time>2019-05-28T07:31:00Z</time>
      </trkpt>
      <trkpt lat="40.5214620" lon="-3.9006620">
        <ele>676.0</ele>
        <time>2019-05-28T07:31:05Z</time>
      </trkpt>
      <trkpt lat="40.5215040" lon="-3.9003090">
        <ele>675.6</ele>
        <time>2019-05-28T07:31:09Z</time>
      </trkpt>
      <trkpt lat="40.5215540" lon="-3.8997610">
        <ele>674.2</ele>
        <time>2019-05-28T07:31:15Z</time>
      </trkpt>
      <trkpt lat="40.5216290" lon="-3.8989980">
        <ele>673.6</ele>
        <time>2019-05-28T07:31:24Z</time>
      </trkpt>
      <trkpt lat="40.5216300" lon="-3.8988440">
        <ele>673.6</ele>
        <time>2019-05-28T07:31:26Z</time>
      </trkpt>
      <trkpt lat="40.5214600" lon="-3.8986590">
        <ele>674.0</ele>
        <time>2019-05-28T07:31:30Z</time>
      </trkpt>
      <trkpt lat="40.5214130" lon="-3.8986220">
        <ele>674.0</ele>
        <time>2019-05-28T07:31:31Z</time>
      </trkpt>
      <trkpt lat="40.5213020" lon="-3.8985100">
        <ele>674.6</ele>
        <time>2019-05-28T07:31:34Z</time>
      </trkpt>
      <trkpt lat="40.5212750" lon="-3.8984690">
        <ele>675.0</ele>
        <time>2019-05-28T07:31:35Z</time>
      </trkpt>
      <trkpt lat="40.5212590" lon="-3.8984230">
        <ele>675.2</ele>
        <time>2019-05-28T07:31:36Z</time>
      </trkpt>
      <trkpt lat="40.5213390" lon="-3.8982140">
        <ele>676.2</ele>
        <time>2019-05-28T07:31:40Z</time>
      </trkpt>
      <trkpt lat="40.5213220" lon="-3.8978570">
        <ele>676.4</ele>
        <time>2019-05-28T07:31:46Z</time>
      </trkpt>
      <trkpt lat="40.5212070" lon="-3.8976700">
        <ele>676.6</ele>
        <time>2019-05-28T07:31:49Z</time>
      </trkpt>
      <trkpt lat="40.5210880" lon="-3.8974770">
        <ele>676.6</ele>
        <time>2019-05-28T07:31:52Z</time>
      </trkpt>
      <trkpt lat="40.5209720" lon="-3.8972850">
        <ele>677.0</ele>
        <time>2019-05-28T07:31:55Z</time>
      </trkpt>
      <trkpt lat="40.5208580" lon="-3.8970920">
        <ele>678.2</ele>
        <time>2019-05-28T07:31:58Z</time>
      </trkpt>
      <trkpt lat="40.5207530" lon="-3.8969160">
        <ele>679.4</ele>
        <time>2019-05-28T07:32:01Z</time>
      </trkpt>
      <trkpt lat="40.5206540" lon="-3.8967680">
        <ele>680.4</ele>
        <time>2019-05-28T07:32:04Z</time>
      </trkpt>
      <trkpt lat="40.5205460" lon="-3.8966010">
        <ele>681.2</ele>
        <time>2019-05-28T07:32:08Z</time>
      </trkpt>
      <trkpt lat="40.5205230" lon="-3.8965640">
        <ele>681.8</ele>
        <time>2019-05-28T07:32:09Z</time>
      </trkpt>
      <trkpt lat="40.5204720" lon="-3.8964860">
        <ele>682.6</ele>
        <time>2019-05-28T07:32:11Z</time>
      </trkpt>
      <trkpt lat="40.5204470" lon="-3.8964450">
        <ele>682.8</ele>
        <time>2019-05-28T07:32:12Z</time>
      </trkpt>
      <trkpt lat="40.5203380" lon="-3.8962590">
        <ele>683.8</ele>
        <time>2019-05-28T07:32:16Z</time>
      </trkpt>
      <trkpt lat="40.5202100" lon="-3.8960270">
        <ele>684.4</ele>
        <time>2019-05-28T07:32:20Z</time>
      </trkpt>
      <trkpt lat="40.5200710" lon="-3.8957810">
        <ele>684.6</ele>
        <time>2019-05-28T07:32:25Z</time>
      </trkpt>
      <trkpt lat="40.5199830" lon="-3.8956220">
        <ele>685.0</ele>
        <time>2019-05-28T07:32:29Z</time>
      </trkpt>
      <trkpt lat="40.5197870" lon="-3.8953020">
        <ele>685.4</ele>
        <time>2019-05-28T07:32:35Z</time>
      </trkpt>
      <trkpt lat="40.5195630" lon="-3.8949840">
        <ele>685.8</ele>
        <time>2019-05-28T07:32:41Z</time>
      </trkpt>
      <trkpt lat="40.5193480" lon="-3.8946680">
        <ele>686.0</ele>
        <time>2019-05-28T07:32:48Z</time>
      </trkpt>
      <trkpt lat="40.5192360" lon="-3.8944840">
        <ele>686.8</ele>
        <time>2019-05-28T07:32:52Z</time>
      </trkpt>
      <trkpt lat="40.5191510" lon="-3.8943480">
        <ele>688.2</ele>
        <time>2019-05-28T07:32:55Z</time>
      </trkpt>
      <trkpt lat="40.5190520" lon="-3.8941850">
        <ele>689.0</ele>
        <time>2019-05-28T07:32:58Z</time>
      </trkpt>
      <trkpt lat="40.5189380" lon="-3.8939790">
        <ele>690.4</ele>
        <time>2019-05-28T07:33:02Z</time>
      </trkpt>
      <trkpt lat="40.5188580" lon="-3.8938110">
        <ele>691.0</ele>
        <time>2019-05-28T07:33:05Z</time>
      </trkpt>
      <trkpt lat="40.5188010" lon="-3.8937100">
        <ele>691.6</ele>
        <time>2019-05-28T07:33:07Z</time>
      </trkpt>
      <trkpt lat="40.5187240" lon="-3.8935690">
        <ele>692.4</ele>
        <time>2019-05-28T07:33:10Z</time>
      </trkpt>
      <trkpt lat="40.5186730" lon="-3.8934720">
        <ele>692.6</ele>
        <time>2019-05-28T07:33:12Z</time>
      </trkpt>
      <trkpt lat="40.5185750" lon="-3.8932910">
        <ele>693.8</ele>
        <time>2019-05-28T07:33:16Z</time>
      </trkpt>
      <trkpt lat="40.5184640" lon="-3.8930850">
        <ele>694.8</ele>
        <time>2019-05-28T07:33:20Z</time>
      </trkpt>
      <trkpt lat="40.5182810" lon="-3.8927750">
        <ele>696.2</ele>
        <time>2019-05-28T07:33:26Z</time>
      </trkpt>
      <trkpt lat="40.5181970" lon="-3.8926140">
        <ele>697.4</ele>
        <time>2019-05-28T07:33:29Z</time>
      </trkpt>
      <trkpt lat="40.5181390" lon="-3.8925060">
        <ele>697.8</ele>
        <time>2019-05-28T07:33:31Z</time>
      </trkpt>
      <trkpt lat="40.5180200" lon="-3.8923090">
        <ele>698.8</ele>
        <time>2019-05-28T07:33:35Z</time>
      </trkpt>
      <trkpt lat="40.5179040" lon="-3.8920830">
        <ele>700.0</ele>
        <time>2019-05-28T07:33:39Z</time>
      </trkpt>
      <trkpt lat="40.5178730" lon="-3.8919080">
        <ele>701.0</ele>
        <time>2019-05-28T07:33:42Z</time>
      </trkpt>
      <trkpt lat="40.5178740" lon="-3.8918500">
        <ele>701.2</ele>
        <time>2019-05-28T07:33:43Z</time>
      </trkpt>
      <trkpt lat="40.5178730" lon="-3.8917940">
        <ele>701.4</ele>
        <time>2019-05-28T07:33:44Z</time>
      </trkpt>
      <trkpt lat="40.5177890" lon="-3.8916600">
        <ele>702.2</ele>
        <time>2019-05-28T07:33:47Z</time>
      </trkpt>
      <trkpt lat="40.5175700" lon="-3.8914750">
        <ele>703.0</ele>
        <time>2019-05-28T07:33:52Z</time>
      </trkpt>
      <trkpt lat="40.5175030" lon="-3.8913580">
        <ele>703.0</ele>
        <time>2019-05-28T07:33:54Z</time>
      </trkpt>
      <trkpt lat="40.5173370" lon="-3.8910580">
        <ele>703.2</ele>
        <time>2019-05-28T07:33:59Z</time>
      </trkpt>
      <trkpt lat="40.5173390" lon="-3.8908320">
        <ele>703.2</ele>
        <time>2019-05-28T07:34:02Z</time>
      </trkpt>
      <trkpt lat="40.5175340" lon="-3.8905960">
        <ele>703.2</ele>
        <time>2019-05-28T07:34:06Z</time>
      </trkpt>
      <trkpt lat="40.5175890" lon="-3.8905360">
        <ele>703.0</ele>
        <time>2019-05-28T07:34:07Z</time>
      </trkpt>
      <trkpt lat="40.5179910" lon="-3.8900890">
        <ele>703.0</ele>
        <time>2019-05-28T07:34:14Z</time>
      </trkpt>
      <trkpt lat="40.5184150" lon="-3.8896500">
        <ele>701.8</ele>
        <time>2019-05-28T07:34:21Z</time>
      </trkpt>
      <trkpt lat="40.5188830" lon="-3.8891540">
        <ele>701.0</ele>
        <time>2019-05-28T07:34:29Z</time>
      </trkpt>
      <trkpt lat="40.5192740" lon="-3.8887220">
        <ele>701.0</ele>
        <time>2019-05-28T07:34:36Z</time>
      </trkpt>
      <trkpt lat="40.5193780" lon="-3.8885920">
        <ele>701.2</ele>
        <time>2019-05-28T07:34:38Z</time>
      </trkpt>
      <trkpt lat="40.5195700" lon="-3.8883000">
        <ele>701.2</ele>
        <time>2019-05-28T07:34:42Z</time>
      </trkpt>
      <trkpt lat="40.5197820" lon="-3.8879200">
        <ele>700.8</ele>
        <time>2019-05-28T07:34:47Z</time>
      </trkpt>
      <trkpt lat="40.5198830" lon="-3.8877140">
        <ele>700.8</ele>
        <time>2019-05-28T07:34:50Z</time>
      </trkpt>
      <trkpt lat="40.5197710" lon="-3.8872990">
        <ele>701.4</ele>
        <time>2019-05-28T07:34:58Z</time>
      </trkpt>
      <trkpt lat="40.5197750" lon="-3.8871500">
        <ele>702.4</ele>
        <time>2019-05-28T07:35:03Z</time>
      </trkpt>
      <trkpt lat="40.5197810" lon="-3.8871000">
        <ele>702.8</ele>
        <time>2019-05-28T07:35:07Z</time>
      </trkpt>
      <trkpt lat="40.5197830" lon="-3.8870580">
        <ele>702.6</ele>
        <time>2019-05-28T07:35:10Z</time>
      </trkpt>
      <trkpt lat="40.5197770" lon="-3.8870400">
        <ele>702.8</ele>
        <time>2019-05-28T07:35:13Z</time>
      </trkpt>
      <trkpt lat="40.5197730" lon="-3.8870280">
        <ele>702.8</ele>
        <time>2019-05-28T07:35:14Z</time>
      </trkpt>
      <trkpt lat="40.5197640" lon="-3.8870110">
        <ele>702.8</ele>
        <time>2019-05-28T07:35:15Z</time>
      </trkpt>
      <trkpt lat="40.5197200" lon="-3.8868520">
        <ele>703.0</ele>
        <time>2019-05-28T07:35:24Z</time>
      </trkpt>
      <trkpt lat="40.5197280" lon="-3.8868320">
        <ele>703.0</ele>
        <time>2019-05-28T07:35:25Z</time>
      </trkpt>
      <trkpt lat="40.5197630" lon="-3.8867820">
        <ele>703.0</ele>
        <time>2019-05-28T07:35:28Z</time>
      </trkpt>
      <trkpt lat="40.5198000" lon="-3.8867330">
        <ele>703.2</ele>
        <time>2019-05-28T07:35:31Z</time>
      </trkpt>
      <trkpt lat="40.5199160" lon="-3.8867700">
        <ele>703.4</ele>
        <time>2019-05-28T07:35:35Z</time>
      </trkpt>
      <trkpt lat="40.5201920" lon="-3.8867360">
        <ele>703.2</ele>
        <time>2019-05-28T07:35:40Z</time>
      </trkpt>
      <trkpt lat="40.5203020" lon="-3.8867550">
        <ele>703.0</ele>
        <time>2019-05-28T07:35:43Z</time>
      </trkpt>
      <trkpt lat="40.5203360" lon="-3.8867510">
        <ele>702.8</ele>
        <time>2019-05-28T07:35:44Z</time>
      </trkpt>
      <trkpt lat="40.5204180" lon="-3.8866820">
        <ele>702.6</ele>
        <time>2019-05-28T07:35:46Z</time>
      </trkpt>
      <trkpt lat="40.5205080" lon="-3.8865590">
        <ele>702.2</ele>
        <time>2019-05-28T07:35:48Z</time>
      </trkpt>
      <trkpt lat="40.5207640" lon="-3.8861050">
        <ele>701.2</ele>
        <time>2019-05-28T07:35:54Z</time>
      </trkpt>
      <trkpt lat="40.5208570" lon="-3.8858950">
        <ele>700.2</ele>
        <time>2019-05-28T07:35:57Z</time>
      </trkpt>
      <trkpt lat="40.5207980" lon="-3.8855590">
        <ele>699.6</ele>
        <time>2019-05-28T07:36:01Z</time>
      </trkpt>
      <trkpt lat="40.5208480" lon="-3.8852080">
        <ele>699.6</ele>
        <time>2019-05-28T07:36:05Z</time>
      </trkpt>
      <trkpt lat="40.5213670" lon="-3.8853510">
        <ele>699.8</ele>
        <time>2019-05-28T07:36:13Z</time>
      </trkpt>
      <trkpt lat="40.5216420" lon="-3.8856110">
        <ele>699.8</ele>
        <time>2019-05-28T07:36:18Z</time>
      </trkpt>
      <trkpt lat="40.5219180" lon="-3.8857210">
        <ele>699.8</ele>
        <time>2019-05-28T07:36:22Z</time>
      </trkpt>
      <trkpt lat="40.5221250" lon="-3.8857800">
        <ele>700.0</ele>
        <time>2019-05-28T07:36:25Z</time>
      </trkpt>
      <trkpt lat="40.5222630" lon="-3.8858100">
        <ele>700.2</ele>
        <time>2019-05-28T07:36:27Z</time>
      </trkpt>
      <trkpt lat="40.5223950" lon="-3.8858350">
        <ele>700.8</ele>
        <time>2019-05-28T07:36:29Z</time>
      </trkpt>
      <trkpt lat="40.5225890" lon="-3.8858660">
        <ele>701.8</ele>
        <time>2019-05-28T07:36:32Z</time>
      </trkpt>
      <trkpt lat="40.5227850" lon="-3.8858940">
        <ele>702.8</ele>
        <time>2019-05-28T07:36:35Z</time>
      </trkpt>
      <trkpt lat="40.5228500" lon="-3.8859030">
        <ele>703.0</ele>
        <time>2019-05-28T07:36:36Z</time>
      </trkpt>
      <trkpt lat="40.5231580" lon="-3.8859370">
        <ele>704.2</ele>
        <time>2019-05-28T07:36:41Z</time>
      </trkpt>
      <trkpt lat="40.5235240" lon="-3.8860190">
        <ele>705.2</ele>
        <time>2019-05-28T07:36:47Z</time>
      </trkpt>
      <trkpt lat="40.5238600" lon="-3.8861020">
        <ele>706.2</ele>
        <time>2019-05-28T07:36:52Z</time>
      </trkpt>
      <trkpt lat="40.5243830" lon="-3.8862700">
        <ele>706.4</ele>
        <time>2019-05-28T07:36:59Z</time>
      </trkpt>
      <trkpt lat="40.5249900" lon="-3.8863170">
        <ele>705.8</ele>
        <time>2019-05-28T07:37:06Z</time>
      </trkpt>
      <trkpt lat="40.5255910" lon="-3.8863460">
        <ele>705.4</ele>
        <time>2019-05-28T07:37:13Z</time>
      </trkpt>
      <trkpt lat="40.5261400" lon="-3.8863850">
        <ele>705.0</ele>
        <time>2019-05-28T07:37:19Z</time>
      </trkpt>
      <trkpt lat="40.5265290" lon="-3.8864040">
        <ele>705.0</ele>
        <time>2019-05-28T07:37:23Z</time>
      </trkpt>
      <trkpt lat="40.5269350" lon="-3.8864200">
        <ele>704.4</ele>
        <time>2019-05-28T07:37:27Z</time>
      </trkpt>
      <trkpt lat="40.5272450" lon="-3.8864260">
        <ele>702.4</ele>
        <time>2019-05-28T07:37:30Z</time>
      </trkpt>
      <trkpt lat="40.5274560" lon="-3.8864380">
        <ele>701.4</ele>
        <time>2019-05-28T07:37:32Z</time>
      </trkpt>
      <trkpt lat="40.5277680" lon="-3.8864570">
        <ele>700.0</ele>
        <time>2019-05-28T07:37:35Z</time>
      </trkpt>
      <trkpt lat="40.5280810" lon="-3.8864840">
        <ele>698.8</ele>
        <time>2019-05-28T07:37:38Z</time>
      </trkpt>
      <trkpt lat="40.5286990" lon="-3.8865460">
        <ele>697.8</ele>
        <time>2019-05-28T07:37:44Z</time>
      </trkpt>
      <trkpt lat="40.5288010" lon="-3.8865570">
        <ele>697.6</ele>
        <time>2019-05-28T07:37:45Z</time>
      </trkpt>
      <trkpt lat="40.5294110" lon="-3.8866250">
        <ele>696.6</ele>
        <time>2019-05-28T07:37:51Z</time>
      </trkpt>
      <trkpt lat="40.5300130" lon="-3.8867080">
        <ele>695.8</ele>
        <time>2019-05-28T07:37:57Z</time>
      </trkpt>
      <trkpt lat="40.5305030" lon="-3.8867970">
        <ele>695.6</ele>
        <time>2019-05-28T07:38:02Z</time>
      </trkpt>
      <trkpt lat="40.5310590" lon="-3.8868800">
        <ele>695.2</ele>
        <time>2019-05-28T07:38:08Z</time>
      </trkpt>
      <trkpt lat="40.5316730" lon="-3.8870240">
        <ele>695.0</ele>
        <time>2019-05-28T07:38:15Z</time>
      </trkpt>
      <trkpt lat="40.5322470" lon="-3.8871950">
        <ele>695.6</ele>
        <time>2019-05-28T07:38:22Z</time>
      </trkpt>
      <trkpt lat="40.5328090" lon="-3.8873840">
        <ele>695.8</ele>
        <time>2019-05-28T07:38:29Z</time>
      </trkpt>
      <trkpt lat="40.5328890" lon="-3.8874130">
        <ele>696.0</ele>
        <time>2019-05-28T07:38:30Z</time>
      </trkpt>
      <trkpt lat="40.5334530" lon="-3.8876400">
        <ele>696.6</ele>
        <time>2019-05-28T07:38:37Z</time>
      </trkpt>
      <trkpt lat="40.5336130" lon="-3.8877100">
        <ele>696.8</ele>
        <time>2019-05-28T07:38:39Z</time>
      </trkpt>
      <trkpt lat="40.5341670" lon="-3.8879770">
        <ele>697.4</ele>
        <time>2019-05-28T07:38:46Z</time>
      </trkpt>
      <trkpt lat="40.5347090" lon="-3.8882720">
        <ele>697.6</ele>
        <time>2019-05-28T07:38:53Z</time>
      </trkpt>
      <trkpt lat="40.5352510" lon="-3.8885800">
        <ele>697.6</ele>
        <time>2019-05-28T07:39:00Z</time>
      </trkpt>
      <trkpt lat="40.5357940" lon="-3.8888540">
        <ele>697.4</ele>
        <time>2019-05-28T07:39:07Z</time>
      </trkpt>
      <trkpt lat="40.5360970" lon="-3.8889870">
        <ele>697.4</ele>
        <time>2019-05-28T07:39:11Z</time>
      </trkpt>
      <trkpt lat="40.5366170" lon="-3.8892240">
        <ele>697.6</ele>
        <time>2019-05-28T07:39:18Z</time>
      </trkpt>
      <trkpt lat="40.5371030" lon="-3.8894920">
        <ele>698.2</ele>
        <time>2019-05-28T07:39:25Z</time>
      </trkpt>
      <trkpt lat="40.5376530" lon="-3.8898320">
        <ele>698.8</ele>
        <time>2019-05-28T07:39:33Z</time>
      </trkpt>
      <trkpt lat="40.5381930" lon="-3.8901710">
        <ele>699.0</ele>
        <time>2019-05-28T07:39:41Z</time>
      </trkpt>
      <trkpt lat="40.5383970" lon="-3.8902990">
        <ele>699.0</ele>
        <time>2019-05-28T07:39:44Z</time>
      </trkpt>
      <trkpt lat="40.5388750" lon="-3.8905990">
        <ele>700.0</ele>
        <time>2019-05-28T07:39:51Z</time>
      </trkpt>
      <trkpt lat="40.5394200" lon="-3.8909470">
        <ele>700.0</ele>
        <time>2019-05-28T07:39:59Z</time>
      </trkpt>
      <trkpt lat="40.5399060" lon="-3.8912500">
        <ele>700.2</ele>
        <time>2019-05-28T07:40:06Z</time>
      </trkpt>
      <trkpt lat="40.5401860" lon="-3.8914210">
        <ele>700.8</ele>
        <time>2019-05-28T07:40:10Z</time>
      </trkpt>
      <trkpt lat="40.5406720" lon="-3.8917210">
        <ele>701.2</ele>
        <time>2019-05-28T07:40:17Z</time>
      </trkpt>
      <trkpt lat="40.5410870" lon="-3.8919770">
        <ele>701.8</ele>
        <time>2019-05-28T07:40:23Z</time>
      </trkpt>
      <trkpt lat="40.5415740" lon="-3.8922490">
        <ele>702.0</ele>
        <time>2019-05-28T07:40:30Z</time>
      </trkpt>
      <trkpt lat="40.5421190" lon="-3.8925580">
        <ele>702.6</ele>
        <time>2019-05-28T07:40:38Z</time>
      </trkpt>
      <trkpt lat="40.5426800" lon="-3.8928070">
        <ele>703.0</ele>
        <time>2019-05-28T07:40:46Z</time>
      </trkpt>
      <trkpt lat="40.5431130" lon="-3.8929530">
        <ele>703.4</ele>
        <time>2019-05-28T07:40:52Z</time>
      </trkpt>
      <trkpt lat="40.5436760" lon="-3.8931560">
        <ele>704.0</ele>
        <time>2019-05-28T07:41:00Z</time>
      </trkpt>
      <trkpt lat="40.5438170" lon="-3.8932080">
        <ele>704.4</ele>
        <time>2019-05-28T07:41:02Z</time>
      </trkpt>
      <trkpt lat="40.5443770" lon="-3.8934240">
        <ele>705.0</ele>
        <time>2019-05-28T07:41:10Z</time>
      </trkpt>
      <trkpt lat="40.5446440" lon="-3.8935320">
        <ele>705.2</ele>
        <time>2019-05-28T07:41:14Z</time>
      </trkpt>
      <trkpt lat="40.5450740" lon="-3.8937060">
        <ele>706.0</ele>
        <time>2019-05-28T07:41:21Z</time>
      </trkpt>
      <trkpt lat="40.5451370" lon="-3.8937340">
        <ele>706.4</ele>
        <time>2019-05-28T07:41:22Z</time>
      </trkpt>
      <trkpt lat="40.5453830" lon="-3.8938340">
        <ele>707.2</ele>
        <time>2019-05-28T07:41:26Z</time>
      </trkpt>
      <trkpt lat="40.5455650" lon="-3.8939160">
        <ele>708.4</ele>
        <time>2019-05-28T07:41:29Z</time>
      </trkpt>
      <trkpt lat="40.5458030" lon="-3.8940250">
        <ele>709.8</ele>
        <time>2019-05-28T07:41:33Z</time>
      </trkpt>
      <trkpt lat="40.5461000" lon="-3.8941550">
        <ele>711.2</ele>
        <time>2019-05-28T07:41:38Z</time>
      </trkpt>
      <trkpt lat="40.5462180" lon="-3.8942120">
        <ele>712.4</ele>
        <time>2019-05-28T07:41:40Z</time>
      </trkpt>
      <trkpt lat="40.5463950" lon="-3.8942900">
        <ele>713.6</ele>
        <time>2019-05-28T07:41:43Z</time>
      </trkpt>
      <trkpt lat="40.5465630" lon="-3.8943670">
        <ele>714.8</ele>
        <time>2019-05-28T07:41:46Z</time>
      </trkpt>
      <trkpt lat="40.5467710" lon="-3.8944670">
        <ele>715.8</ele>
        <time>2019-05-28T07:41:50Z</time>
      </trkpt>
      <trkpt lat="40.5469200" lon="-3.8945370">
        <ele>717.0</ele>
        <time>2019-05-28T07:41:53Z</time>
      </trkpt>
      <trkpt lat="40.5472280" lon="-3.8946670">
        <ele>718.2</ele>
        <time>2019-05-28T07:41:59Z</time>
      </trkpt>
      <trkpt lat="40.5475090" lon="-3.8947610">
        <ele>719.0</ele>
        <time>2019-05-28T07:42:04Z</time>
      </trkpt>
      <trkpt lat="40.5475630" lon="-3.8947950">
        <ele>719.2</ele>
        <time>2019-05-28T07:42:05Z</time>
      </trkpt>
      <trkpt lat="40.5477370" lon="-3.8948850">
        <ele>719.4</ele>
        <time>2019-05-28T07:42:08Z</time>
      </trkpt>
      <trkpt lat="40.5481280" lon="-3.8950580">
        <ele>719.4</ele>
        <time>2019-05-28T07:42:14Z</time>
      </trkpt>
      <trkpt lat="40.5483380" lon="-3.8951760">
        <ele>719.0</ele>
        <time>2019-05-28T07:42:17Z</time>
      </trkpt>
      <trkpt lat="40.5486520" lon="-3.8953890">
        <ele>717.8</ele>
        <time>2019-05-28T07:42:21Z</time>
      </trkpt>
      <trkpt lat="40.5487420" lon="-3.8954510">
        <ele>717.8</ele>
        <time>2019-05-28T07:42:22Z</time>
      </trkpt>
      <trkpt lat="40.5490320" lon="-3.8956380">
        <ele>716.8</ele>
        <time>2019-05-28T07:42:25Z</time>
      </trkpt>
      <trkpt lat="40.5491310" lon="-3.8956970">
        <ele>716.2</ele>
        <time>2019-05-28T07:42:26Z</time>
      </trkpt>
      <trkpt lat="40.5493190" lon="-3.8958070">
        <ele>715.2</ele>
        <time>2019-05-28T07:42:28Z</time>
      </trkpt>
      <trkpt lat="40.5494990" lon="-3.8958980">
        <ele>713.4</ele>
        <time>2019-05-28T07:42:30Z</time>
      </trkpt>
      <trkpt lat="40.5496750" lon="-3.8959690">
        <ele>712.2</ele>
        <time>2019-05-28T07:42:32Z</time>
      </trkpt>
      <trkpt lat="40.5498480" lon="-3.8960230">
        <ele>711.8</ele>
        <time>2019-05-28T07:42:34Z</time>
      </trkpt>
      <trkpt lat="40.5501600" lon="-3.8963910">
        <ele>711.8</ele>
        <time>2019-05-28T07:42:39Z</time>
      </trkpt>
      <trkpt lat="40.5503060" lon="-3.8964750">
        <ele>712.2</ele>
        <time>2019-05-28T07:42:41Z</time>
      </trkpt>
      <trkpt lat="40.5507250" lon="-3.8966910">
        <ele>713.4</ele>
        <time>2019-05-28T07:42:47Z</time>
      </trkpt>
      <trkpt lat="40.5510530" lon="-3.8968680">
        <ele>714.4</ele>
        <time>2019-05-28T07:42:52Z</time>
      </trkpt>
      <trkpt lat="40.5513190" lon="-3.8970120">
        <ele>715.6</ele>
        <time>2019-05-28T07:42:56Z</time>
      </trkpt>
      <trkpt lat="40.5515780" lon="-3.8971580">
        <ele>716.6</ele>
        <time>2019-05-28T07:43:00Z</time>
      </trkpt>
      <trkpt lat="40.5516430" lon="-3.8971930">
        <ele>716.8</ele>
        <time>2019-05-28T07:43:01Z</time>
      </trkpt>
      <trkpt lat="40.5518970" lon="-3.8973420">
        <ele>717.6</ele>
        <time>2019-05-28T07:43:05Z</time>
      </trkpt>
      <trkpt lat="40.5520850" lon="-3.8974490">
        <ele>719.0</ele>
        <time>2019-05-28T07:43:08Z</time>
      </trkpt>
      <trkpt lat="40.5521470" lon="-3.8974790">
        <ele>719.2</ele>
        <time>2019-05-28T07:43:09Z</time>
      </trkpt>
      <trkpt lat="40.5522690" lon="-3.8975400">
        <ele>719.8</ele>
        <time>2019-05-28T07:43:11Z</time>
      </trkpt>
      <trkpt lat="40.5523300" lon="-3.8975780">
        <ele>720.0</ele>
        <time>2019-05-28T07:43:12Z</time>
      </trkpt>
      <trkpt lat="40.5525820" lon="-3.8977170">
        <ele>721.0</ele>
        <time>2019-05-28T07:43:16Z</time>
      </trkpt>
      <trkpt lat="40.5527060" lon="-3.8977790">
        <ele>721.8</ele>
        <time>2019-05-28T07:43:18Z</time>
      </trkpt>
      <trkpt lat="40.5530100" lon="-3.8979360">
        <ele>723.2</ele>
        <time>2019-05-28T07:43:23Z</time>
      </trkpt>
      <trkpt lat="40.5533190" lon="-3.8980890">
        <ele>724.2</ele>
        <time>2019-05-28T07:43:28Z</time>
      </trkpt>
      <trkpt lat="40.5535710" lon="-3.8982190">
        <ele>724.8</ele>
        <time>2019-05-28T07:43:32Z</time>
      </trkpt>
      <trkpt lat="40.5537650" lon="-3.8983200">
        <ele>725.2</ele>
        <time>2019-05-28T07:43:35Z</time>
      </trkpt>
      <trkpt lat="40.5542860" lon="-3.8985950">
        <ele>725.6</ele>
        <time>2019-05-28T07:43:43Z</time>
      </trkpt>
      <trkpt lat="40.5546090" lon="-3.8987540">
        <ele>726.0</ele>
        <time>2019-05-28T07:43:48Z</time>
      </trkpt>
      <trkpt lat="40.5546740" lon="-3.8987830">
        <ele>726.2</ele>
        <time>2019-05-28T07:43:49Z</time>
      </trkpt>
      <trkpt lat="40.5551350" lon="-3.8989860">
        <ele>727.0</ele>
        <time>2019-05-28T07:43:56Z</time>
      </trkpt>
      <trkpt lat="40.5555840" lon="-3.8992130">
        <ele>728.2</ele>
        <time>2019-05-28T07:44:03Z</time>
      </trkpt>
      <trkpt lat="40.5560350" lon="-3.8994460">
        <ele>729.0</ele>
        <time>2019-05-28T07:44:10Z</time>
      </trkpt>
      <trkpt lat="40.5563610" lon="-3.8995960">
        <ele>730.2</ele>
        <time>2019-05-28T07:44:15Z</time>
      </trkpt>
      <trkpt lat="40.5569190" lon="-3.8996920">
        <ele>730.8</ele>
        <time>2019-05-28T07:44:23Z</time>
      </trkpt>
      <trkpt lat="40.5571350" lon="-3.8997140">
        <ele>731.0</ele>
        <time>2019-05-28T07:44:26Z</time>
      </trkpt>
      <trkpt lat="40.5574250" lon="-3.8998010">
        <ele>731.0</ele>
        <time>2019-05-28T07:44:30Z</time>
      </trkpt>
      <trkpt lat="40.5576310" lon="-3.8999010">
        <ele>731.0</ele>
        <time>2019-05-28T07:44:33Z</time>
      </trkpt>
      <trkpt lat="40.5576990" lon="-3.8999310">
        <ele>730.8</ele>
        <time>2019-05-28T07:44:34Z</time>
      </trkpt>
      <trkpt lat="40.5579840" lon="-3.8999910">
        <ele>730.6</ele>
        <time>2019-05-28T07:44:38Z</time>
      </trkpt>
      <trkpt lat="40.5583030" lon="-3.9002250">
        <ele>729.8</ele>
        <time>2019-05-28T07:44:43Z</time>
      </trkpt>
      <trkpt lat="40.5588280" lon="-3.9004780">
        <ele>729.8</ele>
        <time>2019-05-28T07:44:51Z</time>
      </trkpt>
      <trkpt lat="40.5591100" lon="-3.9006330">
        <ele>731.8</ele>
        <time>2019-05-28T07:44:56Z</time>
      </trkpt>
      <trkpt lat="40.5593120" lon="-3.9007780">
        <ele>733.0</ele>
        <time>2019-05-28T07:45:00Z</time>
      </trkpt>
      <trkpt lat="40.5595020" lon="-3.9009440">
        <ele>734.2</ele>
        <time>2019-05-28T07:45:04Z</time>
      </trkpt>
      <trkpt lat="40.5596380" lon="-3.9010860">
        <ele>735.2</ele>
        <time>2019-05-28T07:45:07Z</time>
      </trkpt>
      <trkpt lat="40.5598940" lon="-3.9013880">
        <ele>736.2</ele>
        <time>2019-05-28T07:45:13Z</time>
      </trkpt>
      <trkpt lat="40.5599390" lon="-3.9014380">
        <ele>736.2</ele>
        <time>2019-05-28T07:45:14Z</time>
      </trkpt>
      <trkpt lat="40.5600360" lon="-3.9015290">
        <ele>736.6</ele>
        <time>2019-05-28T07:45:16Z</time>
      </trkpt>
      <trkpt lat="40.5601490" lon="-3.9015750">
        <ele>737.2</ele>
        <time>2019-05-28T07:45:18Z</time>
      </trkpt>
      <trkpt lat="40.5602640" lon="-3.9015940">
        <ele>738.0</ele>
        <time>2019-05-28T07:45:20Z</time>
      </trkpt>
      <trkpt lat="40.5603760" lon="-3.9015950">
        <ele>738.4</ele>
        <time>2019-05-28T07:45:22Z</time>
      </trkpt>
      <trkpt lat="40.5606500" lon="-3.9015930">
        <ele>739.4</ele>
        <time>2019-05-28T07:45:27Z</time>
      </trkpt>
      <trkpt lat="40.5608130" lon="-3.9016180">
        <ele>740.2</ele>
        <time>2019-05-28T07:45:30Z</time>
      </trkpt>
      <trkpt lat="40.5608640" lon="-3.9016350">
        <ele>740.4</ele>
        <time>2019-05-28T07:45:31Z</time>
      </trkpt>
      <trkpt lat="40.5609140" lon="-3.9016600">
        <ele>740.6</ele>
        <time>2019-05-28T07:45:32Z</time>
      </trkpt>
      <trkpt lat="40.5610560" lon="-3.9017920">
        <ele>740.8</ele>
        <time>2019-05-28T07:45:35Z</time>
      </trkpt>
      <trkpt lat="40.5611860" lon="-3.9019880">
        <ele>740.8</ele>
        <time>2019-05-28T07:45:38Z</time>
      </trkpt>
      <trkpt lat="40.5614010" lon="-3.9023730">
        <ele>740.6</ele>
        <time>2019-05-28T07:45:43Z</time>
      </trkpt>
      <trkpt lat="40.5614310" lon="-3.9024610">
        <ele>740.4</ele>
        <time>2019-05-28T07:45:44Z</time>
      </trkpt>
      <trkpt lat="40.5616290" lon="-3.9027220">
        <ele>739.6</ele>
        <time>2019-05-28T07:45:48Z</time>
      </trkpt>
      <trkpt lat="40.5619970" lon="-3.9030770">
        <ele>739.6</ele>
        <time>2019-05-28T07:45:55Z</time>
      </trkpt>
      <trkpt lat="40.5623030" lon="-3.9035200">
        <ele>740.8</ele>
        <time>2019-05-28T07:46:02Z</time>
      </trkpt>
      <trkpt lat="40.5623840" lon="-3.9036400">
        <ele>741.2</ele>
        <time>2019-05-28T07:46:04Z</time>
      </trkpt>
      <trkpt lat="40.5625800" lon="-3.9039450">
        <ele>742.4</ele>
        <time>2019-05-28T07:46:09Z</time>
      </trkpt>
      <trkpt lat="40.5626580" lon="-3.9040680">
        <ele>743.6</ele>
        <time>2019-05-28T07:46:11Z</time>
      </trkpt>
      <trkpt lat="40.5627310" lon="-3.9041970">
        <ele>744.6</ele>
        <time>2019-05-28T07:46:13Z</time>
      </trkpt>
      <trkpt lat="40.5628810" lon="-3.9044520">
        <ele>745.6</ele>
        <time>2019-05-28T07:46:17Z</time>
      </trkpt>
      <trkpt lat="40.5630540" lon="-3.9047650">
        <ele>746.8</ele>
        <time>2019-05-28T07:46:22Z</time>
      </trkpt>
      <trkpt lat="40.5631780" lon="-3.9050060">
        <ele>748.0</ele>
        <time>2019-05-28T07:46:26Z</time>
      </trkpt>
      <trkpt lat="40.5632670" lon="-3.9051900">
        <ele>749.2</ele>
        <time>2019-05-28T07:46:29Z</time>
      </trkpt>
      <trkpt lat="40.5633600" lon="-3.9053870">
        <ele>750.2</ele>
        <time>2019-05-28T07:46:32Z</time>
      </trkpt>
      <trkpt lat="40.5635740" lon="-3.9058690">
        <ele>750.6</ele>
        <time>2019-05-28T07:46:38Z</time>
      </trkpt>
      <trkpt lat="40.5638590" lon="-3.9064910">
        <ele>749.8</ele>
        <time>2019-05-28T07:46:44Z</time>
      </trkpt>
      <trkpt lat="40.5639120" lon="-3.9065980">
        <ele>749.0</ele>
        <time>2019-05-28T07:46:45Z</time>
      </trkpt>
      <trkpt lat="40.5640210" lon="-3.9068020">
        <ele>747.6</ele>
        <time>2019-05-28T07:46:47Z</time>
      </trkpt>
      <trkpt lat="40.5641300" lon="-3.9069930">
        <ele>746.0</ele>
        <time>2019-05-28T07:46:49Z</time>
      </trkpt>
      <trkpt lat="40.5644690" lon="-3.9076440">
        <ele>745.4</ele>
        <time>2019-05-28T07:46:57Z</time>
      </trkpt>
      <trkpt lat="40.5646350" lon="-3.9079790">
        <ele>747.0</ele>
        <time>2019-05-28T07:47:02Z</time>
      </trkpt>
      <trkpt lat="40.5646990" lon="-3.9081080">
        <ele>748.0</ele>
        <time>2019-05-28T07:47:04Z</time>
      </trkpt>
      <trkpt lat="40.5647930" lon="-3.9083030">
        <ele>749.4</ele>
        <time>2019-05-28T07:47:07Z</time>
      </trkpt>
      <trkpt lat="40.5648580" lon="-3.9084310">
        <ele>750.6</ele>
        <time>2019-05-28T07:47:09Z</time>
      </trkpt>
      <trkpt lat="40.5649830" lon="-3.9086880">
        <ele>751.8</ele>
        <time>2019-05-28T07:47:13Z</time>
      </trkpt>
      <trkpt lat="40.5651120" lon="-3.9089430">
        <ele>753.0</ele>
        <time>2019-05-28T07:47:17Z</time>
      </trkpt>
      <trkpt lat="40.5651770" lon="-3.9090740">
        <ele>754.0</ele>
        <time>2019-05-28T07:47:19Z</time>
      </trkpt>
      <trkpt lat="40.5652730" lon="-3.9092700">
        <ele>755.2</ele>
        <time>2019-05-28T07:47:22Z</time>
      </trkpt>
      <trkpt lat="40.5653700" lon="-3.9094640">
        <ele>756.2</ele>
        <time>2019-05-28T07:47:25Z</time>
      </trkpt>
      <trkpt lat="40.5654940" lon="-3.9097180">
        <ele>757.4</ele>
        <time>2019-05-28T07:47:29Z</time>
      </trkpt>
      <trkpt lat="40.5655870" lon="-3.9099050">
        <ele>758.4</ele>
        <time>2019-05-28T07:47:32Z</time>
      </trkpt>
      <trkpt lat="40.5656770" lon="-3.9100900">
        <ele>759.2</ele>
        <time>2019-05-28T07:47:35Z</time>
      </trkpt>
      <trkpt lat="40.5658280" lon="-3.9104000">
        <ele>760.4</ele>
        <time>2019-05-28T07:47:40Z</time>
      </trkpt>
      <trkpt lat="40.5659190" lon="-3.9105850">
        <ele>761.8</ele>
        <time>2019-05-28T07:47:43Z</time>
      </trkpt>
      <trkpt lat="40.5660650" lon="-3.9109030">
        <ele>762.6</ele>
        <time>2019-05-28T07:47:48Z</time>
      </trkpt>
      <trkpt lat="40.5661830" lon="-3.9111630">
        <ele>764.0</ele>
        <time>2019-05-28T07:47:52Z</time>
      </trkpt>
      <trkpt lat="40.5662720" lon="-3.9113580">
        <ele>765.2</ele>
        <time>2019-05-28T07:47:55Z</time>
      </trkpt>
      <trkpt lat="40.5663960" lon="-3.9116170">
        <ele>766.4</ele>
        <time>2019-05-28T07:47:59Z</time>
      </trkpt>
      <trkpt lat="40.5665510" lon="-3.9119410">
        <ele>767.6</ele>
        <time>2019-05-28T07:48:04Z</time>
      </trkpt>
      <trkpt lat="40.5666720" lon="-3.9121990">
        <ele>768.6</ele>
        <time>2019-05-28T07:48:08Z</time>
      </trkpt>
      <trkpt lat="40.5669240" lon="-3.9127450">
        <ele>769.8</ele>
        <time>2019-05-28T07:48:16Z</time>
      </trkpt>
      <trkpt lat="40.5671990" lon="-3.9133600">
        <ele>770.4</ele>
        <time>2019-05-28T07:48:24Z</time>
      </trkpt>
      <trkpt lat="40.5672350" lon="-3.9134350">
        <ele>770.6</ele>
        <time>2019-05-28T07:48:25Z</time>
      </trkpt>
      <trkpt lat="40.5674840" lon="-3.9139210">
        <ele>771.6</ele>
        <time>2019-05-28T07:48:32Z</time>
      </trkpt>
      <trkpt lat="40.5676120" lon="-3.9141590">
        <ele>772.6</ele>
        <time>2019-05-28T07:48:36Z</time>
      </trkpt>
      <trkpt lat="40.5677030" lon="-3.9143320">
        <ele>773.8</ele>
        <time>2019-05-28T07:48:39Z</time>
      </trkpt>
      <trkpt lat="40.5677940" lon="-3.9145010">
        <ele>775.0</ele>
        <time>2019-05-28T07:48:42Z</time>
      </trkpt>
      <trkpt lat="40.5678760" lon="-3.9146670">
        <ele>776.2</ele>
        <time>2019-05-28T07:48:45Z</time>
      </trkpt>
      <trkpt lat="40.5679590" lon="-3.9148400">
        <ele>777.4</ele>
        <time>2019-05-28T07:48:48Z</time>
      </trkpt>
      <trkpt lat="40.5680390" lon="-3.9150080">
        <ele>778.8</ele>
        <time>2019-05-28T07:48:51Z</time>
      </trkpt>
      <trkpt lat="40.5680920" lon="-3.9151190">
        <ele>779.8</ele>
        <time>2019-05-28T07:48:53Z</time>
      </trkpt>
      <trkpt lat="40.5681720" lon="-3.9152830">
        <ele>781.0</ele>
        <time>2019-05-28T07:48:56Z</time>
      </trkpt>
      <trkpt lat="40.5682490" lon="-3.9154450">
        <ele>782.0</ele>
        <time>2019-05-28T07:48:59Z</time>
      </trkpt>
      <trkpt lat="40.5683270" lon="-3.9156100">
        <ele>783.0</ele>
        <time>2019-05-28T07:49:02Z</time>
      </trkpt>
      <trkpt lat="40.5684030" lon="-3.9157730">
        <ele>784.0</ele>
        <time>2019-05-28T07:49:05Z</time>
      </trkpt>
      <trkpt lat="40.5685200" lon="-3.9160190">
        <ele>785.2</ele>
        <time>2019-05-28T07:49:10Z</time>
      </trkpt>
      <trkpt lat="40.5686440" lon="-3.9162790">
        <ele>786.2</ele>
        <time>2019-05-28T07:49:15Z</time>
      </trkpt>
      <trkpt lat="40.5687770" lon="-3.9165650">
        <ele>787.2</ele>
        <time>2019-05-28T07:49:20Z</time>
      </trkpt>
      <trkpt lat="40.5688930" lon="-3.9168170">
        <ele>787.6</ele>
        <time>2019-05-28T07:49:24Z</time>
      </trkpt>
      <trkpt lat="40.5691820" lon="-3.9174300">
        <ele>788.0</ele>
        <time>2019-05-28T07:49:33Z</time>
      </trkpt>
      <trkpt lat="40.5692150" lon="-3.9175000">
        <ele>788.2</ele>
        <time>2019-05-28T07:49:34Z</time>
      </trkpt>
      <trkpt lat="40.5694510" lon="-3.9180050">
        <ele>789.2</ele>
        <time>2019-05-28T07:49:41Z</time>
      </trkpt>
      <trkpt lat="40.5696610" lon="-3.9184610">
        <ele>790.2</ele>
        <time>2019-05-28T07:49:47Z</time>
      </trkpt>
      <trkpt lat="40.5699710" lon="-3.9191200">
        <ele>790.6</ele>
        <time>2019-05-28T07:49:55Z</time>
      </trkpt>
      <trkpt lat="40.5702950" lon="-3.9197880">
        <ele>790.8</ele>
        <time>2019-05-28T07:50:03Z</time>
      </trkpt>
      <trkpt lat="40.5703340" lon="-3.9198720">
        <ele>791.0</ele>
        <time>2019-05-28T07:50:04Z</time>
      </trkpt>
      <trkpt lat="40.5706090" lon="-3.9204520">
        <ele>792.2</ele>
        <time>2019-05-28T07:50:11Z</time>
      </trkpt>
      <trkpt lat="40.5707960" lon="-3.9208480">
        <ele>793.6</ele>
        <time>2019-05-28T07:50:16Z</time>
      </trkpt>
      <trkpt lat="40.5709350" lon="-3.9211610">
        <ele>794.4</ele>
        <time>2019-05-28T07:50:20Z</time>
      </trkpt>
      <trkpt lat="40.5710380" lon="-3.9213820">
        <ele>795.4</ele>
        <time>2019-05-28T07:50:23Z</time>
      </trkpt>
      <trkpt lat="40.5711370" lon="-3.9215980">
        <ele>796.6</ele>
        <time>2019-05-28T07:50:26Z</time>
      </trkpt>
      <trkpt lat="40.5712280" lon="-3.9218130">
        <ele>797.8</ele>
        <time>2019-05-28T07:50:29Z</time>
      </trkpt>
      <trkpt lat="40.5713450" lon="-3.9220900">
        <ele>799.2</ele>
        <time>2019-05-28T07:50:33Z</time>
      </trkpt>
      <trkpt lat="40.5714380" lon="-3.9222980">
        <ele>800.4</ele>
        <time>2019-05-28T07:50:36Z</time>
      </trkpt>
      <trkpt lat="40.5715380" lon="-3.9224920">
        <ele>801.6</ele>
        <time>2019-05-28T07:50:39Z</time>
      </trkpt>
      <trkpt lat="40.5716470" lon="-3.9226700">
        <ele>802.6</ele>
        <time>2019-05-28T07:50:42Z</time>
      </trkpt>
      <trkpt lat="40.5717470" lon="-3.9228550">
        <ele>804.0</ele>
        <time>2019-05-28T07:50:45Z</time>
      </trkpt>
      <trkpt lat="40.5718160" lon="-3.9229690">
        <ele>805.4</ele>
        <time>2019-05-28T07:50:47Z</time>
      </trkpt>
      <trkpt lat="40.5719410" lon="-3.9232230">
        <ele>806.6</ele>
        <time>2019-05-28T07:50:51Z</time>
      </trkpt>
      <trkpt lat="40.5720730" lon="-3.9234640">
        <ele>807.8</ele>
        <time>2019-05-28T07:50:55Z</time>
      </trkpt>
      <trkpt lat="40.5721830" lon="-3.9236380">
        <ele>808.8</ele>
        <time>2019-05-28T07:50:58Z</time>
      </trkpt>
      <trkpt lat="40.5723010" lon="-3.9238120">
        <ele>810.2</ele>
        <time>2019-05-28T07:51:01Z</time>
      </trkpt>
      <trkpt lat="40.5724220" lon="-3.9239930">
        <ele>811.4</ele>
        <time>2019-05-28T07:51:04Z</time>
      </trkpt>
      <trkpt lat="40.5725490" lon="-3.9241790">
        <ele>812.6</ele>
        <time>2019-05-28T07:51:07Z</time>
      </trkpt>
      <trkpt lat="40.5727180" lon="-3.9244250">
        <ele>813.4</ele>
        <time>2019-05-28T07:51:11Z</time>
      </trkpt>
      <trkpt lat="40.5728860" lon="-3.9246780">
        <ele>814.8</ele>
        <time>2019-05-28T07:51:15Z</time>
      </trkpt>
      <trkpt lat="40.5730490" lon="-3.9249400">
        <ele>815.6</ele>
        <time>2019-05-28T07:51:19Z</time>
      </trkpt>
      <trkpt lat="40.5730910" lon="-3.9250060">
        <ele>815.8</ele>
        <time>2019-05-28T07:51:20Z</time>
      </trkpt>
      <trkpt lat="40.5733480" lon="-3.9254020">
        <ele>816.8</ele>
        <time>2019-05-28T07:51:26Z</time>
      </trkpt>
      <trkpt lat="40.5736850" lon="-3.9259600">
        <ele>817.6</ele>
        <time>2019-05-28T07:51:34Z</time>
      </trkpt>
      <trkpt lat="40.5737680" lon="-3.9261040">
        <ele>817.8</ele>
        <time>2019-05-28T07:51:36Z</time>
      </trkpt>
      <trkpt lat="40.5740660" lon="-3.9267730">
        <ele>818.2</ele>
        <time>2019-05-28T07:51:44Z</time>
      </trkpt>
      <trkpt lat="40.5742420" lon="-3.9273750">
        <ele>817.8</ele>
        <time>2019-05-28T07:51:50Z</time>
      </trkpt>
      <trkpt lat="40.5743850" lon="-3.9280580">
        <ele>817.0</ele>
        <time>2019-05-28T07:51:56Z</time>
      </trkpt>
      <trkpt lat="40.5744230" lon="-3.9283120">
        <ele>816.2</ele>
        <time>2019-05-28T07:51:58Z</time>
      </trkpt>
      <trkpt lat="40.5744720" lon="-3.9287200">
        <ele>815.6</ele>
        <time>2019-05-28T07:52:01Z</time>
      </trkpt>
      <trkpt lat="40.5745030" lon="-3.9290100">
        <ele>815.0</ele>
        <time>2019-05-28T07:52:03Z</time>
      </trkpt>
      <trkpt lat="40.5745710" lon="-3.9294680">
        <ele>813.6</ele>
        <time>2019-05-28T07:52:06Z</time>
      </trkpt>
      <trkpt lat="40.5746380" lon="-3.9297770">
        <ele>812.2</ele>
        <time>2019-05-28T07:52:08Z</time>
      </trkpt>
      <trkpt lat="40.5747230" lon="-3.9300810">
        <ele>810.8</ele>
        <time>2019-05-28T07:52:10Z</time>
      </trkpt>
      <trkpt lat="40.5748160" lon="-3.9303780">
        <ele>809.4</ele>
        <time>2019-05-28T07:52:12Z</time>
      </trkpt>
      <trkpt lat="40.5749110" lon="-3.9306710">
        <ele>807.6</ele>
        <time>2019-05-28T07:52:14Z</time>
      </trkpt>
      <trkpt lat="40.5750020" lon="-3.9309630">
        <ele>806.4</ele>
        <time>2019-05-28T07:52:16Z</time>
      </trkpt>
      <trkpt lat="40.5750930" lon="-3.9312480">
        <ele>805.0</ele>
        <time>2019-05-28T07:52:18Z</time>
      </trkpt>
      <trkpt lat="40.5752280" lon="-3.9316570">
        <ele>804.0</ele>
        <time>2019-05-28T07:52:21Z</time>
      </trkpt>
      <trkpt lat="40.5754500" lon="-3.9322850">
        <ele>803.8</ele>
        <time>2019-05-28T07:52:26Z</time>
      </trkpt>
      <trkpt lat="40.5756690" lon="-3.9328270">
        <ele>804.4</ele>
        <time>2019-05-28T07:52:31Z</time>
      </trkpt>
      <trkpt lat="40.5757120" lon="-3.9329240">
        <ele>804.6</ele>
        <time>2019-05-28T07:52:32Z</time>
      </trkpt>
      <trkpt lat="40.5757530" lon="-3.9330170">
        <ele>805.2</ele>
        <time>2019-05-28T07:52:33Z</time>
      </trkpt>
      <trkpt lat="40.5758380" lon="-3.9331930">
        <ele>806.4</ele>
        <time>2019-05-28T07:52:35Z</time>
      </trkpt>
      <trkpt lat="40.5759210" lon="-3.9333610">
        <ele>807.8</ele>
        <time>2019-05-28T07:52:37Z</time>
      </trkpt>
      <trkpt lat="40.5760400" lon="-3.9335960">
        <ele>809.2</ele>
        <time>2019-05-28T07:52:40Z</time>
      </trkpt>
      <trkpt lat="40.5761210" lon="-3.9337370">
        <ele>810.6</ele>
        <time>2019-05-28T07:52:42Z</time>
      </trkpt>
      <trkpt lat="40.5761990" lon="-3.9338690">
        <ele>811.6</ele>
        <time>2019-05-28T07:52:44Z</time>
      </trkpt>
      <trkpt lat="40.5763080" lon="-3.9340510">
        <ele>812.8</ele>
        <time>2019-05-28T07:52:47Z</time>
      </trkpt>
      <trkpt lat="40.5764490" lon="-3.9342690">
        <ele>814.2</ele>
        <time>2019-05-28T07:52:51Z</time>
      </trkpt>
      <trkpt lat="40.5764830" lon="-3.9343190">
        <ele>814.8</ele>
        <time>2019-05-28T07:52:52Z</time>
      </trkpt>
      <trkpt lat="40.5765520" lon="-3.9344150">
        <ele>815.6</ele>
        <time>2019-05-28T07:52:54Z</time>
      </trkpt>
      <trkpt lat="40.5766530" lon="-3.9345560">
        <ele>816.6</ele>
        <time>2019-05-28T07:52:57Z</time>
      </trkpt>
      <trkpt lat="40.5767560" lon="-3.9346890">
        <ele>817.6</ele>
        <time>2019-05-28T07:53:00Z</time>
      </trkpt>
      <trkpt lat="40.5767930" lon="-3.9347330">
        <ele>818.0</ele>
        <time>2019-05-28T07:53:01Z</time>
      </trkpt>
      <trkpt lat="40.5769130" lon="-3.9348450">
        <ele>819.0</ele>
        <time>2019-05-28T07:53:04Z</time>
      </trkpt>
      <trkpt lat="40.5769460" lon="-3.9348880">
        <ele>819.2</ele>
        <time>2019-05-28T07:53:05Z</time>
      </trkpt>
      <trkpt lat="40.5769960" lon="-3.9349950">
        <ele>820.2</ele>
        <time>2019-05-28T07:53:07Z</time>
      </trkpt>
      <trkpt lat="40.5770750" lon="-3.9351570">
        <ele>821.0</ele>
        <time>2019-05-28T07:53:10Z</time>
      </trkpt>
      <trkpt lat="40.5770970" lon="-3.9352140">
        <ele>821.2</ele>
        <time>2019-05-28T07:53:11Z</time>
      </trkpt>
      <trkpt lat="40.5771800" lon="-3.9353840">
        <ele>822.2</ele>
        <time>2019-05-28T07:53:14Z</time>
      </trkpt>
      <trkpt lat="40.5772610" lon="-3.9355500">
        <ele>823.4</ele>
        <time>2019-05-28T07:53:17Z</time>
      </trkpt>
      <trkpt lat="40.5773430" lon="-3.9357170">
        <ele>824.6</ele>
        <time>2019-05-28T07:53:20Z</time>
      </trkpt>
      <trkpt lat="40.5774200" lon="-3.9358850">
        <ele>826.0</ele>
        <time>2019-05-28T07:53:23Z</time>
      </trkpt>
      <trkpt lat="40.5774940" lon="-3.9360560">
        <ele>827.0</ele>
        <time>2019-05-28T07:53:26Z</time>
      </trkpt>
      <trkpt lat="40.5775630" lon="-3.9362320">
        <ele>828.2</ele>
        <time>2019-05-28T07:53:29Z</time>
      </trkpt>
      <trkpt lat="40.5776320" lon="-3.9364050">
        <ele>829.6</ele>
        <time>2019-05-28T07:53:32Z</time>
      </trkpt>
      <trkpt lat="40.5776720" lon="-3.9365260">
        <ele>830.6</ele>
        <time>2019-05-28T07:53:34Z</time>
      </trkpt>
      <trkpt lat="40.5777310" lon="-3.9367020">
        <ele>832.0</ele>
        <time>2019-05-28T07:53:37Z</time>
      </trkpt>
      <trkpt lat="40.5777840" lon="-3.9368670">
        <ele>833.4</ele>
        <time>2019-05-28T07:53:40Z</time>
      </trkpt>
      <trkpt lat="40.5778200" lon="-3.9369830">
        <ele>834.8</ele>
        <time>2019-05-28T07:53:42Z</time>
      </trkpt>
      <trkpt lat="40.5778540" lon="-3.9370900">
        <ele>835.6</ele>
        <time>2019-05-28T07:53:44Z</time>
      </trkpt>
      <trkpt lat="40.5778720" lon="-3.9371440">
        <ele>835.8</ele>
        <time>2019-05-28T07:53:45Z</time>
      </trkpt>
      <trkpt lat="40.5779380" lon="-3.9373460">
        <ele>836.8</ele>
        <time>2019-05-28T07:53:49Z</time>
      </trkpt>
      <trkpt lat="40.5779890" lon="-3.9374930">
        <ele>838.0</ele>
        <time>2019-05-28T07:53:52Z</time>
      </trkpt>
      <trkpt lat="40.5780520" lon="-3.9376890">
        <ele>839.0</ele>
        <time>2019-05-28T07:53:56Z</time>
      </trkpt>
      <trkpt lat="40.5781260" lon="-3.9379270">
        <ele>840.0</ele>
        <time>2019-05-28T07:54:01Z</time>
      </trkpt>
      <trkpt lat="40.5781920" lon="-3.9381590">
        <ele>840.8</ele>
        <time>2019-05-28T07:54:05Z</time>
      </trkpt>
      <trkpt lat="40.5782140" lon="-3.9382210">
        <ele>841.0</ele>
        <time>2019-05-28T07:54:06Z</time>
      </trkpt>
      <trkpt lat="40.5783070" lon="-3.9387070">
        <ele>842.0</ele>
        <time>2019-05-28T07:54:13Z</time>
      </trkpt>
      <trkpt lat="40.5783940" lon="-3.9391890">
        <ele>843.0</ele>
        <time>2019-05-28T07:54:19Z</time>
      </trkpt>
      <trkpt lat="40.5784110" lon="-3.9392740">
        <ele>843.0</ele>
        <time>2019-05-28T07:54:20Z</time>
      </trkpt>
      <trkpt lat="40.5785140" lon="-3.9398400">
        <ele>843.2</ele>
        <time>2019-05-28T07:54:26Z</time>
      </trkpt>
      <trkpt lat="40.5785590" lon="-3.9406320">
        <ele>842.6</ele>
        <time>2019-05-28T07:54:33Z</time>
      </trkpt>
      <trkpt lat="40.5785370" lon="-3.9409960">
        <ele>841.8</ele>
        <time>2019-05-28T07:54:36Z</time>
      </trkpt>
      <trkpt lat="40.5785020" lon="-3.9414970">
        <ele>840.4</ele>
        <time>2019-05-28T07:54:40Z</time>
      </trkpt>
      <trkpt lat="40.5785200" lon="-3.9420250">
        <ele>839.4</ele>
        <time>2019-05-28T07:54:44Z</time>
      </trkpt>
      <trkpt lat="40.5786160" lon="-3.9427030">
        <ele>838.0</ele>
        <time>2019-05-28T07:54:49Z</time>
      </trkpt>
      <trkpt lat="40.5787230" lon="-3.9432560">
        <ele>836.6</ele>
        <time>2019-05-28T07:54:53Z</time>
      </trkpt>
      <trkpt lat="40.5788840" lon="-3.9439430">
        <ele>836.0</ele>
        <time>2019-05-28T07:54:58Z</time>
      </trkpt>
      <trkpt lat="40.5792020" lon="-3.9445880">
        <ele>836.0</ele>
        <time>2019-05-28T07:55:04Z</time>
      </trkpt>
      <trkpt lat="40.5793640" lon="-3.9448870">
        <ele>836.0</ele>
        <time>2019-05-28T07:55:07Z</time>
      </trkpt>
      <trkpt lat="40.5796070" lon="-3.9454610">
        <ele>836.6</ele>
        <time>2019-05-28T07:55:12Z</time>
      </trkpt>
      <trkpt lat="40.5799800" lon="-3.9460660">
        <ele>836.6</ele>
        <time>2019-05-28T07:55:17Z</time>
      </trkpt>
      <trkpt lat="40.5804340" lon="-3.9466510">
        <ele>834.6</ele>
        <time>2019-05-28T07:55:22Z</time>
      </trkpt>
      <trkpt lat="40.5805280" lon="-3.9467600">
        <ele>833.6</ele>
        <time>2019-05-28T07:55:23Z</time>
      </trkpt>
      <trkpt lat="40.5806210" lon="-3.9468670">
        <ele>831.2</ele>
        <time>2019-05-28T07:55:24Z</time>
      </trkpt>
      <trkpt lat="40.5807150" lon="-3.9469710">
        <ele>830.0</ele>
        <time>2019-05-28T07:55:25Z</time>
      </trkpt>
      <trkpt lat="40.5808080" lon="-3.9470730">
        <ele>828.6</ele>
        <time>2019-05-28T07:55:26Z</time>
      </trkpt>
      <trkpt lat="40.5809920" lon="-3.9472700">
        <ele>827.2</ele>
        <time>2019-05-28T07:55:28Z</time>
      </trkpt>
      <trkpt lat="40.5814400" lon="-3.9477480">
        <ele>826.4</ele>
        <time>2019-05-28T07:55:33Z</time>
      </trkpt>
      <trkpt lat="40.5818760" lon="-3.9482150">
        <ele>826.4</ele>
        <time>2019-05-28T07:55:38Z</time>
      </trkpt>
      <trkpt lat="40.5823150" lon="-3.9486800">
        <ele>826.4</ele>
        <time>2019-05-28T07:55:43Z</time>
      </trkpt>
      <trkpt lat="40.5827520" lon="-3.9491510">
        <ele>826.2</ele>
        <time>2019-05-28T07:55:48Z</time>
      </trkpt>
      <trkpt lat="40.5828400" lon="-3.9492450">
        <ele>826.2</ele>
        <time>2019-05-28T07:55:49Z</time>
      </trkpt>
      <trkpt lat="40.5831860" lon="-3.9496100">
        <ele>824.8</ele>
        <time>2019-05-28T07:55:53Z</time>
      </trkpt>
      <trkpt lat="40.5836600" lon="-3.9501030">
        <ele>823.6</ele>
        <time>2019-05-28T07:55:59Z</time>
      </trkpt>
      <trkpt lat="40.5840580" lon="-3.9505320">
        <ele>823.6</ele>
        <time>2019-05-28T07:56:05Z</time>
      </trkpt>
      <trkpt lat="40.5843020" lon="-3.9507990">
        <ele>824.8</ele>
        <time>2019-05-28T07:56:09Z</time>
      </trkpt>
      <trkpt lat="40.5844750" lon="-3.9509810">
        <ele>825.8</ele>
        <time>2019-05-28T07:56:12Z</time>
      </trkpt>
      <trkpt lat="40.5848060" lon="-3.9513390">
        <ele>827.0</ele>
        <time>2019-05-28T07:56:18Z</time>
      </trkpt>
      <trkpt lat="40.5849750" lon="-3.9515100">
        <ele>827.8</ele>
        <time>2019-05-28T07:56:21Z</time>
      </trkpt>
      <trkpt lat="40.5854490" lon="-3.9519430">
        <ele>828.4</ele>
        <time>2019-05-28T07:56:29Z</time>
      </trkpt>
      <trkpt lat="40.5856990" lon="-3.9521460">
        <ele>828.8</ele>
        <time>2019-05-28T07:56:33Z</time>
      </trkpt>
      <trkpt lat="40.5862090" lon="-3.9525660">
        <ele>829.4</ele>
        <time>2019-05-28T07:56:41Z</time>
      </trkpt>
      <trkpt lat="40.5864730" lon="-3.9527760">
        <ele>829.6</ele>
        <time>2019-05-28T07:56:45Z</time>
      </trkpt>
      <trkpt lat="40.5869410" lon="-3.9531230">
        <ele>830.2</ele>
        <time>2019-05-28T07:56:52Z</time>
      </trkpt>
      <trkpt lat="40.5871480" lon="-3.9532470">
        <ele>830.8</ele>
        <time>2019-05-28T07:56:55Z</time>
      </trkpt>
      <trkpt lat="40.5877020" lon="-3.9535040">
        <ele>831.2</ele>
        <time>2019-05-28T07:57:03Z</time>
      </trkpt>
      <trkpt lat="40.5880510" lon="-3.9536260">
        <ele>831.6</ele>
        <time>2019-05-28T07:57:08Z</time>
      </trkpt>
      <trkpt lat="40.5885860" lon="-3.9537350">
        <ele>832.6</ele>
        <time>2019-05-28T07:57:16Z</time>
      </trkpt>
      <trkpt lat="40.5886520" lon="-3.9537420">
        <ele>832.6</ele>
        <time>2019-05-28T07:57:17Z</time>
      </trkpt>
      <trkpt lat="40.5891070" lon="-3.9537600">
        <ele>833.6</ele>
        <time>2019-05-28T07:57:24Z</time>
      </trkpt>
      <trkpt lat="40.5894040" lon="-3.9537230">
        <ele>834.6</ele>
        <time>2019-05-28T07:57:29Z</time>
      </trkpt>
      <trkpt lat="40.5895180" lon="-3.9536950">
        <ele>834.8</ele>
        <time>2019-05-28T07:57:31Z</time>
      </trkpt>
      <trkpt lat="40.5896990" lon="-3.9536560">
        <ele>835.4</ele>
        <time>2019-05-28T07:57:34Z</time>
      </trkpt>
      <trkpt lat="40.5897590" lon="-3.9536370">
        <ele>836.0</ele>
        <time>2019-05-28T07:57:35Z</time>
      </trkpt>
      <trkpt lat="40.5900070" lon="-3.9535550">
        <ele>837.0</ele>
        <time>2019-05-28T07:57:39Z</time>
      </trkpt>
      <trkpt lat="40.5905220" lon="-3.9533520">
        <ele>837.6</ele>
        <time>2019-05-28T07:57:47Z</time>
      </trkpt>
      <trkpt lat="40.5909430" lon="-3.9531410">
        <ele>837.6</ele>
        <time>2019-05-28T07:57:53Z</time>
      </trkpt>
      <trkpt lat="40.5914810" lon="-3.9528120">
        <ele>837.4</ele>
        <time>2019-05-28T07:58:01Z</time>
      </trkpt>
      <trkpt lat="40.5920180" lon="-3.9524830">
        <ele>837.8</ele>
        <time>2019-05-28T07:58:10Z</time>
      </trkpt>
      <trkpt lat="40.5922500" lon="-3.9523330">
        <ele>838.8</ele>
        <time>2019-05-28T07:58:14Z</time>
      </trkpt>
      <trkpt lat="40.5924970" lon="-3.9521940">
        <ele>839.8</ele>
        <time>2019-05-28T07:58:18Z</time>
      </trkpt>
      <trkpt lat="40.5929970" lon="-3.9519910">
        <ele>840.0</ele>
        <time>2019-05-28T07:58:25Z</time>
      </trkpt>
      <trkpt lat="40.5933390" lon="-3.9519310">
        <ele>839.4</ele>
        <time>2019-05-28T07:58:29Z</time>
      </trkpt>
      <trkpt lat="40.5935220" lon="-3.9519240">
        <ele>838.6</ele>
        <time>2019-05-28T07:58:31Z</time>
      </trkpt>
      <trkpt lat="40.5939060" lon="-3.9519510">
        <ele>837.2</ele>
        <time>2019-05-28T07:58:35Z</time>
      </trkpt>
      <trkpt lat="40.5941070" lon="-3.9519810">
        <ele>835.8</ele>
        <time>2019-05-28T07:58:37Z</time>
      </trkpt>
      <trkpt lat="40.5944070" lon="-3.9520240">
        <ele>834.4</ele>
        <time>2019-05-28T07:58:40Z</time>
      </trkpt>
      <trkpt lat="40.5946740" lon="-3.9520980">
        <ele>856.2</ele>
        <time>2019-05-28T07:58:43Z</time>
      </trkpt>
      <trkpt lat="40.5949090" lon="-3.9521720">
        <ele>833.6</ele>
        <time>2019-05-28T07:58:46Z</time>
      </trkpt>
      <trkpt lat="40.5952930" lon="-3.9522210">
        <ele>834.0</ele>
        <time>2019-05-28T07:58:53Z</time>
      </trkpt>
      <trkpt lat="40.5951530" lon="-3.9524730">
        <ele>834.4</ele>
        <time>2019-05-28T07:58:57Z</time>
      </trkpt>
      <trkpt lat="40.5951200" lon="-3.9525480">
        <ele>834.4</ele>
        <time>2019-05-28T07:58:58Z</time>
      </trkpt>
      <trkpt lat="40.5950200" lon="-3.9527740">
        <ele>834.6</ele>
        <time>2019-05-28T07:59:01Z</time>
      </trkpt>
      <trkpt lat="40.5949550" lon="-3.9529300">
        <ele>834.6</ele>
        <time>2019-05-28T07:59:03Z</time>
      </trkpt>
      <trkpt lat="40.5948840" lon="-3.9530750">
        <ele>834.6</ele>
        <time>2019-05-28T07:59:05Z</time>
      </trkpt>
      <trkpt lat="40.5945750" lon="-3.9531340">
        <ele>835.2</ele>
        <time>2019-05-28T07:59:10Z</time>
      </trkpt>
      <trkpt lat="40.5945080" lon="-3.9531080">
        <ele>835.2</ele>
        <time>2019-05-28T07:59:11Z</time>
      </trkpt>
      <trkpt lat="40.5943120" lon="-3.9530250">
        <ele>836.0</ele>
        <time>2019-05-28T07:59:14Z</time>
      </trkpt>
      <trkpt lat="40.5941170" lon="-3.9529580">
        <ele>836.4</ele>
        <time>2019-05-28T07:59:17Z</time>
      </trkpt>
      <trkpt lat="40.5935850" lon="-3.9528550">
        <ele>837.2</ele>
        <time>2019-05-28T07:59:25Z</time>
      </trkpt>
      <trkpt lat="40.5935180" lon="-3.9528500">
        <ele>837.2</ele>
        <time>2019-05-28T07:59:26Z</time>
      </trkpt>
      <trkpt lat="40.5929620" lon="-3.9528900">
        <ele>837.4</ele>
        <time>2019-05-28T07:59:34Z</time>
      </trkpt>
      <trkpt lat="40.5923850" lon="-3.9530880">
        <ele>837.2</ele>
        <time>2019-05-28T07:59:42Z</time>
      </trkpt>
      <trkpt lat="40.5918240" lon="-3.9533980">
        <ele>836.8</ele>
        <time>2019-05-28T07:59:50Z</time>
      </trkpt>
      <trkpt lat="40.5913330" lon="-3.9536810">
        <ele>836.2</ele>
        <time>2019-05-28T07:59:57Z</time>
      </trkpt>
      <trkpt lat="40.5908300" lon="-3.9539410">
        <ele>836.0</ele>
        <time>2019-05-28T08:00:04Z</time>
      </trkpt>
      <trkpt lat="40.5907560" lon="-3.9539760">
        <ele>836.0</ele>
        <time>2019-05-28T08:00:05Z</time>
      </trkpt>
      <trkpt lat="40.5901920" lon="-3.9541910">
        <ele>836.0</ele>
        <time>2019-05-28T08:00:12Z</time>
      </trkpt>
      <trkpt lat="40.5896460" lon="-3.9543280">
        <ele>835.6</ele>
        <time>2019-05-28T08:00:18Z</time>
      </trkpt>
      <trkpt lat="40.5890550" lon="-3.9543950">
        <ele>835.2</ele>
        <time>2019-05-28T08:00:24Z</time>
      </trkpt>
      <trkpt lat="40.5888530" lon="-3.9543890">
        <ele>834.6</ele>
        <time>2019-05-28T08:00:26Z</time>
      </trkpt>
      <trkpt lat="40.5885430" lon="-3.9543580">
        <ele>833.6</ele>
        <time>2019-05-28T08:00:29Z</time>
      </trkpt>
      <trkpt lat="40.5882300" lon="-3.9543050">
        <ele>832.6</ele>
        <time>2019-05-28T08:00:32Z</time>
      </trkpt>
      <trkpt lat="40.5877070" lon="-3.9541870">
        <ele>831.6</ele>
        <time>2019-05-28T08:00:37Z</time>
      </trkpt>
      <trkpt lat="40.5876040" lon="-3.9541560">
        <ele>831.6</ele>
        <time>2019-05-28T08:00:38Z</time>
      </trkpt>
      <trkpt lat="40.5873000" lon="-3.9540410">
        <ele>830.4</ele>
        <time>2019-05-28T08:00:41Z</time>
      </trkpt>
      <trkpt lat="40.5867210" lon="-3.9537280">
        <ele>829.0</ele>
        <time>2019-05-28T08:00:47Z</time>
      </trkpt>
      <trkpt lat="40.5863590" lon="-3.9534790">
        <ele>827.8</ele>
        <time>2019-05-28T08:00:51Z</time>
      </trkpt>
      <trkpt lat="40.5860180" lon="-3.9532050">
        <ele>826.4</ele>
        <time>2019-05-28T08:00:55Z</time>
      </trkpt>
      <trkpt lat="40.5855280" lon="-3.9528140">
        <ele>825.6</ele>
        <time>2019-05-28T08:01:01Z</time>
      </trkpt>
      <trkpt lat="40.5850410" lon="-3.9524050">
        <ele>825.4</ele>
        <time>2019-05-28T08:01:07Z</time>
      </trkpt>
      <trkpt lat="40.5848770" lon="-3.9522630">
        <ele>825.4</ele>
        <time>2019-05-28T08:01:09Z</time>
      </trkpt>
      <trkpt lat="40.5843960" lon="-3.9518150">
        <ele>824.6</ele>
        <time>2019-05-28T08:01:15Z</time>
      </trkpt>
      <trkpt lat="40.5840030" lon="-3.9514120">
        <ele>824.2</ele>
        <time>2019-05-28T08:01:20Z</time>
      </trkpt>
      <trkpt lat="40.5836830" lon="-3.9510800">
        <ele>823.0</ele>
        <time>2019-05-28T08:01:24Z</time>
      </trkpt>
      <trkpt lat="40.5833640" lon="-3.9507430">
        <ele>822.0</ele>
        <time>2019-05-28T08:01:28Z</time>
      </trkpt>
      <trkpt lat="40.5829900" lon="-3.9503550">
        <ele>820.6</ele>
        <time>2019-05-28T08:01:33Z</time>
      </trkpt>
      <trkpt lat="40.5825470" lon="-3.9498710">
        <ele>820.0</ele>
        <time>2019-05-28T08:01:39Z</time>
      </trkpt>
      <trkpt lat="40.5820650" lon="-3.9493600">
        <ele>820.0</ele>
        <time>2019-05-28T08:01:46Z</time>
      </trkpt>
      <trkpt lat="40.5815910" lon="-3.9488540">
        <ele>820.2</ele>
        <time>2019-05-28T08:01:53Z</time>
      </trkpt>
      <trkpt lat="40.5811370" lon="-3.9483630">
        <ele>821.0</ele>
        <time>2019-05-28T08:02:00Z</time>
      </trkpt>
      <trkpt lat="40.5808980" lon="-3.9481180">
        <ele>821.4</ele>
        <time>2019-05-28T08:02:04Z</time>
      </trkpt>
      <trkpt lat="40.5805260" lon="-3.9477380">
        <ele>822.2</ele>
        <time>2019-05-28T08:02:11Z</time>
      </trkpt>
      <trkpt lat="40.5804290" lon="-3.9476320">
        <ele>822.6</ele>
        <time>2019-05-28T08:02:13Z</time>
      </trkpt>
      <trkpt lat="40.5801920" lon="-3.9473700">
        <ele>823.6</ele>
        <time>2019-05-28T08:02:18Z</time>
      </trkpt>
      <trkpt lat="40.5800150" lon="-3.9471510">
        <ele>824.6</ele>
        <time>2019-05-28T08:02:22Z</time>
      </trkpt>
      <trkpt lat="40.5798060" lon="-3.9468860">
        <ele>825.6</ele>
        <time>2019-05-28T08:02:27Z</time>
      </trkpt>
      <trkpt lat="40.5796480" lon="-3.9466730">
        <ele>826.6</ele>
        <time>2019-05-28T08:02:31Z</time>
      </trkpt>
      <trkpt lat="40.5794180" lon="-3.9463400">
        <ele>827.8</ele>
        <time>2019-05-28T08:02:37Z</time>
      </trkpt>
      <trkpt lat="40.5791000" lon="-3.9458260">
        <ele>829.0</ele>
        <time>2019-05-28T08:02:46Z</time>
      </trkpt>
      <trkpt lat="40.5790400" lon="-3.9457060">
        <ele>829.2</ele>
        <time>2019-05-28T08:02:48Z</time>
      </trkpt>
      <trkpt lat="40.5788650" lon="-3.9453640">
        <ele>830.0</ele>
        <time>2019-05-28T08:02:54Z</time>
      </trkpt>
      <trkpt lat="40.5786900" lon="-3.9449610">
        <ele>831.0</ele>
        <time>2019-05-28T08:03:01Z</time>
      </trkpt>
      <trkpt lat="40.5784450" lon="-3.9442970">
        <ele>832.2</ele>
        <time>2019-05-28T08:03:12Z</time>
      </trkpt>
      <trkpt lat="40.5783400" lon="-3.9439250">
        <ele>833.2</ele>
        <time>2019-05-28T08:03:18Z</time>
      </trkpt>
      <trkpt lat="40.5782470" lon="-3.9435450">
        <ele>834.4</ele>
        <time>2019-05-28T08:03:24Z</time>
      </trkpt>
      <trkpt lat="40.5781710" lon="-3.9431630">
        <ele>835.4</ele>
        <time>2019-05-28T08:03:30Z</time>
      </trkpt>
      <trkpt lat="40.5780900" lon="-3.9427040">
        <ele>836.2</ele>
        <time>2019-05-28T08:03:37Z</time>
      </trkpt>
      <trkpt lat="40.5780230" lon="-3.9423120">
        <ele>837.4</ele>
        <time>2019-05-28T08:03:43Z</time>
      </trkpt>
      <trkpt lat="40.5779820" lon="-3.9419810">
        <ele>838.4</ele>
        <time>2019-05-28T08:03:48Z</time>
      </trkpt>
      <trkpt lat="40.5779340" lon="-3.9415900">
        <ele>839.6</ele>
        <time>2019-05-28T08:03:54Z</time>
      </trkpt>
      <trkpt lat="40.5778730" lon="-3.9409320">
        <ele>840.4</ele>
        <time>2019-05-28T08:04:04Z</time>
      </trkpt>
      <trkpt lat="40.5778210" lon="-3.9404620">
        <ele>841.2</ele>
        <time>2019-05-28T08:04:11Z</time>
      </trkpt>
      <trkpt lat="40.5778020" lon="-3.9403300">
        <ele>841.4</ele>
        <time>2019-05-28T08:04:13Z</time>
      </trkpt>
      <trkpt lat="40.5777100" lon="-3.9396580">
        <ele>842.6</ele>
        <time>2019-05-28T08:04:23Z</time>
      </trkpt>
      <trkpt lat="40.5775820" lon="-3.9392900">
        <ele>843.0</ele>
        <time>2019-05-28T08:04:29Z</time>
      </trkpt>
      <trkpt lat="40.5774760" lon="-3.9388730">
        <ele>843.0</ele>
        <time>2019-05-28T08:04:35Z</time>
      </trkpt>
      <trkpt lat="40.5774600" lon="-3.9386320">
        <ele>842.6</ele>
        <time>2019-05-28T08:04:38Z</time>
      </trkpt>
      <trkpt lat="40.5773620" lon="-3.9378880">
        <ele>841.2</ele>
        <time>2019-05-28T08:04:46Z</time>
      </trkpt>
      <trkpt lat="40.5773130" lon="-3.9375340">
        <ele>840.4</ele>
        <time>2019-05-28T08:04:49Z</time>
      </trkpt>
      <trkpt lat="40.5772920" lon="-3.9374080">
        <ele>839.8</ele>
        <time>2019-05-28T08:04:50Z</time>
      </trkpt>
      <trkpt lat="40.5771980" lon="-3.9370140">
        <ele>838.0</ele>
        <time>2019-05-28T08:04:53Z</time>
      </trkpt>
      <trkpt lat="40.5771070" lon="-3.9367480">
        <ele>836.4</ele>
        <time>2019-05-28T08:04:55Z</time>
      </trkpt>
      <trkpt lat="40.5770500" lon="-3.9366160">
        <ele>835.4</ele>
        <time>2019-05-28T08:04:56Z</time>
      </trkpt>
      <trkpt lat="40.5769200" lon="-3.9363560">
        <ele>834.0</ele>
        <time>2019-05-28T08:04:58Z</time>
      </trkpt>
      <trkpt lat="40.5767660" lon="-3.9360980">
        <ele>832.2</ele>
        <time>2019-05-28T08:05:00Z</time>
      </trkpt>
      <trkpt lat="40.5766870" lon="-3.9359710">
        <ele>831.0</ele>
        <time>2019-05-28T08:05:01Z</time>
      </trkpt>
      <trkpt lat="40.5766080" lon="-3.9358410">
        <ele>830.0</ele>
        <time>2019-05-28T08:05:02Z</time>
      </trkpt>
      <trkpt lat="40.5765290" lon="-3.9357120">
        <ele>829.0</ele>
        <time>2019-05-28T08:05:03Z</time>
      </trkpt>
      <trkpt lat="40.5764500" lon="-3.9355800">
        <ele>827.8</ele>
        <time>2019-05-28T08:05:04Z</time>
      </trkpt>
      <trkpt lat="40.5763720" lon="-3.9354470">
        <ele>826.4</ele>
        <time>2019-05-28T08:05:05Z</time>
      </trkpt>
      <trkpt lat="40.5762950" lon="-3.9353200">
        <ele>825.2</ele>
        <time>2019-05-28T08:05:06Z</time>
      </trkpt>
      <trkpt lat="40.5762200" lon="-3.9351930">
        <ele>824.0</ele>
        <time>2019-05-28T08:05:07Z</time>
      </trkpt>
      <trkpt lat="40.5761470" lon="-3.9350630">
        <ele>822.8</ele>
        <time>2019-05-28T08:05:08Z</time>
      </trkpt>
      <trkpt lat="40.5760050" lon="-3.9348100">
        <ele>821.2</ele>
        <time>2019-05-28T08:05:10Z</time>
      </trkpt>
      <trkpt lat="40.5759380" lon="-3.9346880">
        <ele>819.8</ele>
        <time>2019-05-28T08:05:11Z</time>
      </trkpt>
      <trkpt lat="40.5758060" lon="-3.9344490">
        <ele>818.4</ele>
        <time>2019-05-28T08:05:13Z</time>
      </trkpt>
      <trkpt lat="40.5754980" lon="-3.9338290">
        <ele>817.2</ele>
        <time>2019-05-28T08:05:18Z</time>
      </trkpt>
      <trkpt lat="40.5751870" lon="-3.9331710">
        <ele>817.0</ele>
        <time>2019-05-28T08:05:23Z</time>
      </trkpt>
      <trkpt lat="40.5748510" lon="-3.9324670">
        <ele>816.0</ele>
        <time>2019-05-28T08:05:28Z</time>
      </trkpt>
      <trkpt lat="40.5747110" lon="-3.9321770">
        <ele>815.0</ele>
        <time>2019-05-28T08:05:30Z</time>
      </trkpt>
      <trkpt lat="40.5745730" lon="-3.9318840">
        <ele>812.8</ele>
        <time>2019-05-28T08:05:32Z</time>
      </trkpt>
      <trkpt lat="40.5744360" lon="-3.9315930">
        <ele>811.4</ele>
        <time>2019-05-28T08:05:34Z</time>
      </trkpt>
      <trkpt lat="40.5743710" lon="-3.9314470">
        <ele>810.0</ele>
        <time>2019-05-28T08:05:35Z</time>
      </trkpt>
      <trkpt lat="40.5743100" lon="-3.9313010">
        <ele>808.8</ele>
        <time>2019-05-28T08:05:36Z</time>
      </trkpt>
      <trkpt lat="40.5742020" lon="-3.9310090">
        <ele>807.0</ele>
        <time>2019-05-28T08:05:38Z</time>
      </trkpt>
      <trkpt lat="40.5741570" lon="-3.9308620">
        <ele>806.0</ele>
        <time>2019-05-28T08:05:39Z</time>
      </trkpt>
      <trkpt lat="40.5741180" lon="-3.9307150">
        <ele>805.0</ele>
        <time>2019-05-28T08:05:40Z</time>
      </trkpt>
      <trkpt lat="40.5740180" lon="-3.9300070">
        <ele>804.0</ele>
        <time>2019-05-28T08:05:45Z</time>
      </trkpt>
      <trkpt lat="40.5740060" lon="-3.9296210">
        <ele>804.0</ele>
        <time>2019-05-28T08:05:48Z</time>
      </trkpt>
      <trkpt lat="40.5740020" lon="-3.9292540">
        <ele>805.0</ele>
        <time>2019-05-28T08:05:51Z</time>
      </trkpt>
      <trkpt lat="40.5739740" lon="-3.9289020">
        <ele>806.4</ele>
        <time>2019-05-28T08:05:54Z</time>
      </trkpt>
      <trkpt lat="40.5739620" lon="-3.9286790">
        <ele>806.8</ele>
        <time>2019-05-28T08:05:56Z</time>
      </trkpt>
      <trkpt lat="40.5739380" lon="-3.9284680">
        <ele>807.4</ele>
        <time>2019-05-28T08:05:58Z</time>
      </trkpt>
      <trkpt lat="40.5739140" lon="-3.9282580">
        <ele>808.4</ele>
        <time>2019-05-28T08:06:00Z</time>
      </trkpt>
      <trkpt lat="40.5738990" lon="-3.9281530">
        <ele>808.6</ele>
        <time>2019-05-28T08:06:01Z</time>
      </trkpt>
      <trkpt lat="40.5738420" lon="-3.9278400">
        <ele>810.2</ele>
        <time>2019-05-28T08:06:04Z</time>
      </trkpt>
      <trkpt lat="40.5738160" lon="-3.9277370">
        <ele>810.8</ele>
        <time>2019-05-28T08:06:05Z</time>
      </trkpt>
      <trkpt lat="40.5737590" lon="-3.9275310">
        <ele>811.6</ele>
        <time>2019-05-28T08:06:07Z</time>
      </trkpt>
      <trkpt lat="40.5736730" lon="-3.9272210">
        <ele>812.8</ele>
        <time>2019-05-28T08:06:10Z</time>
      </trkpt>
      <trkpt lat="40.5734670" lon="-3.9266350">
        <ele>813.6</ele>
        <time>2019-05-28T08:06:16Z</time>
      </trkpt>
      <trkpt lat="40.5733890" lon="-3.9264650">
        <ele>813.8</ele>
        <time>2019-05-28T08:06:18Z</time>
      </trkpt>
      <trkpt lat="40.5730550" lon="-3.9258310">
        <ele>814.2</ele>
        <time>2019-05-28T08:06:26Z</time>
      </trkpt>
      <trkpt lat="40.5728610" lon="-3.9255300">
        <ele>814.4</ele>
        <time>2019-05-28T08:06:30Z</time>
      </trkpt>
      <trkpt lat="40.5725820" lon="-3.9251660">
        <ele>814.6</ele>
        <time>2019-05-28T08:06:35Z</time>
      </trkpt>
      <trkpt lat="40.5724630" lon="-3.9250390">
        <ele>814.6</ele>
        <time>2019-05-28T08:06:37Z</time>
      </trkpt>
      <trkpt lat="40.5721740" lon="-3.9250600">
        <ele>814.6</ele>
        <time>2019-05-28T08:06:41Z</time>
      </trkpt>
      <trkpt lat="40.5721220" lon="-3.9251180">
        <ele>814.6</ele>
        <time>2019-05-28T08:06:42Z</time>
      </trkpt>
      <trkpt lat="40.5720670" lon="-3.9251570">
        <ele>814.6</ele>
        <time>2019-05-28T08:06:43Z</time>
      </trkpt>
      <trkpt lat="40.5719550" lon="-3.9251090">
        <ele>814.6</ele>
        <time>2019-05-28T08:06:45Z</time>
      </trkpt>
      <trkpt lat="40.5719290" lon="-3.9247380">
        <ele>814.4</ele>
        <time>2019-05-28T08:06:49Z</time>
      </trkpt>
      <trkpt lat="40.5719430" lon="-3.9245160">
        <ele>814.0</ele>
        <time>2019-05-28T08:06:51Z</time>
      </trkpt>
      <trkpt lat="40.5717730" lon="-3.9240740">
        <ele>813.6</ele>
        <time>2019-05-28T08:06:55Z</time>
      </trkpt>
      <trkpt lat="40.5716230" lon="-3.9238850">
        <ele>812.8</ele>
        <time>2019-05-28T08:06:57Z</time>
      </trkpt>
      <trkpt lat="40.5715480" lon="-3.9237890">
        <ele>812.2</ele>
        <time>2019-05-28T08:06:58Z</time>
      </trkpt>
      <trkpt lat="40.5713950" lon="-3.9235930">
        <ele>810.4</ele>
        <time>2019-05-28T08:07:00Z</time>
      </trkpt>
      <trkpt lat="40.5713140" lon="-3.9234990">
        <ele>809.4</ele>
        <time>2019-05-28T08:07:01Z</time>
      </trkpt>
      <trkpt lat="40.5711460" lon="-3.9233040">
        <ele>808.0</ele>
        <time>2019-05-28T08:07:03Z</time>
      </trkpt>
      <trkpt lat="40.5709770" lon="-3.9230910">
        <ele>807.0</ele>
        <time>2019-05-28T08:07:05Z</time>
      </trkpt>
      <trkpt lat="40.5708230" lon="-3.9228430">
        <ele>805.4</ele>
        <time>2019-05-28T08:07:07Z</time>
      </trkpt>
      <trkpt lat="40.5707000" lon="-3.9225710">
        <ele>803.4</ele>
        <time>2019-05-28T08:07:09Z</time>
      </trkpt>
      <trkpt lat="40.5705890" lon="-3.9222700">
        <ele>802.0</ele>
        <time>2019-05-28T08:07:11Z</time>
      </trkpt>
      <trkpt lat="40.5704800" lon="-3.9219600">
        <ele>800.0</ele>
        <time>2019-05-28T08:07:13Z</time>
      </trkpt>
      <trkpt lat="40.5704210" lon="-3.9218100">
        <ele>798.8</ele>
        <time>2019-05-28T08:07:14Z</time>
      </trkpt>
      <trkpt lat="40.5703620" lon="-3.9216660">
        <ele>797.4</ele>
        <time>2019-05-28T08:07:15Z</time>
      </trkpt>
      <trkpt lat="40.5703010" lon="-3.9215220">
        <ele>796.2</ele>
        <time>2019-05-28T08:07:16Z</time>
      </trkpt>
      <trkpt lat="40.5701870" lon="-3.9212440">
        <ele>793.8</ele>
        <time>2019-05-28T08:07:18Z</time>
      </trkpt>
      <trkpt lat="40.5701330" lon="-3.9211110">
        <ele>792.4</ele>
        <time>2019-05-28T08:07:19Z</time>
      </trkpt>
      <trkpt lat="40.5700290" lon="-3.9208590">
        <ele>791.4</ele>
        <time>2019-05-28T08:07:21Z</time>
      </trkpt>
      <trkpt lat="40.5697330" lon="-3.9201680">
        <ele>791.0</ele>
        <time>2019-05-28T08:07:27Z</time>
      </trkpt>
      <trkpt lat="40.5694360" lon="-3.9195150">
        <ele>792.0</ele>
        <time>2019-05-28T08:07:33Z</time>
      </trkpt>
      <trkpt lat="40.5691320" lon="-3.9188710">
        <ele>792.0</ele>
        <time>2019-05-28T08:07:39Z</time>
      </trkpt>
      <trkpt lat="40.5688270" lon="-3.9182120">
        <ele>791.2</ele>
        <time>2019-05-28T08:07:45Z</time>
      </trkpt>
      <trkpt lat="40.5686780" lon="-3.9178800">
        <ele>790.0</ele>
        <time>2019-05-28T08:07:48Z</time>
      </trkpt>
      <trkpt lat="40.5684640" lon="-3.9174430">
        <ele>788.8</ele>
        <time>2019-05-28T08:07:52Z</time>
      </trkpt>
      <trkpt lat="40.5683080" lon="-3.9171130">
        <ele>787.8</ele>
        <time>2019-05-28T08:07:55Z</time>
      </trkpt>
      <trkpt lat="40.5680640" lon="-3.9165620">
        <ele>786.2</ele>
        <time>2019-05-28T08:08:00Z</time>
      </trkpt>
      <trkpt lat="40.5679020" lon="-3.9162410">
        <ele>785.0</ele>
        <time>2019-05-28T08:08:03Z</time>
      </trkpt>
      <trkpt lat="40.5677420" lon="-3.9159290">
        <ele>783.8</ele>
        <time>2019-05-28T08:08:06Z</time>
      </trkpt>
      <trkpt lat="40.5675290" lon="-3.9155190">
        <ele>782.4</ele>
        <time>2019-05-28T08:08:10Z</time>
      </trkpt>
      <trkpt lat="40.5673120" lon="-3.9151050">
        <ele>781.4</ele>
        <time>2019-05-28T08:08:14Z</time>
      </trkpt>
      <trkpt lat="40.5671340" lon="-3.9147910">
        <ele>780.2</ele>
        <time>2019-05-28T08:08:17Z</time>
      </trkpt>
      <trkpt lat="40.5667550" lon="-3.9141330">
        <ele>779.0</ele>
        <time>2019-05-28T08:08:23Z</time>
      </trkpt>
      <trkpt lat="40.5665560" lon="-3.9138250">
        <ele>777.6</ele>
        <time>2019-05-28T08:08:26Z</time>
      </trkpt>
      <trkpt lat="40.5664280" lon="-3.9136210">
        <ele>776.0</ele>
        <time>2019-05-28T08:08:28Z</time>
      </trkpt>
      <trkpt lat="40.5663020" lon="-3.9134220">
        <ele>774.6</ele>
        <time>2019-05-28T08:08:30Z</time>
      </trkpt>
      <trkpt lat="40.5659750" lon="-3.9128060">
        <ele>773.6</ele>
        <time>2019-05-28T08:08:36Z</time>
      </trkpt>
      <trkpt lat="40.5658710" lon="-3.9125920">
        <ele>773.4</ele>
        <time>2019-05-28T08:08:38Z</time>
      </trkpt>
      <trkpt lat="40.5655760" lon="-3.9118770">
        <ele>772.0</ele>
        <time>2019-05-28T08:08:44Z</time>
      </trkpt>
      <trkpt lat="40.5654810" lon="-3.9116150">
        <ele>770.8</ele>
        <time>2019-05-28T08:08:46Z</time>
      </trkpt>
      <trkpt lat="40.5653830" lon="-3.9113450">
        <ele>769.4</ele>
        <time>2019-05-28T08:08:48Z</time>
      </trkpt>
      <trkpt lat="40.5652740" lon="-3.9110670">
        <ele>768.0</ele>
        <time>2019-05-28T08:08:50Z</time>
      </trkpt>
      <trkpt lat="40.5651580" lon="-3.9107780">
        <ele>766.2</ele>
        <time>2019-05-28T08:08:52Z</time>
      </trkpt>
      <trkpt lat="40.5650380" lon="-3.9104750">
        <ele>764.6</ele>
        <time>2019-05-28T08:08:54Z</time>
      </trkpt>
      <trkpt lat="40.5648520" lon="-3.9100070">
        <ele>763.4</ele>
        <time>2019-05-28T08:08:57Z</time>
      </trkpt>
      <trkpt lat="40.5647230" lon="-3.9096870">
        <ele>761.8</ele>
        <time>2019-05-28T08:08:59Z</time>
      </trkpt>
      <trkpt lat="40.5646570" lon="-3.9095260">
        <ele>760.6</ele>
        <time>2019-05-28T08:09:00Z</time>
      </trkpt>
      <trkpt lat="40.5645900" lon="-3.9093670">
        <ele>759.4</ele>
        <time>2019-05-28T08:09:01Z</time>
      </trkpt>
      <trkpt lat="40.5644550" lon="-3.9090520">
        <ele>757.6</ele>
        <time>2019-05-28T08:09:03Z</time>
      </trkpt>
      <trkpt lat="40.5643170" lon="-3.9087450">
        <ele>755.6</ele>
        <time>2019-05-28T08:09:05Z</time>
      </trkpt>
      <trkpt lat="40.5642470" lon="-3.9085940">
        <ele>754.4</ele>
        <time>2019-05-28T08:09:06Z</time>
      </trkpt>
      <trkpt lat="40.5641780" lon="-3.9084440">
        <ele>753.2</ele>
        <time>2019-05-28T08:09:07Z</time>
      </trkpt>
      <trkpt lat="40.5641100" lon="-3.9082950">
        <ele>751.8</ele>
        <time>2019-05-28T08:09:08Z</time>
      </trkpt>
      <trkpt lat="40.5640420" lon="-3.9081490">
        <ele>750.8</ele>
        <time>2019-05-28T08:09:09Z</time>
      </trkpt>
      <trkpt lat="40.5639060" lon="-3.9078620">
        <ele>749.8</ele>
        <time>2019-05-28T08:09:11Z</time>
      </trkpt>
      <trkpt lat="40.5637130" lon="-3.9074420">
        <ele>748.2</ele>
        <time>2019-05-28T08:09:14Z</time>
      </trkpt>
      <trkpt lat="40.5635880" lon="-3.9071720">
        <ele>747.2</ele>
        <time>2019-05-28T08:09:16Z</time>
      </trkpt>
      <trkpt lat="40.5632710" lon="-3.9065260">
        <ele>746.2</ele>
        <time>2019-05-28T08:09:21Z</time>
      </trkpt>
      <trkpt lat="40.5632100" lon="-3.9064000">
        <ele>746.2</ele>
        <time>2019-05-28T08:09:22Z</time>
      </trkpt>
      <trkpt lat="40.5629040" lon="-3.9057970">
        <ele>745.4</ele>
        <time>2019-05-28T08:09:27Z</time>
      </trkpt>
      <trkpt lat="40.5628440" lon="-3.9056810">
        <ele>744.8</ele>
        <time>2019-05-28T08:09:28Z</time>
      </trkpt>
      <trkpt lat="40.5625070" lon="-3.9050110">
        <ele>743.8</ele>
        <time>2019-05-28T08:09:34Z</time>
      </trkpt>
      <trkpt lat="40.5621800" lon="-3.9043720">
        <ele>743.0</ele>
        <time>2019-05-28T08:09:40Z</time>
      </trkpt>
      <trkpt lat="40.5619950" lon="-3.9040640">
        <ele>742.4</ele>
        <time>2019-05-28T08:09:43Z</time>
      </trkpt>
      <trkpt lat="40.5616280" lon="-3.9036040">
        <ele>741.4</ele>
        <time>2019-05-28T08:09:48Z</time>
      </trkpt>
      <trkpt lat="40.5611250" lon="-3.9031560">
        <ele>740.2</ele>
        <time>2019-05-28T08:09:54Z</time>
      </trkpt>
      <trkpt lat="40.5609510" lon="-3.9030260">
        <ele>739.0</ele>
        <time>2019-05-28T08:09:56Z</time>
      </trkpt>
      <trkpt lat="40.5606890" lon="-3.9028380">
        <ele>737.8</ele>
        <time>2019-05-28T08:09:59Z</time>
      </trkpt>
      <trkpt lat="40.5601780" lon="-3.9025040">
        <ele>737.4</ele>
        <time>2019-05-28T08:10:05Z</time>
      </trkpt>
      <trkpt lat="40.5596790" lon="-3.9022410">
        <ele>737.4</ele>
        <time>2019-05-28T08:10:11Z</time>
      </trkpt>
      <trkpt lat="40.5593370" lon="-3.9020680">
        <ele>737.0</ele>
        <time>2019-05-28T08:10:15Z</time>
      </trkpt>
      <trkpt lat="40.5587870" lon="-3.9017970">
        <ele>736.6</ele>
        <time>2019-05-28T08:10:21Z</time>
      </trkpt>
      <trkpt lat="40.5585980" lon="-3.9017030">
        <ele>735.2</ele>
        <time>2019-05-28T08:10:23Z</time>
      </trkpt>
      <trkpt lat="40.5584080" lon="-3.9016100">
        <ele>734.0</ele>
        <time>2019-05-28T08:10:25Z</time>
      </trkpt>
      <trkpt lat="40.5582150" lon="-3.9015150">
        <ele>732.8</ele>
        <time>2019-05-28T08:10:27Z</time>
      </trkpt>
      <trkpt lat="40.5580220" lon="-3.9014200">
        <ele>731.4</ele>
        <time>2019-05-28T08:10:29Z</time>
      </trkpt>
      <trkpt lat="40.5578310" lon="-3.9013230">
        <ele>730.2</ele>
        <time>2019-05-28T08:10:31Z</time>
      </trkpt>
      <trkpt lat="40.5576430" lon="-3.9012280">
        <ele>729.6</ele>
        <time>2019-05-28T08:10:33Z</time>
      </trkpt>
      <trkpt lat="40.5575480" lon="-3.9011910">
        <ele>729.6</ele>
        <time>2019-05-28T08:10:34Z</time>
      </trkpt>
      <trkpt lat="40.5574530" lon="-3.9011740">
        <ele>729.0</ele>
        <time>2019-05-28T08:10:35Z</time>
      </trkpt>
      <trkpt lat="40.5572750" lon="-3.9011210">
        <ele>727.6</ele>
        <time>2019-05-28T08:10:37Z</time>
      </trkpt>
      <trkpt lat="40.5571440" lon="-3.9009790">
        <ele>727.0</ele>
        <time>2019-05-28T08:10:39Z</time>
      </trkpt>
      <trkpt lat="40.5570760" lon="-3.9009120">
        <ele>726.8</ele>
        <time>2019-05-28T08:10:40Z</time>
      </trkpt>
      <trkpt lat="40.5569340" lon="-3.9007950">
        <ele>726.4</ele>
        <time>2019-05-28T08:10:42Z</time>
      </trkpt>
      <trkpt lat="40.5567950" lon="-3.9006770">
        <ele>726.4</ele>
        <time>2019-05-28T08:10:44Z</time>
      </trkpt>
      <trkpt lat="40.5567300" lon="-3.9006200">
        <ele>726.4</ele>
        <time>2019-05-28T08:10:45Z</time>
      </trkpt>
      <trkpt lat="40.5565990" lon="-3.9005100">
        <ele>726.4</ele>
        <time>2019-05-28T08:10:47Z</time>
      </trkpt>
      <trkpt lat="40.5564740" lon="-3.9004120">
        <ele>726.6</ele>
        <time>2019-05-28T08:10:49Z</time>
      </trkpt>
      <trkpt lat="40.5563480" lon="-3.9003200">
        <ele>726.6</ele>
        <time>2019-05-28T08:10:51Z</time>
      </trkpt>
      <trkpt lat="40.5562170" lon="-3.9002350">
        <ele>727.2</ele>
        <time>2019-05-28T08:10:53Z</time>
      </trkpt>
      <trkpt lat="40.5560820" lon="-3.9001560">
        <ele>728.4</ele>
        <time>2019-05-28T08:10:55Z</time>
      </trkpt>
      <trkpt lat="40.5559490" lon="-3.9000810">
        <ele>730.0</ele>
        <time>2019-05-28T08:10:57Z</time>
      </trkpt>
      <trkpt lat="40.5557510" lon="-3.8999740">
        <ele>731.2</ele>
        <time>2019-05-28T08:11:00Z</time>
      </trkpt>
      <trkpt lat="40.5554210" lon="-3.8998090">
        <ele>731.4</ele>
        <time>2019-05-28T08:11:05Z</time>
      </trkpt>
      <trkpt lat="40.5549340" lon="-3.8995640">
        <ele>731.2</ele>
        <time>2019-05-28T08:11:12Z</time>
      </trkpt>
      <trkpt lat="40.5543990" lon="-3.8992980">
        <ele>730.2</ele>
        <time>2019-05-28T08:11:19Z</time>
      </trkpt>
      <trkpt lat="40.5538470" lon="-3.8990170">
        <ele>729.2</ele>
        <time>2019-05-28T08:11:26Z</time>
      </trkpt>
      <trkpt lat="40.5537670" lon="-3.8989800">
        <ele>728.8</ele>
        <time>2019-05-28T08:11:27Z</time>
      </trkpt>
      <trkpt lat="40.5535270" lon="-3.8988600">
        <ele>727.8</ele>
        <time>2019-05-28T08:11:30Z</time>
      </trkpt>
      <trkpt lat="40.5529620" lon="-3.8985740">
        <ele>726.8</ele>
        <time>2019-05-28T08:11:37Z</time>
      </trkpt>
      <trkpt lat="40.5528790" lon="-3.8985320">
        <ele>726.6</ele>
        <time>2019-05-28T08:11:38Z</time>
      </trkpt>
      <trkpt lat="40.5523700" lon="-3.8982800">
        <ele>726.0</ele>
        <time>2019-05-28T08:11:44Z</time>
      </trkpt>
      <trkpt lat="40.5521030" lon="-3.8981560">
        <ele>725.4</ele>
        <time>2019-05-28T08:11:47Z</time>
      </trkpt>
      <trkpt lat="40.5517420" lon="-3.8979740">
        <ele>724.0</ele>
        <time>2019-05-28T08:11:51Z</time>
      </trkpt>
      <trkpt lat="40.5514590" lon="-3.8978760">
        <ele>722.8</ele>
        <time>2019-05-28T08:11:54Z</time>
      </trkpt>
      <trkpt lat="40.5509590" lon="-3.8978350">
        <ele>721.6</ele>
        <time>2019-05-28T08:11:59Z</time>
      </trkpt>
      <trkpt lat="40.5506520" lon="-3.8977430">
        <ele>720.2</ele>
        <time>2019-05-28T08:12:02Z</time>
      </trkpt>
      <trkpt lat="40.5504460" lon="-3.8976430">
        <ele>719.0</ele>
        <time>2019-05-28T08:12:04Z</time>
      </trkpt>
      <trkpt lat="40.5502430" lon="-3.8975340">
        <ele>718.0</ele>
        <time>2019-05-28T08:12:06Z</time>
      </trkpt>
      <trkpt lat="40.5500380" lon="-3.8974170">
        <ele>716.6</ele>
        <time>2019-05-28T08:12:08Z</time>
      </trkpt>
      <trkpt lat="40.5498290" lon="-3.8972920">
        <ele>715.0</ele>
        <time>2019-05-28T08:12:10Z</time>
      </trkpt>
      <trkpt lat="40.5496120" lon="-3.8971690">
        <ele>713.8</ele>
        <time>2019-05-28T08:12:12Z</time>
      </trkpt>
      <trkpt lat="40.5493940" lon="-3.8970500">
        <ele>713.0</ele>
        <time>2019-05-28T08:12:14Z</time>
      </trkpt>
      <trkpt lat="40.5492850" lon="-3.8969930">
        <ele>712.4</ele>
        <time>2019-05-28T08:12:15Z</time>
      </trkpt>
      <trkpt lat="40.5488570" lon="-3.8967920">
        <ele>711.0</ele>
        <time>2019-05-28T08:12:19Z</time>
      </trkpt>
      <trkpt lat="40.5486510" lon="-3.8966810">
        <ele>710.0</ele>
        <time>2019-05-28T08:12:21Z</time>
      </trkpt>
      <trkpt lat="40.5480440" lon="-3.8964040">
        <ele>709.8</ele>
        <time>2019-05-28T08:12:28Z</time>
      </trkpt>
      <trkpt lat="40.5477910" lon="-3.8962570">
        <ele>711.0</ele>
        <time>2019-05-28T08:12:32Z</time>
      </trkpt>
      <trkpt lat="40.5477380" lon="-3.8962190">
        <ele>711.8</ele>
        <time>2019-05-28T08:12:33Z</time>
      </trkpt>
      <trkpt lat="40.5476910" lon="-3.8961820">
        <ele>712.8</ele>
        <time>2019-05-28T08:12:34Z</time>
      </trkpt>
      <trkpt lat="40.5475910" lon="-3.8961080">
        <ele>714.6</ele>
        <time>2019-05-28T08:12:36Z</time>
      </trkpt>
      <trkpt lat="40.5474870" lon="-3.8960370">
        <ele>716.6</ele>
        <time>2019-05-28T08:12:38Z</time>
      </trkpt>
      <trkpt lat="40.5474300" lon="-3.8960100">
        <ele>717.4</ele>
        <time>2019-05-28T08:12:39Z</time>
      </trkpt>
      <trkpt lat="40.5473710" lon="-3.8959920">
        <ele>718.2</ele>
        <time>2019-05-28T08:12:40Z</time>
      </trkpt>
      <trkpt lat="40.5471840" lon="-3.8959630">
        <ele>719.2</ele>
        <time>2019-05-28T08:12:43Z</time>
      </trkpt>
      <trkpt lat="40.5471220" lon="-3.8959430">
        <ele>719.2</ele>
        <time>2019-05-28T08:12:44Z</time>
      </trkpt>
      <trkpt lat="40.5468000" lon="-3.8958780">
        <ele>719.2</ele>
        <time>2019-05-28T08:12:49Z</time>
      </trkpt>
      <trkpt lat="40.5467310" lon="-3.8958900">
        <ele>719.2</ele>
        <time>2019-05-28T08:12:50Z</time>
      </trkpt>
      <trkpt lat="40.5465090" lon="-3.8958520">
        <ele>719.2</ele>
        <time>2019-05-28T08:12:53Z</time>
      </trkpt>
      <trkpt lat="40.5461210" lon="-3.8955140">
        <ele>718.8</ele>
        <time>2019-05-28T08:12:58Z</time>
      </trkpt>
      <trkpt lat="40.5458810" lon="-3.8952110">
        <ele>717.6</ele>
        <time>2019-05-28T08:13:01Z</time>
      </trkpt>
      <trkpt lat="40.5457090" lon="-3.8950020">
        <ele>715.8</ele>
        <time>2019-05-28T08:13:03Z</time>
      </trkpt>
      <trkpt lat="40.5456210" lon="-3.8949110">
        <ele>714.4</ele>
        <time>2019-05-28T08:13:04Z</time>
      </trkpt>
      <trkpt lat="40.5455200" lon="-3.8948410">
        <ele>713.2</ele>
        <time>2019-05-28T08:13:05Z</time>
      </trkpt>
      <trkpt lat="40.5454150" lon="-3.8947890">
        <ele>711.8</ele>
        <time>2019-05-28T08:13:06Z</time>
      </trkpt>
      <trkpt lat="40.5453110" lon="-3.8947420">
        <ele>710.6</ele>
        <time>2019-05-28T08:13:07Z</time>
      </trkpt>
      <trkpt lat="40.5451040" lon="-3.8946530">
        <ele>708.6</ele>
        <time>2019-05-28T08:13:09Z</time>
      </trkpt>
      <trkpt lat="40.5449020" lon="-3.8945660">
        <ele>707.0</ele>
        <time>2019-05-28T08:13:11Z</time>
      </trkpt>
      <trkpt lat="40.5444030" lon="-3.8943560">
        <ele>705.8</ele>
        <time>2019-05-28T08:13:16Z</time>
      </trkpt>
      <trkpt lat="40.5438170" lon="-3.8941200">
        <ele>705.6</ele>
        <time>2019-05-28T08:13:22Z</time>
      </trkpt>
      <trkpt lat="40.5432460" lon="-3.8938800">
        <ele>705.6</ele>
        <time>2019-05-28T08:13:28Z</time>
      </trkpt>
      <trkpt lat="40.5426740" lon="-3.8936260">
        <ele>705.2</ele>
        <time>2019-05-28T08:13:34Z</time>
      </trkpt>
      <trkpt lat="40.5422930" lon="-3.8934600">
        <ele>704.8</ele>
        <time>2019-05-28T08:13:38Z</time>
      </trkpt>
      <trkpt lat="40.5419130" lon="-3.8932740">
        <ele>703.6</ele>
        <time>2019-05-28T08:13:42Z</time>
      </trkpt>
      <trkpt lat="40.5415320" lon="-3.8930720">
        <ele>703.2</ele>
        <time>2019-05-28T08:13:46Z</time>
      </trkpt>
      <trkpt lat="40.5410630" lon="-3.8928060">
        <ele>702.8</ele>
        <time>2019-05-28T08:13:51Z</time>
      </trkpt>
      <trkpt lat="40.5405090" lon="-3.8924690">
        <ele>702.6</ele>
        <time>2019-05-28T08:13:57Z</time>
      </trkpt>
      <trkpt lat="40.5402360" lon="-3.8923040">
        <ele>702.6</ele>
        <time>2019-05-28T08:14:00Z</time>
      </trkpt>
      <trkpt lat="40.5397140" lon="-3.8919780">
        <ele>701.8</ele>
        <time>2019-05-28T08:14:06Z</time>
      </trkpt>
      <trkpt lat="40.5396400" lon="-3.8919310">
        <ele>701.8</ele>
        <time>2019-05-28T08:14:07Z</time>
      </trkpt>
      <trkpt lat="40.5395080" lon="-3.8918470">
        <ele>701.8</ele>
        <time>2019-05-28T08:14:09Z</time>
      </trkpt>
      <trkpt lat="40.5393800" lon="-3.8917670">
        <ele>701.8</ele>
        <time>2019-05-28T08:14:11Z</time>
      </trkpt>
      <trkpt lat="40.5388530" lon="-3.8914600">
        <ele>701.8</ele>
        <time>2019-05-28T08:14:18Z</time>
      </trkpt>
      <trkpt lat="40.5386050" lon="-3.8912980">
        <ele>702.0</ele>
        <time>2019-05-28T08:14:21Z</time>
      </trkpt>
      <trkpt lat="40.5383510" lon="-3.8911310">
        <ele>702.0</ele>
        <time>2019-05-28T08:14:24Z</time>
      </trkpt>
      <trkpt lat="40.5381800" lon="-3.8910220">
        <ele>701.8</ele>
        <time>2019-05-28T08:14:26Z</time>
      </trkpt>
      <trkpt lat="40.5379200" lon="-3.8908630">
        <ele>701.6</ele>
        <time>2019-05-28T08:14:29Z</time>
      </trkpt>
      <trkpt lat="40.5378330" lon="-3.8908130">
        <ele>701.4</ele>
        <time>2019-05-28T08:14:30Z</time>
      </trkpt>
      <trkpt lat="40.5373170" lon="-3.8904920">
        <ele>701.0</ele>
        <time>2019-05-28T08:14:36Z</time>
      </trkpt>
      <trkpt lat="40.5367780" lon="-3.8901600">
        <ele>700.6</ele>
        <time>2019-05-28T08:14:42Z</time>
      </trkpt>
      <trkpt lat="40.5365010" lon="-3.8900140">
        <ele>700.2</ele>
        <time>2019-05-28T08:14:45Z</time>
      </trkpt>
      <trkpt lat="40.5359480" lon="-3.8897270">
        <ele>699.2</ele>
        <time>2019-05-28T08:14:51Z</time>
      </trkpt>
      <trkpt lat="40.5353910" lon="-3.8894950">
        <ele>698.0</ele>
        <time>2019-05-28T08:14:57Z</time>
      </trkpt>
      <trkpt lat="40.5348390" lon="-3.8893030">
        <ele>697.2</ele>
        <time>2019-05-28T08:15:03Z</time>
      </trkpt>
      <trkpt lat="40.5346510" lon="-3.8892420">
        <ele>697.0</ele>
        <time>2019-05-28T08:15:05Z</time>
      </trkpt>
      <trkpt lat="40.5340790" lon="-3.8890470">
        <ele>696.2</ele>
        <time>2019-05-28T08:15:11Z</time>
      </trkpt>
      <trkpt lat="40.5338880" lon="-3.8889870">
        <ele>695.8</ele>
        <time>2019-05-28T08:15:13Z</time>
      </trkpt>
      <trkpt lat="40.5333230" lon="-3.8887810">
        <ele>694.8</ele>
        <time>2019-05-28T08:15:19Z</time>
      </trkpt>
      <trkpt lat="40.5332310" lon="-3.8887480">
        <ele>694.8</ele>
        <time>2019-05-28T08:15:20Z</time>
      </trkpt>
      <trkpt lat="40.5327760" lon="-3.8885910">
        <ele>693.6</ele>
        <time>2019-05-28T08:15:25Z</time>
      </trkpt>
      <trkpt lat="40.5321820" lon="-3.8883690">
        <ele>693.4</ele>
        <time>2019-05-28T08:15:32Z</time>
      </trkpt>
      <trkpt lat="40.5318600" lon="-3.8882550">
        <ele>694.0</ele>
        <time>2019-05-28T08:15:36Z</time>
      </trkpt>
      <trkpt lat="40.5316170" lon="-3.8881750">
        <ele>694.6</ele>
        <time>2019-05-28T08:15:39Z</time>
      </trkpt>
      <trkpt lat="40.5312110" lon="-3.8880270">
        <ele>696.0</ele>
        <time>2019-05-28T08:15:44Z</time>
      </trkpt>
      <trkpt lat="40.5306350" lon="-3.8878350">
        <ele>696.8</ele>
        <time>2019-05-28T08:15:51Z</time>
      </trkpt>
      <trkpt lat="40.5300510" lon="-3.8876440">
        <ele>697.0</ele>
        <time>2019-05-28T08:15:58Z</time>
      </trkpt>
      <trkpt lat="40.5299670" lon="-3.8876190">
        <ele>697.0</ele>
        <time>2019-05-28T08:15:59Z</time>
      </trkpt>
      <trkpt lat="40.5293810" lon="-3.8874780">
        <ele>697.0</ele>
        <time>2019-05-28T08:16:06Z</time>
      </trkpt>
      <trkpt lat="40.5287980" lon="-3.8873790">
        <ele>697.6</ele>
        <time>2019-05-28T08:16:13Z</time>
      </trkpt>
      <trkpt lat="40.5286310" lon="-3.8873580">
        <ele>697.8</ele>
        <time>2019-05-28T08:16:15Z</time>
      </trkpt>
      <trkpt lat="40.5280420" lon="-3.8872990">
        <ele>698.0</ele>
        <time>2019-05-28T08:16:22Z</time>
      </trkpt>
      <trkpt lat="40.5274630" lon="-3.8872640">
        <ele>698.6</ele>
        <time>2019-05-28T08:16:29Z</time>
      </trkpt>
      <trkpt lat="40.5273810" lon="-3.8872600">
        <ele>698.8</ele>
        <time>2019-05-28T08:16:30Z</time>
      </trkpt>
      <trkpt lat="40.5270560" lon="-3.8872300">
        <ele>700.0</ele>
        <time>2019-05-28T08:16:34Z</time>
      </trkpt>
      <trkpt lat="40.5265630" lon="-3.8871610">
        <ele>701.0</ele>
        <time>2019-05-28T08:16:40Z</time>
      </trkpt>
      <trkpt lat="40.5259870" lon="-3.8871020">
        <ele>702.0</ele>
        <time>2019-05-28T08:16:47Z</time>
      </trkpt>
      <trkpt lat="40.5259050" lon="-3.8870980">
        <ele>702.4</ele>
        <time>2019-05-28T08:16:48Z</time>
      </trkpt>
      <trkpt lat="40.5255680" lon="-3.8870880">
        <ele>703.4</ele>
        <time>2019-05-28T08:16:52Z</time>
      </trkpt>
      <trkpt lat="40.5249680" lon="-3.8870850">
        <ele>704.2</ele>
        <time>2019-05-28T08:16:59Z</time>
      </trkpt>
      <trkpt lat="40.5244360" lon="-3.8870750">
        <ele>704.4</ele>
        <time>2019-05-28T08:17:05Z</time>
      </trkpt>
      <trkpt lat="40.5238820" lon="-3.8870500">
        <ele>704.4</ele>
        <time>2019-05-28T08:17:11Z</time>
      </trkpt>
      <trkpt lat="40.5233020" lon="-3.8870630">
        <ele>704.8</ele>
        <time>2019-05-28T08:17:17Z</time>
      </trkpt>
      <trkpt lat="40.5226800" lon="-3.8872140">
        <ele>704.8</ele>
        <time>2019-05-28T08:17:23Z</time>
      </trkpt>
      <trkpt lat="40.5221510" lon="-3.8874300">
        <ele>704.6</ele>
        <time>2019-05-28T08:17:28Z</time>
      </trkpt>
      <trkpt lat="40.5218300" lon="-3.8875340">
        <ele>704.2</ele>
        <time>2019-05-28T08:17:31Z</time>
      </trkpt>
      <trkpt lat="40.5216230" lon="-3.8875690">
        <ele>703.2</ele>
        <time>2019-05-28T08:17:33Z</time>
      </trkpt>
      <trkpt lat="40.5212250" lon="-3.8875980">
        <ele>702.0</ele>
        <time>2019-05-28T08:17:37Z</time>
      </trkpt>
      <trkpt lat="40.5210330" lon="-3.8876100">
        <ele>701.8</ele>
        <time>2019-05-28T08:17:39Z</time>
      </trkpt>
      <trkpt lat="40.5209390" lon="-3.8875940">
        <ele>701.8</ele>
        <time>2019-05-28T08:17:40Z</time>
      </trkpt>
      <trkpt lat="40.5207500" lon="-3.8875280">
        <ele>701.4</ele>
        <time>2019-05-28T08:17:42Z</time>
      </trkpt>
      <trkpt lat="40.5205570" lon="-3.8874410">
        <ele>701.2</ele>
        <time>2019-05-28T08:17:44Z</time>
      </trkpt>
      <trkpt lat="40.5203280" lon="-3.8875180">
        <ele>700.8</ele>
        <time>2019-05-28T08:17:47Z</time>
      </trkpt>
      <trkpt lat="40.5198430" lon="-3.8873780">
        <ele>699.4</ele>
        <time>2019-05-28T08:17:54Z</time>
      </trkpt>
      <trkpt lat="40.5201810" lon="-3.8868660">
        <ele>699.2</ele>
        <time>2019-05-28T08:18:01Z</time>
      </trkpt>
      <trkpt lat="40.5205060" lon="-3.8865890">
        <ele>699.2</ele>
        <time>2019-05-28T08:18:06Z</time>
      </trkpt>
      <trkpt lat="40.5206880" lon="-3.8862940">
        <ele>699.0</ele>
        <time>2019-05-28T08:18:09Z</time>
      </trkpt>
      <trkpt lat="40.5208600" lon="-3.8859860">
        <ele>698.8</ele>
        <time>2019-05-28T08:18:12Z</time>
      </trkpt>
      <trkpt lat="40.5209080" lon="-3.8857490">
        <ele>698.4</ele>
        <time>2019-05-28T08:18:14Z</time>
      </trkpt>
      <trkpt lat="40.5208640" lon="-3.8853920">
        <ele>697.0</ele>
        <time>2019-05-28T08:18:17Z</time>
      </trkpt>
      <trkpt lat="40.5212900" lon="-3.8852420">
        <ele>696.2</ele>
        <time>2019-05-28T08:18:23Z</time>
      </trkpt>
      <trkpt lat="40.5214080" lon="-3.8854360">
        <ele>696.2</ele>
        <time>2019-05-28T08:18:25Z</time>
      </trkpt>
      <trkpt lat="40.5214750" lon="-3.8855200">
        <ele>696.2</ele>
        <time>2019-05-28T08:18:26Z</time>
      </trkpt>
      <trkpt lat="40.5219940" lon="-3.8857520">
        <ele>696.6</ele>
        <time>2019-05-28T08:18:32Z</time>
      </trkpt>
      <trkpt lat="40.5220800" lon="-3.8857740">
        <ele>696.6</ele>
        <time>2019-05-28T08:18:33Z</time>
      </trkpt>
      <trkpt lat="40.5224250" lon="-3.8858390">
        <ele>697.2</ele>
        <time>2019-05-28T08:18:37Z</time>
      </trkpt>
      <trkpt lat="40.5226730" lon="-3.8858820">
        <ele>698.6</ele>
        <time>2019-05-28T08:18:40Z</time>
      </trkpt>
      <trkpt lat="40.5229140" lon="-3.8859220">
        <ele>699.8</ele>
        <time>2019-05-28T08:18:43Z</time>
      </trkpt>
      <trkpt lat="40.5231440" lon="-3.8859520">
        <ele>700.8</ele>
        <time>2019-05-28T08:18:46Z</time>
      </trkpt>
      <trkpt lat="40.5235840" lon="-3.8860230">
        <ele>702.0</ele>
        <time>2019-05-28T08:18:52Z</time>
      </trkpt>
      <trkpt lat="40.5237970" lon="-3.8860860">
        <ele>703.0</ele>
        <time>2019-05-28T08:18:55Z</time>
      </trkpt>
      <trkpt lat="40.5240110" lon="-3.8861610">
        <ele>704.0</ele>
        <time>2019-05-28T08:18:58Z</time>
      </trkpt>
      <trkpt lat="40.5245800" lon="-3.8863080">
        <ele>704.6</ele>
        <time>2019-05-28T08:19:05Z</time>
      </trkpt>
      <trkpt lat="40.5251980" lon="-3.8863380">
        <ele>704.0</ele>
        <time>2019-05-28T08:19:12Z</time>
      </trkpt>
      <trkpt lat="40.5257250" lon="-3.8863580">
        <ele>703.6</ele>
        <time>2019-05-28T08:19:18Z</time>
      </trkpt>
      <trkpt lat="40.5260870" lon="-3.8863860">
        <ele>703.0</ele>
        <time>2019-05-28T08:19:22Z</time>
      </trkpt>
      <trkpt lat="40.5266620" lon="-3.8864260">
        <ele>702.4</ele>
        <time>2019-05-28T08:19:28Z</time>
      </trkpt>
      <trkpt lat="40.5271690" lon="-3.8864400">
        <ele>701.6</ele>
        <time>2019-05-28T08:19:33Z</time>
      </trkpt>
      <trkpt lat="40.5273790" lon="-3.8864490">
        <ele>700.2</ele>
        <time>2019-05-28T08:19:35Z</time>
      </trkpt>
      <trkpt lat="40.5276910" lon="-3.8864730">
        <ele>698.8</ele>
        <time>2019-05-28T08:19:38Z</time>
      </trkpt>
      <trkpt lat="40.5280040" lon="-3.8864920">
        <ele>697.8</ele>
        <time>2019-05-28T08:19:41Z</time>
      </trkpt>
      <trkpt lat="40.5284170" lon="-3.8865250">
        <ele>696.8</ele>
        <time>2019-05-28T08:19:45Z</time>
      </trkpt>
      <trkpt lat="40.5290260" lon="-3.8865920">
        <ele>695.8</ele>
        <time>2019-05-28T08:19:51Z</time>
      </trkpt>
      <trkpt lat="40.5291260" lon="-3.8866010">
        <ele>695.6</ele>
        <time>2019-05-28T08:19:52Z</time>
      </trkpt>
      <trkpt lat="40.5297200" lon="-3.8866660">
        <ele>694.6</ele>
        <time>2019-05-28T08:19:58Z</time>
      </trkpt>
      <trkpt lat="40.5302920" lon="-3.8867630">
        <ele>694.2</ele>
        <time>2019-05-28T08:20:04Z</time>
      </trkpt>
      <trkpt lat="40.5308520" lon="-3.8868760">
        <ele>693.8</ele>
        <time>2019-05-28T08:20:10Z</time>
      </trkpt>
      <trkpt lat="40.5314000" lon="-3.8869660">
        <ele>693.6</ele>
        <time>2019-05-28T08:20:16Z</time>
      </trkpt>
      <trkpt lat="40.5319350" lon="-3.8870980">
        <ele>693.8</ele>
        <time>2019-05-28T08:20:22Z</time>
      </trkpt>
      <trkpt lat="40.5324730" lon="-3.8872730">
        <ele>694.4</ele>
        <time>2019-05-28T08:20:28Z</time>
      </trkpt>
      <trkpt lat="40.5330030" lon="-3.8874590">
        <ele>694.6</ele>
        <time>2019-05-28T08:20:34Z</time>
      </trkpt>
      <trkpt lat="40.5335210" lon="-3.8876690">
        <ele>694.8</ele>
        <time>2019-05-28T08:20:40Z</time>
      </trkpt>
      <trkpt lat="40.5340260" lon="-3.8879030">
        <ele>695.2</ele>
        <time>2019-05-28T08:20:46Z</time>
      </trkpt>
      <trkpt lat="40.5346010" lon="-3.8882060">
        <ele>695.4</ele>
        <time>2019-05-28T08:20:53Z</time>
      </trkpt>
      <trkpt lat="40.5350940" lon="-3.8884870">
        <ele>695.8</ele>
        <time>2019-05-28T08:20:59Z</time>
      </trkpt>
      <trkpt lat="40.5355940" lon="-3.8887450">
        <ele>695.8</ele>
        <time>2019-05-28T08:21:05Z</time>
      </trkpt>
      <trkpt lat="40.5361690" lon="-3.8890130">
        <ele>695.8</ele>
        <time>2019-05-28T08:21:12Z</time>
      </trkpt>
      <trkpt lat="40.5364110" lon="-3.8891200">
        <ele>696.4</ele>
        <time>2019-05-28T08:21:15Z</time>
      </trkpt>
      <trkpt lat="40.5369670" lon="-3.8893760">
        <ele>697.2</ele>
        <time>2019-05-28T08:21:22Z</time>
      </trkpt>
      <trkpt lat="40.5371950" lon="-3.8895040">
        <ele>697.2</ele>
        <time>2019-05-28T08:21:25Z</time>
      </trkpt>
      <trkpt lat="40.5377570" lon="-3.8898620">
        <ele>697.8</ele>
        <time>2019-05-28T08:21:33Z</time>
      </trkpt>
      <trkpt lat="40.5378730" lon="-3.8899390">
        <ele>698.0</ele>
        <time>2019-05-28T08:21:35Z</time>
      </trkpt>
      <trkpt lat="40.5379430" lon="-3.8899880">
        <ele>698.2</ele>
        <time>2019-05-28T08:21:37Z</time>
      </trkpt>
      <trkpt lat="40.5379720" lon="-3.8899780">
        <ele>698.8</ele>
        <time>2019-05-28T08:21:39Z</time>
      </trkpt>
      <trkpt lat="40.5379720" lon="-3.8899440">
        <ele>699.2</ele>
        <time>2019-05-28T08:21:41Z</time>
      </trkpt>
      <trkpt lat="40.5379570" lon="-3.8899310">
        <ele>699.4</ele>
        <time>2019-05-28T08:21:42Z</time>
      </trkpt>
      <trkpt lat="40.5378500" lon="-3.8898800">
        <ele>700.2</ele>
        <time>2019-05-28T08:21:47Z</time>
      </trkpt>
      <trkpt lat="40.5377230" lon="-3.8898180">
        <ele>701.4</ele>
        <time>2019-05-28T08:21:52Z</time>
      </trkpt>
      <trkpt lat="40.5376750" lon="-3.8897830">
        <ele>702.6</ele>
        <time>2019-05-28T08:21:55Z</time>
      </trkpt>
      <trkpt lat="40.5376800" lon="-3.8897910">
        <ele>703.0</ele>
        <time>2019-05-28T08:21:56Z</time>
      </trkpt>
      <trkpt lat="40.5377070" lon="-3.8898030">
        <ele>703.8</ele>
        <time>2019-05-28T08:21:58Z</time>
      </trkpt>
      <trkpt lat="40.5377750" lon="-3.8898320">
        <ele>705.0</ele>
        <time>2019-05-28T08:22:01Z</time>
      </trkpt>
      <trkpt lat="40.5378450" lon="-3.8898720">
        <ele>706.0</ele>
        <time>2019-05-28T08:22:04Z</time>
      </trkpt>
      <trkpt lat="40.5378750" lon="-3.8898960">
        <ele>706.2</ele>
        <time>2019-05-28T08:22:06Z</time>
      </trkpt>
      <trkpt lat="40.5378530" lon="-3.8899710">
        <ele>707.2</ele>
        <time>2019-05-28T08:22:09Z</time>
      </trkpt>
      <trkpt lat="40.5378370" lon="-3.8900100">
        <ele>707.4</ele>
        <time>2019-05-28T08:22:10Z</time>
      </trkpt>
      <trkpt lat="40.5377840" lon="-3.8901470">
        <ele>708.2</ele>
        <time>2019-05-28T08:22:13Z</time>
      </trkpt>
      <trkpt lat="40.5375960" lon="-3.8906730">
        <ele>708.8</ele>
        <time>2019-05-28T08:22:23Z</time>
      </trkpt>
      <trkpt lat="40.5376670" lon="-3.8907260">
        <ele>708.8</ele>
        <time>2019-05-28T08:22:26Z</time>
      </trkpt>
      <trkpt lat="40.5377440" lon="-3.8907760">
        <ele>708.8</ele>
        <time>2019-05-28T08:22:29Z</time>
      </trkpt>
      <trkpt lat="40.5377450" lon="-3.8907920">
        <ele>708.8</ele>
        <time>2019-05-28T08:22:30Z</time>
      </trkpt>
      <trkpt lat="40.5377310" lon="-3.8907990">
        <ele>708.6</ele>
        <time>2019-05-28T08:22:32Z</time>
      </trkpt>
      <trkpt lat="40.5376970" lon="-3.8907730">
        <ele>708.2</ele>
        <time>2019-05-28T08:22:34Z</time>
      </trkpt>
      <trkpt lat="40.5374990" lon="-3.8906630">
        <ele>707.2</ele>
        <time>2019-05-28T08:22:38Z</time>
      </trkpt>
      <trkpt lat="40.5373900" lon="-3.8905990">
        <ele>707.0</ele>
        <time>2019-05-28T08:22:40Z</time>
      </trkpt>
      <trkpt lat="40.5373300" lon="-3.8905620">
        <ele>706.8</ele>
        <time>2019-05-28T08:22:41Z</time>
      </trkpt>
      <trkpt lat="40.5372290" lon="-3.8904930">
        <ele>706.0</ele>
        <time>2019-05-28T08:22:43Z</time>
      </trkpt>
      <trkpt lat="40.5371120" lon="-3.8904870">
        <ele>704.4</ele>
        <time>2019-05-28T08:22:45Z</time>
      </trkpt>
      <trkpt lat="40.5370130" lon="-3.8905730">
        <ele>702.6</ele>
        <time>2019-05-28T08:22:47Z</time>
      </trkpt>
      <trkpt lat="40.5369400" lon="-3.8908010">
        <ele>701.8</ele>
        <time>2019-05-28T08:22:50Z</time>
      </trkpt>
      <trkpt lat="40.5369290" lon="-3.8908910">
        <ele>701.8</ele>
        <time>2019-05-28T08:22:51Z</time>
      </trkpt>
      <trkpt lat="40.5368970" lon="-3.8911760">
        <ele>701.8</ele>
        <time>2019-05-28T08:22:54Z</time>
      </trkpt>
      <trkpt lat="40.5368740" lon="-3.8913850">
        <ele>701.4</ele>
        <time>2019-05-28T08:22:56Z</time>
      </trkpt>
      <trkpt lat="40.5368500" lon="-3.8916080">
        <ele>701.2</ele>
        <time>2019-05-28T08:22:58Z</time>
      </trkpt>
      <trkpt lat="40.5367920" lon="-3.8920750">
        <ele>701.2</ele>
        <time>2019-05-28T08:23:02Z</time>
      </trkpt>
      <trkpt lat="40.5366920" lon="-3.8928870">
        <ele>700.6</ele>
        <time>2019-05-28T08:23:09Z</time>
      </trkpt>
      <trkpt lat="40.5365980" lon="-3.8937110">
        <ele>700.4</ele>
        <time>2019-05-28T08:23:16Z</time>
      </trkpt>
      <trkpt lat="40.5365480" lon="-3.8940860">
        <ele>700.4</ele>
        <time>2019-05-28T08:23:19Z</time>
      </trkpt>
      <trkpt lat="40.5365130" lon="-3.8943390">
        <ele>700.2</ele>
        <time>2019-05-28T08:23:21Z</time>
      </trkpt>
      <trkpt lat="40.5364640" lon="-3.8947370">
        <ele>699.2</ele>
        <time>2019-05-28T08:23:24Z</time>
      </trkpt>
      <trkpt lat="40.5364200" lon="-3.8951500">
        <ele>697.8</ele>
        <time>2019-05-28T08:23:27Z</time>
      </trkpt>
      <trkpt lat="40.5363840" lon="-3.8954180">
        <ele>696.8</ele>
        <time>2019-05-28T08:23:29Z</time>
      </trkpt>
      <trkpt lat="40.5363340" lon="-3.8958080">
        <ele>695.8</ele>
        <time>2019-05-28T08:23:32Z</time>
      </trkpt>
      <trkpt lat="40.5362950" lon="-3.8961960">
        <ele>694.6</ele>
        <time>2019-05-28T08:23:35Z</time>
      </trkpt>
      <trkpt lat="40.5362640" lon="-3.8964570">
        <ele>693.6</ele>
        <time>2019-05-28T08:23:37Z</time>
      </trkpt>
      <trkpt lat="40.5361700" lon="-3.8972330">
        <ele>692.8</ele>
        <time>2019-05-28T08:23:43Z</time>
      </trkpt>
      <trkpt lat="40.5361270" lon="-3.8976200">
        <ele>692.6</ele>
        <time>2019-05-28T08:23:46Z</time>
      </trkpt>
      <trkpt lat="40.5360180" lon="-3.8984030">
        <ele>692.2</ele>
        <time>2019-05-28T08:23:52Z</time>
      </trkpt>
      <trkpt lat="40.5359220" lon="-3.8991470">
        <ele>691.4</ele>
        <time>2019-05-28T08:23:58Z</time>
      </trkpt>
      <trkpt lat="40.5359130" lon="-3.8993650">
        <ele>691.4</ele>
        <time>2019-05-28T08:24:00Z</time>
      </trkpt>
      <trkpt lat="40.5362850" lon="-3.8995200">
        <ele>691.0</ele>
        <time>2019-05-28T08:24:06Z</time>
      </trkpt>
      <trkpt lat="40.5365360" lon="-3.8994910">
        <ele>691.0</ele>
        <time>2019-05-28T08:24:09Z</time>
      </trkpt>
      <trkpt lat="40.5368620" lon="-3.8994810">
        <ele>691.0</ele>
        <time>2019-05-28T08:24:13Z</time>
      </trkpt>
      <trkpt lat="40.5374980" lon="-3.8995060">
        <ele>691.0</ele>
        <time>2019-05-28T08:24:21Z</time>
      </trkpt>
      <trkpt lat="40.5380590" lon="-3.8996040">
        <ele>691.0</ele>
        <time>2019-05-28T08:24:28Z</time>
      </trkpt>
      <trkpt lat="40.5383810" lon="-3.8996900">
        <ele>690.8</ele>
        <time>2019-05-28T08:24:32Z</time>
      </trkpt>
      <trkpt lat="40.5385330" lon="-3.8997470">
        <ele>690.6</ele>
        <time>2019-05-28T08:24:34Z</time>
      </trkpt>
      <trkpt lat="40.5386580" lon="-3.8996920">
        <ele>690.2</ele>
        <time>2019-05-28T08:24:36Z</time>
      </trkpt>
      <trkpt lat="40.5387280" lon="-3.8994540">
        <ele>690.0</ele>
        <time>2019-05-28T08:24:39Z</time>
      </trkpt>
      <trkpt lat="40.5388260" lon="-3.8988350">
        <ele>690.2</ele>
        <time>2019-05-28T08:24:46Z</time>
      </trkpt>
      <trkpt lat="40.5388900" lon="-3.8984260">
        <ele>691.2</ele>
        <time>2019-05-28T08:24:51Z</time>
      </trkpt>
      <trkpt lat="40.5389170" lon="-3.8983580">
        <ele>691.4</ele>
        <time>2019-05-28T08:24:52Z</time>
      </trkpt>
      <trkpt lat="40.5391050" lon="-3.8983210">
        <ele>692.0</ele>
        <time>2019-05-28T08:24:56Z</time>
      </trkpt>
      <trkpt lat="40.5391550" lon="-3.8983300">
        <ele>692.6</ele>
        <time>2019-05-28T08:24:57Z</time>
      </trkpt>
      <trkpt lat="40.5392050" lon="-3.8983440">
        <ele>693.0</ele>
        <time>2019-05-28T08:24:58Z</time>
      </trkpt>
      <trkpt lat="40.5393680" lon="-3.8983950">
        <ele>693.8</ele>
        <time>2019-05-28T08:25:01Z</time>
      </trkpt>
      <trkpt lat="40.5394240" lon="-3.8984030">
        <ele>694.0</ele>
        <time>2019-05-28T08:25:02Z</time>
      </trkpt>
      <trkpt lat="40.5396610" lon="-3.8984440">
        <ele>694.8</ele>
        <time>2019-05-28T08:25:06Z</time>
      </trkpt>
      <trkpt lat="40.5398330" lon="-3.8985080">
        <ele>695.4</ele>
        <time>2019-05-28T08:25:09Z</time>
      </trkpt>
      <trkpt lat="40.5398950" lon="-3.8985230">
        <ele>695.6</ele>
        <time>2019-05-28T08:25:10Z</time>
      </trkpt>
      <trkpt lat="40.5399560" lon="-3.8985360">
        <ele>696.0</ele>
        <time>2019-05-28T08:25:11Z</time>
      </trkpt>
      <trkpt lat="40.5400210" lon="-3.8985540">
        <ele>696.2</ele>
        <time>2019-05-28T08:25:12Z</time>
      </trkpt>
      <trkpt lat="40.5402150" lon="-3.8986150">
        <ele>697.0</ele>
        <time>2019-05-28T08:25:15Z</time>
      </trkpt>
      <trkpt lat="40.5402810" lon="-3.8986410">
        <ele>697.4</ele>
        <time>2019-05-28T08:25:16Z</time>
      </trkpt>
      <trkpt lat="40.5403990" lon="-3.8986840">
        <ele>698.0</ele>
        <time>2019-05-28T08:25:18Z</time>
      </trkpt>
      <trkpt lat="40.5404600" lon="-3.8987000">
        <ele>698.2</ele>
        <time>2019-05-28T08:25:19Z</time>
      </trkpt>
      <trkpt lat="40.5405190" lon="-3.8987190">
        <ele>698.4</ele>
        <time>2019-05-28T08:25:20Z</time>
      </trkpt>
      <trkpt lat="40.5407210" lon="-3.8987970">
        <ele>699.2</ele>
        <time>2019-05-28T08:25:24Z</time>
      </trkpt>
      <trkpt lat="40.5414430" lon="-3.8987870">
        <ele>703.4</ele>
        <time>2019-05-28T08:25:45Z</time>
      </trkpt>
      <trkpt lat="40.5414440" lon="-3.8987590">
        <ele>703.4</ele>
        <time>2019-05-28T08:25:46Z</time>
      </trkpt>
      <trkpt lat="40.5414560" lon="-3.8986360">
        <ele>703.2</ele>
        <time>2019-05-28T08:25:48Z</time>
      </trkpt>
      <trkpt lat="40.5415100" lon="-3.8983900">
        <ele>703.2</ele>
        <time>2019-05-28T08:25:52Z</time>
      </trkpt>
      <trkpt lat="40.5415470" lon="-3.8982660">
        <ele>703.2</ele>
        <time>2019-05-28T08:25:54Z</time>
      </trkpt>
      <trkpt lat="40.5416160" lon="-3.8978850">
        <ele>703.6</ele>
        <time>2019-05-28T08:26:00Z</time>
      </trkpt>
      <trkpt lat="40.5418230" lon="-3.8978360">
        <ele>704.0</ele>
        <time>2019-05-28T08:26:06Z</time>
      </trkpt>
      <trkpt lat="40.5418460" lon="-3.8979410">
        <ele>704.4</ele>
        <time>2019-05-28T08:26:09Z</time>
      </trkpt>
      <trkpt lat="40.5418360" lon="-3.8979880">
        <ele>704.8</ele>
        <time>2019-05-28T08:26:10Z</time>
      </trkpt>
      <trkpt lat="40.5417870" lon="-3.8982010">
        <ele>705.6</ele>
        <time>2019-05-28T08:26:14Z</time>
      </trkpt>
      <trkpt lat="40.5417740" lon="-3.8982780">
        <ele>705.6</ele>
        <time>2019-05-28T08:26:16Z</time>
      </trkpt>
      <trkpt lat="40.5417240" lon="-3.8983320">
        <ele>705.8</ele>
        <time>2019-05-28T08:26:44Z</time>
      </trkpt>
      <trkpt lat="40.5417100" lon="-3.8983380">
        <ele>705.8</ele>
        <time>2019-05-28T08:26:45Z</time>
      </trkpt>
    </trkseg>
  </trk>
</gpx>
